<?xml version="1.0" encoding="UTF-8" standalone="no" ?>
<gpx xmlns="http://www.topografix.com/GPX/1/1" xmlns:xsi="http://www.w3.org/2001/XMLSchema-instance" xsi:schemaLocation="http://www.topografix.com/GPX/1/1 http://www.topografix.com/GPX/1/1/gpx.xsd" version="1.1" creator="VisuGPX - https://www.visugpx.com">
  <metadata>
    <name>Circuit Vallon Pont d'Arc Aigueze 2020-09-01</name>
  </metadata>
  <trk>
    <name><![CDATA[TRK-2020-09-01]]></name>
    <trkseg>
      <trkpt lat="44.40999" lon="4.40205">
        <ele>158.63281</ele>
        <time>2020-09-01 09:25:02</time>
      </trkpt>
      <trkpt lat="44.40999" lon="4.40205">
        <ele>158.46167</ele>
        <time>2020-09-01 09:25:06</time>
      </trkpt>
      <trkpt lat="44.40999" lon="4.40206">
        <ele>158.00885</ele>
        <time>2020-09-01 09:25:07</time>
      </trkpt>
      <trkpt lat="44.40999" lon="4.40206">
        <ele>147.69482</ele>
        <time>2020-09-01 09:32:15</time>
      </trkpt>
      <trkpt lat="44.40999" lon="4.40206">
        <ele>147.80084</ele>
        <time>2020-09-01 09:32:17</time>
      </trkpt>
      <trkpt lat="44.40998" lon="4.40204">
        <ele>146.03516</ele>
        <time>2020-09-01 09:32:20</time>
      </trkpt>
      <trkpt lat="44.40998" lon="4.40204">
        <ele>146.07336</ele>
        <time>2020-09-01 09:32:21</time>
      </trkpt>
      <trkpt lat="44.40997" lon="4.40203">
        <ele>146.64209</ele>
        <time>2020-09-01 09:35:47</time>
      </trkpt>
      <trkpt lat="44.40997" lon="4.40201">
        <ele>145.97137</ele>
        <time>2020-09-01 09:35:49</time>
      </trkpt>
      <trkpt lat="44.40997" lon="4.40199">
        <ele>146.2279</ele>
        <time>2020-09-01 09:35:52</time>
      </trkpt>
      <trkpt lat="44.40997" lon="4.40199">
        <ele>143.89832</ele>
        <time>2020-09-01 09:35:53</time>
      </trkpt>
      <trkpt lat="44.40997" lon="4.40199">
        <ele>143.95117</ele>
        <time>2020-09-01 09:35:54</time>
      </trkpt>
      <trkpt lat="44.40997" lon="4.40198">
        <ele>145.70935</ele>
        <time>2020-09-01 09:35:57</time>
      </trkpt>
      <trkpt lat="44.40997" lon="4.40198">
        <ele>146.09753</ele>
        <time>2020-09-01 09:35:58</time>
      </trkpt>
      <trkpt lat="44.40997" lon="4.40196">
        <ele>145.50653</ele>
        <time>2020-09-01 09:36:07</time>
      </trkpt>
      <trkpt lat="44.40997" lon="4.40195">
        <ele>145.7439</ele>
        <time>2020-09-01 09:36:08</time>
      </trkpt>
      <trkpt lat="44.40998" lon="4.40193">
        <ele>146.01459</ele>
        <time>2020-09-01 09:36:17</time>
      </trkpt>
      <trkpt lat="44.40998" lon="4.40189">
        <ele>144.96124</ele>
        <time>2020-09-01 09:36:20</time>
      </trkpt>
      <trkpt lat="44.40999" lon="4.40184">
        <ele>145.26141</ele>
        <time>2020-09-01 09:36:24</time>
      </trkpt>
      <trkpt lat="44.40996" lon="4.40182">
        <ele>144.51318</ele>
        <time>2020-09-01 09:36:27</time>
      </trkpt>
      <trkpt lat="44.40993" lon="4.40183">
        <ele>143.94983</ele>
        <time>2020-09-01 09:36:31</time>
      </trkpt>
      <trkpt lat="44.40992" lon="4.40184">
        <ele>144.92896</ele>
        <time>2020-09-01 09:36:33</time>
      </trkpt>
      <trkpt lat="44.40992" lon="4.40187">
        <ele>142.40033</ele>
        <time>2020-09-01 09:36:36</time>
      </trkpt>
      <trkpt lat="44.40992" lon="4.40188">
        <ele>142.02087</ele>
        <time>2020-09-01 09:36:47</time>
      </trkpt>
      <trkpt lat="44.40993" lon="4.40189">
        <ele>142.7229</ele>
        <time>2020-09-01 09:36:49</time>
      </trkpt>
      <trkpt lat="44.40991" lon="4.40188">
        <ele>146.6626</ele>
        <time>2020-09-01 09:41:44</time>
      </trkpt>
      <trkpt lat="44.40989" lon="4.40189">
        <ele>149.39551</ele>
        <time>2020-09-01 09:43:10</time>
      </trkpt>
      <trkpt lat="44.40988" lon="4.4019">
        <ele>149.69623</ele>
        <time>2020-09-01 09:43:11</time>
      </trkpt>
      <trkpt lat="44.40987" lon="4.40195">
        <ele>150.70435</ele>
        <time>2020-09-01 09:43:13</time>
      </trkpt>
      <trkpt lat="44.40985" lon="4.40212">
        <ele>149.40399</ele>
        <time>2020-09-01 09:43:19</time>
      </trkpt>
      <trkpt lat="44.40984" lon="4.40214">
        <ele>150.31616</ele>
        <time>2020-09-01 09:43:21</time>
      </trkpt>
      <trkpt lat="44.40983" lon="4.40214">
        <ele>150.19946</ele>
        <time>2020-09-01 09:43:23</time>
      </trkpt>
      <trkpt lat="44.4098" lon="4.40215">
        <ele>147.9101</ele>
        <time>2020-09-01 09:43:25</time>
      </trkpt>
      <trkpt lat="44.40971" lon="4.40213">
        <ele>148.9737</ele>
        <time>2020-09-01 09:43:29</time>
      </trkpt>
      <trkpt lat="44.40965" lon="4.40212">
        <ele>149.58246</ele>
        <time>2020-09-01 09:43:31</time>
      </trkpt>
      <trkpt lat="44.40947" lon="4.40208">
        <ele>147.55054</ele>
        <time>2020-09-01 09:43:37</time>
      </trkpt>
      <trkpt lat="44.40924" lon="4.40202">
        <ele>151.24292</ele>
        <time>2020-09-01 09:43:50</time>
      </trkpt>
      <trkpt lat="44.40925" lon="4.40202">
        <ele>151.31519</ele>
        <time>2020-09-01 09:44:15</time>
      </trkpt>
      <trkpt lat="44.40924" lon="4.40201">
        <ele>151.81012</ele>
        <time>2020-09-01 09:44:16</time>
      </trkpt>
      <trkpt lat="44.40923" lon="4.40199">
        <ele>151.42798</ele>
        <time>2020-09-01 09:44:17</time>
      </trkpt>
      <trkpt lat="44.40919" lon="4.40173">
        <ele>150.1391</ele>
        <time>2020-09-01 09:44:25</time>
      </trkpt>
      <trkpt lat="44.40918" lon="4.40165">
        <ele>150.57831</ele>
        <time>2020-09-01 09:44:27</time>
      </trkpt>
      <trkpt lat="44.40916" lon="4.40156">
        <ele>150.85046</ele>
        <time>2020-09-01 09:44:29</time>
      </trkpt>
      <trkpt lat="44.40909" lon="4.40118">
        <ele>153.80273</ele>
        <time>2020-09-01 09:44:37</time>
      </trkpt>
      <trkpt lat="44.40892" lon="4.40013">
        <ele>156.86981</ele>
        <time>2020-09-01 09:44:57</time>
      </trkpt>
      <trkpt lat="44.40884" lon="4.39968">
        <ele>155.79224</ele>
        <time>2020-09-01 09:45:06</time>
      </trkpt>
      <trkpt lat="44.40883" lon="4.39963">
        <ele>154.46619</ele>
        <time>2020-09-01 09:45:07</time>
      </trkpt>
      <trkpt lat="44.40861" lon="4.39821">
        <ele>156.01782</ele>
        <time>2020-09-01 09:45:33</time>
      </trkpt>
      <trkpt lat="44.40852" lon="4.39796">
        <ele>155.82019</ele>
        <time>2020-09-01 09:45:38</time>
      </trkpt>
      <trkpt lat="44.40829" lon="4.39734">
        <ele>152.76025</ele>
        <time>2020-09-01 09:45:50</time>
      </trkpt>
      <trkpt lat="44.40827" lon="4.3973">
        <ele>151.26282</ele>
        <time>2020-09-01 09:45:51</time>
      </trkpt>
      <trkpt lat="44.4082" lon="4.39708">
        <ele>150.77777</ele>
        <time>2020-09-01 09:45:56</time>
      </trkpt>
      <trkpt lat="44.40809" lon="4.39674">
        <ele>150.42834</ele>
        <time>2020-09-01 09:46:04</time>
      </trkpt>
      <trkpt lat="44.40784" lon="4.39633">
        <ele>151.13843</ele>
        <time>2020-09-01 09:46:20</time>
      </trkpt>
      <trkpt lat="44.40779" lon="4.39625">
        <ele>153.86035</ele>
        <time>2020-09-01 09:46:24</time>
      </trkpt>
      <trkpt lat="44.40767" lon="4.3961">
        <ele>158.93732</ele>
        <time>2020-09-01 09:46:34</time>
      </trkpt>
      <trkpt lat="44.40767" lon="4.39612">
        <ele>164.57562</ele>
        <time>2020-09-01 09:47:04</time>
      </trkpt>
      <trkpt lat="44.40766" lon="4.39611">
        <ele>164.12323</ele>
        <time>2020-09-01 09:47:05</time>
      </trkpt>
      <trkpt lat="44.40753" lon="4.39593">
        <ele>164.56683</ele>
        <time>2020-09-01 09:47:12</time>
      </trkpt>
      <trkpt lat="44.40723" lon="4.39552">
        <ele>161.14569</ele>
        <time>2020-09-01 09:47:26</time>
      </trkpt>
      <trkpt lat="44.40721" lon="4.39549">
        <ele>161.5462</ele>
        <time>2020-09-01 09:47:27</time>
      </trkpt>
      <trkpt lat="44.4072" lon="4.39545">
        <ele>160.60333</ele>
        <time>2020-09-01 09:47:28</time>
      </trkpt>
      <trkpt lat="44.40719" lon="4.39538">
        <ele>161.05963</ele>
        <time>2020-09-01 09:47:30</time>
      </trkpt>
      <trkpt lat="44.40717" lon="4.3952">
        <ele>159.0686</ele>
        <time>2020-09-01 09:47:36</time>
      </trkpt>
      <trkpt lat="44.40716" lon="4.39518">
        <ele>158.92401</ele>
        <time>2020-09-01 09:47:37</time>
      </trkpt>
      <trkpt lat="44.40715" lon="4.39517">
        <ele>158.05151</ele>
        <time>2020-09-01 09:47:38</time>
      </trkpt>
      <trkpt lat="44.4071" lon="4.39512">
        <ele>160.39673</ele>
        <time>2020-09-01 09:47:41</time>
      </trkpt>
      <trkpt lat="44.40709" lon="4.3951">
        <ele>162.64893</ele>
        <time>2020-09-01 09:47:42</time>
      </trkpt>
      <trkpt lat="44.40702" lon="4.39494">
        <ele>161.23682</ele>
        <time>2020-09-01 09:47:47</time>
      </trkpt>
      <trkpt lat="44.40635" lon="4.39415">
        <ele>165.65894</ele>
        <time>2020-09-01 09:48:08</time>
      </trkpt>
      <trkpt lat="44.40632" lon="4.39412">
        <ele>166.8031</ele>
        <time>2020-09-01 09:48:09</time>
      </trkpt>
      <trkpt lat="44.40628" lon="4.39409">
        <ele>165.85779</ele>
        <time>2020-09-01 09:48:10</time>
      </trkpt>
      <trkpt lat="44.4062" lon="4.39405">
        <ele>165.78418</ele>
        <time>2020-09-01 09:48:12</time>
      </trkpt>
      <trkpt lat="44.40612" lon="4.394">
        <ele>166.82104</ele>
        <time>2020-09-01 09:48:14</time>
      </trkpt>
      <trkpt lat="44.40604" lon="4.39397">
        <ele>167.58582</ele>
        <time>2020-09-01 09:48:16</time>
      </trkpt>
      <trkpt lat="44.40595" lon="4.39391">
        <ele>168.66174</ele>
        <time>2020-09-01 09:48:19</time>
      </trkpt>
      <trkpt lat="44.40583" lon="4.39384">
        <ele>167.4965</ele>
        <time>2020-09-01 09:48:22</time>
      </trkpt>
      <trkpt lat="44.40556" lon="4.39369">
        <ele>165.18921</ele>
        <time>2020-09-01 09:48:30</time>
      </trkpt>
      <trkpt lat="44.40532" lon="4.39352">
        <ele>168.85858</ele>
        <time>2020-09-01 09:48:37</time>
      </trkpt>
      <trkpt lat="44.40519" lon="4.39346">
        <ele>167.7273</ele>
        <time>2020-09-01 09:48:40</time>
      </trkpt>
      <trkpt lat="44.4049" lon="4.39327">
        <ele>166.6847</ele>
        <time>2020-09-01 09:48:47</time>
      </trkpt>
      <trkpt lat="44.40433" lon="4.39296">
        <ele>157.97339</ele>
        <time>2020-09-01 09:48:59</time>
      </trkpt>
      <trkpt lat="44.40425" lon="4.3929">
        <ele>155.11523</ele>
        <time>2020-09-01 09:49:01</time>
      </trkpt>
      <trkpt lat="44.40393" lon="4.39269">
        <ele>154.89099</ele>
        <time>2020-09-01 09:49:09</time>
      </trkpt>
      <trkpt lat="44.40284" lon="4.39196">
        <ele>157.94543</ele>
        <time>2020-09-01 09:49:35</time>
      </trkpt>
      <trkpt lat="44.40236" lon="4.39142">
        <ele>157.90887</ele>
        <time>2020-09-01 09:49:47</time>
      </trkpt>
      <trkpt lat="44.40161" lon="4.39009">
        <ele>159.10547</ele>
        <time>2020-09-01 09:50:08</time>
      </trkpt>
      <trkpt lat="44.40125" lon="4.38947">
        <ele>159.16162</ele>
        <time>2020-09-01 09:50:18</time>
      </trkpt>
      <trkpt lat="44.40056" lon="4.38823">
        <ele>154.4447</ele>
        <time>2020-09-01 09:50:38</time>
      </trkpt>
      <trkpt lat="44.40053" lon="4.38812">
        <ele>155.00586</ele>
        <time>2020-09-01 09:50:40</time>
      </trkpt>
      <trkpt lat="44.40053" lon="4.38806">
        <ele>156.31812</ele>
        <time>2020-09-01 09:50:41</time>
      </trkpt>
      <trkpt lat="44.40053" lon="4.38804">
        <ele>155.9389</ele>
        <time>2020-09-01 09:50:42</time>
      </trkpt>
      <trkpt lat="44.40053" lon="4.38801">
        <ele>157.22546</ele>
        <time>2020-09-01 09:50:44</time>
      </trkpt>
      <trkpt lat="44.40053" lon="4.38799">
        <ele>157.5857</ele>
        <time>2020-09-01 09:50:45</time>
      </trkpt>
      <trkpt lat="44.40054" lon="4.38796">
        <ele>159.27911</ele>
        <time>2020-09-01 09:50:46</time>
      </trkpt>
      <trkpt lat="44.40057" lon="4.38779">
        <ele>157.48828</ele>
        <time>2020-09-01 09:50:51</time>
      </trkpt>
      <trkpt lat="44.40057" lon="4.38776">
        <ele>157.53455</ele>
        <time>2020-09-01 09:50:52</time>
      </trkpt>
      <trkpt lat="44.40057" lon="4.38771">
        <ele>158.73645</ele>
        <time>2020-09-01 09:50:53</time>
      </trkpt>
      <trkpt lat="44.40055" lon="4.38767">
        <ele>159.51538</ele>
        <time>2020-09-01 09:50:54</time>
      </trkpt>
      <trkpt lat="44.40053" lon="4.38764">
        <ele>159.38037</ele>
        <time>2020-09-01 09:50:55</time>
      </trkpt>
      <trkpt lat="44.40051" lon="4.38761">
        <ele>158.45477</ele>
        <time>2020-09-01 09:50:56</time>
      </trkpt>
      <trkpt lat="44.40043" lon="4.38758">
        <ele>156.76282</ele>
        <time>2020-09-01 09:50:58</time>
      </trkpt>
      <trkpt lat="44.40038" lon="4.38758">
        <ele>157.80505</ele>
        <time>2020-09-01 09:50:59</time>
      </trkpt>
      <trkpt lat="44.40029" lon="4.38755">
        <ele>158.0086</ele>
        <time>2020-09-01 09:51:01</time>
      </trkpt>
      <trkpt lat="44.40025" lon="4.38753">
        <ele>158.73645</ele>
        <time>2020-09-01 09:51:02</time>
      </trkpt>
      <trkpt lat="44.40015" lon="4.38744">
        <ele>157.42932</ele>
        <time>2020-09-01 09:51:04</time>
      </trkpt>
      <trkpt lat="44.40006" lon="4.38732">
        <ele>156.52838</ele>
        <time>2020-09-01 09:51:06</time>
      </trkpt>
      <trkpt lat="44.39993" lon="4.38712">
        <ele>155.35254</ele>
        <time>2020-09-01 09:51:09</time>
      </trkpt>
      <trkpt lat="44.39872" lon="4.38499">
        <ele>151.55646</ele>
        <time>2020-09-01 09:51:39</time>
      </trkpt>
      <trkpt lat="44.39741" lon="4.3827">
        <ele>144.53473</ele>
        <time>2020-09-01 09:52:09</time>
      </trkpt>
      <trkpt lat="44.39736" lon="4.38259">
        <ele>143.41833</ele>
        <time>2020-09-01 09:52:10</time>
      </trkpt>
      <trkpt lat="44.39725" lon="4.38228">
        <ele>143.74817</ele>
        <time>2020-09-01 09:52:13</time>
      </trkpt>
      <trkpt lat="44.39719" lon="4.38221">
        <ele>143.09906</ele>
        <time>2020-09-01 09:52:14</time>
      </trkpt>
      <trkpt lat="44.397" lon="4.38198">
        <ele>141.04504</ele>
        <time>2020-09-01 09:52:17</time>
      </trkpt>
      <trkpt lat="44.39625" lon="4.38065">
        <ele>140.93042</ele>
        <time>2020-09-01 09:52:37</time>
      </trkpt>
      <trkpt lat="44.39547" lon="4.37926">
        <ele>144.23853</ele>
        <time>2020-09-01 09:53:07</time>
      </trkpt>
      <trkpt lat="44.39518" lon="4.37881">
        <ele>145.58716</ele>
        <time>2020-09-01 09:53:19</time>
      </trkpt>
      <trkpt lat="44.3951" lon="4.37872">
        <ele>147.3432</ele>
        <time>2020-09-01 09:53:22</time>
      </trkpt>
      <trkpt lat="44.39503" lon="4.37867">
        <ele>144.37018</ele>
        <time>2020-09-01 09:53:24</time>
      </trkpt>
      <trkpt lat="44.39489" lon="4.37862">
        <ele>144.87042</ele>
        <time>2020-09-01 09:53:28</time>
      </trkpt>
      <trkpt lat="44.39452" lon="4.3786">
        <ele>146.53625</ele>
        <time>2020-09-01 09:53:38</time>
      </trkpt>
      <trkpt lat="44.39444" lon="4.3786">
        <ele>146.24097</ele>
        <time>2020-09-01 09:53:40</time>
      </trkpt>
      <trkpt lat="44.39433" lon="4.37863">
        <ele>147.06812</ele>
        <time>2020-09-01 09:53:43</time>
      </trkpt>
      <trkpt lat="44.39421" lon="4.37872">
        <ele>150.81897</ele>
        <time>2020-09-01 09:53:47</time>
      </trkpt>
      <trkpt lat="44.39418" lon="4.37874">
        <ele>150.91309</ele>
        <time>2020-09-01 09:53:48</time>
      </trkpt>
      <trkpt lat="44.39384" lon="4.37882">
        <ele>148.95673</ele>
        <time>2020-09-01 09:53:55</time>
      </trkpt>
      <trkpt lat="44.39379" lon="4.37882">
        <ele>148.30634</ele>
        <time>2020-09-01 09:53:56</time>
      </trkpt>
      <trkpt lat="44.3936" lon="4.37886">
        <ele>147.87933</ele>
        <time>2020-09-01 09:54:00</time>
      </trkpt>
      <trkpt lat="44.39356" lon="4.37885">
        <ele>147.31946</ele>
        <time>2020-09-01 09:54:01</time>
      </trkpt>
      <trkpt lat="44.39334" lon="4.37877">
        <ele>147.88782</ele>
        <time>2020-09-01 09:54:06</time>
      </trkpt>
      <trkpt lat="44.3933" lon="4.37875">
        <ele>147.50623</ele>
        <time>2020-09-01 09:54:07</time>
      </trkpt>
      <trkpt lat="44.39326" lon="4.37872">
        <ele>147.82648</ele>
        <time>2020-09-01 09:54:08</time>
      </trkpt>
      <trkpt lat="44.39283" lon="4.3785">
        <ele>149.92108</ele>
        <time>2020-09-01 09:54:21</time>
      </trkpt>
      <trkpt lat="44.39275" lon="4.37841">
        <ele>149.617</ele>
        <time>2020-09-01 09:54:24</time>
      </trkpt>
      <trkpt lat="44.39268" lon="4.37832">
        <ele>149.9784</ele>
        <time>2020-09-01 09:54:27</time>
      </trkpt>
      <trkpt lat="44.39238" lon="4.37784">
        <ele>151.06165</ele>
        <time>2020-09-01 09:54:42</time>
      </trkpt>
      <trkpt lat="44.39231" lon="4.37776">
        <ele>155.95618</ele>
        <time>2020-09-01 09:54:45</time>
      </trkpt>
      <trkpt lat="44.39217" lon="4.37765">
        <ele>156.07959</ele>
        <time>2020-09-01 09:54:50</time>
      </trkpt>
      <trkpt lat="44.39183" lon="4.37741">
        <ele>159.73926</ele>
        <time>2020-09-01 09:55:03</time>
      </trkpt>
      <trkpt lat="44.39169" lon="4.37735">
        <ele>160.16724</ele>
        <time>2020-09-01 09:55:08</time>
      </trkpt>
      <trkpt lat="44.39144" lon="4.37727">
        <ele>158.37683</ele>
        <time>2020-09-01 09:55:17</time>
      </trkpt>
      <trkpt lat="44.39115" lon="4.37713">
        <ele>157.55762</ele>
        <time>2020-09-01 09:55:27</time>
      </trkpt>
      <trkpt lat="44.39105" lon="4.37703">
        <ele>156.17212</ele>
        <time>2020-09-01 09:55:31</time>
      </trkpt>
      <trkpt lat="44.39087" lon="4.37683">
        <ele>158.487</ele>
        <time>2020-09-01 09:55:39</time>
      </trkpt>
      <trkpt lat="44.39076" lon="4.37676">
        <ele>157.66125</ele>
        <time>2020-09-01 09:55:43</time>
      </trkpt>
      <trkpt lat="44.3907" lon="4.37675">
        <ele>155.84961</ele>
        <time>2020-09-01 09:55:45</time>
      </trkpt>
      <trkpt lat="44.39062" lon="4.37672">
        <ele>157.7893</ele>
        <time>2020-09-01 09:55:48</time>
      </trkpt>
      <trkpt lat="44.39057" lon="4.3767">
        <ele>159.58667</ele>
        <time>2020-09-01 09:55:50</time>
      </trkpt>
      <trkpt lat="44.39046" lon="4.37666">
        <ele>164.22522</ele>
        <time>2020-09-01 09:55:55</time>
      </trkpt>
      <trkpt lat="44.39044" lon="4.37665">
        <ele>163.49817</ele>
        <time>2020-09-01 09:55:56</time>
      </trkpt>
      <trkpt lat="44.3903" lon="4.3766">
        <ele>162.58875</ele>
        <time>2020-09-01 09:56:02</time>
      </trkpt>
      <trkpt lat="44.39025" lon="4.37658">
        <ele>165.59326</ele>
        <time>2020-09-01 09:56:04</time>
      </trkpt>
      <trkpt lat="44.39011" lon="4.37657">
        <ele>166.7915</ele>
        <time>2020-09-01 09:56:09</time>
      </trkpt>
      <trkpt lat="44.38946" lon="4.37627">
        <ele>160.54706</ele>
        <time>2020-09-01 09:56:32</time>
      </trkpt>
      <trkpt lat="44.38941" lon="4.37625">
        <ele>158.81396</ele>
        <time>2020-09-01 09:56:34</time>
      </trkpt>
      <trkpt lat="44.38926" lon="4.37617">
        <ele>160.29272</ele>
        <time>2020-09-01 09:56:40</time>
      </trkpt>
      <trkpt lat="44.38919" lon="4.37614">
        <ele>161.2904</ele>
        <time>2020-09-01 09:56:43</time>
      </trkpt>
      <trkpt lat="44.38863" lon="4.37596">
        <ele>170.31189</ele>
        <time>2020-09-01 09:57:04</time>
      </trkpt>
      <trkpt lat="44.38849" lon="4.37596">
        <ele>170.70892</ele>
        <time>2020-09-01 09:57:09</time>
      </trkpt>
      <trkpt lat="44.38843" lon="4.37597">
        <ele>170.1596</ele>
        <time>2020-09-01 09:57:11</time>
      </trkpt>
      <trkpt lat="44.38841" lon="4.37597">
        <ele>169.00494</ele>
        <time>2020-09-01 09:57:12</time>
      </trkpt>
      <trkpt lat="44.38835" lon="4.37599">
        <ele>171.85986</ele>
        <time>2020-09-01 09:57:14</time>
      </trkpt>
      <trkpt lat="44.38826" lon="4.37603">
        <ele>174.4751</ele>
        <time>2020-09-01 09:57:18</time>
      </trkpt>
      <trkpt lat="44.38818" lon="4.37608">
        <ele>174.53387</ele>
        <time>2020-09-01 09:57:21</time>
      </trkpt>
      <trkpt lat="44.38813" lon="4.37612">
        <ele>175.12262</ele>
        <time>2020-09-01 09:57:23</time>
      </trkpt>
      <trkpt lat="44.38811" lon="4.37614">
        <ele>175.60706</ele>
        <time>2020-09-01 09:57:24</time>
      </trkpt>
      <trkpt lat="44.38801" lon="4.37629">
        <ele>177.4364</ele>
        <time>2020-09-01 09:57:29</time>
      </trkpt>
      <trkpt lat="44.38793" lon="4.37645">
        <ele>180.32117</ele>
        <time>2020-09-01 09:57:34</time>
      </trkpt>
      <trkpt lat="44.38787" lon="4.37659">
        <ele>180.93744</ele>
        <time>2020-09-01 09:57:38</time>
      </trkpt>
      <trkpt lat="44.38775" lon="4.37686">
        <ele>182.34149</ele>
        <time>2020-09-01 09:57:46</time>
      </trkpt>
      <trkpt lat="44.38771" lon="4.37692">
        <ele>183.01508</ele>
        <time>2020-09-01 09:57:48</time>
      </trkpt>
      <trkpt lat="44.3876" lon="4.37701">
        <ele>181.63171</ele>
        <time>2020-09-01 09:57:52</time>
      </trkpt>
      <trkpt lat="44.38755" lon="4.37704">
        <ele>184.1571</ele>
        <time>2020-09-01 09:57:54</time>
      </trkpt>
      <trkpt lat="44.3874" lon="4.37712">
        <ele>186.70392</ele>
        <time>2020-09-01 09:58:00</time>
      </trkpt>
      <trkpt lat="44.38728" lon="4.37715">
        <ele>187.99158</ele>
        <time>2020-09-01 09:58:05</time>
      </trkpt>
      <trkpt lat="44.38713" lon="4.37714">
        <ele>188.78033</ele>
        <time>2020-09-01 09:58:10</time>
      </trkpt>
      <trkpt lat="44.38691" lon="4.37706">
        <ele>187.33551</ele>
        <time>2020-09-01 09:58:18</time>
      </trkpt>
      <trkpt lat="44.38666" lon="4.37696">
        <ele>187.5138</ele>
        <time>2020-09-01 09:58:27</time>
      </trkpt>
      <trkpt lat="44.38661" lon="4.37694">
        <ele>190.2315</ele>
        <time>2020-09-01 09:58:29</time>
      </trkpt>
      <trkpt lat="44.38595" lon="4.37669">
        <ele>190.15186</ele>
        <time>2020-09-01 09:58:52</time>
      </trkpt>
      <trkpt lat="44.3859" lon="4.37667">
        <ele>186.5556</ele>
        <time>2020-09-01 09:58:54</time>
      </trkpt>
      <trkpt lat="44.38587" lon="4.37666">
        <ele>184.71252</ele>
        <time>2020-09-01 09:58:55</time>
      </trkpt>
      <trkpt lat="44.38569" lon="4.37658">
        <ele>185.6643</ele>
        <time>2020-09-01 09:59:03</time>
      </trkpt>
      <trkpt lat="44.38566" lon="4.37657">
        <ele>185.7951</ele>
        <time>2020-09-01 09:59:04</time>
      </trkpt>
      <trkpt lat="44.38564" lon="4.37657">
        <ele>184.52771</ele>
        <time>2020-09-01 09:59:05</time>
      </trkpt>
      <trkpt lat="44.38559" lon="4.37655">
        <ele>183.52081</ele>
        <time>2020-09-01 09:59:07</time>
      </trkpt>
      <trkpt lat="44.38557" lon="4.37654">
        <ele>182.25464</ele>
        <time>2020-09-01 09:59:08</time>
      </trkpt>
      <trkpt lat="44.38488" lon="4.3763">
        <ele>189.19092</ele>
        <time>2020-09-01 09:59:38</time>
      </trkpt>
      <trkpt lat="44.38456" lon="4.37618">
        <ele>191.25745</ele>
        <time>2020-09-01 09:59:49</time>
      </trkpt>
      <trkpt lat="44.38453" lon="4.37616">
        <ele>192.48389</ele>
        <time>2020-09-01 09:59:50</time>
      </trkpt>
      <trkpt lat="44.38428" lon="4.37598">
        <ele>195.09143</ele>
        <time>2020-09-01 10:00:00</time>
      </trkpt>
      <trkpt lat="44.38412" lon="4.37586">
        <ele>195.4458</ele>
        <time>2020-09-01 10:00:06</time>
      </trkpt>
      <trkpt lat="44.38331" lon="4.3753">
        <ele>199.18658</ele>
        <time>2020-09-01 10:00:35</time>
      </trkpt>
      <trkpt lat="44.38325" lon="4.37526">
        <ele>199.63794</ele>
        <time>2020-09-01 10:00:37</time>
      </trkpt>
      <trkpt lat="44.38282" lon="4.37474">
        <ele>203.8728</ele>
        <time>2020-09-01 10:00:55</time>
      </trkpt>
      <trkpt lat="44.38248" lon="4.37427">
        <ele>207.42957</ele>
        <time>2020-09-01 10:01:11</time>
      </trkpt>
      <trkpt lat="44.38234" lon="4.37412">
        <ele>208.27173</ele>
        <time>2020-09-01 10:01:17</time>
      </trkpt>
      <trkpt lat="44.3822" lon="4.37402">
        <ele>206.73407</ele>
        <time>2020-09-01 10:01:22</time>
      </trkpt>
      <trkpt lat="44.38124" lon="4.37334">
        <ele>209.17249</ele>
        <time>2020-09-01 10:01:52</time>
      </trkpt>
      <trkpt lat="44.38121" lon="4.37332">
        <ele>209.58337</ele>
        <time>2020-09-01 10:01:53</time>
      </trkpt>
      <trkpt lat="44.38018" lon="4.37249">
        <ele>207.67181</ele>
        <time>2020-09-01 10:02:23</time>
      </trkpt>
      <trkpt lat="44.38" lon="4.37234">
        <ele>206.26526</ele>
        <time>2020-09-01 10:02:28</time>
      </trkpt>
      <trkpt lat="44.37996" lon="4.37232">
        <ele>207.27618</ele>
        <time>2020-09-01 10:02:29</time>
      </trkpt>
      <trkpt lat="44.37961" lon="4.37204">
        <ele>210.90125</ele>
        <time>2020-09-01 10:02:39</time>
      </trkpt>
      <trkpt lat="44.37954" lon="4.37197">
        <ele>210.58752</ele>
        <time>2020-09-01 10:02:41</time>
      </trkpt>
      <trkpt lat="44.37842" lon="4.37111">
        <ele>211.3739</ele>
        <time>2020-09-01 10:03:09</time>
      </trkpt>
      <trkpt lat="44.37812" lon="4.37096">
        <ele>209.29315</ele>
        <time>2020-09-01 10:03:17</time>
      </trkpt>
      <trkpt lat="44.3781" lon="4.37094">
        <ele>207.97717</ele>
        <time>2020-09-01 10:03:18</time>
      </trkpt>
      <trkpt lat="44.37808" lon="4.37092">
        <ele>208.05115</ele>
        <time>2020-09-01 10:03:19</time>
      </trkpt>
      <trkpt lat="44.37804" lon="4.37089">
        <ele>209.06696</ele>
        <time>2020-09-01 10:03:23</time>
      </trkpt>
      <trkpt lat="44.37804" lon="4.3709">
        <ele>209.48291</ele>
        <time>2020-09-01 10:03:26</time>
      </trkpt>
      <trkpt lat="44.37804" lon="4.37091">
        <ele>209.30005</ele>
        <time>2020-09-01 10:03:27</time>
      </trkpt>
      <trkpt lat="44.37804" lon="4.37092">
        <ele>211.4093</ele>
        <time>2020-09-01 10:03:35</time>
      </trkpt>
      <trkpt lat="44.37747" lon="4.37055">
        <ele>211.32898</ele>
        <time>2020-09-01 10:03:51</time>
      </trkpt>
      <trkpt lat="44.37741" lon="4.37053">
        <ele>211.17781</ele>
        <time>2020-09-01 10:03:52</time>
      </trkpt>
      <trkpt lat="44.37727" lon="4.37053">
        <ele>208.77075</ele>
        <time>2020-09-01 10:03:54</time>
      </trkpt>
      <trkpt lat="44.3772" lon="4.37055">
        <ele>208.85718</ele>
        <time>2020-09-01 10:03:55</time>
      </trkpt>
      <trkpt lat="44.37706" lon="4.3706">
        <ele>208.36487</ele>
        <time>2020-09-01 10:03:57</time>
      </trkpt>
      <trkpt lat="44.37693" lon="4.37071">
        <ele>208.88098</ele>
        <time>2020-09-01 10:03:59</time>
      </trkpt>
      <trkpt lat="44.37644" lon="4.37108">
        <ele>210.49133</ele>
        <time>2020-09-01 10:04:06</time>
      </trkpt>
      <trkpt lat="44.37624" lon="4.37114">
        <ele>209.0321</ele>
        <time>2020-09-01 10:04:09</time>
      </trkpt>
      <trkpt lat="44.37597" lon="4.37115">
        <ele>210.69885</ele>
        <time>2020-09-01 10:04:13</time>
      </trkpt>
      <trkpt lat="44.37585" lon="4.37115">
        <ele>211.69763</ele>
        <time>2020-09-01 10:04:15</time>
      </trkpt>
      <trkpt lat="44.37564" lon="4.3711">
        <ele>213.73682</ele>
        <time>2020-09-01 10:04:19</time>
      </trkpt>
      <trkpt lat="44.3755" lon="4.37102">
        <ele>210.69885</ele>
        <time>2020-09-01 10:04:22</time>
      </trkpt>
      <trkpt lat="44.37481" lon="4.37061">
        <ele>212.95752</ele>
        <time>2020-09-01 10:04:35</time>
      </trkpt>
      <trkpt lat="44.37458" lon="4.37054">
        <ele>215.06299</ele>
        <time>2020-09-01 10:04:39</time>
      </trkpt>
      <trkpt lat="44.37441" lon="4.37051">
        <ele>213.29187</ele>
        <time>2020-09-01 10:04:42</time>
      </trkpt>
      <trkpt lat="44.37286" lon="4.37068">
        <ele>219.91003</ele>
        <time>2020-09-01 10:05:07</time>
      </trkpt>
      <trkpt lat="44.37265" lon="4.37062">
        <ele>218.56793</ele>
        <time>2020-09-01 10:05:11</time>
      </trkpt>
      <trkpt lat="44.37245" lon="4.37052">
        <ele>217.30133</ele>
        <time>2020-09-01 10:05:15</time>
      </trkpt>
      <trkpt lat="44.37204" lon="4.37019">
        <ele>215.93561</ele>
        <time>2020-09-01 10:05:23</time>
      </trkpt>
      <trkpt lat="44.37169" lon="4.36986">
        <ele>217.46045</ele>
        <time>2020-09-01 10:05:31</time>
      </trkpt>
      <trkpt lat="44.37147" lon="4.3697">
        <ele>214.53357</ele>
        <time>2020-09-01 10:05:36</time>
      </trkpt>
      <trkpt lat="44.36987" lon="4.36888">
        <ele>211.02838</ele>
        <time>2020-09-01 10:06:06</time>
      </trkpt>
      <trkpt lat="44.36884" lon="4.36835">
        <ele>216.9118</ele>
        <time>2020-09-01 10:06:28</time>
      </trkpt>
      <trkpt lat="44.36793" lon="4.36765">
        <ele>217.474</ele>
        <time>2020-09-01 10:06:48</time>
      </trkpt>
      <trkpt lat="44.36789" lon="4.36765">
        <ele>216.97119</ele>
        <time>2020-09-01 10:06:49</time>
      </trkpt>
      <trkpt lat="44.36786" lon="4.36767">
        <ele>218.65527</ele>
        <time>2020-09-01 10:06:50</time>
      </trkpt>
      <trkpt lat="44.36784" lon="4.36771">
        <ele>219.48145</ele>
        <time>2020-09-01 10:06:51</time>
      </trkpt>
      <trkpt lat="44.3678" lon="4.36779">
        <ele>219.06079</ele>
        <time>2020-09-01 10:06:55</time>
      </trkpt>
      <trkpt lat="44.36779" lon="4.36779">
        <ele>219.78033</ele>
        <time>2020-09-01 10:07:31</time>
      </trkpt>
      <trkpt lat="44.36779" lon="4.36781">
        <ele>219.57806</ele>
        <time>2020-09-01 10:07:33</time>
      </trkpt>
      <trkpt lat="44.36779" lon="4.36782">
        <ele>219.76068</ele>
        <time>2020-09-01 10:07:34</time>
      </trkpt>
      <trkpt lat="44.36775" lon="4.3679">
        <ele>222.25537</ele>
        <time>2020-09-01 10:07:40</time>
      </trkpt>
      <trkpt lat="44.36775" lon="4.36792">
        <ele>223.52875</ele>
        <time>2020-09-01 10:07:41</time>
      </trkpt>
      <trkpt lat="44.36774" lon="4.36795">
        <ele>224.6889</ele>
        <time>2020-09-01 10:07:43</time>
      </trkpt>
      <trkpt lat="44.36774" lon="4.36796">
        <ele>225.35992</ele>
        <time>2020-09-01 10:07:44</time>
      </trkpt>
      <trkpt lat="44.36772" lon="4.36797">
        <ele>224.11218</ele>
        <time>2020-09-01 10:08:14</time>
      </trkpt>
      <trkpt lat="44.36772" lon="4.36797">
        <ele>224.26917</ele>
        <time>2020-09-01 10:08:47</time>
      </trkpt>
      <trkpt lat="44.36772" lon="4.36798">
        <ele>224.40692</ele>
        <time>2020-09-01 10:08:56</time>
      </trkpt>
      <trkpt lat="44.36771" lon="4.36799">
        <ele>224.25995</ele>
        <time>2020-09-01 10:08:57</time>
      </trkpt>
      <trkpt lat="44.36769" lon="4.36805">
        <ele>223.80676</ele>
        <time>2020-09-01 10:09:00</time>
      </trkpt>
      <trkpt lat="44.36767" lon="4.3681">
        <ele>224.26526</ele>
        <time>2020-09-01 10:09:02</time>
      </trkpt>
      <trkpt lat="44.36766" lon="4.36812">
        <ele>224.58844</ele>
        <time>2020-09-01 10:09:03</time>
      </trkpt>
      <trkpt lat="44.36747" lon="4.36844">
        <ele>225.3573</ele>
        <time>2020-09-01 10:09:14</time>
      </trkpt>
      <trkpt lat="44.36706" lon="4.36912">
        <ele>227.92688</ele>
        <time>2020-09-01 10:09:36</time>
      </trkpt>
      <trkpt lat="44.36697" lon="4.36922">
        <ele>228.97748</ele>
        <time>2020-09-01 10:09:40</time>
      </trkpt>
      <trkpt lat="44.36664" lon="4.36953">
        <ele>232.91766</ele>
        <time>2020-09-01 10:09:54</time>
      </trkpt>
      <trkpt lat="44.36646" lon="4.36968">
        <ele>234.1958</ele>
        <time>2020-09-01 10:10:01</time>
      </trkpt>
      <trkpt lat="44.36639" lon="4.36975">
        <ele>235.0669</ele>
        <time>2020-09-01 10:10:04</time>
      </trkpt>
      <trkpt lat="44.36623" lon="4.36982">
        <ele>238.01276</ele>
        <time>2020-09-01 10:10:10</time>
      </trkpt>
      <trkpt lat="44.36611" lon="4.36983">
        <ele>238.04333</ele>
        <time>2020-09-01 10:10:14</time>
      </trkpt>
      <trkpt lat="44.36599" lon="4.3698">
        <ele>237.67053</ele>
        <time>2020-09-01 10:10:18</time>
      </trkpt>
      <trkpt lat="44.3659" lon="4.36976">
        <ele>237.65155</ele>
        <time>2020-09-01 10:10:21</time>
      </trkpt>
      <trkpt lat="44.36562" lon="4.36956">
        <ele>239.46228</ele>
        <time>2020-09-01 10:10:31</time>
      </trkpt>
      <trkpt lat="44.36528" lon="4.36931">
        <ele>241.54602</ele>
        <time>2020-09-01 10:10:43</time>
      </trkpt>
      <trkpt lat="44.36507" lon="4.36922">
        <ele>241.40283</ele>
        <time>2020-09-01 10:10:50</time>
      </trkpt>
      <trkpt lat="44.36417" lon="4.36907">
        <ele>241.91296</ele>
        <time>2020-09-01 10:11:20</time>
      </trkpt>
      <trkpt lat="44.36339" lon="4.36894">
        <ele>247.487</ele>
        <time>2020-09-01 10:11:46</time>
      </trkpt>
      <trkpt lat="44.36334" lon="4.36895">
        <ele>247.25916</ele>
        <time>2020-09-01 10:11:48</time>
      </trkpt>
      <trkpt lat="44.36328" lon="4.36898">
        <ele>247.09656</ele>
        <time>2020-09-01 10:11:50</time>
      </trkpt>
      <trkpt lat="44.36324" lon="4.36901">
        <ele>246.42883</ele>
        <time>2020-09-01 10:11:52</time>
      </trkpt>
      <trkpt lat="44.36316" lon="4.36907">
        <ele>248.33911</ele>
        <time>2020-09-01 10:11:55</time>
      </trkpt>
      <trkpt lat="44.3631" lon="4.36917">
        <ele>247.72937</ele>
        <time>2020-09-01 10:11:58</time>
      </trkpt>
      <trkpt lat="44.36298" lon="4.36939">
        <ele>248.4643</ele>
        <time>2020-09-01 10:12:04</time>
      </trkpt>
      <trkpt lat="44.36295" lon="4.36943">
        <ele>248.34534</ele>
        <time>2020-09-01 10:12:05</time>
      </trkpt>
      <trkpt lat="44.3628" lon="4.36963">
        <ele>247.92163</ele>
        <time>2020-09-01 10:12:11</time>
      </trkpt>
      <trkpt lat="44.36277" lon="4.36966">
        <ele>249.40947</ele>
        <time>2020-09-01 10:12:12</time>
      </trkpt>
      <trkpt lat="44.36272" lon="4.36971">
        <ele>247.81787</ele>
        <time>2020-09-01 10:12:14</time>
      </trkpt>
      <trkpt lat="44.36263" lon="4.36978">
        <ele>247.6037</ele>
        <time>2020-09-01 10:12:17</time>
      </trkpt>
      <trkpt lat="44.36225" lon="4.36997">
        <ele>250.3844</ele>
        <time>2020-09-01 10:12:28</time>
      </trkpt>
      <trkpt lat="44.36205" lon="4.37005">
        <ele>252.57837</ele>
        <time>2020-09-01 10:12:34</time>
      </trkpt>
      <trkpt lat="44.36174" lon="4.37021">
        <ele>254.34882</ele>
        <time>2020-09-01 10:12:43</time>
      </trkpt>
      <trkpt lat="44.36164" lon="4.37027">
        <ele>256.16125</ele>
        <time>2020-09-01 10:12:46</time>
      </trkpt>
      <trkpt lat="44.36137" lon="4.37039">
        <ele>257.73938</ele>
        <time>2020-09-01 10:12:54</time>
      </trkpt>
      <trkpt lat="44.36133" lon="4.3704">
        <ele>258.76343</ele>
        <time>2020-09-01 10:12:55</time>
      </trkpt>
      <trkpt lat="44.36073" lon="4.37064">
        <ele>263.2367</ele>
        <time>2020-09-01 10:13:12</time>
      </trkpt>
      <trkpt lat="44.36051" lon="4.3708">
        <ele>264.3922</ele>
        <time>2020-09-01 10:13:19</time>
      </trkpt>
      <trkpt lat="44.36039" lon="4.37092">
        <ele>263.90332</ele>
        <time>2020-09-01 10:13:23</time>
      </trkpt>
      <trkpt lat="44.3602" lon="4.37116">
        <ele>263.2213</ele>
        <time>2020-09-01 10:13:30</time>
      </trkpt>
      <trkpt lat="44.35979" lon="4.37178">
        <ele>266.00513</ele>
        <time>2020-09-01 10:13:45</time>
      </trkpt>
      <trkpt lat="44.35974" lon="4.37186">
        <ele>266.255</ele>
        <time>2020-09-01 10:13:47</time>
      </trkpt>
      <trkpt lat="44.35966" lon="4.37197">
        <ele>266.7129</ele>
        <time>2020-09-01 10:13:50</time>
      </trkpt>
      <trkpt lat="44.35943" lon="4.3723">
        <ele>269.16663</ele>
        <time>2020-09-01 10:13:59</time>
      </trkpt>
      <trkpt lat="44.3592" lon="4.37263">
        <ele>271.51294</ele>
        <time>2020-09-01 10:14:08</time>
      </trkpt>
      <trkpt lat="44.35858" lon="4.37351">
        <ele>270.43823</ele>
        <time>2020-09-01 10:14:33</time>
      </trkpt>
      <trkpt lat="44.35858" lon="4.3735">
        <ele>270.19482</ele>
        <time>2020-09-01 10:14:35</time>
      </trkpt>
      <trkpt lat="44.35858" lon="4.3735">
        <ele>270.57336</ele>
        <time>2020-09-01 10:14:36</time>
      </trkpt>
      <trkpt lat="44.35859" lon="4.3735">
        <ele>270.40417</ele>
        <time>2020-09-01 10:15:06</time>
      </trkpt>
      <trkpt lat="44.35859" lon="4.3735">
        <ele>270.5058</ele>
        <time>2020-09-01 10:15:41</time>
      </trkpt>
      <trkpt lat="44.35859" lon="4.3735">
        <ele>270.2127</ele>
        <time>2020-09-01 10:15:54</time>
      </trkpt>
      <trkpt lat="44.35859" lon="4.3735">
        <ele>270.80017</ele>
        <time>2020-09-01 10:15:55</time>
      </trkpt>
      <trkpt lat="44.35859" lon="4.3735">
        <ele>271.08173</ele>
        <time>2020-09-01 10:15:57</time>
      </trkpt>
      <trkpt lat="44.35859" lon="4.3735">
        <ele>271.92004</ele>
        <time>2020-09-01 10:15:58</time>
      </trkpt>
      <trkpt lat="44.35859" lon="4.37351">
        <ele>270.5122</ele>
        <time>2020-09-01 10:16:02</time>
      </trkpt>
      <trkpt lat="44.35859" lon="4.37353">
        <ele>271.59143</ele>
        <time>2020-09-01 10:16:03</time>
      </trkpt>
      <trkpt lat="44.35857" lon="4.37357">
        <ele>271.50348</ele>
        <time>2020-09-01 10:16:05</time>
      </trkpt>
      <trkpt lat="44.35855" lon="4.3736">
        <ele>271.5832</ele>
        <time>2020-09-01 10:16:06</time>
      </trkpt>
      <trkpt lat="44.35853" lon="4.37368">
        <ele>271.7074</ele>
        <time>2020-09-01 10:16:08</time>
      </trkpt>
      <trkpt lat="44.35807" lon="4.37525">
        <ele>262.03394</ele>
        <time>2020-09-01 10:16:29</time>
      </trkpt>
      <trkpt lat="44.35796" lon="4.37544">
        <ele>261.3924</ele>
        <time>2020-09-01 10:16:31</time>
      </trkpt>
      <trkpt lat="44.35783" lon="4.3756">
        <ele>260.70966</ele>
        <time>2020-09-01 10:16:33</time>
      </trkpt>
      <trkpt lat="44.35762" lon="4.3758">
        <ele>260.71478</ele>
        <time>2020-09-01 10:16:36</time>
      </trkpt>
      <trkpt lat="44.35747" lon="4.37594">
        <ele>261.4707</ele>
        <time>2020-09-01 10:16:38</time>
      </trkpt>
      <trkpt lat="44.35735" lon="4.3761">
        <ele>261.04718</ele>
        <time>2020-09-01 10:16:40</time>
      </trkpt>
      <trkpt lat="44.3572" lon="4.37638">
        <ele>259.3374</ele>
        <time>2020-09-01 10:16:43</time>
      </trkpt>
      <trkpt lat="44.35623" lon="4.37837">
        <ele>257.091</ele>
        <time>2020-09-01 10:17:02</time>
      </trkpt>
      <trkpt lat="44.35561" lon="4.3805">
        <ele>256.22546</ele>
        <time>2020-09-01 10:17:22</time>
      </trkpt>
      <trkpt lat="44.35555" lon="4.38084">
        <ele>256.24487</ele>
        <time>2020-09-01 10:17:26</time>
      </trkpt>
      <trkpt lat="44.35554" lon="4.38137">
        <ele>255.12524</ele>
        <time>2020-09-01 10:17:32</time>
      </trkpt>
      <trkpt lat="44.35551" lon="4.38355">
        <ele>253.89691</ele>
        <time>2020-09-01 10:18:02</time>
      </trkpt>
      <trkpt lat="44.35548" lon="4.38547">
        <ele>253.92285</ele>
        <time>2020-09-01 10:18:32</time>
      </trkpt>
      <trkpt lat="44.35546" lon="4.38714">
        <ele>258.28857</ele>
        <time>2020-09-01 10:19:01</time>
      </trkpt>
      <trkpt lat="44.35542" lon="4.38735">
        <ele>259.27917</ele>
        <time>2020-09-01 10:19:05</time>
      </trkpt>
      <trkpt lat="44.35499" lon="4.38889">
        <ele>267.66736</ele>
        <time>2020-09-01 10:19:35</time>
      </trkpt>
      <trkpt lat="44.35451" lon="4.3906">
        <ele>269.74902</ele>
        <time>2020-09-01 10:20:03</time>
      </trkpt>
      <trkpt lat="44.35449" lon="4.39066">
        <ele>270.3551</ele>
        <time>2020-09-01 10:20:04</time>
      </trkpt>
      <trkpt lat="44.35445" lon="4.39078">
        <ele>268.39893</ele>
        <time>2020-09-01 10:20:06</time>
      </trkpt>
      <trkpt lat="44.35429" lon="4.39107">
        <ele>268.6604</ele>
        <time>2020-09-01 10:20:11</time>
      </trkpt>
      <trkpt lat="44.35327" lon="4.39266">
        <ele>268.10724</ele>
        <time>2020-09-01 10:20:41</time>
      </trkpt>
      <trkpt lat="44.35325" lon="4.3927">
        <ele>265.78748</ele>
        <time>2020-09-01 10:20:42</time>
      </trkpt>
      <trkpt lat="44.35316" lon="4.39288">
        <ele>268.89374</ele>
        <time>2020-09-01 10:20:46</time>
      </trkpt>
      <trkpt lat="44.35314" lon="4.39291">
        <ele>269.6021</ele>
        <time>2020-09-01 10:20:47</time>
      </trkpt>
      <trkpt lat="44.35257" lon="4.39385">
        <ele>272.6997</ele>
        <time>2020-09-01 10:21:12</time>
      </trkpt>
      <trkpt lat="44.35255" lon="4.39389">
        <ele>274.36145</ele>
        <time>2020-09-01 10:21:13</time>
      </trkpt>
      <trkpt lat="44.35226" lon="4.39432">
        <ele>274.39514</ele>
        <time>2020-09-01 10:21:26</time>
      </trkpt>
      <trkpt lat="44.35202" lon="4.39479">
        <ele>274.44482</ele>
        <time>2020-09-01 10:21:39</time>
      </trkpt>
      <trkpt lat="44.35197" lon="4.39501">
        <ele>274.4497</ele>
        <time>2020-09-01 10:21:44</time>
      </trkpt>
      <trkpt lat="44.35196" lon="4.39506">
        <ele>274.65393</ele>
        <time>2020-09-01 10:21:45</time>
      </trkpt>
      <trkpt lat="44.35183" lon="4.39612">
        <ele>278.2694</ele>
        <time>2020-09-01 10:22:09</time>
      </trkpt>
      <trkpt lat="44.35182" lon="4.39616">
        <ele>277.9961</ele>
        <time>2020-09-01 10:22:10</time>
      </trkpt>
      <trkpt lat="44.35181" lon="4.3963">
        <ele>279.01587</ele>
        <time>2020-09-01 10:22:13</time>
      </trkpt>
      <trkpt lat="44.35178" lon="4.39643">
        <ele>279.47815</ele>
        <time>2020-09-01 10:22:16</time>
      </trkpt>
      <trkpt lat="44.35177" lon="4.39647">
        <ele>279.6244</ele>
        <time>2020-09-01 10:22:17</time>
      </trkpt>
      <trkpt lat="44.35176" lon="4.39655">
        <ele>279.93457</ele>
        <time>2020-09-01 10:22:19</time>
      </trkpt>
      <trkpt lat="44.35174" lon="4.39675">
        <ele>280.3357</ele>
        <time>2020-09-01 10:22:24</time>
      </trkpt>
      <trkpt lat="44.35172" lon="4.39687">
        <ele>279.88733</ele>
        <time>2020-09-01 10:22:27</time>
      </trkpt>
      <trkpt lat="44.35158" lon="4.3981">
        <ele>281.67908</ele>
        <time>2020-09-01 10:22:57</time>
      </trkpt>
      <trkpt lat="44.35151" lon="4.39867">
        <ele>284.28674</ele>
        <time>2020-09-01 10:23:11</time>
      </trkpt>
      <trkpt lat="44.35152" lon="4.39882">
        <ele>286.3391</ele>
        <time>2020-09-01 10:23:15</time>
      </trkpt>
      <trkpt lat="44.35155" lon="4.39903">
        <ele>285.52887</ele>
        <time>2020-09-01 10:23:21</time>
      </trkpt>
      <trkpt lat="44.35156" lon="4.3991">
        <ele>285.40845</ele>
        <time>2020-09-01 10:23:23</time>
      </trkpt>
      <trkpt lat="44.35156" lon="4.39913">
        <ele>284.6548</ele>
        <time>2020-09-01 10:23:24</time>
      </trkpt>
      <trkpt lat="44.35163" lon="4.39943">
        <ele>284.703</ele>
        <time>2020-09-01 10:23:33</time>
      </trkpt>
      <trkpt lat="44.35166" lon="4.39949">
        <ele>285.92712</ele>
        <time>2020-09-01 10:23:35</time>
      </trkpt>
      <trkpt lat="44.35172" lon="4.39968">
        <ele>284.703</ele>
        <time>2020-09-01 10:23:42</time>
      </trkpt>
      <trkpt lat="44.35173" lon="4.3997">
        <ele>284.78546</ele>
        <time>2020-09-01 10:23:43</time>
      </trkpt>
      <trkpt lat="44.35174" lon="4.39976">
        <ele>285.2682</ele>
        <time>2020-09-01 10:23:45</time>
      </trkpt>
      <trkpt lat="44.35175" lon="4.39979">
        <ele>285.80963</ele>
        <time>2020-09-01 10:23:46</time>
      </trkpt>
      <trkpt lat="44.35175" lon="4.39982">
        <ele>285.76965</ele>
        <time>2020-09-01 10:23:47</time>
      </trkpt>
      <trkpt lat="44.35174" lon="4.40002">
        <ele>288.51147</ele>
        <time>2020-09-01 10:23:53</time>
      </trkpt>
      <trkpt lat="44.35174" lon="4.40005">
        <ele>289.49182</ele>
        <time>2020-09-01 10:23:54</time>
      </trkpt>
      <trkpt lat="44.35171" lon="4.40014">
        <ele>291.04077</ele>
        <time>2020-09-01 10:23:57</time>
      </trkpt>
      <trkpt lat="44.3517" lon="4.40016">
        <ele>291.44507</ele>
        <time>2020-09-01 10:23:58</time>
      </trkpt>
      <trkpt lat="44.35157" lon="4.40036">
        <ele>296.16162</ele>
        <time>2020-09-01 10:24:07</time>
      </trkpt>
      <trkpt lat="44.35156" lon="4.40037">
        <ele>296.2556</ele>
        <time>2020-09-01 10:24:08</time>
      </trkpt>
      <trkpt lat="44.35149" lon="4.40049">
        <ele>298.42053</ele>
        <time>2020-09-01 10:24:13</time>
      </trkpt>
      <trkpt lat="44.35145" lon="4.40056">
        <ele>297.31055</ele>
        <time>2020-09-01 10:24:16</time>
      </trkpt>
      <trkpt lat="44.35126" lon="4.40084">
        <ele>298.15723</ele>
        <time>2020-09-01 10:24:28</time>
      </trkpt>
      <trkpt lat="44.3508" lon="4.40129">
        <ele>299.59198</ele>
        <time>2020-09-01 10:24:52</time>
      </trkpt>
      <trkpt lat="44.35076" lon="4.40132">
        <ele>303.75757</ele>
        <time>2020-09-01 10:24:54</time>
      </trkpt>
      <trkpt lat="44.3507" lon="4.40138">
        <ele>305.16956</ele>
        <time>2020-09-01 10:24:57</time>
      </trkpt>
      <trkpt lat="44.35067" lon="4.40144">
        <ele>305.39417</ele>
        <time>2020-09-01 10:24:59</time>
      </trkpt>
      <trkpt lat="44.35066" lon="4.40147">
        <ele>306.30554</ele>
        <time>2020-09-01 10:25:00</time>
      </trkpt>
      <trkpt lat="44.35064" lon="4.40157">
        <ele>307.1855</ele>
        <time>2020-09-01 10:25:04</time>
      </trkpt>
      <trkpt lat="44.35067" lon="4.4018">
        <ele>307.52454</ele>
        <time>2020-09-01 10:25:11</time>
      </trkpt>
      <trkpt lat="44.35069" lon="4.40183">
        <ele>307.15198</ele>
        <time>2020-09-01 10:25:12</time>
      </trkpt>
      <trkpt lat="44.35071" lon="4.40189">
        <ele>307.398</ele>
        <time>2020-09-01 10:25:14</time>
      </trkpt>
      <trkpt lat="44.35085" lon="4.40226">
        <ele>306.80414</ele>
        <time>2020-09-01 10:25:27</time>
      </trkpt>
      <trkpt lat="44.35089" lon="4.40246">
        <ele>304.06982</ele>
        <time>2020-09-01 10:25:33</time>
      </trkpt>
      <trkpt lat="44.35089" lon="4.40254">
        <ele>303.2932</ele>
        <time>2020-09-01 10:25:35</time>
      </trkpt>
      <trkpt lat="44.35086" lon="4.40273">
        <ele>303.00415</ele>
        <time>2020-09-01 10:25:39</time>
      </trkpt>
      <trkpt lat="44.35085" lon="4.40281">
        <ele>301.38983</ele>
        <time>2020-09-01 10:25:41</time>
      </trkpt>
      <trkpt lat="44.35085" lon="4.40286">
        <ele>302.0542</ele>
        <time>2020-09-01 10:25:43</time>
      </trkpt>
      <trkpt lat="44.35087" lon="4.40294">
        <ele>300.57068</ele>
        <time>2020-09-01 10:25:48</time>
      </trkpt>
      <trkpt lat="44.35089" lon="4.40296">
        <ele>303.83655</ele>
        <time>2020-09-01 10:26:12</time>
      </trkpt>
      <trkpt lat="44.35089" lon="4.40296">
        <ele>304.05743</ele>
        <time>2020-09-01 10:26:13</time>
      </trkpt>
      <trkpt lat="44.35088" lon="4.40296">
        <ele>305.44604</ele>
        <time>2020-09-01 10:26:47</time>
      </trkpt>
      <trkpt lat="44.35088" lon="4.40297">
        <ele>305.5479</ele>
        <time>2020-09-01 10:27:19</time>
      </trkpt>
      <trkpt lat="44.35088" lon="4.40297">
        <ele>305.56018</ele>
        <time>2020-09-01 10:28:02</time>
      </trkpt>
      <trkpt lat="44.35088" lon="4.40297">
        <ele>306.0475</ele>
        <time>2020-09-01 10:28:10</time>
      </trkpt>
      <trkpt lat="44.35089" lon="4.40304">
        <ele>304.88013</ele>
        <time>2020-09-01 10:28:14</time>
      </trkpt>
      <trkpt lat="44.35091" lon="4.40314">
        <ele>306.21155</ele>
        <time>2020-09-01 10:28:17</time>
      </trkpt>
      <trkpt lat="44.35091" lon="4.40326">
        <ele>306.57727</ele>
        <time>2020-09-01 10:28:20</time>
      </trkpt>
      <trkpt lat="44.35092" lon="4.40342">
        <ele>307.31506</ele>
        <time>2020-09-01 10:28:24</time>
      </trkpt>
      <trkpt lat="44.35095" lon="4.40359">
        <ele>308.84338</ele>
        <time>2020-09-01 10:28:28</time>
      </trkpt>
      <trkpt lat="44.35096" lon="4.40363">
        <ele>309.95984</ele>
        <time>2020-09-01 10:28:29</time>
      </trkpt>
      <trkpt lat="44.35097" lon="4.40367">
        <ele>310.01752</ele>
        <time>2020-09-01 10:28:30</time>
      </trkpt>
      <trkpt lat="44.35104" lon="4.40411">
        <ele>312.19574</ele>
        <time>2020-09-01 10:28:40</time>
      </trkpt>
      <trkpt lat="44.35107" lon="4.40443">
        <ele>314.4417</ele>
        <time>2020-09-01 10:28:47</time>
      </trkpt>
      <trkpt lat="44.35106" lon="4.40447">
        <ele>314.59277</ele>
        <time>2020-09-01 10:28:48</time>
      </trkpt>
      <trkpt lat="44.35103" lon="4.40465">
        <ele>315.21646</ele>
        <time>2020-09-01 10:28:52</time>
      </trkpt>
      <trkpt lat="44.351" lon="4.40475">
        <ele>315.79028</ele>
        <time>2020-09-01 10:28:54</time>
      </trkpt>
      <trkpt lat="44.35098" lon="4.40479">
        <ele>315.49182</ele>
        <time>2020-09-01 10:28:55</time>
      </trkpt>
      <trkpt lat="44.35091" lon="4.4049">
        <ele>314.74463</ele>
        <time>2020-09-01 10:28:58</time>
      </trkpt>
      <trkpt lat="44.35085" lon="4.40496">
        <ele>315.68896</ele>
        <time>2020-09-01 10:29:00</time>
      </trkpt>
      <trkpt lat="44.35079" lon="4.405">
        <ele>315.8503</ele>
        <time>2020-09-01 10:29:02</time>
      </trkpt>
      <trkpt lat="44.35042" lon="4.4051">
        <ele>316.83127</ele>
        <time>2020-09-01 10:29:12</time>
      </trkpt>
      <trkpt lat="44.35005" lon="4.40522">
        <ele>317.11377</ele>
        <time>2020-09-01 10:29:21</time>
      </trkpt>
      <trkpt lat="44.35001" lon="4.40523">
        <ele>318.58002</ele>
        <time>2020-09-01 10:29:22</time>
      </trkpt>
      <trkpt lat="44.34998" lon="4.40525">
        <ele>316.48425</ele>
        <time>2020-09-01 10:29:23</time>
      </trkpt>
      <trkpt lat="44.34974" lon="4.40538">
        <ele>317.9265</ele>
        <time>2020-09-01 10:29:31</time>
      </trkpt>
      <trkpt lat="44.34961" lon="4.40552">
        <ele>315.39832</ele>
        <time>2020-09-01 10:29:36</time>
      </trkpt>
      <trkpt lat="44.34952" lon="4.40562">
        <ele>316.02234</ele>
        <time>2020-09-01 10:29:39</time>
      </trkpt>
      <trkpt lat="44.34913" lon="4.40594">
        <ele>316.53235</ele>
        <time>2020-09-01 10:29:52</time>
      </trkpt>
      <trkpt lat="44.34901" lon="4.40602">
        <ele>315.86682</ele>
        <time>2020-09-01 10:29:56</time>
      </trkpt>
      <trkpt lat="44.34898" lon="4.40603">
        <ele>317.49182</ele>
        <time>2020-09-01 10:29:57</time>
      </trkpt>
      <trkpt lat="44.34808" lon="4.40623">
        <ele>319.76257</ele>
        <time>2020-09-01 10:30:27</time>
      </trkpt>
      <trkpt lat="44.34731" lon="4.40642">
        <ele>320.3717</ele>
        <time>2020-09-01 10:30:57</time>
      </trkpt>
      <trkpt lat="44.34704" lon="4.40646">
        <ele>320.1405</ele>
        <time>2020-09-01 10:31:06</time>
      </trkpt>
      <trkpt lat="44.34696" lon="4.40646">
        <ele>321.66174</ele>
        <time>2020-09-01 10:31:09</time>
      </trkpt>
      <trkpt lat="44.34688" lon="4.40649">
        <ele>320.26227</ele>
        <time>2020-09-01 10:31:12</time>
      </trkpt>
      <trkpt lat="44.34666" lon="4.40655">
        <ele>324.54114</ele>
        <time>2020-09-01 10:31:20</time>
      </trkpt>
      <trkpt lat="44.34663" lon="4.40656">
        <ele>323.03052</ele>
        <time>2020-09-01 10:31:21</time>
      </trkpt>
      <trkpt lat="44.34655" lon="4.40658">
        <ele>322.71704</ele>
        <time>2020-09-01 10:31:24</time>
      </trkpt>
      <trkpt lat="44.34644" lon="4.40662">
        <ele>322.70154</ele>
        <time>2020-09-01 10:31:29</time>
      </trkpt>
      <trkpt lat="44.34629" lon="4.40672">
        <ele>322.57953</ele>
        <time>2020-09-01 10:31:35</time>
      </trkpt>
      <trkpt lat="44.34625" lon="4.40678">
        <ele>321.85425</ele>
        <time>2020-09-01 10:31:37</time>
      </trkpt>
      <trkpt lat="44.34615" lon="4.40694">
        <ele>323.55054</ele>
        <time>2020-09-01 10:31:42</time>
      </trkpt>
      <trkpt lat="44.34605" lon="4.40718">
        <ele>326.77283</ele>
        <time>2020-09-01 10:31:48</time>
      </trkpt>
      <trkpt lat="44.34596" lon="4.40771">
        <ele>330.79755</ele>
        <time>2020-09-01 10:32:01</time>
      </trkpt>
      <trkpt lat="44.34594" lon="4.40783">
        <ele>330.31842</ele>
        <time>2020-09-01 10:32:04</time>
      </trkpt>
      <trkpt lat="44.34584" lon="4.40821">
        <ele>332.1623</ele>
        <time>2020-09-01 10:32:14</time>
      </trkpt>
      <trkpt lat="44.34582" lon="4.40825">
        <ele>332.48706</ele>
        <time>2020-09-01 10:32:15</time>
      </trkpt>
      <trkpt lat="44.34569" lon="4.40843">
        <ele>334.97058</ele>
        <time>2020-09-01 10:32:21</time>
      </trkpt>
      <trkpt lat="44.34557" lon="4.40854">
        <ele>335.7727</ele>
        <time>2020-09-01 10:32:25</time>
      </trkpt>
      <trkpt lat="44.34522" lon="4.40879">
        <ele>335.7173</ele>
        <time>2020-09-01 10:32:35</time>
      </trkpt>
      <trkpt lat="44.34513" lon="4.4089">
        <ele>335.04016</ele>
        <time>2020-09-01 10:32:38</time>
      </trkpt>
      <trkpt lat="44.3451" lon="4.40894">
        <ele>335.3319</ele>
        <time>2020-09-01 10:32:39</time>
      </trkpt>
      <trkpt lat="44.34506" lon="4.40904">
        <ele>334.886</ele>
        <time>2020-09-01 10:32:41</time>
      </trkpt>
      <trkpt lat="44.34504" lon="4.40909">
        <ele>335.65265</ele>
        <time>2020-09-01 10:32:42</time>
      </trkpt>
      <trkpt lat="44.34503" lon="4.40928">
        <ele>335.77222</ele>
        <time>2020-09-01 10:32:45</time>
      </trkpt>
      <trkpt lat="44.34506" lon="4.40982">
        <ele>336.422</ele>
        <time>2020-09-01 10:32:54</time>
      </trkpt>
      <trkpt lat="44.34511" lon="4.41015">
        <ele>337.3139</ele>
        <time>2020-09-01 10:33:00</time>
      </trkpt>
      <trkpt lat="44.34512" lon="4.41065">
        <ele>339.5238</ele>
        <time>2020-09-01 10:33:08</time>
      </trkpt>
      <trkpt lat="44.345" lon="4.41133">
        <ele>339.7426</ele>
        <time>2020-09-01 10:33:19</time>
      </trkpt>
      <trkpt lat="44.34496" lon="4.41165">
        <ele>340.2196</ele>
        <time>2020-09-01 10:33:24</time>
      </trkpt>
      <trkpt lat="44.34492" lon="4.41182">
        <ele>339.4757</ele>
        <time>2020-09-01 10:33:27</time>
      </trkpt>
      <trkpt lat="44.34489" lon="4.412">
        <ele>339.59387</ele>
        <time>2020-09-01 10:33:30</time>
      </trkpt>
      <trkpt lat="44.34486" lon="4.41224">
        <ele>339.41748</ele>
        <time>2020-09-01 10:33:34</time>
      </trkpt>
      <trkpt lat="44.34485" lon="4.4123">
        <ele>339.29236</ele>
        <time>2020-09-01 10:33:35</time>
      </trkpt>
      <trkpt lat="44.34484" lon="4.41236">
        <ele>339.6021</ele>
        <time>2020-09-01 10:33:36</time>
      </trkpt>
      <trkpt lat="44.34473" lon="4.41291">
        <ele>341.3734</ele>
        <time>2020-09-01 10:33:46</time>
      </trkpt>
      <trkpt lat="44.34469" lon="4.413">
        <ele>342.70667</ele>
        <time>2020-09-01 10:33:48</time>
      </trkpt>
      <trkpt lat="44.34464" lon="4.41309">
        <ele>343.28424</ele>
        <time>2020-09-01 10:33:50</time>
      </trkpt>
      <trkpt lat="44.34457" lon="4.41318">
        <ele>341.92584</ele>
        <time>2020-09-01 10:33:52</time>
      </trkpt>
      <trkpt lat="44.34392" lon="4.41376">
        <ele>345.50415</ele>
        <time>2020-09-01 10:34:12</time>
      </trkpt>
      <trkpt lat="44.34378" lon="4.41384">
        <ele>342.5816</ele>
        <time>2020-09-01 10:34:16</time>
      </trkpt>
      <trkpt lat="44.34358" lon="4.41392">
        <ele>342.5728</ele>
        <time>2020-09-01 10:34:22</time>
      </trkpt>
      <trkpt lat="44.34349" lon="4.41396">
        <ele>342.97852</ele>
        <time>2020-09-01 10:34:25</time>
      </trkpt>
      <trkpt lat="44.34346" lon="4.41396">
        <ele>343.35437</ele>
        <time>2020-09-01 10:34:26</time>
      </trkpt>
      <trkpt lat="44.34318" lon="4.41404">
        <ele>343.3933</ele>
        <time>2020-09-01 10:34:34</time>
      </trkpt>
      <trkpt lat="44.34302" lon="4.41408">
        <ele>343.88245</ele>
        <time>2020-09-01 10:34:39</time>
      </trkpt>
      <trkpt lat="44.34258" lon="4.41422">
        <ele>343.04993</ele>
        <time>2020-09-01 10:34:52</time>
      </trkpt>
      <trkpt lat="44.34243" lon="4.41432">
        <ele>346.4381</ele>
        <time>2020-09-01 10:34:57</time>
      </trkpt>
      <trkpt lat="44.34227" lon="4.41451">
        <ele>346.78497</ele>
        <time>2020-09-01 10:35:04</time>
      </trkpt>
      <trkpt lat="44.34224" lon="4.41458">
        <ele>346.2113</ele>
        <time>2020-09-01 10:35:06</time>
      </trkpt>
      <trkpt lat="44.34216" lon="4.4148">
        <ele>346.58423</ele>
        <time>2020-09-01 10:35:12</time>
      </trkpt>
      <trkpt lat="44.34191" lon="4.4157">
        <ele>352.55212</ele>
        <time>2020-09-01 10:35:34</time>
      </trkpt>
      <trkpt lat="44.34181" lon="4.41589">
        <ele>353.90082</ele>
        <time>2020-09-01 10:35:39</time>
      </trkpt>
      <trkpt lat="44.34174" lon="4.41599">
        <ele>353.47357</ele>
        <time>2020-09-01 10:35:42</time>
      </trkpt>
      <trkpt lat="44.34109" lon="4.4166">
        <ele>354.66394</ele>
        <time>2020-09-01 10:36:07</time>
      </trkpt>
      <trkpt lat="44.34103" lon="4.41664">
        <ele>353.21674</ele>
        <time>2020-09-01 10:36:09</time>
      </trkpt>
      <trkpt lat="44.34092" lon="4.41669">
        <ele>354.14685</ele>
        <time>2020-09-01 10:36:13</time>
      </trkpt>
      <trkpt lat="44.34085" lon="4.41669">
        <ele>354.69373</ele>
        <time>2020-09-01 10:36:15</time>
      </trkpt>
      <trkpt lat="44.34073" lon="4.41667">
        <ele>355.96692</ele>
        <time>2020-09-01 10:36:19</time>
      </trkpt>
      <trkpt lat="44.3406" lon="4.41662">
        <ele>357.48517</ele>
        <time>2020-09-01 10:36:23</time>
      </trkpt>
      <trkpt lat="44.34052" lon="4.41658">
        <ele>357.6256</ele>
        <time>2020-09-01 10:36:26</time>
      </trkpt>
      <trkpt lat="44.3404" lon="4.41655">
        <ele>357.01294</ele>
        <time>2020-09-01 10:36:30</time>
      </trkpt>
      <trkpt lat="44.3403" lon="4.41651">
        <ele>357.37622</ele>
        <time>2020-09-01 10:36:34</time>
      </trkpt>
      <trkpt lat="44.34022" lon="4.41647">
        <ele>357.83057</ele>
        <time>2020-09-01 10:36:37</time>
      </trkpt>
      <trkpt lat="44.33941" lon="4.41618">
        <ele>358.37817</ele>
        <time>2020-09-01 10:37:05</time>
      </trkpt>
      <trkpt lat="44.33938" lon="4.41618">
        <ele>358.7802</ele>
        <time>2020-09-01 10:37:06</time>
      </trkpt>
      <trkpt lat="44.33925" lon="4.41615">
        <ele>361.2362</ele>
        <time>2020-09-01 10:37:10</time>
      </trkpt>
      <trkpt lat="44.33889" lon="4.41612">
        <ele>362.05823</ele>
        <time>2020-09-01 10:37:22</time>
      </trkpt>
      <trkpt lat="44.33877" lon="4.41609">
        <ele>362.93616</ele>
        <time>2020-09-01 10:37:26</time>
      </trkpt>
      <trkpt lat="44.33865" lon="4.41608">
        <ele>361.91083</ele>
        <time>2020-09-01 10:37:30</time>
      </trkpt>
      <trkpt lat="44.33855" lon="4.41604">
        <ele>360.75574</ele>
        <time>2020-09-01 10:37:34</time>
      </trkpt>
      <trkpt lat="44.33846" lon="4.41601">
        <ele>363.0409</ele>
        <time>2020-09-01 10:37:37</time>
      </trkpt>
      <trkpt lat="44.33798" lon="4.41584">
        <ele>366.7821</ele>
        <time>2020-09-01 10:37:51</time>
      </trkpt>
      <trkpt lat="44.33776" lon="4.41576">
        <ele>365.38898</ele>
        <time>2020-09-01 10:37:58</time>
      </trkpt>
      <trkpt lat="44.33765" lon="4.41571">
        <ele>364.86157</ele>
        <time>2020-09-01 10:38:02</time>
      </trkpt>
      <trkpt lat="44.33675" lon="4.41542">
        <ele>364.39404</ele>
        <time>2020-09-01 10:38:32</time>
      </trkpt>
      <trkpt lat="44.33654" lon="4.41536">
        <ele>368.2948</ele>
        <time>2020-09-01 10:38:39</time>
      </trkpt>
      <trkpt lat="44.33651" lon="4.41535">
        <ele>368.19843</ele>
        <time>2020-09-01 10:38:40</time>
      </trkpt>
      <trkpt lat="44.33571" lon="4.41505">
        <ele>369.6125</ele>
        <time>2020-09-01 10:39:06</time>
      </trkpt>
      <trkpt lat="44.33536" lon="4.41479">
        <ele>370.77075</ele>
        <time>2020-09-01 10:39:19</time>
      </trkpt>
      <trkpt lat="44.3346" lon="4.41426">
        <ele>375.18793</ele>
        <time>2020-09-01 10:39:48</time>
      </trkpt>
      <trkpt lat="44.33445" lon="4.41419">
        <ele>375.0699</ele>
        <time>2020-09-01 10:39:53</time>
      </trkpt>
      <trkpt lat="44.33435" lon="4.41416">
        <ele>375.38525</ele>
        <time>2020-09-01 10:39:56</time>
      </trkpt>
      <trkpt lat="44.33414" lon="4.4141">
        <ele>374.88684</ele>
        <time>2020-09-01 10:40:03</time>
      </trkpt>
      <trkpt lat="44.33399" lon="4.41403">
        <ele>377.18427</ele>
        <time>2020-09-01 10:40:08</time>
      </trkpt>
      <trkpt lat="44.33394" lon="4.41399">
        <ele>378.06372</ele>
        <time>2020-09-01 10:40:10</time>
      </trkpt>
      <trkpt lat="44.33377" lon="4.41384">
        <ele>377.90735</ele>
        <time>2020-09-01 10:40:16</time>
      </trkpt>
      <trkpt lat="44.33373" lon="4.41378">
        <ele>376.66962</ele>
        <time>2020-09-01 10:40:18</time>
      </trkpt>
      <trkpt lat="44.3337" lon="4.41371">
        <ele>375.9734</ele>
        <time>2020-09-01 10:40:20</time>
      </trkpt>
      <trkpt lat="44.33355" lon="4.41333">
        <ele>377.35083</ele>
        <time>2020-09-01 10:40:30</time>
      </trkpt>
      <trkpt lat="44.33346" lon="4.41309">
        <ele>378.1682</ele>
        <time>2020-09-01 10:40:36</time>
      </trkpt>
      <trkpt lat="44.33308" lon="4.41217">
        <ele>383.12537</ele>
        <time>2020-09-01 10:41:00</time>
      </trkpt>
      <trkpt lat="44.33297" lon="4.412">
        <ele>384.63</ele>
        <time>2020-09-01 10:41:05</time>
      </trkpt>
      <trkpt lat="44.33285" lon="4.41189">
        <ele>384.4887</ele>
        <time>2020-09-01 10:41:09</time>
      </trkpt>
      <trkpt lat="44.33275" lon="4.41184">
        <ele>384.7202</ele>
        <time>2020-09-01 10:41:12</time>
      </trkpt>
      <trkpt lat="44.33269" lon="4.41183">
        <ele>385.24695</ele>
        <time>2020-09-01 10:41:14</time>
      </trkpt>
      <trkpt lat="44.33251" lon="4.41182">
        <ele>385.98096</ele>
        <time>2020-09-01 10:41:20</time>
      </trkpt>
      <trkpt lat="44.33246" lon="4.41183">
        <ele>385.1084</ele>
        <time>2020-09-01 10:41:22</time>
      </trkpt>
      <trkpt lat="44.3322" lon="4.41191">
        <ele>387.72815</ele>
        <time>2020-09-01 10:41:31</time>
      </trkpt>
      <trkpt lat="44.33202" lon="4.41198">
        <ele>384.7542</ele>
        <time>2020-09-01 10:41:37</time>
      </trkpt>
      <trkpt lat="44.33177" lon="4.41205">
        <ele>386.51544</ele>
        <time>2020-09-01 10:41:45</time>
      </trkpt>
      <trkpt lat="44.33174" lon="4.41206">
        <ele>387.8263</ele>
        <time>2020-09-01 10:41:46</time>
      </trkpt>
      <trkpt lat="44.33161" lon="4.41209">
        <ele>387.461</ele>
        <time>2020-09-01 10:41:50</time>
      </trkpt>
      <trkpt lat="44.33156" lon="4.41213">
        <ele>386.60974</ele>
        <time>2020-09-01 10:41:52</time>
      </trkpt>
      <trkpt lat="44.33151" lon="4.41219">
        <ele>388.29382</ele>
        <time>2020-09-01 10:41:54</time>
      </trkpt>
      <trkpt lat="44.33148" lon="4.41227">
        <ele>388.41254</ele>
        <time>2020-09-01 10:41:56</time>
      </trkpt>
      <trkpt lat="44.33144" lon="4.41245">
        <ele>388.45374</ele>
        <time>2020-09-01 10:42:00</time>
      </trkpt>
      <trkpt lat="44.33144" lon="4.41258">
        <ele>389.43695</ele>
        <time>2020-09-01 10:42:03</time>
      </trkpt>
      <trkpt lat="44.33144" lon="4.41262">
        <ele>389.99994</ele>
        <time>2020-09-01 10:42:04</time>
      </trkpt>
      <trkpt lat="44.33146" lon="4.4127">
        <ele>389.92566</ele>
        <time>2020-09-01 10:42:06</time>
      </trkpt>
      <trkpt lat="44.33148" lon="4.41274">
        <ele>389.60547</ele>
        <time>2020-09-01 10:42:07</time>
      </trkpt>
      <trkpt lat="44.33149" lon="4.41277">
        <ele>390.8629</ele>
        <time>2020-09-01 10:42:08</time>
      </trkpt>
      <trkpt lat="44.33162" lon="4.41298">
        <ele>391.81787</ele>
        <time>2020-09-01 10:42:14</time>
      </trkpt>
      <trkpt lat="44.3318" lon="4.41319">
        <ele>391.30994</ele>
        <time>2020-09-01 10:42:21</time>
      </trkpt>
      <trkpt lat="44.33186" lon="4.4133">
        <ele>392.07324</ele>
        <time>2020-09-01 10:42:24</time>
      </trkpt>
      <trkpt lat="44.33187" lon="4.41334">
        <ele>392.28967</ele>
        <time>2020-09-01 10:42:25</time>
      </trkpt>
      <trkpt lat="44.33189" lon="4.41345">
        <ele>392.17175</ele>
        <time>2020-09-01 10:42:28</time>
      </trkpt>
      <trkpt lat="44.33189" lon="4.41353">
        <ele>393.60498</ele>
        <time>2020-09-01 10:42:30</time>
      </trkpt>
      <trkpt lat="44.33189" lon="4.41366">
        <ele>393.44336</ele>
        <time>2020-09-01 10:42:33</time>
      </trkpt>
      <trkpt lat="44.33188" lon="4.41375">
        <ele>393.46326</ele>
        <time>2020-09-01 10:42:35</time>
      </trkpt>
      <trkpt lat="44.33184" lon="4.41386">
        <ele>394.94873</ele>
        <time>2020-09-01 10:42:38</time>
      </trkpt>
      <trkpt lat="44.33181" lon="4.41393">
        <ele>396.5241</ele>
        <time>2020-09-01 10:42:40</time>
      </trkpt>
      <trkpt lat="44.33177" lon="4.41399">
        <ele>393.44336</ele>
        <time>2020-09-01 10:42:42</time>
      </trkpt>
      <trkpt lat="44.33168" lon="4.41408">
        <ele>397.55188</ele>
        <time>2020-09-01 10:42:45</time>
      </trkpt>
      <trkpt lat="44.33119" lon="4.41436">
        <ele>395.49988</ele>
        <time>2020-09-01 10:43:00</time>
      </trkpt>
      <trkpt lat="44.33056" lon="4.41452">
        <ele>400.5338</ele>
        <time>2020-09-01 10:43:18</time>
      </trkpt>
      <trkpt lat="44.33052" lon="4.41453">
        <ele>400.07123</ele>
        <time>2020-09-01 10:43:19</time>
      </trkpt>
      <trkpt lat="44.33045" lon="4.41454">
        <ele>400.5254</ele>
        <time>2020-09-01 10:43:21</time>
      </trkpt>
      <trkpt lat="44.33013" lon="4.41455">
        <ele>401.08887</ele>
        <time>2020-09-01 10:43:30</time>
      </trkpt>
      <trkpt lat="44.33002" lon="4.41454">
        <ele>402.3825</ele>
        <time>2020-09-01 10:43:33</time>
      </trkpt>
      <trkpt lat="44.32998" lon="4.41454">
        <ele>402.48193</ele>
        <time>2020-09-01 10:43:34</time>
      </trkpt>
      <trkpt lat="44.3298" lon="4.41452">
        <ele>403.8089</ele>
        <time>2020-09-01 10:43:39</time>
      </trkpt>
      <trkpt lat="44.32881" lon="4.41423">
        <ele>405.55884</ele>
        <time>2020-09-01 10:44:09</time>
      </trkpt>
      <trkpt lat="44.32875" lon="4.41424">
        <ele>405.17548</ele>
        <time>2020-09-01 10:44:11</time>
      </trkpt>
      <trkpt lat="44.32872" lon="4.41426">
        <ele>400.91418</ele>
        <time>2020-09-01 10:44:12</time>
      </trkpt>
      <trkpt lat="44.32869" lon="4.41428">
        <ele>405.9436</ele>
        <time>2020-09-01 10:44:13</time>
      </trkpt>
      <trkpt lat="44.32866" lon="4.41432">
        <ele>406.67395</ele>
        <time>2020-09-01 10:44:14</time>
      </trkpt>
      <trkpt lat="44.3286" lon="4.4144">
        <ele>407.9198</ele>
        <time>2020-09-01 10:44:16</time>
      </trkpt>
      <trkpt lat="44.32856" lon="4.41448">
        <ele>408.59216</ele>
        <time>2020-09-01 10:44:18</time>
      </trkpt>
      <trkpt lat="44.32854" lon="4.41457">
        <ele>408.89478</ele>
        <time>2020-09-01 10:44:20</time>
      </trkpt>
      <trkpt lat="44.32852" lon="4.41467">
        <ele>405.9436</ele>
        <time>2020-09-01 10:44:22</time>
      </trkpt>
      <trkpt lat="44.32851" lon="4.41477">
        <ele>410.4372</ele>
        <time>2020-09-01 10:44:24</time>
      </trkpt>
      <trkpt lat="44.32852" lon="4.4149">
        <ele>412.73425</ele>
        <time>2020-09-01 10:44:27</time>
      </trkpt>
      <trkpt lat="44.32854" lon="4.41494">
        <ele>414.57373</ele>
        <time>2020-09-01 10:44:28</time>
      </trkpt>
      <trkpt lat="44.32866" lon="4.41533">
        <ele>416.27747</ele>
        <time>2020-09-01 10:44:38</time>
      </trkpt>
      <trkpt lat="44.32868" lon="4.4155">
        <ele>415.01685</ele>
        <time>2020-09-01 10:44:42</time>
      </trkpt>
      <trkpt lat="44.32867" lon="4.41555">
        <ele>417.48438</ele>
        <time>2020-09-01 10:44:43</time>
      </trkpt>
      <trkpt lat="44.32866" lon="4.41559">
        <ele>418.0099</ele>
        <time>2020-09-01 10:44:44</time>
      </trkpt>
      <trkpt lat="44.32864" lon="4.41567">
        <ele>418.44775</ele>
        <time>2020-09-01 10:44:46</time>
      </trkpt>
      <trkpt lat="44.3286" lon="4.41574">
        <ele>418.78503</ele>
        <time>2020-09-01 10:44:48</time>
      </trkpt>
      <trkpt lat="44.32856" lon="4.41581">
        <ele>419.0746</ele>
        <time>2020-09-01 10:44:50</time>
      </trkpt>
      <trkpt lat="44.32847" lon="4.41593">
        <ele>419.4048</ele>
        <time>2020-09-01 10:44:54</time>
      </trkpt>
      <trkpt lat="44.32842" lon="4.41598">
        <ele>418.7057</ele>
        <time>2020-09-01 10:44:56</time>
      </trkpt>
      <trkpt lat="44.32836" lon="4.41602">
        <ele>418.1183</ele>
        <time>2020-09-01 10:44:58</time>
      </trkpt>
      <trkpt lat="44.32795" lon="4.41618">
        <ele>414.81726</ele>
        <time>2020-09-01 10:45:11</time>
      </trkpt>
      <trkpt lat="44.32789" lon="4.41622">
        <ele>413.64905</ele>
        <time>2020-09-01 10:45:13</time>
      </trkpt>
      <trkpt lat="44.32772" lon="4.41629">
        <ele>413.458</ele>
        <time>2020-09-01 10:45:18</time>
      </trkpt>
      <trkpt lat="44.32769" lon="4.4163">
        <ele>414.05322</ele>
        <time>2020-09-01 10:45:19</time>
      </trkpt>
      <trkpt lat="44.32761" lon="4.41633">
        <ele>415.11804</ele>
        <time>2020-09-01 10:45:23</time>
      </trkpt>
      <trkpt lat="44.32759" lon="4.41633">
        <ele>415.55725</ele>
        <time>2020-09-01 10:45:24</time>
      </trkpt>
      <trkpt lat="44.32757" lon="4.41633">
        <ele>415.31018</ele>
        <time>2020-09-01 10:45:25</time>
      </trkpt>
      <trkpt lat="44.32755" lon="4.41634">
        <ele>415.33606</ele>
        <time>2020-09-01 10:45:27</time>
      </trkpt>
      <trkpt lat="44.32755" lon="4.41635">
        <ele>416.39142</ele>
        <time>2020-09-01 10:46:01</time>
      </trkpt>
      <trkpt lat="44.32755" lon="4.41635">
        <ele>416.40552</ele>
        <time>2020-09-01 10:46:34</time>
      </trkpt>
      <trkpt lat="44.32755" lon="4.41635">
        <ele>416.40216</ele>
        <time>2020-09-01 10:47:04</time>
      </trkpt>
      <trkpt lat="44.32754" lon="4.41635">
        <ele>417.14148</ele>
        <time>2020-09-01 10:47:08</time>
      </trkpt>
      <trkpt lat="44.32754" lon="4.41635">
        <ele>417.15625</ele>
        <time>2020-09-01 10:47:09</time>
      </trkpt>
      <trkpt lat="44.32753" lon="4.41634">
        <ele>417.79028</ele>
        <time>2020-09-01 10:47:10</time>
      </trkpt>
      <trkpt lat="44.32753" lon="4.41634">
        <ele>416.40277</ele>
        <time>2020-09-01 10:47:12</time>
      </trkpt>
      <trkpt lat="44.32752" lon="4.41634">
        <ele>415.67606</ele>
        <time>2020-09-01 10:47:42</time>
      </trkpt>
      <trkpt lat="44.32752" lon="4.41634">
        <ele>415.7081</ele>
        <time>2020-09-01 10:48:12</time>
      </trkpt>
      <trkpt lat="44.32752" lon="4.41634">
        <ele>415.70566</ele>
        <time>2020-09-01 10:48:42</time>
      </trkpt>
      <trkpt lat="44.32752" lon="4.41634">
        <ele>415.73846</ele>
        <time>2020-09-01 10:49:12</time>
      </trkpt>
      <trkpt lat="44.32752" lon="4.41634">
        <ele>415.60156</ele>
        <time>2020-09-01 10:49:38</time>
      </trkpt>
      <trkpt lat="44.32751" lon="4.41635">
        <ele>415.54108</ele>
        <time>2020-09-01 10:49:40</time>
      </trkpt>
      <trkpt lat="44.32751" lon="4.41635">
        <ele>413.61438</ele>
        <time>2020-09-01 10:49:50</time>
      </trkpt>
      <trkpt lat="44.3275" lon="4.41635">
        <ele>415.61115</ele>
        <time>2020-09-01 10:49:52</time>
      </trkpt>
      <trkpt lat="44.32749" lon="4.41636">
        <ele>412.53772</ele>
        <time>2020-09-01 10:49:54</time>
      </trkpt>
      <trkpt lat="44.32746" lon="4.41636">
        <ele>412.54785</ele>
        <time>2020-09-01 10:49:56</time>
      </trkpt>
      <trkpt lat="44.32744" lon="4.41637">
        <ele>412.8651</ele>
        <time>2020-09-01 10:49:57</time>
      </trkpt>
      <trkpt lat="44.32742" lon="4.41638">
        <ele>413.64337</ele>
        <time>2020-09-01 10:49:58</time>
      </trkpt>
      <trkpt lat="44.3274" lon="4.41639">
        <ele>412.84692</ele>
        <time>2020-09-01 10:49:59</time>
      </trkpt>
      <trkpt lat="44.32684" lon="4.41664">
        <ele>419.6278</ele>
        <time>2020-09-01 10:50:26</time>
      </trkpt>
      <trkpt lat="44.32672" lon="4.41674">
        <ele>418.3783</ele>
        <time>2020-09-01 10:50:29</time>
      </trkpt>
      <trkpt lat="44.32644" lon="4.41719">
        <ele>414.5337</ele>
        <time>2020-09-01 10:50:37</time>
      </trkpt>
      <trkpt lat="44.32632" lon="4.4173">
        <ele>412.67224</ele>
        <time>2020-09-01 10:50:39</time>
      </trkpt>
      <trkpt lat="44.3261" lon="4.41744">
        <ele>410.44342</ele>
        <time>2020-09-01 10:50:43</time>
      </trkpt>
      <trkpt lat="44.32579" lon="4.41759">
        <ele>409.99292</ele>
        <time>2020-09-01 10:50:48</time>
      </trkpt>
      <trkpt lat="44.32567" lon="4.41769">
        <ele>411.07678</ele>
        <time>2020-09-01 10:50:50</time>
      </trkpt>
      <trkpt lat="44.32557" lon="4.41783">
        <ele>410.68387</ele>
        <time>2020-09-01 10:50:52</time>
      </trkpt>
      <trkpt lat="44.32548" lon="4.41798">
        <ele>411.0199</ele>
        <time>2020-09-01 10:50:54</time>
      </trkpt>
      <trkpt lat="44.32539" lon="4.41825">
        <ele>410.65625</ele>
        <time>2020-09-01 10:50:57</time>
      </trkpt>
      <trkpt lat="44.32536" lon="4.41844">
        <ele>410.5476</ele>
        <time>2020-09-01 10:50:59</time>
      </trkpt>
      <trkpt lat="44.32538" lon="4.41864">
        <ele>411.85596</ele>
        <time>2020-09-01 10:51:01</time>
      </trkpt>
      <trkpt lat="44.3254" lon="4.41882">
        <ele>410.62097</ele>
        <time>2020-09-01 10:51:03</time>
      </trkpt>
      <trkpt lat="44.32551" lon="4.41917">
        <ele>411.05164</ele>
        <time>2020-09-01 10:51:07</time>
      </trkpt>
      <trkpt lat="44.32585" lon="4.42005">
        <ele>409.90625</ele>
        <time>2020-09-01 10:51:18</time>
      </trkpt>
      <trkpt lat="44.32589" lon="4.42021">
        <ele>410.24884</ele>
        <time>2020-09-01 10:51:20</time>
      </trkpt>
      <trkpt lat="44.32589" lon="4.42029">
        <ele>409.0681</ele>
        <time>2020-09-01 10:51:21</time>
      </trkpt>
      <trkpt lat="44.32587" lon="4.42046">
        <ele>408.2594</ele>
        <time>2020-09-01 10:51:23</time>
      </trkpt>
      <trkpt lat="44.32584" lon="4.42056">
        <ele>407.4552</ele>
        <time>2020-09-01 10:51:24</time>
      </trkpt>
      <trkpt lat="44.32579" lon="4.42064">
        <ele>407.03455</ele>
        <time>2020-09-01 10:51:25</time>
      </trkpt>
      <trkpt lat="44.32575" lon="4.42071">
        <ele>406.27563</ele>
        <time>2020-09-01 10:51:26</time>
      </trkpt>
      <trkpt lat="44.32569" lon="4.42074">
        <ele>405.56763</ele>
        <time>2020-09-01 10:51:27</time>
      </trkpt>
      <trkpt lat="44.32554" lon="4.42082">
        <ele>404.76788</ele>
        <time>2020-09-01 10:51:29</time>
      </trkpt>
      <trkpt lat="44.32546" lon="4.42082">
        <ele>404.43744</ele>
        <time>2020-09-01 10:51:30</time>
      </trkpt>
      <trkpt lat="44.32538" lon="4.42079">
        <ele>405.07776</ele>
        <time>2020-09-01 10:51:31</time>
      </trkpt>
      <trkpt lat="44.32476" lon="4.42062">
        <ele>401.56616</ele>
        <time>2020-09-01 10:51:39</time>
      </trkpt>
      <trkpt lat="44.32379" lon="4.42049">
        <ele>397.33472</ele>
        <time>2020-09-01 10:51:51</time>
      </trkpt>
      <trkpt lat="44.32346" lon="4.42044">
        <ele>392.32666</ele>
        <time>2020-09-01 10:51:55</time>
      </trkpt>
      <trkpt lat="44.32331" lon="4.42046">
        <ele>392.0288</ele>
        <time>2020-09-01 10:51:57</time>
      </trkpt>
      <trkpt lat="44.32266" lon="4.42058">
        <ele>391.73267</ele>
        <time>2020-09-01 10:52:05</time>
      </trkpt>
      <trkpt lat="44.32221" lon="4.42061">
        <ele>391.95715</ele>
        <time>2020-09-01 10:52:11</time>
      </trkpt>
      <trkpt lat="44.32151" lon="4.42078">
        <ele>390.79883</ele>
        <time>2020-09-01 10:52:20</time>
      </trkpt>
      <trkpt lat="44.3213" lon="4.42091">
        <ele>392.2179</ele>
        <time>2020-09-01 10:52:23</time>
      </trkpt>
      <trkpt lat="44.32116" lon="4.42101">
        <ele>391.6953</ele>
        <time>2020-09-01 10:52:25</time>
      </trkpt>
      <trkpt lat="44.32104" lon="4.42115">
        <ele>391.82446</ele>
        <time>2020-09-01 10:52:27</time>
      </trkpt>
      <trkpt lat="44.32088" lon="4.42139">
        <ele>391.20947</ele>
        <time>2020-09-01 10:52:30</time>
      </trkpt>
      <trkpt lat="44.32076" lon="4.42164">
        <ele>389.98492</ele>
        <time>2020-09-01 10:52:33</time>
      </trkpt>
      <trkpt lat="44.32071" lon="4.42183">
        <ele>388.58386</ele>
        <time>2020-09-01 10:52:35</time>
      </trkpt>
      <trkpt lat="44.32068" lon="4.42203">
        <ele>390.1632</ele>
        <time>2020-09-01 10:52:37</time>
      </trkpt>
      <trkpt lat="44.3207" lon="4.42213">
        <ele>389.4353</ele>
        <time>2020-09-01 10:52:38</time>
      </trkpt>
      <trkpt lat="44.32073" lon="4.42222">
        <ele>388.20996</ele>
        <time>2020-09-01 10:52:39</time>
      </trkpt>
      <trkpt lat="44.32079" lon="4.4224">
        <ele>385.1809</ele>
        <time>2020-09-01 10:52:41</time>
      </trkpt>
      <trkpt lat="44.32088" lon="4.42252">
        <ele>384.44696</ele>
        <time>2020-09-01 10:52:43</time>
      </trkpt>
      <trkpt lat="44.32101" lon="4.42261">
        <ele>383.38824</ele>
        <time>2020-09-01 10:52:45</time>
      </trkpt>
      <trkpt lat="44.32112" lon="4.42266">
        <ele>384.4618</ele>
        <time>2020-09-01 10:52:47</time>
      </trkpt>
      <trkpt lat="44.32124" lon="4.42268">
        <ele>384.25574</ele>
        <time>2020-09-01 10:52:49</time>
      </trkpt>
      <trkpt lat="44.3213" lon="4.42269">
        <ele>384.55957</ele>
        <time>2020-09-01 10:52:50</time>
      </trkpt>
      <trkpt lat="44.32193" lon="4.42261">
        <ele>382.36536</ele>
        <time>2020-09-01 10:53:00</time>
      </trkpt>
      <trkpt lat="44.32206" lon="4.42263">
        <ele>383.21497</ele>
        <time>2020-09-01 10:53:02</time>
      </trkpt>
      <trkpt lat="44.3223" lon="4.42271">
        <ele>382.9652</ele>
        <time>2020-09-01 10:53:06</time>
      </trkpt>
      <trkpt lat="44.32254" lon="4.42283">
        <ele>383.4442</ele>
        <time>2020-09-01 10:53:10</time>
      </trkpt>
      <trkpt lat="44.32266" lon="4.42292">
        <ele>383.90588</ele>
        <time>2020-09-01 10:53:12</time>
      </trkpt>
      <trkpt lat="44.32277" lon="4.42313">
        <ele>380.9784</ele>
        <time>2020-09-01 10:53:15</time>
      </trkpt>
      <trkpt lat="44.32279" lon="4.42321">
        <ele>380.65845</ele>
        <time>2020-09-01 10:53:16</time>
      </trkpt>
      <trkpt lat="44.3228" lon="4.4233">
        <ele>379.96704</ele>
        <time>2020-09-01 10:53:17</time>
      </trkpt>
      <trkpt lat="44.32278" lon="4.42338">
        <ele>379.49695</ele>
        <time>2020-09-01 10:53:18</time>
      </trkpt>
      <trkpt lat="44.32276" lon="4.42346">
        <ele>379.51123</ele>
        <time>2020-09-01 10:53:19</time>
      </trkpt>
      <trkpt lat="44.32273" lon="4.42354">
        <ele>378.5067</ele>
        <time>2020-09-01 10:53:20</time>
      </trkpt>
      <trkpt lat="44.3227" lon="4.42361">
        <ele>378.45966</ele>
        <time>2020-09-01 10:53:21</time>
      </trkpt>
      <trkpt lat="44.32263" lon="4.42365">
        <ele>382.83997</ele>
        <time>2020-09-01 10:53:22</time>
      </trkpt>
      <trkpt lat="44.32256" lon="4.42365">
        <ele>379.8432</ele>
        <time>2020-09-01 10:53:23</time>
      </trkpt>
      <trkpt lat="44.3225" lon="4.42365">
        <ele>380.07373</ele>
        <time>2020-09-01 10:53:24</time>
      </trkpt>
      <trkpt lat="44.32223" lon="4.42362">
        <ele>381.12378</ele>
        <time>2020-09-01 10:53:28</time>
      </trkpt>
      <trkpt lat="44.32209" lon="4.42367">
        <ele>381.29297</ele>
        <time>2020-09-01 10:53:30</time>
      </trkpt>
      <trkpt lat="44.32204" lon="4.42372">
        <ele>381.17682</ele>
        <time>2020-09-01 10:53:31</time>
      </trkpt>
      <trkpt lat="44.32188" lon="4.42391">
        <ele>379.40668</ele>
        <time>2020-09-01 10:53:34</time>
      </trkpt>
      <trkpt lat="44.3215" lon="4.42434">
        <ele>378.45728</ele>
        <time>2020-09-01 10:53:41</time>
      </trkpt>
      <trkpt lat="44.32139" lon="4.42442">
        <ele>380.05737</ele>
        <time>2020-09-01 10:53:43</time>
      </trkpt>
      <trkpt lat="44.32076" lon="4.42481">
        <ele>379.5536</ele>
        <time>2020-09-01 10:53:53</time>
      </trkpt>
      <trkpt lat="44.32068" lon="4.42482">
        <ele>379.75665</ele>
        <time>2020-09-01 10:53:54</time>
      </trkpt>
      <trkpt lat="44.32061" lon="4.42481">
        <ele>379.68048</ele>
        <time>2020-09-01 10:53:55</time>
      </trkpt>
      <trkpt lat="44.32056" lon="4.42476">
        <ele>380.1814</ele>
        <time>2020-09-01 10:53:56</time>
      </trkpt>
      <trkpt lat="44.32023" lon="4.42457">
        <ele>380.2113</ele>
        <time>2020-09-01 10:54:01</time>
      </trkpt>
      <trkpt lat="44.31991" lon="4.42448">
        <ele>379.0138</ele>
        <time>2020-09-01 10:54:06</time>
      </trkpt>
      <trkpt lat="44.3193" lon="4.42437">
        <ele>378.34418</ele>
        <time>2020-09-01 10:54:14</time>
      </trkpt>
      <trkpt lat="44.31904" lon="4.42425">
        <ele>375.48645</ele>
        <time>2020-09-01 10:54:18</time>
      </trkpt>
      <trkpt lat="44.31844" lon="4.42387">
        <ele>375.25964</ele>
        <time>2020-09-01 10:54:29</time>
      </trkpt>
      <trkpt lat="44.31829" lon="4.42384">
        <ele>373.81274</ele>
        <time>2020-09-01 10:54:31</time>
      </trkpt>
      <trkpt lat="44.31809" lon="4.42383">
        <ele>370.52423</ele>
        <time>2020-09-01 10:54:34</time>
      </trkpt>
      <trkpt lat="44.31786" lon="4.42389">
        <ele>371.49103</ele>
        <time>2020-09-01 10:54:38</time>
      </trkpt>
      <trkpt lat="44.31775" lon="4.42395">
        <ele>371.23206</ele>
        <time>2020-09-01 10:54:40</time>
      </trkpt>
      <trkpt lat="44.31771" lon="4.42399">
        <ele>370.1186</ele>
        <time>2020-09-01 10:54:41</time>
      </trkpt>
      <trkpt lat="44.31767" lon="4.42404">
        <ele>370.9557</ele>
        <time>2020-09-01 10:54:42</time>
      </trkpt>
      <trkpt lat="44.31764" lon="4.42412">
        <ele>371.82434</ele>
        <time>2020-09-01 10:54:43</time>
      </trkpt>
      <trkpt lat="44.31763" lon="4.42419">
        <ele>372.29382</ele>
        <time>2020-09-01 10:54:44</time>
      </trkpt>
      <trkpt lat="44.31761" lon="4.42426">
        <ele>372.27087</ele>
        <time>2020-09-01 10:54:45</time>
      </trkpt>
      <trkpt lat="44.3176" lon="4.42434">
        <ele>372.65784</ele>
        <time>2020-09-01 10:54:46</time>
      </trkpt>
      <trkpt lat="44.31762" lon="4.42442">
        <ele>372.82135</ele>
        <time>2020-09-01 10:54:47</time>
      </trkpt>
      <trkpt lat="44.31764" lon="4.4245">
        <ele>373.07043</ele>
        <time>2020-09-01 10:54:48</time>
      </trkpt>
      <trkpt lat="44.31767" lon="4.42457">
        <ele>373.03137</ele>
        <time>2020-09-01 10:54:49</time>
      </trkpt>
      <trkpt lat="44.3177" lon="4.42463">
        <ele>372.35034</ele>
        <time>2020-09-01 10:54:50</time>
      </trkpt>
      <trkpt lat="44.31778" lon="4.42476">
        <ele>371.82434</ele>
        <time>2020-09-01 10:54:52</time>
      </trkpt>
      <trkpt lat="44.31787" lon="4.42488">
        <ele>372.11853</ele>
        <time>2020-09-01 10:54:54</time>
      </trkpt>
      <trkpt lat="44.31794" lon="4.42502">
        <ele>371.31006</ele>
        <time>2020-09-01 10:54:56</time>
      </trkpt>
      <trkpt lat="44.31808" lon="4.42541">
        <ele>371.35956</ele>
        <time>2020-09-01 10:55:01</time>
      </trkpt>
      <trkpt lat="44.31812" lon="4.42567">
        <ele>371.59412</ele>
        <time>2020-09-01 10:55:04</time>
      </trkpt>
      <trkpt lat="44.31812" lon="4.42576">
        <ele>371.26422</ele>
        <time>2020-09-01 10:55:05</time>
      </trkpt>
      <trkpt lat="44.31811" lon="4.42585">
        <ele>371.38367</ele>
        <time>2020-09-01 10:55:06</time>
      </trkpt>
      <trkpt lat="44.31808" lon="4.42593">
        <ele>370.56702</ele>
        <time>2020-09-01 10:55:07</time>
      </trkpt>
      <trkpt lat="44.31804" lon="4.426">
        <ele>370.72455</ele>
        <time>2020-09-01 10:55:08</time>
      </trkpt>
      <trkpt lat="44.31799" lon="4.42605">
        <ele>371.27032</ele>
        <time>2020-09-01 10:55:09</time>
      </trkpt>
      <trkpt lat="44.31794" lon="4.42609">
        <ele>371.69763</ele>
        <time>2020-09-01 10:55:10</time>
      </trkpt>
      <trkpt lat="44.31788" lon="4.42612">
        <ele>372.04456</ele>
        <time>2020-09-01 10:55:11</time>
      </trkpt>
      <trkpt lat="44.31775" lon="4.42614">
        <ele>369.5501</ele>
        <time>2020-09-01 10:55:13</time>
      </trkpt>
      <trkpt lat="44.31641" lon="4.42646">
        <ele>371.28113</ele>
        <time>2020-09-01 10:55:32</time>
      </trkpt>
      <trkpt lat="44.31636" lon="4.4265">
        <ele>369.25916</ele>
        <time>2020-09-01 10:55:33</time>
      </trkpt>
      <trkpt lat="44.31627" lon="4.42663">
        <ele>369.19348</ele>
        <time>2020-09-01 10:55:35</time>
      </trkpt>
      <trkpt lat="44.31624" lon="4.42671">
        <ele>369.39697</ele>
        <time>2020-09-01 10:55:36</time>
      </trkpt>
      <trkpt lat="44.31623" lon="4.4268">
        <ele>369.16376</ele>
        <time>2020-09-01 10:55:37</time>
      </trkpt>
      <trkpt lat="44.31624" lon="4.4269">
        <ele>368.32788</ele>
        <time>2020-09-01 10:55:38</time>
      </trkpt>
      <trkpt lat="44.31625" lon="4.42699">
        <ele>368.48456</ele>
        <time>2020-09-01 10:55:39</time>
      </trkpt>
      <trkpt lat="44.31627" lon="4.42707">
        <ele>368.0066</ele>
        <time>2020-09-01 10:55:40</time>
      </trkpt>
      <trkpt lat="44.31633" lon="4.42724">
        <ele>369.25916</ele>
        <time>2020-09-01 10:55:42</time>
      </trkpt>
      <trkpt lat="44.31638" lon="4.42741">
        <ele>367.15503</ele>
        <time>2020-09-01 10:55:44</time>
      </trkpt>
      <trkpt lat="44.31638" lon="4.42751">
        <ele>366.82733</ele>
        <time>2020-09-01 10:55:45</time>
      </trkpt>
      <trkpt lat="44.31635" lon="4.42761">
        <ele>366.7719</ele>
        <time>2020-09-01 10:55:46</time>
      </trkpt>
      <trkpt lat="44.31626" lon="4.42773">
        <ele>366.3584</ele>
        <time>2020-09-01 10:55:48</time>
      </trkpt>
      <trkpt lat="44.31621" lon="4.42776">
        <ele>367.0357</ele>
        <time>2020-09-01 10:55:49</time>
      </trkpt>
      <trkpt lat="44.31615" lon="4.42777">
        <ele>366.2296</ele>
        <time>2020-09-01 10:55:50</time>
      </trkpt>
      <trkpt lat="44.31589" lon="4.42778">
        <ele>366.52222</ele>
        <time>2020-09-01 10:55:54</time>
      </trkpt>
      <trkpt lat="44.31574" lon="4.42781">
        <ele>367.7334</ele>
        <time>2020-09-01 10:55:56</time>
      </trkpt>
      <trkpt lat="44.3156" lon="4.42784">
        <ele>367.74628</ele>
        <time>2020-09-01 10:55:58</time>
      </trkpt>
      <trkpt lat="44.31532" lon="4.42797">
        <ele>366.80835</ele>
        <time>2020-09-01 10:56:02</time>
      </trkpt>
      <trkpt lat="44.31515" lon="4.42809">
        <ele>367.16632</ele>
        <time>2020-09-01 10:56:05</time>
      </trkpt>
      <trkpt lat="44.31511" lon="4.42815">
        <ele>368.3376</ele>
        <time>2020-09-01 10:56:06</time>
      </trkpt>
      <trkpt lat="44.31507" lon="4.42823">
        <ele>367.97308</ele>
        <time>2020-09-01 10:56:07</time>
      </trkpt>
      <trkpt lat="44.31504" lon="4.42831">
        <ele>367.73816</ele>
        <time>2020-09-01 10:56:08</time>
      </trkpt>
      <trkpt lat="44.31501" lon="4.42848">
        <ele>367.40033</ele>
        <time>2020-09-01 10:56:10</time>
      </trkpt>
      <trkpt lat="44.31502" lon="4.42857">
        <ele>367.91504</ele>
        <time>2020-09-01 10:56:11</time>
      </trkpt>
      <trkpt lat="44.31505" lon="4.42872">
        <ele>367.93616</ele>
        <time>2020-09-01 10:56:13</time>
      </trkpt>
      <trkpt lat="44.3151" lon="4.42886">
        <ele>367.91443</ele>
        <time>2020-09-01 10:56:15</time>
      </trkpt>
      <trkpt lat="44.31533" lon="4.42941">
        <ele>368.6996</ele>
        <time>2020-09-01 10:56:23</time>
      </trkpt>
      <trkpt lat="44.31535" lon="4.42948">
        <ele>368.11298</ele>
        <time>2020-09-01 10:56:24</time>
      </trkpt>
      <trkpt lat="44.31535" lon="4.42955">
        <ele>367.68286</ele>
        <time>2020-09-01 10:56:25</time>
      </trkpt>
      <trkpt lat="44.31534" lon="4.42963">
        <ele>367.68994</ele>
        <time>2020-09-01 10:56:26</time>
      </trkpt>
      <trkpt lat="44.31532" lon="4.42971">
        <ele>367.60327</ele>
        <time>2020-09-01 10:56:27</time>
      </trkpt>
      <trkpt lat="44.31529" lon="4.42977">
        <ele>366.97522</ele>
        <time>2020-09-01 10:56:28</time>
      </trkpt>
      <trkpt lat="44.31525" lon="4.42983">
        <ele>366.74353</ele>
        <time>2020-09-01 10:56:29</time>
      </trkpt>
      <trkpt lat="44.31519" lon="4.42987">
        <ele>366.64636</ele>
        <time>2020-09-01 10:56:30</time>
      </trkpt>
      <trkpt lat="44.31353" lon="4.43097">
        <ele>366.43323</ele>
        <time>2020-09-01 10:57:00</time>
      </trkpt>
      <trkpt lat="44.31246" lon="4.43157">
        <ele>355.56665</ele>
        <time>2020-09-01 10:57:16</time>
      </trkpt>
      <trkpt lat="44.3123" lon="4.4316">
        <ele>354.90588</ele>
        <time>2020-09-01 10:57:18</time>
      </trkpt>
      <trkpt lat="44.31215" lon="4.43159">
        <ele>356.234</ele>
        <time>2020-09-01 10:57:20</time>
      </trkpt>
      <trkpt lat="44.31193" lon="4.43153">
        <ele>358.87146</ele>
        <time>2020-09-01 10:57:23</time>
      </trkpt>
      <trkpt lat="44.31131" lon="4.43125">
        <ele>358.33646</ele>
        <time>2020-09-01 10:57:32</time>
      </trkpt>
      <trkpt lat="44.31109" lon="4.43123">
        <ele>359.32446</ele>
        <time>2020-09-01 10:57:35</time>
      </trkpt>
      <trkpt lat="44.31088" lon="4.43125">
        <ele>357.40784</ele>
        <time>2020-09-01 10:57:38</time>
      </trkpt>
      <trkpt lat="44.31059" lon="4.43134">
        <ele>358.83582</ele>
        <time>2020-09-01 10:57:42</time>
      </trkpt>
      <trkpt lat="44.31044" lon="4.43138">
        <ele>357.52606</ele>
        <time>2020-09-01 10:57:44</time>
      </trkpt>
      <trkpt lat="44.30785" lon="4.4322">
        <ele>351.42346</ele>
        <time>2020-09-01 10:58:14</time>
      </trkpt>
      <trkpt lat="44.30622" lon="4.43268">
        <ele>350.44568</ele>
        <time>2020-09-01 10:58:36</time>
      </trkpt>
      <trkpt lat="44.3061" lon="4.43269">
        <ele>351.31323</ele>
        <time>2020-09-01 10:58:39</time>
      </trkpt>
      <trkpt lat="44.30608" lon="4.4327">
        <ele>351.18774</ele>
        <time>2020-09-01 10:58:40</time>
      </trkpt>
      <trkpt lat="44.30605" lon="4.43271">
        <ele>348.77783</ele>
        <time>2020-09-01 10:58:42</time>
      </trkpt>
      <trkpt lat="44.30604" lon="4.43271">
        <ele>350.61316</ele>
        <time>2020-09-01 10:58:53</time>
      </trkpt>
      <trkpt lat="44.30604" lon="4.43274">
        <ele>350.633</ele>
        <time>2020-09-01 10:58:54</time>
      </trkpt>
      <trkpt lat="44.30603" lon="4.43276">
        <ele>349.9569</ele>
        <time>2020-09-01 10:58:55</time>
      </trkpt>
      <trkpt lat="44.30604" lon="4.43281">
        <ele>351.22992</ele>
        <time>2020-09-01 10:58:57</time>
      </trkpt>
      <trkpt lat="44.30605" lon="4.43286">
        <ele>351.27747</ele>
        <time>2020-09-01 10:59:00</time>
      </trkpt>
      <trkpt lat="44.30607" lon="4.43289">
        <ele>350.61316</ele>
        <time>2020-09-01 10:59:02</time>
      </trkpt>
      <trkpt lat="44.30608" lon="4.43291">
        <ele>351.20477</ele>
        <time>2020-09-01 10:59:03</time>
      </trkpt>
      <trkpt lat="44.30611" lon="4.43291">
        <ele>351.4709</ele>
        <time>2020-09-01 10:59:05</time>
      </trkpt>
      <trkpt lat="44.30614" lon="4.43287">
        <ele>350.948</ele>
        <time>2020-09-01 10:59:07</time>
      </trkpt>
      <trkpt lat="44.30613" lon="4.43284">
        <ele>350.84882</ele>
        <time>2020-09-01 10:59:08</time>
      </trkpt>
      <trkpt lat="44.30612" lon="4.43282">
        <ele>351.9961</ele>
        <time>2020-09-01 10:59:09</time>
      </trkpt>
      <trkpt lat="44.30609" lon="4.4328">
        <ele>351.52625</ele>
        <time>2020-09-01 10:59:10</time>
      </trkpt>
      <trkpt lat="44.30601" lon="4.43279">
        <ele>353.0205</ele>
        <time>2020-09-01 10:59:13</time>
      </trkpt>
      <trkpt lat="44.30569" lon="4.43283">
        <ele>347.96472</ele>
        <time>2020-09-01 10:59:20</time>
      </trkpt>
      <trkpt lat="44.30527" lon="4.43269">
        <ele>343.4843</ele>
        <time>2020-09-01 10:59:28</time>
      </trkpt>
      <trkpt lat="44.30322" lon="4.43204">
        <ele>336.87976</ele>
        <time>2020-09-01 10:59:58</time>
      </trkpt>
      <trkpt lat="44.30303" lon="4.43196">
        <ele>338.0802</ele>
        <time>2020-09-01 11:00:01</time>
      </trkpt>
      <trkpt lat="44.30272" lon="4.43188">
        <ele>337.38306</ele>
        <time>2020-09-01 11:00:06</time>
      </trkpt>
      <trkpt lat="44.30266" lon="4.43191">
        <ele>336.40112</ele>
        <time>2020-09-01 11:00:07</time>
      </trkpt>
      <trkpt lat="44.30253" lon="4.43198">
        <ele>336.26868</ele>
        <time>2020-09-01 11:00:09</time>
      </trkpt>
      <trkpt lat="44.3024" lon="4.43209">
        <ele>336.07104</ele>
        <time>2020-09-01 11:00:11</time>
      </trkpt>
      <trkpt lat="44.30223" lon="4.43228">
        <ele>337.52124</ele>
        <time>2020-09-01 11:00:14</time>
      </trkpt>
      <trkpt lat="44.30213" lon="4.43244">
        <ele>339.23645</ele>
        <time>2020-09-01 11:00:16</time>
      </trkpt>
      <trkpt lat="44.3019" lon="4.43283">
        <ele>338.44336</ele>
        <time>2020-09-01 11:00:21</time>
      </trkpt>
      <trkpt lat="44.30187" lon="4.43292">
        <ele>336.68835</ele>
        <time>2020-09-01 11:00:22</time>
      </trkpt>
      <trkpt lat="44.30181" lon="4.43323">
        <ele>335.54938</ele>
        <time>2020-09-01 11:00:25</time>
      </trkpt>
      <trkpt lat="44.30177" lon="4.43363">
        <ele>335.98718</ele>
        <time>2020-09-01 11:00:29</time>
      </trkpt>
      <trkpt lat="44.30178" lon="4.43396">
        <ele>336.65295</ele>
        <time>2020-09-01 11:00:32</time>
      </trkpt>
      <trkpt lat="44.302" lon="4.43566">
        <ele>322.6078</ele>
        <time>2020-09-01 11:00:47</time>
      </trkpt>
      <trkpt lat="44.30202" lon="4.43576">
        <ele>321.17108</ele>
        <time>2020-09-01 11:00:48</time>
      </trkpt>
      <trkpt lat="44.30206" lon="4.43585">
        <ele>321.2738</ele>
        <time>2020-09-01 11:00:49</time>
      </trkpt>
      <trkpt lat="44.30217" lon="4.43599">
        <ele>320.5221</ele>
        <time>2020-09-01 11:00:51</time>
      </trkpt>
      <trkpt lat="44.30229" lon="4.43612">
        <ele>319.16174</ele>
        <time>2020-09-01 11:00:53</time>
      </trkpt>
      <trkpt lat="44.30238" lon="4.43615">
        <ele>319.5027</ele>
        <time>2020-09-01 11:00:54</time>
      </trkpt>
      <trkpt lat="44.30253" lon="4.4362">
        <ele>318.29828</ele>
        <time>2020-09-01 11:00:56</time>
      </trkpt>
      <trkpt lat="44.30343" lon="4.43645">
        <ele>315.74896</ele>
        <time>2020-09-01 11:01:08</time>
      </trkpt>
      <trkpt lat="44.30357" lon="4.43656">
        <ele>315.01117</ele>
        <time>2020-09-01 11:01:10</time>
      </trkpt>
      <trkpt lat="44.30519" lon="4.43848">
        <ele>300.87103</ele>
        <time>2020-09-01 11:01:37</time>
      </trkpt>
      <trkpt lat="44.30532" lon="4.43857">
        <ele>302.7799</ele>
        <time>2020-09-01 11:01:39</time>
      </trkpt>
      <trkpt lat="44.30547" lon="4.43863">
        <ele>302.27002</ele>
        <time>2020-09-01 11:01:41</time>
      </trkpt>
      <trkpt lat="44.30572" lon="4.4387">
        <ele>299.07373</ele>
        <time>2020-09-01 11:01:44</time>
      </trkpt>
      <trkpt lat="44.30587" lon="4.43871">
        <ele>298.3817</ele>
        <time>2020-09-01 11:01:46</time>
      </trkpt>
      <trkpt lat="44.30601" lon="4.43868">
        <ele>296.19214</ele>
        <time>2020-09-01 11:01:48</time>
      </trkpt>
      <trkpt lat="44.30616" lon="4.43865">
        <ele>294.7298</ele>
        <time>2020-09-01 11:01:50</time>
      </trkpt>
      <trkpt lat="44.30623" lon="4.43866">
        <ele>293.9607</ele>
        <time>2020-09-01 11:01:51</time>
      </trkpt>
      <trkpt lat="44.30631" lon="4.43869">
        <ele>299.4599</ele>
        <time>2020-09-01 11:01:52</time>
      </trkpt>
      <trkpt lat="44.30644" lon="4.43878">
        <ele>294.33264</ele>
        <time>2020-09-01 11:01:54</time>
      </trkpt>
      <trkpt lat="44.30684" lon="4.43908">
        <ele>292.58887</ele>
        <time>2020-09-01 11:02:00</time>
      </trkpt>
      <trkpt lat="44.30746" lon="4.43942">
        <ele>291.6692</ele>
        <time>2020-09-01 11:02:09</time>
      </trkpt>
      <trkpt lat="44.30749" lon="4.43948">
        <ele>291.2074</ele>
        <time>2020-09-01 11:02:10</time>
      </trkpt>
      <trkpt lat="44.30752" lon="4.43955">
        <ele>291.84583</ele>
        <time>2020-09-01 11:02:11</time>
      </trkpt>
      <trkpt lat="44.30752" lon="4.43963">
        <ele>292.16272</ele>
        <time>2020-09-01 11:02:12</time>
      </trkpt>
      <trkpt lat="44.30751" lon="4.43971">
        <ele>290.38477</ele>
        <time>2020-09-01 11:02:13</time>
      </trkpt>
      <trkpt lat="44.3075" lon="4.43978">
        <ele>289.5971</ele>
        <time>2020-09-01 11:02:14</time>
      </trkpt>
      <trkpt lat="44.30748" lon="4.43985">
        <ele>289.7544</ele>
        <time>2020-09-01 11:02:15</time>
      </trkpt>
      <trkpt lat="44.30744" lon="4.43991">
        <ele>289.5432</ele>
        <time>2020-09-01 11:02:16</time>
      </trkpt>
      <trkpt lat="44.3074" lon="4.43995">
        <ele>290.42883</ele>
        <time>2020-09-01 11:02:17</time>
      </trkpt>
      <trkpt lat="44.30736" lon="4.43998">
        <ele>289.7414</ele>
        <time>2020-09-01 11:02:18</time>
      </trkpt>
      <trkpt lat="44.30725" lon="4.44002">
        <ele>290.9131</ele>
        <time>2020-09-01 11:02:20</time>
      </trkpt>
      <trkpt lat="44.30721" lon="4.44003">
        <ele>291.01038</ele>
        <time>2020-09-01 11:02:21</time>
      </trkpt>
      <trkpt lat="44.30704" lon="4.44002">
        <ele>292.4734</ele>
        <time>2020-09-01 11:02:24</time>
      </trkpt>
      <trkpt lat="44.30687" lon="4.43998">
        <ele>293.5874</ele>
        <time>2020-09-01 11:02:27</time>
      </trkpt>
      <trkpt lat="44.30682" lon="4.43996">
        <ele>293.3728</ele>
        <time>2020-09-01 11:02:28</time>
      </trkpt>
      <trkpt lat="44.30639" lon="4.43977">
        <ele>295.82898</ele>
        <time>2020-09-01 11:02:37</time>
      </trkpt>
      <trkpt lat="44.3063" lon="4.43976">
        <ele>296.3534</ele>
        <time>2020-09-01 11:02:39</time>
      </trkpt>
      <trkpt lat="44.30616" lon="4.43976">
        <ele>296.8324</ele>
        <time>2020-09-01 11:02:42</time>
      </trkpt>
      <trkpt lat="44.30606" lon="4.4398">
        <ele>296.97394</ele>
        <time>2020-09-01 11:02:45</time>
      </trkpt>
      <trkpt lat="44.30596" lon="4.43983">
        <ele>299.04944</ele>
        <time>2020-09-01 11:02:47</time>
      </trkpt>
      <trkpt lat="44.30548" lon="4.43998">
        <ele>299.66272</ele>
        <time>2020-09-01 11:02:59</time>
      </trkpt>
      <trkpt lat="44.30537" lon="4.44004">
        <ele>300.31433</ele>
        <time>2020-09-01 11:03:02</time>
      </trkpt>
      <trkpt lat="44.30433" lon="4.44087">
        <ele>303.3053</ele>
        <time>2020-09-01 11:03:32</time>
      </trkpt>
      <trkpt lat="44.30418" lon="4.44096">
        <ele>309.30957</ele>
        <time>2020-09-01 11:03:36</time>
      </trkpt>
      <trkpt lat="44.30415" lon="4.44098">
        <ele>309.7008</ele>
        <time>2020-09-01 11:03:37</time>
      </trkpt>
      <trkpt lat="44.304" lon="4.44105">
        <ele>309.516</ele>
        <time>2020-09-01 11:03:41</time>
      </trkpt>
      <trkpt lat="44.30365" lon="4.44119">
        <ele>308.27826</ele>
        <time>2020-09-01 11:03:51</time>
      </trkpt>
      <trkpt lat="44.30355" lon="4.44125">
        <ele>310.16443</ele>
        <time>2020-09-01 11:03:54</time>
      </trkpt>
      <trkpt lat="44.30327" lon="4.44148">
        <ele>310.46692</ele>
        <time>2020-09-01 11:04:02</time>
      </trkpt>
      <trkpt lat="44.30312" lon="4.44157">
        <ele>316.01288</ele>
        <time>2020-09-01 11:04:06</time>
      </trkpt>
      <trkpt lat="44.30218" lon="4.44233">
        <ele>312.73523</ele>
        <time>2020-09-01 11:04:36</time>
      </trkpt>
      <trkpt lat="44.30202" lon="4.44247">
        <ele>312.71826</ele>
        <time>2020-09-01 11:04:41</time>
      </trkpt>
      <trkpt lat="44.30191" lon="4.44261">
        <ele>312.6809</ele>
        <time>2020-09-01 11:04:45</time>
      </trkpt>
      <trkpt lat="44.30187" lon="4.4427">
        <ele>312.43793</ele>
        <time>2020-09-01 11:04:47</time>
      </trkpt>
      <trkpt lat="44.30185" lon="4.44274">
        <ele>312.71796</ele>
        <time>2020-09-01 11:04:48</time>
      </trkpt>
      <trkpt lat="44.30184" lon="4.44284">
        <ele>312.16614</ele>
        <time>2020-09-01 11:04:50</time>
      </trkpt>
      <trkpt lat="44.30184" lon="4.44295">
        <ele>312.45996</ele>
        <time>2020-09-01 11:04:52</time>
      </trkpt>
      <trkpt lat="44.30185" lon="4.44305">
        <ele>312.0326</ele>
        <time>2020-09-01 11:04:54</time>
      </trkpt>
      <trkpt lat="44.30188" lon="4.44315">
        <ele>312.94586</ele>
        <time>2020-09-01 11:04:56</time>
      </trkpt>
      <trkpt lat="44.3019" lon="4.4432">
        <ele>312.24548</ele>
        <time>2020-09-01 11:04:57</time>
      </trkpt>
      <trkpt lat="44.30199" lon="4.44336">
        <ele>311.61823</ele>
        <time>2020-09-01 11:05:01</time>
      </trkpt>
      <trkpt lat="44.30205" lon="4.44343">
        <ele>313.46936</ele>
        <time>2020-09-01 11:05:03</time>
      </trkpt>
      <trkpt lat="44.30212" lon="4.44347">
        <ele>312.75867</ele>
        <time>2020-09-01 11:05:05</time>
      </trkpt>
      <trkpt lat="44.30224" lon="4.44351">
        <ele>311.06464</ele>
        <time>2020-09-01 11:05:08</time>
      </trkpt>
      <trkpt lat="44.30256" lon="4.44356">
        <ele>309.56067</ele>
        <time>2020-09-01 11:05:16</time>
      </trkpt>
      <trkpt lat="44.30292" lon="4.44364">
        <ele>310.51746</ele>
        <time>2020-09-01 11:05:26</time>
      </trkpt>
      <trkpt lat="44.30296" lon="4.44365">
        <ele>311.489</ele>
        <time>2020-09-01 11:05:27</time>
      </trkpt>
      <trkpt lat="44.30411" lon="4.44395">
        <ele>315.67432</ele>
        <time>2020-09-01 11:05:57</time>
      </trkpt>
      <trkpt lat="44.30418" lon="4.44396">
        <ele>316.44446</ele>
        <time>2020-09-01 11:05:59</time>
      </trkpt>
      <trkpt lat="44.30429" lon="4.44399">
        <ele>315.09827</ele>
        <time>2020-09-01 11:06:02</time>
      </trkpt>
      <trkpt lat="44.30433" lon="4.444">
        <ele>315.63336</ele>
        <time>2020-09-01 11:06:03</time>
      </trkpt>
      <trkpt lat="44.30457" lon="4.44411">
        <ele>316.56854</ele>
        <time>2020-09-01 11:06:09</time>
      </trkpt>
      <trkpt lat="44.30488" lon="4.4444">
        <ele>319.70312</ele>
        <time>2020-09-01 11:06:18</time>
      </trkpt>
      <trkpt lat="44.30491" lon="4.44444">
        <ele>319.86212</ele>
        <time>2020-09-01 11:06:19</time>
      </trkpt>
      <trkpt lat="44.30496" lon="4.44454">
        <ele>319.88318</ele>
        <time>2020-09-01 11:06:21</time>
      </trkpt>
      <trkpt lat="44.30499" lon="4.44464">
        <ele>319.56885</ele>
        <time>2020-09-01 11:06:23</time>
      </trkpt>
      <trkpt lat="44.30501" lon="4.44476">
        <ele>318.06122</ele>
        <time>2020-09-01 11:06:25</time>
      </trkpt>
      <trkpt lat="44.30503" lon="4.44553">
        <ele>326.80823</ele>
        <time>2020-09-01 11:06:40</time>
      </trkpt>
      <trkpt lat="44.30503" lon="4.44558">
        <ele>327.5672</ele>
        <time>2020-09-01 11:06:41</time>
      </trkpt>
      <trkpt lat="44.30504" lon="4.44582">
        <ele>326.8896</ele>
        <time>2020-09-01 11:06:46</time>
      </trkpt>
      <trkpt lat="44.30509" lon="4.44728">
        <ele>326.93945</ele>
        <time>2020-09-01 11:07:14</time>
      </trkpt>
      <trkpt lat="44.30516" lon="4.44785">
        <ele>325.97754</ele>
        <time>2020-09-01 11:07:23</time>
      </trkpt>
      <trkpt lat="44.30517" lon="4.44794">
        <ele>326.3775</ele>
        <time>2020-09-01 11:07:25</time>
      </trkpt>
      <trkpt lat="44.30519" lon="4.44809">
        <ele>325.31824</ele>
        <time>2020-09-01 11:07:28</time>
      </trkpt>
      <trkpt lat="44.30517" lon="4.44844">
        <ele>327.52057</ele>
        <time>2020-09-01 11:07:36</time>
      </trkpt>
      <trkpt lat="44.30515" lon="4.44852">
        <ele>328.1643</ele>
        <time>2020-09-01 11:07:38</time>
      </trkpt>
      <trkpt lat="44.30486" lon="4.44973">
        <ele>333.02356</ele>
        <time>2020-09-01 11:08:08</time>
      </trkpt>
      <trkpt lat="44.30475" lon="4.45013">
        <ele>332.26062</ele>
        <time>2020-09-01 11:08:16</time>
      </trkpt>
      <trkpt lat="44.30471" lon="4.45023">
        <ele>332.53137</ele>
        <time>2020-09-01 11:08:18</time>
      </trkpt>
      <trkpt lat="44.30462" lon="4.45035">
        <ele>333.58405</ele>
        <time>2020-09-01 11:08:21</time>
      </trkpt>
      <trkpt lat="44.3045" lon="4.45042">
        <ele>334.33154</ele>
        <time>2020-09-01 11:08:24</time>
      </trkpt>
      <trkpt lat="44.30437" lon="4.45049">
        <ele>332.95874</ele>
        <time>2020-09-01 11:08:27</time>
      </trkpt>
      <trkpt lat="44.30426" lon="4.4506">
        <ele>334.05078</ele>
        <time>2020-09-01 11:08:30</time>
      </trkpt>
      <trkpt lat="44.3042" lon="4.4507">
        <ele>333.49146</ele>
        <time>2020-09-01 11:08:32</time>
      </trkpt>
      <trkpt lat="44.30416" lon="4.45082">
        <ele>334.1928</ele>
        <time>2020-09-01 11:08:34</time>
      </trkpt>
      <trkpt lat="44.30403" lon="4.45121">
        <ele>334.42456</ele>
        <time>2020-09-01 11:08:41</time>
      </trkpt>
      <trkpt lat="44.30394" lon="4.45147">
        <ele>335.1463</ele>
        <time>2020-09-01 11:08:46</time>
      </trkpt>
      <trkpt lat="44.30389" lon="4.45157">
        <ele>333.701</ele>
        <time>2020-09-01 11:08:48</time>
      </trkpt>
      <trkpt lat="44.3038" lon="4.45189">
        <ele>334.16638</ele>
        <time>2020-09-01 11:08:54</time>
      </trkpt>
      <trkpt lat="44.30367" lon="4.45224">
        <ele>333.82758</ele>
        <time>2020-09-01 11:09:01</time>
      </trkpt>
      <trkpt lat="44.30351" lon="4.45283">
        <ele>333.59613</ele>
        <time>2020-09-01 11:09:12</time>
      </trkpt>
      <trkpt lat="44.30347" lon="4.45327">
        <ele>341.21313</ele>
        <time>2020-09-01 11:09:19</time>
      </trkpt>
      <trkpt lat="44.30348" lon="4.4535">
        <ele>338.9671</ele>
        <time>2020-09-01 11:09:22</time>
      </trkpt>
      <trkpt lat="44.30347" lon="4.45364">
        <ele>343.58972</ele>
        <time>2020-09-01 11:09:24</time>
      </trkpt>
      <trkpt lat="44.30337" lon="4.45546">
        <ele>338.56885</ele>
        <time>2020-09-01 11:09:42</time>
      </trkpt>
      <trkpt lat="44.30334" lon="4.45578">
        <ele>333.7871</ele>
        <time>2020-09-01 11:09:45</time>
      </trkpt>
      <trkpt lat="44.30334" lon="4.45617">
        <ele>331.5041</ele>
        <time>2020-09-01 11:09:49</time>
      </trkpt>
      <trkpt lat="44.30332" lon="4.45646">
        <ele>332.98157</ele>
        <time>2020-09-01 11:09:52</time>
      </trkpt>
      <trkpt lat="44.30327" lon="4.45726">
        <ele>330.25726</ele>
        <time>2020-09-01 11:10:00</time>
      </trkpt>
      <trkpt lat="44.30317" lon="4.45808">
        <ele>329.5288</ele>
        <time>2020-09-01 11:10:09</time>
      </trkpt>
      <trkpt lat="44.30312" lon="4.45934">
        <ele>327.3108</ele>
        <time>2020-09-01 11:10:23</time>
      </trkpt>
      <trkpt lat="44.30313" lon="4.46022">
        <ele>329.22668</ele>
        <time>2020-09-01 11:10:33</time>
      </trkpt>
      <trkpt lat="44.30311" lon="4.46037">
        <ele>328.594</ele>
        <time>2020-09-01 11:10:35</time>
      </trkpt>
      <trkpt lat="44.30307" lon="4.46052">
        <ele>327.89954</ele>
        <time>2020-09-01 11:10:37</time>
      </trkpt>
      <trkpt lat="44.30299" lon="4.46067">
        <ele>326.82788</ele>
        <time>2020-09-01 11:10:39</time>
      </trkpt>
      <trkpt lat="44.30294" lon="4.46074">
        <ele>326.47852</ele>
        <time>2020-09-01 11:10:40</time>
      </trkpt>
      <trkpt lat="44.30271" lon="4.46106">
        <ele>323.8086</ele>
        <time>2020-09-01 11:10:45</time>
      </trkpt>
      <trkpt lat="44.30267" lon="4.46115">
        <ele>323.5088</ele>
        <time>2020-09-01 11:10:46</time>
      </trkpt>
      <trkpt lat="44.30265" lon="4.46124">
        <ele>324.95605</ele>
        <time>2020-09-01 11:10:47</time>
      </trkpt>
      <trkpt lat="44.30261" lon="4.46141">
        <ele>325.13055</ele>
        <time>2020-09-01 11:10:49</time>
      </trkpt>
      <trkpt lat="44.30262" lon="4.46152">
        <ele>323.5249</ele>
        <time>2020-09-01 11:10:50</time>
      </trkpt>
      <trkpt lat="44.30262" lon="4.46171">
        <ele>323.4314</ele>
        <time>2020-09-01 11:10:52</time>
      </trkpt>
      <trkpt lat="44.30274" lon="4.46289">
        <ele>325.10742</ele>
        <time>2020-09-01 11:11:06</time>
      </trkpt>
      <trkpt lat="44.30271" lon="4.46348">
        <ele>327.76514</ele>
        <time>2020-09-01 11:11:12</time>
      </trkpt>
      <trkpt lat="44.30263" lon="4.46433">
        <ele>323.30212</ele>
        <time>2020-09-01 11:11:20</time>
      </trkpt>
      <trkpt lat="44.30267" lon="4.46489">
        <ele>320.02032</ele>
        <time>2020-09-01 11:11:25</time>
      </trkpt>
      <trkpt lat="44.30284" lon="4.46645">
        <ele>314.86322</ele>
        <time>2020-09-01 11:11:38</time>
      </trkpt>
      <trkpt lat="44.30292" lon="4.46681">
        <ele>313.2046</ele>
        <time>2020-09-01 11:11:41</time>
      </trkpt>
      <trkpt lat="44.30295" lon="4.46693">
        <ele>314.94556</ele>
        <time>2020-09-01 11:11:42</time>
      </trkpt>
      <trkpt lat="44.30296" lon="4.46705">
        <ele>312.25116</ele>
        <time>2020-09-01 11:11:43</time>
      </trkpt>
      <trkpt lat="44.30295" lon="4.46717">
        <ele>312.65808</ele>
        <time>2020-09-01 11:11:44</time>
      </trkpt>
      <trkpt lat="44.30293" lon="4.46727">
        <ele>312.21045</ele>
        <time>2020-09-01 11:11:45</time>
      </trkpt>
      <trkpt lat="44.30288" lon="4.46737">
        <ele>310.96326</ele>
        <time>2020-09-01 11:11:46</time>
      </trkpt>
      <trkpt lat="44.30266" lon="4.46784">
        <ele>309.3675</ele>
        <time>2020-09-01 11:11:51</time>
      </trkpt>
      <trkpt lat="44.30261" lon="4.46806">
        <ele>308.7506</ele>
        <time>2020-09-01 11:11:53</time>
      </trkpt>
      <trkpt lat="44.30251" lon="4.46875">
        <ele>308.0243</ele>
        <time>2020-09-01 11:11:59</time>
      </trkpt>
      <trkpt lat="44.30252" lon="4.46898">
        <ele>308.22528</ele>
        <time>2020-09-01 11:12:01</time>
      </trkpt>
      <trkpt lat="44.30252" lon="4.46909">
        <ele>308.7506</ele>
        <time>2020-09-01 11:12:02</time>
      </trkpt>
      <trkpt lat="44.30255" lon="4.4692">
        <ele>306.87952</ele>
        <time>2020-09-01 11:12:03</time>
      </trkpt>
      <trkpt lat="44.30265" lon="4.46945">
        <ele>306.5221</ele>
        <time>2020-09-01 11:12:06</time>
      </trkpt>
      <trkpt lat="44.30278" lon="4.46969">
        <ele>303.92224</ele>
        <time>2020-09-01 11:12:09</time>
      </trkpt>
      <trkpt lat="44.30283" lon="4.46975">
        <ele>304.29193</ele>
        <time>2020-09-01 11:12:10</time>
      </trkpt>
      <trkpt lat="44.30312" lon="4.47014">
        <ele>302.83777</ele>
        <time>2020-09-01 11:12:16</time>
      </trkpt>
      <trkpt lat="44.30313" lon="4.47023">
        <ele>302.58264</ele>
        <time>2020-09-01 11:12:17</time>
      </trkpt>
      <trkpt lat="44.30321" lon="4.47051">
        <ele>302.64886</ele>
        <time>2020-09-01 11:12:20</time>
      </trkpt>
      <trkpt lat="44.30326" lon="4.47058">
        <ele>302.1759</ele>
        <time>2020-09-01 11:12:21</time>
      </trkpt>
      <trkpt lat="44.30331" lon="4.47064">
        <ele>303.24945</ele>
        <time>2020-09-01 11:12:22</time>
      </trkpt>
      <trkpt lat="44.3035" lon="4.47086">
        <ele>300.57837</ele>
        <time>2020-09-01 11:12:25</time>
      </trkpt>
      <trkpt lat="44.30353" lon="4.47097">
        <ele>300.70813</ele>
        <time>2020-09-01 11:12:26</time>
      </trkpt>
      <trkpt lat="44.30356" lon="4.47108">
        <ele>299.93567</ele>
        <time>2020-09-01 11:12:27</time>
      </trkpt>
      <trkpt lat="44.30356" lon="4.47119">
        <ele>298.78967</ele>
        <time>2020-09-01 11:12:28</time>
      </trkpt>
      <trkpt lat="44.30353" lon="4.47142">
        <ele>298.25708</ele>
        <time>2020-09-01 11:12:30</time>
      </trkpt>
      <trkpt lat="44.3035" lon="4.47153">
        <ele>298.79712</ele>
        <time>2020-09-01 11:12:31</time>
      </trkpt>
      <trkpt lat="44.30341" lon="4.47206">
        <ele>299.72345</ele>
        <time>2020-09-01 11:12:36</time>
      </trkpt>
      <trkpt lat="44.30341" lon="4.47215">
        <ele>299.39502</ele>
        <time>2020-09-01 11:12:37</time>
      </trkpt>
      <trkpt lat="44.30343" lon="4.47233">
        <ele>301.37646</ele>
        <time>2020-09-01 11:12:39</time>
      </trkpt>
      <trkpt lat="44.30346" lon="4.47267">
        <ele>301.36096</ele>
        <time>2020-09-01 11:12:43</time>
      </trkpt>
      <trkpt lat="44.30343" lon="4.47283">
        <ele>301.4353</ele>
        <time>2020-09-01 11:12:45</time>
      </trkpt>
      <trkpt lat="44.30339" lon="4.47291">
        <ele>299.80682</ele>
        <time>2020-09-01 11:12:46</time>
      </trkpt>
      <trkpt lat="44.30335" lon="4.47299">
        <ele>300.1953</ele>
        <time>2020-09-01 11:12:47</time>
      </trkpt>
      <trkpt lat="44.30319" lon="4.47319">
        <ele>297.55432</ele>
        <time>2020-09-01 11:12:50</time>
      </trkpt>
      <trkpt lat="44.30266" lon="4.47373">
        <ele>297.49365</ele>
        <time>2020-09-01 11:12:58</time>
      </trkpt>
      <trkpt lat="44.3023" lon="4.47407">
        <ele>293.1682</ele>
        <time>2020-09-01 11:13:03</time>
      </trkpt>
      <trkpt lat="44.30213" lon="4.47429">
        <ele>289.95868</ele>
        <time>2020-09-01 11:13:06</time>
      </trkpt>
      <trkpt lat="44.30192" lon="4.47459">
        <ele>289.0926</ele>
        <time>2020-09-01 11:13:10</time>
      </trkpt>
      <trkpt lat="44.30185" lon="4.47476">
        <ele>293.1682</ele>
        <time>2020-09-01 11:13:12</time>
      </trkpt>
      <trkpt lat="44.30183" lon="4.47485">
        <ele>288.5891</ele>
        <time>2020-09-01 11:13:13</time>
      </trkpt>
      <trkpt lat="44.30181" lon="4.47494">
        <ele>289.65564</ele>
        <time>2020-09-01 11:13:14</time>
      </trkpt>
      <trkpt lat="44.30181" lon="4.47503">
        <ele>289.0586</ele>
        <time>2020-09-01 11:13:15</time>
      </trkpt>
      <trkpt lat="44.30184" lon="4.47511">
        <ele>289.84113</ele>
        <time>2020-09-01 11:13:16</time>
      </trkpt>
      <trkpt lat="44.30189" lon="4.47526">
        <ele>289.77502</ele>
        <time>2020-09-01 11:13:18</time>
      </trkpt>
      <trkpt lat="44.302" lon="4.47558">
        <ele>289.30014</ele>
        <time>2020-09-01 11:13:22</time>
      </trkpt>
      <trkpt lat="44.30213" lon="4.47576">
        <ele>287.60974</ele>
        <time>2020-09-01 11:13:25</time>
      </trkpt>
      <trkpt lat="44.30223" lon="4.47588">
        <ele>288.10437</ele>
        <time>2020-09-01 11:13:27</time>
      </trkpt>
      <trkpt lat="44.30245" lon="4.47613">
        <ele>288.13513</ele>
        <time>2020-09-01 11:13:31</time>
      </trkpt>
      <trkpt lat="44.30257" lon="4.47636">
        <ele>288.29163</ele>
        <time>2020-09-01 11:13:34</time>
      </trkpt>
      <trkpt lat="44.30273" lon="4.47678">
        <ele>287.90942</ele>
        <time>2020-09-01 11:13:39</time>
      </trkpt>
      <trkpt lat="44.30289" lon="4.47727">
        <ele>287.67554</ele>
        <time>2020-09-01 11:13:45</time>
      </trkpt>
      <trkpt lat="44.30293" lon="4.47754">
        <ele>285.79163</ele>
        <time>2020-09-01 11:13:48</time>
      </trkpt>
      <trkpt lat="44.30295" lon="4.47771">
        <ele>285.1676</ele>
        <time>2020-09-01 11:13:50</time>
      </trkpt>
      <trkpt lat="44.30294" lon="4.47788">
        <ele>289.1076</ele>
        <time>2020-09-01 11:13:52</time>
      </trkpt>
      <trkpt lat="44.30283" lon="4.47852">
        <ele>283.21008</ele>
        <time>2020-09-01 11:13:59</time>
      </trkpt>
      <trkpt lat="44.30277" lon="4.4787">
        <ele>281.52368</ele>
        <time>2020-09-01 11:14:01</time>
      </trkpt>
      <trkpt lat="44.30207" lon="4.48015">
        <ele>275.25525</ele>
        <time>2020-09-01 11:14:16</time>
      </trkpt>
      <trkpt lat="44.30187" lon="4.4804">
        <ele>273.36157</ele>
        <time>2020-09-01 11:14:19</time>
      </trkpt>
      <trkpt lat="44.30168" lon="4.48063">
        <ele>275.84778</ele>
        <time>2020-09-01 11:14:22</time>
      </trkpt>
      <trkpt lat="44.30163" lon="4.48072">
        <ele>273.6526</ele>
        <time>2020-09-01 11:14:23</time>
      </trkpt>
      <trkpt lat="44.30159" lon="4.48081">
        <ele>273.68457</ele>
        <time>2020-09-01 11:14:24</time>
      </trkpt>
      <trkpt lat="44.30156" lon="4.48102">
        <ele>272.76215</ele>
        <time>2020-09-01 11:14:26</time>
      </trkpt>
      <trkpt lat="44.30157" lon="4.48112">
        <ele>272.0503</ele>
        <time>2020-09-01 11:14:27</time>
      </trkpt>
      <trkpt lat="44.30158" lon="4.48122">
        <ele>273.24652</ele>
        <time>2020-09-01 11:14:28</time>
      </trkpt>
      <trkpt lat="44.30163" lon="4.4814">
        <ele>273.93018</ele>
        <time>2020-09-01 11:14:30</time>
      </trkpt>
      <trkpt lat="44.30168" lon="4.48149">
        <ele>273.4989</ele>
        <time>2020-09-01 11:14:31</time>
      </trkpt>
      <trkpt lat="44.30173" lon="4.48158">
        <ele>273.6526</ele>
        <time>2020-09-01 11:14:32</time>
      </trkpt>
      <trkpt lat="44.3019" lon="4.48176">
        <ele>274.16223</ele>
        <time>2020-09-01 11:14:35</time>
      </trkpt>
      <trkpt lat="44.30203" lon="4.48188">
        <ele>276.08337</ele>
        <time>2020-09-01 11:14:37</time>
      </trkpt>
      <trkpt lat="44.30218" lon="4.48194">
        <ele>273.64862</ele>
        <time>2020-09-01 11:14:39</time>
      </trkpt>
      <trkpt lat="44.30238" lon="4.48202">
        <ele>275.30725</ele>
        <time>2020-09-01 11:14:42</time>
      </trkpt>
      <trkpt lat="44.30285" lon="4.48212">
        <ele>268.97058</ele>
        <time>2020-09-01 11:14:49</time>
      </trkpt>
      <trkpt lat="44.30291" lon="4.48217">
        <ele>268.7472</ele>
        <time>2020-09-01 11:14:50</time>
      </trkpt>
      <trkpt lat="44.30294" lon="4.48225">
        <ele>268.5786</ele>
        <time>2020-09-01 11:14:51</time>
      </trkpt>
      <trkpt lat="44.30296" lon="4.48231">
        <ele>270.03275</ele>
        <time>2020-09-01 11:14:52</time>
      </trkpt>
      <trkpt lat="44.30295" lon="4.4824">
        <ele>266.97363</ele>
        <time>2020-09-01 11:14:53</time>
      </trkpt>
      <trkpt lat="44.30291" lon="4.48247">
        <ele>268.15454</ele>
        <time>2020-09-01 11:14:54</time>
      </trkpt>
      <trkpt lat="44.30286" lon="4.48253">
        <ele>268.59924</ele>
        <time>2020-09-01 11:14:55</time>
      </trkpt>
      <trkpt lat="44.30275" lon="4.48261">
        <ele>269.8545</ele>
        <time>2020-09-01 11:14:57</time>
      </trkpt>
      <trkpt lat="44.30186" lon="4.48311">
        <ele>270.38623</ele>
        <time>2020-09-01 11:15:12</time>
      </trkpt>
      <trkpt lat="44.30184" lon="4.48317">
        <ele>267.9933</ele>
        <time>2020-09-01 11:15:13</time>
      </trkpt>
      <trkpt lat="44.30183" lon="4.48325">
        <ele>266.80994</ele>
        <time>2020-09-01 11:15:14</time>
      </trkpt>
      <trkpt lat="44.30184" lon="4.48335">
        <ele>265.85242</ele>
        <time>2020-09-01 11:15:15</time>
      </trkpt>
      <trkpt lat="44.30187" lon="4.48343">
        <ele>264.7589</ele>
        <time>2020-09-01 11:15:16</time>
      </trkpt>
      <trkpt lat="44.30192" lon="4.48351">
        <ele>264.98346</ele>
        <time>2020-09-01 11:15:17</time>
      </trkpt>
      <trkpt lat="44.30198" lon="4.48358">
        <ele>265.36725</ele>
        <time>2020-09-01 11:15:18</time>
      </trkpt>
      <trkpt lat="44.30205" lon="4.48361">
        <ele>265.4961</ele>
        <time>2020-09-01 11:15:19</time>
      </trkpt>
      <trkpt lat="44.30211" lon="4.48362">
        <ele>265.6062</ele>
        <time>2020-09-01 11:15:20</time>
      </trkpt>
      <trkpt lat="44.30218" lon="4.48361">
        <ele>265.41626</ele>
        <time>2020-09-01 11:15:21</time>
      </trkpt>
      <trkpt lat="44.30239" lon="4.48358">
        <ele>265.87854</ele>
        <time>2020-09-01 11:15:24</time>
      </trkpt>
      <trkpt lat="44.3028" lon="4.48348">
        <ele>267.50488</ele>
        <time>2020-09-01 11:15:31</time>
      </trkpt>
      <trkpt lat="44.30286" lon="4.48348">
        <ele>265.18036</ele>
        <time>2020-09-01 11:15:32</time>
      </trkpt>
      <trkpt lat="44.30291" lon="4.48349">
        <ele>268.57233</ele>
        <time>2020-09-01 11:15:33</time>
      </trkpt>
      <trkpt lat="44.30301" lon="4.48357">
        <ele>268.1292</ele>
        <time>2020-09-01 11:15:35</time>
      </trkpt>
      <trkpt lat="44.30306" lon="4.48362">
        <ele>267.92737</ele>
        <time>2020-09-01 11:15:36</time>
      </trkpt>
      <trkpt lat="44.30312" lon="4.48373">
        <ele>267.63824</ele>
        <time>2020-09-01 11:15:38</time>
      </trkpt>
      <trkpt lat="44.30347" lon="4.48434">
        <ele>261.19568</ele>
        <time>2020-09-01 11:15:48</time>
      </trkpt>
      <trkpt lat="44.30356" lon="4.48455">
        <ele>261.2544</ele>
        <time>2020-09-01 11:15:51</time>
      </trkpt>
      <trkpt lat="44.30351" lon="4.48462">
        <ele>266.6892</ele>
        <time>2020-09-01 11:15:52</time>
      </trkpt>
      <trkpt lat="44.30346" lon="4.48466">
        <ele>257.7672</ele>
        <time>2020-09-01 11:15:53</time>
      </trkpt>
      <trkpt lat="44.30341" lon="4.48468">
        <ele>258.17175</ele>
        <time>2020-09-01 11:15:54</time>
      </trkpt>
      <trkpt lat="44.30305" lon="4.48482">
        <ele>254.74872</ele>
        <time>2020-09-01 11:15:59</time>
      </trkpt>
      <trkpt lat="44.30299" lon="4.48489">
        <ele>254.71814</ele>
        <time>2020-09-01 11:16:00</time>
      </trkpt>
      <trkpt lat="44.30295" lon="4.48498">
        <ele>254.51471</ele>
        <time>2020-09-01 11:16:01</time>
      </trkpt>
      <trkpt lat="44.30293" lon="4.4851">
        <ele>257.7672</ele>
        <time>2020-09-01 11:16:02</time>
      </trkpt>
      <trkpt lat="44.30293" lon="4.4852">
        <ele>254.32062</ele>
        <time>2020-09-01 11:16:03</time>
      </trkpt>
      <trkpt lat="44.30294" lon="4.4853">
        <ele>254.05157</ele>
        <time>2020-09-01 11:16:04</time>
      </trkpt>
      <trkpt lat="44.30301" lon="4.486">
        <ele>254.65674</ele>
        <time>2020-09-01 11:16:10</time>
      </trkpt>
      <trkpt lat="44.30301" lon="4.48728">
        <ele>249.50372</ele>
        <time>2020-09-01 11:16:21</time>
      </trkpt>
      <trkpt lat="44.30297" lon="4.48739">
        <ele>253.36218</ele>
        <time>2020-09-01 11:16:22</time>
      </trkpt>
      <trkpt lat="44.30289" lon="4.48758">
        <ele>249.17914</ele>
        <time>2020-09-01 11:16:24</time>
      </trkpt>
      <trkpt lat="44.30284" lon="4.48767">
        <ele>248.77545</ele>
        <time>2020-09-01 11:16:25</time>
      </trkpt>
      <trkpt lat="44.30278" lon="4.48774">
        <ele>249.98889</ele>
        <time>2020-09-01 11:16:26</time>
      </trkpt>
      <trkpt lat="44.30266" lon="4.48786">
        <ele>249.97858</ele>
        <time>2020-09-01 11:16:28</time>
      </trkpt>
      <trkpt lat="44.30252" lon="4.48793">
        <ele>249.37958</ele>
        <time>2020-09-01 11:16:30</time>
      </trkpt>
      <trkpt lat="44.30201" lon="4.48811">
        <ele>249.83057</ele>
        <time>2020-09-01 11:16:38</time>
      </trkpt>
      <trkpt lat="44.30195" lon="4.48817">
        <ele>249.7561</ele>
        <time>2020-09-01 11:16:39</time>
      </trkpt>
      <trkpt lat="44.30186" lon="4.4883">
        <ele>250.4353</ele>
        <time>2020-09-01 11:16:41</time>
      </trkpt>
      <trkpt lat="44.3018" lon="4.48846">
        <ele>250.07227</ele>
        <time>2020-09-01 11:16:43</time>
      </trkpt>
      <trkpt lat="44.30178" lon="4.48855">
        <ele>249.90704</ele>
        <time>2020-09-01 11:16:44</time>
      </trkpt>
      <trkpt lat="44.30177" lon="4.48863">
        <ele>249.04578</ele>
        <time>2020-09-01 11:16:45</time>
      </trkpt>
      <trkpt lat="44.30177" lon="4.48872">
        <ele>248.49548</ele>
        <time>2020-09-01 11:16:46</time>
      </trkpt>
      <trkpt lat="44.30178" lon="4.4889">
        <ele>247.65741</ele>
        <time>2020-09-01 11:16:48</time>
      </trkpt>
      <trkpt lat="44.302" lon="4.49026">
        <ele>239.2276</ele>
        <time>2020-09-01 11:17:01</time>
      </trkpt>
      <trkpt lat="44.30217" lon="4.49089">
        <ele>234.71545</ele>
        <time>2020-09-01 11:17:06</time>
      </trkpt>
      <trkpt lat="44.30246" lon="4.49192">
        <ele>230.49261</ele>
        <time>2020-09-01 11:17:14</time>
      </trkpt>
      <trkpt lat="44.30271" lon="4.49308">
        <ele>226.7749</ele>
        <time>2020-09-01 11:17:23</time>
      </trkpt>
      <trkpt lat="44.30273" lon="4.49334">
        <ele>225.25781</ele>
        <time>2020-09-01 11:17:25</time>
      </trkpt>
      <trkpt lat="44.30269" lon="4.49361">
        <ele>225.96893</ele>
        <time>2020-09-01 11:17:27</time>
      </trkpt>
      <trkpt lat="44.3026" lon="4.49438">
        <ele>221.76117</ele>
        <time>2020-09-01 11:17:33</time>
      </trkpt>
      <trkpt lat="44.30256" lon="4.49487">
        <ele>215.51135</ele>
        <time>2020-09-01 11:17:37</time>
      </trkpt>
      <trkpt lat="44.30249" lon="4.4951">
        <ele>215.2627</ele>
        <time>2020-09-01 11:17:39</time>
      </trkpt>
      <trkpt lat="44.3023" lon="4.49556">
        <ele>215.85449</ele>
        <time>2020-09-01 11:17:43</time>
      </trkpt>
      <trkpt lat="44.30213" lon="4.49601">
        <ele>212.35803</ele>
        <time>2020-09-01 11:17:47</time>
      </trkpt>
      <trkpt lat="44.30207" lon="4.49611">
        <ele>211.52655</ele>
        <time>2020-09-01 11:17:48</time>
      </trkpt>
      <trkpt lat="44.302" lon="4.49621">
        <ele>211.18604</ele>
        <time>2020-09-01 11:17:49</time>
      </trkpt>
      <trkpt lat="44.30159" lon="4.49674">
        <ele>210.08228</ele>
        <time>2020-09-01 11:17:55</time>
      </trkpt>
      <trkpt lat="44.30144" lon="4.49708">
        <ele>207.93805</ele>
        <time>2020-09-01 11:17:58</time>
      </trkpt>
      <trkpt lat="44.30134" lon="4.4975">
        <ele>206.06665</ele>
        <time>2020-09-01 11:18:01</time>
      </trkpt>
      <trkpt lat="44.30109" lon="4.49827">
        <ele>201.79572</ele>
        <time>2020-09-01 11:18:07</time>
      </trkpt>
      <trkpt lat="44.30055" lon="4.49947">
        <ele>197.2461</ele>
        <time>2020-09-01 11:18:18</time>
      </trkpt>
      <trkpt lat="44.30051" lon="4.49972">
        <ele>195.57611</ele>
        <time>2020-09-01 11:18:20</time>
      </trkpt>
      <trkpt lat="44.30048" lon="4.5002">
        <ele>193.03558</ele>
        <time>2020-09-01 11:18:24</time>
      </trkpt>
      <trkpt lat="44.30046" lon="4.50061">
        <ele>191.04639</ele>
        <time>2020-09-01 11:18:28</time>
      </trkpt>
      <trkpt lat="44.30044" lon="4.50071">
        <ele>190.1023</ele>
        <time>2020-09-01 11:18:29</time>
      </trkpt>
      <trkpt lat="44.30038" lon="4.50089">
        <ele>190.90771</ele>
        <time>2020-09-01 11:18:31</time>
      </trkpt>
      <trkpt lat="44.30034" lon="4.50093">
        <ele>194.08789</ele>
        <time>2020-09-01 11:18:32</time>
      </trkpt>
      <trkpt lat="44.3003" lon="4.50098">
        <ele>191.18408</ele>
        <time>2020-09-01 11:18:33</time>
      </trkpt>
      <trkpt lat="44.3002" lon="4.50113">
        <ele>194.11963</ele>
        <time>2020-09-01 11:18:37</time>
      </trkpt>
      <trkpt lat="44.30013" lon="4.50127">
        <ele>193.91699</ele>
        <time>2020-09-01 11:18:40</time>
      </trkpt>
      <trkpt lat="44.30004" lon="4.50142">
        <ele>190.9679</ele>
        <time>2020-09-01 11:18:43</time>
      </trkpt>
      <trkpt lat="44.29954" lon="4.50229">
        <ele>185.73352</ele>
        <time>2020-09-01 11:18:58</time>
      </trkpt>
      <trkpt lat="44.29952" lon="4.50235">
        <ele>185.44165</ele>
        <time>2020-09-01 11:18:59</time>
      </trkpt>
      <trkpt lat="44.29948" lon="4.50249">
        <ele>184.06226</ele>
        <time>2020-09-01 11:19:01</time>
      </trkpt>
      <trkpt lat="44.29924" lon="4.50302">
        <ele>180.07617</ele>
        <time>2020-09-01 11:19:09</time>
      </trkpt>
      <trkpt lat="44.29916" lon="4.50307">
        <ele>178.71954</ele>
        <time>2020-09-01 11:19:11</time>
      </trkpt>
      <trkpt lat="44.29912" lon="4.5031">
        <ele>183.54962</ele>
        <time>2020-09-01 11:19:12</time>
      </trkpt>
      <trkpt lat="44.29907" lon="4.50312">
        <ele>178.36084</ele>
        <time>2020-09-01 11:19:13</time>
      </trkpt>
      <trkpt lat="44.29897" lon="4.50314">
        <ele>180.16693</ele>
        <time>2020-09-01 11:19:15</time>
      </trkpt>
      <trkpt lat="44.29894" lon="4.50313">
        <ele>179.69049</ele>
        <time>2020-09-01 11:19:16</time>
      </trkpt>
      <trkpt lat="44.29891" lon="4.50312">
        <ele>179.24658</ele>
        <time>2020-09-01 11:19:17</time>
      </trkpt>
      <trkpt lat="44.29887" lon="4.5031">
        <ele>179.06506</ele>
        <time>2020-09-01 11:19:20</time>
      </trkpt>
      <trkpt lat="44.29883" lon="4.5031">
        <ele>181.56494</ele>
        <time>2020-09-01 11:19:43</time>
      </trkpt>
      <trkpt lat="44.29878" lon="4.5031">
        <ele>184.16748</ele>
        <time>2020-09-01 11:19:46</time>
      </trkpt>
      <trkpt lat="44.29877" lon="4.50311">
        <ele>181.51086</ele>
        <time>2020-09-01 11:19:48</time>
      </trkpt>
      <trkpt lat="44.29879" lon="4.5031">
        <ele>180.9397</ele>
        <time>2020-09-01 11:20:02</time>
      </trkpt>
      <trkpt lat="44.29877" lon="4.50309">
        <ele>182.77484</ele>
        <time>2020-09-01 11:20:04</time>
      </trkpt>
      <trkpt lat="44.29876" lon="4.5031">
        <ele>182.38684</ele>
        <time>2020-09-01 11:20:05</time>
      </trkpt>
      <trkpt lat="44.29873" lon="4.50314">
        <ele>181.32043</ele>
        <time>2020-09-01 11:20:07</time>
      </trkpt>
      <trkpt lat="44.29865" lon="4.50342">
        <ele>182.65979</ele>
        <time>2020-09-01 11:20:14</time>
      </trkpt>
      <trkpt lat="44.29855" lon="4.50388">
        <ele>184.15979</ele>
        <time>2020-09-01 11:20:23</time>
      </trkpt>
      <trkpt lat="44.29842" lon="4.50444">
        <ele>183.63684</ele>
        <time>2020-09-01 11:20:33</time>
      </trkpt>
      <trkpt lat="44.29836" lon="4.50471">
        <ele>181.35663</ele>
        <time>2020-09-01 11:20:38</time>
      </trkpt>
      <trkpt lat="44.29834" lon="4.5048">
        <ele>183.63684</ele>
        <time>2020-09-01 11:20:42</time>
      </trkpt>
      <trkpt lat="44.29835" lon="4.50478">
        <ele>183.57019</ele>
        <time>2020-09-01 11:20:46</time>
      </trkpt>
      <trkpt lat="44.29835" lon="4.50478">
        <ele>184.57361</ele>
        <time>2020-09-01 11:20:47</time>
      </trkpt>
      <trkpt lat="44.29834" lon="4.50491">
        <ele>182.46637</ele>
        <time>2020-09-01 11:20:52</time>
      </trkpt>
      <trkpt lat="44.29825" lon="4.50527">
        <ele>188.45288</ele>
        <time>2020-09-01 11:21:01</time>
      </trkpt>
      <trkpt lat="44.29825" lon="4.50531">
        <ele>186.50574</ele>
        <time>2020-09-01 11:21:02</time>
      </trkpt>
      <trkpt lat="44.29826" lon="4.50536">
        <ele>188.45538</ele>
        <time>2020-09-01 11:21:03</time>
      </trkpt>
      <trkpt lat="44.29828" lon="4.5054">
        <ele>189.453</ele>
        <time>2020-09-01 11:21:04</time>
      </trkpt>
      <trkpt lat="44.2983" lon="4.50543">
        <ele>189.4831</ele>
        <time>2020-09-01 11:21:05</time>
      </trkpt>
      <trkpt lat="44.29833" lon="4.50545">
        <ele>189.81201</ele>
        <time>2020-09-01 11:21:06</time>
      </trkpt>
      <trkpt lat="44.29838" lon="4.50547">
        <ele>189.40424</ele>
        <time>2020-09-01 11:21:08</time>
      </trkpt>
      <trkpt lat="44.29842" lon="4.50547">
        <ele>189.53802</ele>
        <time>2020-09-01 11:21:10</time>
      </trkpt>
      <trkpt lat="44.29844" lon="4.50549">
        <ele>188.98456</ele>
        <time>2020-09-01 11:21:11</time>
      </trkpt>
      <trkpt lat="44.29846" lon="4.5055">
        <ele>188.45538</ele>
        <time>2020-09-01 11:21:12</time>
      </trkpt>
      <trkpt lat="44.29861" lon="4.50556">
        <ele>187.53766</ele>
        <time>2020-09-01 11:21:18</time>
      </trkpt>
      <trkpt lat="44.29863" lon="4.50558">
        <ele>187.19897</ele>
        <time>2020-09-01 11:21:19</time>
      </trkpt>
      <trkpt lat="44.29864" lon="4.5056">
        <ele>187.7403</ele>
        <time>2020-09-01 11:21:20</time>
      </trkpt>
      <trkpt lat="44.29866" lon="4.50561">
        <ele>188.659</ele>
        <time>2020-09-01 11:21:21</time>
      </trkpt>
      <trkpt lat="44.29872" lon="4.50566">
        <ele>188.58649</ele>
        <time>2020-09-01 11:21:24</time>
      </trkpt>
      <trkpt lat="44.29877" lon="4.50571">
        <ele>186.74316</ele>
        <time>2020-09-01 11:21:27</time>
      </trkpt>
      <trkpt lat="44.29877" lon="4.50577">
        <ele>187.15369</ele>
        <time>2020-09-01 11:21:30</time>
      </trkpt>
      <trkpt lat="44.29877" lon="4.50577">
        <ele>187.59998</ele>
        <time>2020-09-01 11:21:42</time>
      </trkpt>
      <trkpt lat="44.29876" lon="4.50579">
        <ele>188.16309</ele>
        <time>2020-09-01 11:21:44</time>
      </trkpt>
      <trkpt lat="44.29872" lon="4.50583">
        <ele>188.62738</ele>
        <time>2020-09-01 11:21:53</time>
      </trkpt>
      <trkpt lat="44.29872" lon="4.50583">
        <ele>189.2547</ele>
        <time>2020-09-01 11:22:48</time>
      </trkpt>
      <trkpt lat="44.29871" lon="4.50582">
        <ele>189.87646</ele>
        <time>2020-09-01 11:37:15</time>
      </trkpt>
      <trkpt lat="44.29872" lon="4.50581">
        <ele>191.44916</ele>
        <time>2020-09-01 11:37:16</time>
      </trkpt>
      <trkpt lat="44.29872" lon="4.5058">
        <ele>191.27167</ele>
        <time>2020-09-01 11:37:17</time>
      </trkpt>
      <trkpt lat="44.29873" lon="4.50574">
        <ele>193.84302</ele>
        <time>2020-09-01 11:37:21</time>
      </trkpt>
      <trkpt lat="44.29873" lon="4.50574">
        <ele>189.53839</ele>
        <time>2020-09-01 11:37:37</time>
      </trkpt>
      <trkpt lat="44.29873" lon="4.50572">
        <ele>191.52979</ele>
        <time>2020-09-01 11:38:07</time>
      </trkpt>
      <trkpt lat="44.29873" lon="4.50572">
        <ele>191.7016</ele>
        <time>2020-09-01 11:38:37</time>
      </trkpt>
      <trkpt lat="44.29873" lon="4.50572">
        <ele>191.70056</ele>
        <time>2020-09-01 11:39:07</time>
      </trkpt>
      <trkpt lat="44.29873" lon="4.50572">
        <ele>191.48804</ele>
        <time>2020-09-01 11:39:46</time>
      </trkpt>
      <trkpt lat="44.29873" lon="4.50571">
        <ele>191.36884</ele>
        <time>2020-09-01 11:40:16</time>
      </trkpt>
      <trkpt lat="44.29873" lon="4.50572">
        <ele>191.36023</ele>
        <time>2020-09-01 11:40:46</time>
      </trkpt>
      <trkpt lat="44.29873" lon="4.50571">
        <ele>191.58691</ele>
        <time>2020-09-01 11:41:16</time>
      </trkpt>
      <trkpt lat="44.29873" lon="4.50571">
        <ele>191.61761</ele>
        <time>2020-09-01 11:41:46</time>
      </trkpt>
      <trkpt lat="44.29873" lon="4.50571">
        <ele>191.7193</ele>
        <time>2020-09-01 11:42:16</time>
      </trkpt>
      <trkpt lat="44.29873" lon="4.50571">
        <ele>191.76141</ele>
        <time>2020-09-01 11:42:46</time>
      </trkpt>
      <trkpt lat="44.29873" lon="4.50571">
        <ele>191.78369</ele>
        <time>2020-09-01 11:43:16</time>
      </trkpt>
      <trkpt lat="44.29873" lon="4.50571">
        <ele>191.80225</ele>
        <time>2020-09-01 11:43:46</time>
      </trkpt>
      <trkpt lat="44.29873" lon="4.50571">
        <ele>191.80322</ele>
        <time>2020-09-01 11:44:16</time>
      </trkpt>
      <trkpt lat="44.29873" lon="4.50571">
        <ele>191.71295</ele>
        <time>2020-09-01 11:44:46</time>
      </trkpt>
      <trkpt lat="44.29873" lon="4.50571">
        <ele>191.7351</ele>
        <time>2020-09-01 11:45:17</time>
      </trkpt>
      <trkpt lat="44.29873" lon="4.50571">
        <ele>191.79572</ele>
        <time>2020-09-01 11:45:49</time>
      </trkpt>
      <trkpt lat="44.29873" lon="4.50571">
        <ele>191.86603</ele>
        <time>2020-09-01 11:46:19</time>
      </trkpt>
      <trkpt lat="44.29872" lon="4.50572">
        <ele>192.49963</ele>
        <time>2020-09-01 11:46:27</time>
      </trkpt>
      <trkpt lat="44.29872" lon="4.50574">
        <ele>188.8645</ele>
        <time>2020-09-01 11:46:28</time>
      </trkpt>
      <trkpt lat="44.29871" lon="4.5058">
        <ele>183.88922</ele>
        <time>2020-09-01 11:46:33</time>
      </trkpt>
      <trkpt lat="44.29871" lon="4.50582">
        <ele>184.70404</ele>
        <time>2020-09-01 11:46:34</time>
      </trkpt>
      <trkpt lat="44.2987" lon="4.50584">
        <ele>183.20819</ele>
        <time>2020-09-01 11:46:38</time>
      </trkpt>
      <trkpt lat="44.2987" lon="4.50585">
        <ele>185.27142</ele>
        <time>2020-09-01 11:47:10</time>
      </trkpt>
      <trkpt lat="44.29868" lon="4.50585">
        <ele>187.53418</ele>
        <time>2020-09-01 11:47:57</time>
      </trkpt>
      <trkpt lat="44.29868" lon="4.50585">
        <ele>187.21362</ele>
        <time>2020-09-01 11:52:02</time>
      </trkpt>
      <trkpt lat="44.29869" lon="4.50585">
        <ele>186.94733</ele>
        <time>2020-09-01 11:52:03</time>
      </trkpt>
      <trkpt lat="44.29869" lon="4.50584">
        <ele>187.63629</ele>
        <time>2020-09-01 11:52:04</time>
      </trkpt>
      <trkpt lat="44.29869" lon="4.50583">
        <ele>187.90613</ele>
        <time>2020-09-01 11:52:05</time>
      </trkpt>
      <trkpt lat="44.29869" lon="4.50578">
        <ele>185.90906</ele>
        <time>2020-09-01 11:52:19</time>
      </trkpt>
      <trkpt lat="44.2987" lon="4.5058">
        <ele>184.24084</ele>
        <time>2020-09-01 11:52:21</time>
      </trkpt>
      <trkpt lat="44.29871" lon="4.50581">
        <ele>189.24577</ele>
        <time>2020-09-01 11:52:22</time>
      </trkpt>
      <trkpt lat="44.29872" lon="4.50582">
        <ele>180.36322</ele>
        <time>2020-09-01 11:52:23</time>
      </trkpt>
      <trkpt lat="44.29872" lon="4.50582">
        <ele>180.89423</ele>
        <time>2020-09-01 11:52:25</time>
      </trkpt>
      <trkpt lat="44.29874" lon="4.5058">
        <ele>180.4389</ele>
        <time>2020-09-01 11:52:29</time>
      </trkpt>
      <trkpt lat="44.29874" lon="4.50579">
        <ele>181.26172</ele>
        <time>2020-09-01 11:52:34</time>
      </trkpt>
      <trkpt lat="44.29874" lon="4.50579">
        <ele>182.2724</ele>
        <time>2020-09-01 11:52:35</time>
      </trkpt>
      <trkpt lat="44.29874" lon="4.50576">
        <ele>184.69312</ele>
        <time>2020-09-01 11:53:01</time>
      </trkpt>
      <trkpt lat="44.29874" lon="4.50575">
        <ele>185.13123</ele>
        <time>2020-09-01 11:53:02</time>
      </trkpt>
      <trkpt lat="44.29874" lon="4.50572">
        <ele>183.22742</ele>
        <time>2020-09-01 11:53:03</time>
      </trkpt>
      <trkpt lat="44.29874" lon="4.50571">
        <ele>183.81464</ele>
        <time>2020-09-01 11:53:04</time>
      </trkpt>
      <trkpt lat="44.29874" lon="4.50569">
        <ele>184.77783</ele>
        <time>2020-09-01 11:53:05</time>
      </trkpt>
      <trkpt lat="44.2987" lon="4.50566">
        <ele>182.37897</ele>
        <time>2020-09-01 11:53:09</time>
      </trkpt>
      <trkpt lat="44.29865" lon="4.50563">
        <ele>185.48138</ele>
        <time>2020-09-01 11:53:14</time>
      </trkpt>
      <trkpt lat="44.2986" lon="4.50558">
        <ele>185.42188</ele>
        <time>2020-09-01 11:53:17</time>
      </trkpt>
      <trkpt lat="44.29851" lon="4.50553">
        <ele>185.26898</ele>
        <time>2020-09-01 11:53:20</time>
      </trkpt>
      <trkpt lat="44.29845" lon="4.5055">
        <ele>185.04852</ele>
        <time>2020-09-01 11:53:22</time>
      </trkpt>
      <trkpt lat="44.29838" lon="4.50548">
        <ele>185.1759</ele>
        <time>2020-09-01 11:53:24</time>
      </trkpt>
      <trkpt lat="44.29829" lon="4.50541">
        <ele>184.66003</ele>
        <time>2020-09-01 11:53:29</time>
      </trkpt>
      <trkpt lat="44.29828" lon="4.5054">
        <ele>184.61511</ele>
        <time>2020-09-01 11:53:30</time>
      </trkpt>
      <trkpt lat="44.29823" lon="4.50534">
        <ele>185.54462</ele>
        <time>2020-09-01 11:53:35</time>
      </trkpt>
      <trkpt lat="44.29821" lon="4.50535">
        <ele>184.82526</ele>
        <time>2020-09-01 11:53:36</time>
      </trkpt>
      <trkpt lat="44.29819" lon="4.50537">
        <ele>184.36163</ele>
        <time>2020-09-01 11:53:37</time>
      </trkpt>
      <trkpt lat="44.29818" lon="4.50541">
        <ele>183.91888</ele>
        <time>2020-09-01 11:53:38</time>
      </trkpt>
      <trkpt lat="44.29818" lon="4.50544">
        <ele>183.18616</ele>
        <time>2020-09-01 11:53:39</time>
      </trkpt>
      <trkpt lat="44.29806" lon="4.50617">
        <ele>181.74603</ele>
        <time>2020-09-01 11:53:51</time>
      </trkpt>
      <trkpt lat="44.29805" lon="4.50624">
        <ele>182.69826</ele>
        <time>2020-09-01 11:53:52</time>
      </trkpt>
      <trkpt lat="44.29802" lon="4.50632">
        <ele>181.90686</ele>
        <time>2020-09-01 11:53:53</time>
      </trkpt>
      <trkpt lat="44.29802" lon="4.5064">
        <ele>182.01764</ele>
        <time>2020-09-01 11:53:54</time>
      </trkpt>
      <trkpt lat="44.29799" lon="4.50675">
        <ele>182.39545</ele>
        <time>2020-09-01 11:53:59</time>
      </trkpt>
      <trkpt lat="44.29794" lon="4.50721">
        <ele>182.55261</ele>
        <time>2020-09-01 11:54:06</time>
      </trkpt>
      <trkpt lat="44.29793" lon="4.50762">
        <ele>181.59692</ele>
        <time>2020-09-01 11:54:13</time>
      </trkpt>
      <trkpt lat="44.29791" lon="4.50799">
        <ele>181.87036</ele>
        <time>2020-09-01 11:54:19</time>
      </trkpt>
      <trkpt lat="44.29786" lon="4.50843">
        <ele>182.4624</ele>
        <time>2020-09-01 11:54:27</time>
      </trkpt>
      <trkpt lat="44.29785" lon="4.50845">
        <ele>183.2146</ele>
        <time>2020-09-01 11:54:28</time>
      </trkpt>
      <trkpt lat="44.29784" lon="4.50848">
        <ele>183.33423</ele>
        <time>2020-09-01 11:54:30</time>
      </trkpt>
      <trkpt lat="44.29784" lon="4.50848">
        <ele>182.67297</ele>
        <time>2020-09-01 11:54:31</time>
      </trkpt>
      <trkpt lat="44.29783" lon="4.50849">
        <ele>182.65607</ele>
        <time>2020-09-01 11:54:41</time>
      </trkpt>
      <trkpt lat="44.29784" lon="4.50849">
        <ele>183.01807</ele>
        <time>2020-09-01 11:54:42</time>
      </trkpt>
      <trkpt lat="44.29784" lon="4.50856">
        <ele>181.67224</ele>
        <time>2020-09-01 11:54:46</time>
      </trkpt>
      <trkpt lat="44.29784" lon="4.50859">
        <ele>181.94092</ele>
        <time>2020-09-01 11:54:47</time>
      </trkpt>
      <trkpt lat="44.29784" lon="4.50865">
        <ele>182.06488</ele>
        <time>2020-09-01 11:54:49</time>
      </trkpt>
      <trkpt lat="44.29781" lon="4.50904">
        <ele>180.92676</ele>
        <time>2020-09-01 11:54:57</time>
      </trkpt>
      <trkpt lat="44.2978" lon="4.50909">
        <ele>179.41864</ele>
        <time>2020-09-01 11:54:58</time>
      </trkpt>
      <trkpt lat="44.29779" lon="4.50937">
        <ele>178.10724</ele>
        <time>2020-09-01 11:55:03</time>
      </trkpt>
      <trkpt lat="44.29778" lon="4.50942">
        <ele>178.26953</ele>
        <time>2020-09-01 11:55:04</time>
      </trkpt>
      <trkpt lat="44.29778" lon="4.50976">
        <ele>177.73169</ele>
        <time>2020-09-01 11:55:10</time>
      </trkpt>
      <trkpt lat="44.2978" lon="4.5102">
        <ele>176.69226</ele>
        <time>2020-09-01 11:55:17</time>
      </trkpt>
      <trkpt lat="44.29804" lon="4.51247">
        <ele>177.23407</ele>
        <time>2020-09-01 11:55:47</time>
      </trkpt>
      <trkpt lat="44.29812" lon="4.51387">
        <ele>172.6477</ele>
        <time>2020-09-01 11:56:06</time>
      </trkpt>
      <trkpt lat="44.29811" lon="4.51425">
        <ele>171.73926</ele>
        <time>2020-09-01 11:56:10</time>
      </trkpt>
      <trkpt lat="44.29811" lon="4.51444">
        <ele>174.13696</ele>
        <time>2020-09-01 11:56:12</time>
      </trkpt>
      <trkpt lat="44.29806" lon="4.51634">
        <ele>167.45679</ele>
        <time>2020-09-01 11:56:31</time>
      </trkpt>
      <trkpt lat="44.29802" lon="4.51674">
        <ele>167.06348</ele>
        <time>2020-09-01 11:56:35</time>
      </trkpt>
      <trkpt lat="44.29804" lon="4.51693">
        <ele>167.75085</ele>
        <time>2020-09-01 11:56:37</time>
      </trkpt>
      <trkpt lat="44.29853" lon="4.51933">
        <ele>157.50049</ele>
        <time>2020-09-01 11:56:59</time>
      </trkpt>
      <trkpt lat="44.29853" lon="4.51977">
        <ele>155.01587</ele>
        <time>2020-09-01 11:57:03</time>
      </trkpt>
      <trkpt lat="44.29848" lon="4.52048">
        <ele>153.63342</ele>
        <time>2020-09-01 11:57:10</time>
      </trkpt>
      <trkpt lat="44.29838" lon="4.52092">
        <ele>153.27393</ele>
        <time>2020-09-01 11:57:15</time>
      </trkpt>
      <trkpt lat="44.29823" lon="4.52135">
        <ele>153.64948</ele>
        <time>2020-09-01 11:57:20</time>
      </trkpt>
      <trkpt lat="44.29795" lon="4.52196">
        <ele>151.07458</ele>
        <time>2020-09-01 11:57:28</time>
      </trkpt>
      <trkpt lat="44.29772" lon="4.52229">
        <ele>146.79565</ele>
        <time>2020-09-01 11:57:33</time>
      </trkpt>
      <trkpt lat="44.2975" lon="4.52251">
        <ele>146.63959</ele>
        <time>2020-09-01 11:57:37</time>
      </trkpt>
      <trkpt lat="44.29679" lon="4.52309">
        <ele>147.2987</ele>
        <time>2020-09-01 11:57:49</time>
      </trkpt>
      <trkpt lat="44.2967" lon="4.52325">
        <ele>147.98718</ele>
        <time>2020-09-01 11:57:51</time>
      </trkpt>
      <trkpt lat="44.29662" lon="4.52351">
        <ele>145.57385</ele>
        <time>2020-09-01 11:57:54</time>
      </trkpt>
      <trkpt lat="44.29658" lon="4.52372">
        <ele>146.77032</ele>
        <time>2020-09-01 11:57:56</time>
      </trkpt>
      <trkpt lat="44.29657" lon="4.52392">
        <ele>147.4046</ele>
        <time>2020-09-01 11:57:58</time>
      </trkpt>
      <trkpt lat="44.29661" lon="4.52423">
        <ele>148.36224</ele>
        <time>2020-09-01 11:58:01</time>
      </trkpt>
      <trkpt lat="44.29678" lon="4.52496">
        <ele>147.08472</ele>
        <time>2020-09-01 11:58:09</time>
      </trkpt>
      <trkpt lat="44.29699" lon="4.52574">
        <ele>146.6991</ele>
        <time>2020-09-01 11:58:18</time>
      </trkpt>
      <trkpt lat="44.29744" lon="4.52765">
        <ele>146.80017</ele>
        <time>2020-09-01 11:58:40</time>
      </trkpt>
      <trkpt lat="44.29743" lon="4.52792">
        <ele>145.81812</ele>
        <time>2020-09-01 11:58:43</time>
      </trkpt>
      <trkpt lat="44.2974" lon="4.52807">
        <ele>145.1936</ele>
        <time>2020-09-01 11:58:45</time>
      </trkpt>
      <trkpt lat="44.29736" lon="4.52824">
        <ele>144.27563</ele>
        <time>2020-09-01 11:58:48</time>
      </trkpt>
      <trkpt lat="44.29729" lon="4.52834">
        <ele>143.13934</ele>
        <time>2020-09-01 11:58:50</time>
      </trkpt>
      <trkpt lat="44.29697" lon="4.52883">
        <ele>146.48474</ele>
        <time>2020-09-01 11:59:00</time>
      </trkpt>
      <trkpt lat="44.29694" lon="4.52894">
        <ele>145.36511</ele>
        <time>2020-09-01 11:59:02</time>
      </trkpt>
      <trkpt lat="44.29693" lon="4.52899">
        <ele>146.10364</ele>
        <time>2020-09-01 11:59:03</time>
      </trkpt>
      <trkpt lat="44.29692" lon="4.52909">
        <ele>145.15198</ele>
        <time>2020-09-01 11:59:05</time>
      </trkpt>
      <trkpt lat="44.29693" lon="4.52919">
        <ele>148.91516</ele>
        <time>2020-09-01 11:59:07</time>
      </trkpt>
      <trkpt lat="44.29695" lon="4.52934">
        <ele>150.52185</ele>
        <time>2020-09-01 11:59:10</time>
      </trkpt>
      <trkpt lat="44.29699" lon="4.52949">
        <ele>151.98517</ele>
        <time>2020-09-01 11:59:13</time>
      </trkpt>
      <trkpt lat="44.29741" lon="4.53072">
        <ele>153.06555</ele>
        <time>2020-09-01 11:59:43</time>
      </trkpt>
      <trkpt lat="44.2975" lon="4.53102">
        <ele>156.18506</ele>
        <time>2020-09-01 11:59:50</time>
      </trkpt>
      <trkpt lat="44.29753" lon="4.53112">
        <ele>153.06555</ele>
        <time>2020-09-01 11:59:52</time>
      </trkpt>
      <trkpt lat="44.29796" lon="4.53237">
        <ele>160.09332</ele>
        <time>2020-09-01 12:00:22</time>
      </trkpt>
      <trkpt lat="44.29808" lon="4.53278">
        <ele>158.71118</ele>
        <time>2020-09-01 12:00:32</time>
      </trkpt>
      <trkpt lat="44.29815" lon="4.53301">
        <ele>161.45135</ele>
        <time>2020-09-01 12:00:37</time>
      </trkpt>
      <trkpt lat="44.2982" lon="4.5332">
        <ele>162.92706</ele>
        <time>2020-09-01 12:00:41</time>
      </trkpt>
      <trkpt lat="44.29821" lon="4.53331">
        <ele>163.27002</ele>
        <time>2020-09-01 12:00:43</time>
      </trkpt>
      <trkpt lat="44.29821" lon="4.5336">
        <ele>163.26013</ele>
        <time>2020-09-01 12:00:49</time>
      </trkpt>
      <trkpt lat="44.29814" lon="4.53421">
        <ele>162.7312</ele>
        <time>2020-09-01 12:01:02</time>
      </trkpt>
      <trkpt lat="44.29813" lon="4.53436">
        <ele>163.61768</ele>
        <time>2020-09-01 12:01:05</time>
      </trkpt>
      <trkpt lat="44.29812" lon="4.53455">
        <ele>162.45105</ele>
        <time>2020-09-01 12:01:09</time>
      </trkpt>
      <trkpt lat="44.29811" lon="4.5347">
        <ele>165.057</ele>
        <time>2020-09-01 12:01:12</time>
      </trkpt>
      <trkpt lat="44.29811" lon="4.53475">
        <ele>162.59991</ele>
        <time>2020-09-01 12:01:13</time>
      </trkpt>
      <trkpt lat="44.29813" lon="4.53493">
        <ele>162.0979</ele>
        <time>2020-09-01 12:01:17</time>
      </trkpt>
      <trkpt lat="44.29817" lon="4.53508">
        <ele>162.91248</ele>
        <time>2020-09-01 12:01:20</time>
      </trkpt>
      <trkpt lat="44.29825" lon="4.53523">
        <ele>163.4292</ele>
        <time>2020-09-01 12:01:24</time>
      </trkpt>
      <trkpt lat="44.29828" lon="4.53527">
        <ele>163.5249</ele>
        <time>2020-09-01 12:01:25</time>
      </trkpt>
      <trkpt lat="44.2983" lon="4.5353">
        <ele>164.06207</ele>
        <time>2020-09-01 12:01:26</time>
      </trkpt>
      <trkpt lat="44.299" lon="4.53635">
        <ele>164.6082</ele>
        <time>2020-09-01 12:01:52</time>
      </trkpt>
      <trkpt lat="44.29905" lon="4.53643">
        <ele>164.22736</ele>
        <time>2020-09-01 12:01:54</time>
      </trkpt>
      <trkpt lat="44.29915" lon="4.53658">
        <ele>164.84253</ele>
        <time>2020-09-01 12:01:58</time>
      </trkpt>
      <trkpt lat="44.29923" lon="4.53668">
        <ele>166.52759</ele>
        <time>2020-09-01 12:02:01</time>
      </trkpt>
      <trkpt lat="44.29993" lon="4.53775">
        <ele>170.42804</ele>
        <time>2020-09-01 12:02:31</time>
      </trkpt>
      <trkpt lat="44.30069" lon="4.53889">
        <ele>168.28662</ele>
        <time>2020-09-01 12:03:00</time>
      </trkpt>
      <trkpt lat="44.30075" lon="4.53907">
        <ele>168.16736</ele>
        <time>2020-09-01 12:03:03</time>
      </trkpt>
      <trkpt lat="44.3008" lon="4.53926">
        <ele>169.0086</ele>
        <time>2020-09-01 12:03:06</time>
      </trkpt>
      <trkpt lat="44.3011" lon="4.54106">
        <ele>167.46289</ele>
        <time>2020-09-01 12:03:36</time>
      </trkpt>
      <trkpt lat="44.30147" lon="4.54341">
        <ele>165.09534</ele>
        <time>2020-09-01 12:04:06</time>
      </trkpt>
      <trkpt lat="44.30155" lon="4.54421">
        <ele>166.59009</ele>
        <time>2020-09-01 12:04:17</time>
      </trkpt>
      <trkpt lat="44.30157" lon="4.54436">
        <ele>166.1034</ele>
        <time>2020-09-01 12:04:19</time>
      </trkpt>
      <trkpt lat="44.3016" lon="4.5446">
        <ele>166.7691</ele>
        <time>2020-09-01 12:04:23</time>
      </trkpt>
      <trkpt lat="44.30158" lon="4.54497">
        <ele>168.53918</ele>
        <time>2020-09-01 12:04:29</time>
      </trkpt>
      <trkpt lat="44.30156" lon="4.54523">
        <ele>169.08362</ele>
        <time>2020-09-01 12:04:33</time>
      </trkpt>
      <trkpt lat="44.30141" lon="4.54583">
        <ele>169.2677</ele>
        <time>2020-09-01 12:04:43</time>
      </trkpt>
      <trkpt lat="44.30135" lon="4.54606">
        <ele>168.71686</ele>
        <time>2020-09-01 12:04:48</time>
      </trkpt>
      <trkpt lat="44.30136" lon="4.54612">
        <ele>169.5614</ele>
        <time>2020-09-01 12:04:50</time>
      </trkpt>
      <trkpt lat="44.30136" lon="4.54616">
        <ele>169.00665</ele>
        <time>2020-09-01 12:04:51</time>
      </trkpt>
      <trkpt lat="44.30138" lon="4.54619">
        <ele>169.2677</ele>
        <time>2020-09-01 12:04:52</time>
      </trkpt>
      <trkpt lat="44.30143" lon="4.54634">
        <ele>166.71893</ele>
        <time>2020-09-01 12:04:56</time>
      </trkpt>
      <trkpt lat="44.30151" lon="4.54655">
        <ele>167.2763</ele>
        <time>2020-09-01 12:05:01</time>
      </trkpt>
      <trkpt lat="44.30177" lon="4.54714">
        <ele>167.75452</ele>
        <time>2020-09-01 12:05:13</time>
      </trkpt>
      <trkpt lat="44.30205" lon="4.54765">
        <ele>167.25836</ele>
        <time>2020-09-01 12:05:23</time>
      </trkpt>
      <trkpt lat="44.30225" lon="4.54811">
        <ele>167.4621</ele>
        <time>2020-09-01 12:05:30</time>
      </trkpt>
      <trkpt lat="44.30227" lon="4.54816">
        <ele>167.05066</ele>
        <time>2020-09-01 12:05:31</time>
      </trkpt>
      <trkpt lat="44.30232" lon="4.54826">
        <ele>165.91278</ele>
        <time>2020-09-01 12:05:33</time>
      </trkpt>
      <trkpt lat="44.30338" lon="4.54956">
        <ele>161.98938</ele>
        <time>2020-09-01 12:06:00</time>
      </trkpt>
      <trkpt lat="44.30355" lon="4.54977">
        <ele>162.92993</ele>
        <time>2020-09-01 12:06:04</time>
      </trkpt>
      <trkpt lat="44.30377" lon="4.55002">
        <ele>160.99823</ele>
        <time>2020-09-01 12:06:10</time>
      </trkpt>
      <trkpt lat="44.30381" lon="4.55004">
        <ele>161.09192</ele>
        <time>2020-09-01 12:06:11</time>
      </trkpt>
      <trkpt lat="44.30389" lon="4.55008">
        <ele>162.1839</ele>
        <time>2020-09-01 12:06:13</time>
      </trkpt>
      <trkpt lat="44.304" lon="4.55012">
        <ele>162.39685</ele>
        <time>2020-09-01 12:06:16</time>
      </trkpt>
      <trkpt lat="44.30465" lon="4.55077">
        <ele>162.81427</ele>
        <time>2020-09-01 12:06:34</time>
      </trkpt>
      <trkpt lat="44.30473" lon="4.55091">
        <ele>162.59283</ele>
        <time>2020-09-01 12:06:37</time>
      </trkpt>
      <trkpt lat="44.30478" lon="4.55104">
        <ele>161.33667</ele>
        <time>2020-09-01 12:06:39</time>
      </trkpt>
      <trkpt lat="44.3048" lon="4.5512">
        <ele>161.13208</ele>
        <time>2020-09-01 12:06:41</time>
      </trkpt>
      <trkpt lat="44.30484" lon="4.55158">
        <ele>158.9898</ele>
        <time>2020-09-01 12:06:45</time>
      </trkpt>
      <trkpt lat="44.30495" lon="4.55202">
        <ele>158.1521</ele>
        <time>2020-09-01 12:06:49</time>
      </trkpt>
      <trkpt lat="44.30502" lon="4.55232">
        <ele>158.03839</ele>
        <time>2020-09-01 12:06:52</time>
      </trkpt>
      <trkpt lat="44.30507" lon="4.55272">
        <ele>157.73145</ele>
        <time>2020-09-01 12:06:57</time>
      </trkpt>
      <trkpt lat="44.30507" lon="4.55278">
        <ele>157.88855</ele>
        <time>2020-09-01 12:06:58</time>
      </trkpt>
      <trkpt lat="44.30506" lon="4.55283">
        <ele>157.9253</ele>
        <time>2020-09-01 12:06:59</time>
      </trkpt>
      <trkpt lat="44.30504" lon="4.55288">
        <ele>157.63275</ele>
        <time>2020-09-01 12:07:00</time>
      </trkpt>
      <trkpt lat="44.30502" lon="4.55292">
        <ele>157.47565</ele>
        <time>2020-09-01 12:07:01</time>
      </trkpt>
      <trkpt lat="44.30499" lon="4.55296">
        <ele>157.02289</ele>
        <time>2020-09-01 12:07:02</time>
      </trkpt>
      <trkpt lat="44.30493" lon="4.55301">
        <ele>156.89441</ele>
        <time>2020-09-01 12:07:04</time>
      </trkpt>
      <trkpt lat="44.30445" lon="4.55362">
        <ele>153.2829</ele>
        <time>2020-09-01 12:07:18</time>
      </trkpt>
      <trkpt lat="44.30443" lon="4.55366">
        <ele>153.06982</ele>
        <time>2020-09-01 12:07:19</time>
      </trkpt>
      <trkpt lat="44.30442" lon="4.55372">
        <ele>153.06781</ele>
        <time>2020-09-01 12:07:20</time>
      </trkpt>
      <trkpt lat="44.30441" lon="4.55378">
        <ele>153.20221</ele>
        <time>2020-09-01 12:07:21</time>
      </trkpt>
      <trkpt lat="44.30441" lon="4.55389">
        <ele>151.86365</ele>
        <time>2020-09-01 12:07:23</time>
      </trkpt>
      <trkpt lat="44.30442" lon="4.55407">
        <ele>151.18365</ele>
        <time>2020-09-01 12:07:26</time>
      </trkpt>
      <trkpt lat="44.30449" lon="4.55471">
        <ele>149.13696</ele>
        <time>2020-09-01 12:07:35</time>
      </trkpt>
      <trkpt lat="44.30453" lon="4.55479">
        <ele>148.43921</ele>
        <time>2020-09-01 12:07:37</time>
      </trkpt>
      <trkpt lat="44.30456" lon="4.55485">
        <ele>147.92163</ele>
        <time>2020-09-01 12:07:39</time>
      </trkpt>
      <trkpt lat="44.30462" lon="4.55496">
        <ele>148.68166</ele>
        <time>2020-09-01 12:07:42</time>
      </trkpt>
      <trkpt lat="44.3047" lon="4.55505">
        <ele>147.59277</ele>
        <time>2020-09-01 12:07:45</time>
      </trkpt>
      <trkpt lat="44.30472" lon="4.55508">
        <ele>146.094</ele>
        <time>2020-09-01 12:07:46</time>
      </trkpt>
      <trkpt lat="44.30474" lon="4.55511">
        <ele>145.74036</ele>
        <time>2020-09-01 12:07:48</time>
      </trkpt>
      <trkpt lat="44.30476" lon="4.55514">
        <ele>146.70386</ele>
        <time>2020-09-01 12:07:50</time>
      </trkpt>
      <trkpt lat="44.30476" lon="4.55514">
        <ele>146.6903</ele>
        <time>2020-09-01 12:07:53</time>
      </trkpt>
      <trkpt lat="44.30476" lon="4.55514">
        <ele>146.18982</ele>
        <time>2020-09-01 12:07:54</time>
      </trkpt>
      <trkpt lat="44.30476" lon="4.55515">
        <ele>146.33643</ele>
        <time>2020-09-01 12:07:55</time>
      </trkpt>
      <trkpt lat="44.30477" lon="4.55514">
        <ele>144.82196</ele>
        <time>2020-09-01 12:08:06</time>
      </trkpt>
      <trkpt lat="44.30477" lon="4.55514">
        <ele>144.84595</ele>
        <time>2020-09-01 12:08:07</time>
      </trkpt>
      <trkpt lat="44.30477" lon="4.55515">
        <ele>145.17218</ele>
        <time>2020-09-01 12:08:10</time>
      </trkpt>
      <trkpt lat="44.30482" lon="4.55517">
        <ele>145.90808</ele>
        <time>2020-09-01 12:08:15</time>
      </trkpt>
      <trkpt lat="44.30483" lon="4.5552">
        <ele>146.74768</ele>
        <time>2020-09-01 12:08:17</time>
      </trkpt>
      <trkpt lat="44.30483" lon="4.55521">
        <ele>144.08142</ele>
        <time>2020-09-01 12:08:33</time>
      </trkpt>
      <trkpt lat="44.30483" lon="4.55521">
        <ele>144.07288</ele>
        <time>2020-09-01 12:08:34</time>
      </trkpt>
      <trkpt lat="44.30483" lon="4.55521">
        <ele>143.31732</ele>
        <time>2020-09-01 12:08:36</time>
      </trkpt>
      <trkpt lat="44.30483" lon="4.55521">
        <ele>143.97107</ele>
        <time>2020-09-01 12:08:37</time>
      </trkpt>
      <trkpt lat="44.30483" lon="4.55519">
        <ele>144.08142</ele>
        <time>2020-09-01 12:08:42</time>
      </trkpt>
      <trkpt lat="44.30481" lon="4.55515">
        <ele>144.78522</ele>
        <time>2020-09-01 12:08:46</time>
      </trkpt>
      <trkpt lat="44.30478" lon="4.55517">
        <ele>144.01093</ele>
        <time>2020-09-01 12:08:49</time>
      </trkpt>
      <trkpt lat="44.30475" lon="4.5552">
        <ele>142.85846</ele>
        <time>2020-09-01 12:08:54</time>
      </trkpt>
      <trkpt lat="44.30473" lon="4.55522">
        <ele>144.69977</ele>
        <time>2020-09-01 12:08:57</time>
      </trkpt>
      <trkpt lat="44.30473" lon="4.55522">
        <ele>145.70264</ele>
        <time>2020-09-01 12:08:58</time>
      </trkpt>
      <trkpt lat="44.30469" lon="4.55523">
        <ele>142.83899</ele>
        <time>2020-09-01 12:09:02</time>
      </trkpt>
      <trkpt lat="44.30468" lon="4.55524">
        <ele>146.28882</ele>
        <time>2020-09-01 12:09:03</time>
      </trkpt>
      <trkpt lat="44.30467" lon="4.55525">
        <ele>146.3523</ele>
        <time>2020-09-01 12:09:04</time>
      </trkpt>
      <trkpt lat="44.30466" lon="4.55526">
        <ele>146.90466</ele>
        <time>2020-09-01 12:09:05</time>
      </trkpt>
      <trkpt lat="44.30465" lon="4.55527">
        <ele>146.74432</ele>
        <time>2020-09-01 12:09:06</time>
      </trkpt>
      <trkpt lat="44.30465" lon="4.55529">
        <ele>147.2655</ele>
        <time>2020-09-01 12:09:07</time>
      </trkpt>
      <trkpt lat="44.30464" lon="4.5553">
        <ele>146.44238</ele>
        <time>2020-09-01 12:09:09</time>
      </trkpt>
      <trkpt lat="44.30463" lon="4.55531">
        <ele>146.07837</ele>
        <time>2020-09-01 12:09:10</time>
      </trkpt>
      <trkpt lat="44.30462" lon="4.55532">
        <ele>145.68549</ele>
        <time>2020-09-01 12:09:11</time>
      </trkpt>
      <trkpt lat="44.30461" lon="4.55532">
        <ele>146.28882</ele>
        <time>2020-09-01 12:09:12</time>
      </trkpt>
      <trkpt lat="44.30459" lon="4.55532">
        <ele>145.59521</ele>
        <time>2020-09-01 12:09:13</time>
      </trkpt>
      <trkpt lat="44.30456" lon="4.55533">
        <ele>147.02032</ele>
        <time>2020-09-01 12:09:18</time>
      </trkpt>
      <trkpt lat="44.30451" lon="4.55532">
        <ele>145.59521</ele>
        <time>2020-09-01 12:09:22</time>
      </trkpt>
      <trkpt lat="44.30448" lon="4.55531">
        <ele>143.11115</ele>
        <time>2020-09-01 12:09:24</time>
      </trkpt>
      <trkpt lat="44.30433" lon="4.55525">
        <ele>142.0119</ele>
        <time>2020-09-01 12:09:30</time>
      </trkpt>
      <trkpt lat="44.30432" lon="4.55524">
        <ele>141.12952</ele>
        <time>2020-09-01 12:09:31</time>
      </trkpt>
      <trkpt lat="44.3043" lon="4.55522">
        <ele>143.49591</ele>
        <time>2020-09-01 12:09:32</time>
      </trkpt>
      <trkpt lat="44.30425" lon="4.55517">
        <ele>145.2121</ele>
        <time>2020-09-01 12:09:36</time>
      </trkpt>
      <trkpt lat="44.30422" lon="4.55517">
        <ele>145.78821</ele>
        <time>2020-09-01 12:09:37</time>
      </trkpt>
      <trkpt lat="44.30416" lon="4.55518">
        <ele>147.22638</ele>
        <time>2020-09-01 12:09:39</time>
      </trkpt>
      <trkpt lat="44.30403" lon="4.55522">
        <ele>147.91986</ele>
        <time>2020-09-01 12:09:44</time>
      </trkpt>
      <trkpt lat="44.30401" lon="4.55522">
        <ele>147.3634</ele>
        <time>2020-09-01 12:09:45</time>
      </trkpt>
      <trkpt lat="44.30393" lon="4.55521">
        <ele>149.80743</ele>
        <time>2020-09-01 12:09:48</time>
      </trkpt>
      <trkpt lat="44.3039" lon="4.55522">
        <ele>148.46796</ele>
        <time>2020-09-01 12:09:49</time>
      </trkpt>
      <trkpt lat="44.30384" lon="4.55525">
        <ele>147.43079</ele>
        <time>2020-09-01 12:09:51</time>
      </trkpt>
      <trkpt lat="44.30378" lon="4.55529">
        <ele>143.76141</ele>
        <time>2020-09-01 12:09:53</time>
      </trkpt>
      <trkpt lat="44.30346" lon="4.55549">
        <ele>143.53534</ele>
        <time>2020-09-01 12:10:02</time>
      </trkpt>
      <trkpt lat="44.30336" lon="4.55552">
        <ele>142.72913</ele>
        <time>2020-09-01 12:10:04</time>
      </trkpt>
      <trkpt lat="44.30321" lon="4.55557">
        <ele>138.86023</ele>
        <time>2020-09-01 12:10:09</time>
      </trkpt>
      <trkpt lat="44.30319" lon="4.55557">
        <ele>137.67664</ele>
        <time>2020-09-01 12:10:10</time>
      </trkpt>
      <trkpt lat="44.30313" lon="4.55559">
        <ele>137.10126</ele>
        <time>2020-09-01 12:10:13</time>
      </trkpt>
      <trkpt lat="44.30313" lon="4.5556">
        <ele>136.81238</ele>
        <time>2020-09-01 12:10:14</time>
      </trkpt>
      <trkpt lat="44.30312" lon="4.55561">
        <ele>136.89752</ele>
        <time>2020-09-01 12:10:17</time>
      </trkpt>
      <trkpt lat="44.30308" lon="4.55568">
        <ele>137.20886</ele>
        <time>2020-09-01 12:10:19</time>
      </trkpt>
      <trkpt lat="44.30295" lon="4.55597">
        <ele>139.62799</ele>
        <time>2020-09-01 12:10:32</time>
      </trkpt>
      <trkpt lat="44.30293" lon="4.55599">
        <ele>138.95831</ele>
        <time>2020-09-01 12:10:33</time>
      </trkpt>
      <trkpt lat="44.30287" lon="4.55603">
        <ele>139.14539</ele>
        <time>2020-09-01 12:10:37</time>
      </trkpt>
      <trkpt lat="44.30284" lon="4.55605">
        <ele>139.76398</ele>
        <time>2020-09-01 12:10:39</time>
      </trkpt>
      <trkpt lat="44.30281" lon="4.55607">
        <ele>138.42627</ele>
        <time>2020-09-01 12:10:41</time>
      </trkpt>
      <trkpt lat="44.30279" lon="4.55613">
        <ele>138.8703</ele>
        <time>2020-09-01 12:10:43</time>
      </trkpt>
      <trkpt lat="44.30278" lon="4.55632">
        <ele>138.16272</ele>
        <time>2020-09-01 12:10:49</time>
      </trkpt>
      <trkpt lat="44.30278" lon="4.55641">
        <ele>138.48206</ele>
        <time>2020-09-01 12:10:51</time>
      </trkpt>
      <trkpt lat="44.30275" lon="4.55653">
        <ele>139.20795</ele>
        <time>2020-09-01 12:10:54</time>
      </trkpt>
      <trkpt lat="44.30274" lon="4.55656">
        <ele>139.70502</ele>
        <time>2020-09-01 12:10:55</time>
      </trkpt>
      <trkpt lat="44.3027" lon="4.55662">
        <ele>138.13708</ele>
        <time>2020-09-01 12:10:59</time>
      </trkpt>
      <trkpt lat="44.3027" lon="4.55663">
        <ele>138.32709</ele>
        <time>2020-09-01 12:11:05</time>
      </trkpt>
      <trkpt lat="44.30269" lon="4.55664">
        <ele>139.05585</ele>
        <time>2020-09-01 12:11:06</time>
      </trkpt>
      <trkpt lat="44.30268" lon="4.55664">
        <ele>138.9259</ele>
        <time>2020-09-01 12:11:07</time>
      </trkpt>
      <trkpt lat="44.30268" lon="4.55665">
        <ele>139.61981</ele>
        <time>2020-09-01 12:11:08</time>
      </trkpt>
      <trkpt lat="44.30267" lon="4.55665">
        <ele>138.55017</ele>
        <time>2020-09-01 12:11:28</time>
      </trkpt>
      <trkpt lat="44.30266" lon="4.55666">
        <ele>139.58923</ele>
        <time>2020-09-01 12:11:30</time>
      </trkpt>
      <trkpt lat="44.30263" lon="4.55668">
        <ele>138.92285</ele>
        <time>2020-09-01 12:11:32</time>
      </trkpt>
      <trkpt lat="44.30263" lon="4.55668">
        <ele>137.75446</ele>
        <time>2020-09-01 12:11:33</time>
      </trkpt>
      <trkpt lat="44.3026" lon="4.5567">
        <ele>135.29974</ele>
        <time>2020-09-01 12:11:36</time>
      </trkpt>
      <trkpt lat="44.30257" lon="4.55673">
        <ele>136.97815</ele>
        <time>2020-09-01 12:11:39</time>
      </trkpt>
      <trkpt lat="44.30256" lon="4.55676">
        <ele>137.02417</ele>
        <time>2020-09-01 12:11:40</time>
      </trkpt>
      <trkpt lat="44.30251" lon="4.55689">
        <ele>136.56232</ele>
        <time>2020-09-01 12:11:44</time>
      </trkpt>
      <trkpt lat="44.30249" lon="4.55692">
        <ele>136.57202</ele>
        <time>2020-09-01 12:11:45</time>
      </trkpt>
      <trkpt lat="44.30236" lon="4.55715">
        <ele>136.17041</ele>
        <time>2020-09-01 12:11:53</time>
      </trkpt>
      <trkpt lat="44.30235" lon="4.55716">
        <ele>135.23688</ele>
        <time>2020-09-01 12:11:54</time>
      </trkpt>
      <trkpt lat="44.30231" lon="4.55717">
        <ele>131.53168</ele>
        <time>2020-09-01 12:11:58</time>
      </trkpt>
      <trkpt lat="44.30232" lon="4.55716">
        <ele>129.86682</ele>
        <time>2020-09-01 12:11:59</time>
      </trkpt>
      <trkpt lat="44.30232" lon="4.55716">
        <ele>129.44983</ele>
        <time>2020-09-01 12:12:01</time>
      </trkpt>
      <trkpt lat="44.3023" lon="4.55716">
        <ele>129.71698</ele>
        <time>2020-09-01 12:12:03</time>
      </trkpt>
      <trkpt lat="44.30228" lon="4.55715">
        <ele>131.41278</ele>
        <time>2020-09-01 12:12:06</time>
      </trkpt>
      <trkpt lat="44.30227" lon="4.55716">
        <ele>129.71698</ele>
        <time>2020-09-01 12:12:12</time>
      </trkpt>
      <trkpt lat="44.30228" lon="4.55715">
        <ele>132.53387</ele>
        <time>2020-09-01 12:12:13</time>
      </trkpt>
      <trkpt lat="44.3023" lon="4.5571">
        <ele>133.94818</ele>
        <time>2020-09-01 12:12:15</time>
      </trkpt>
      <trkpt lat="44.3023" lon="4.55708">
        <ele>132.89471</ele>
        <time>2020-09-01 12:12:16</time>
      </trkpt>
      <trkpt lat="44.3023" lon="4.55705">
        <ele>132.62488</ele>
        <time>2020-09-01 12:12:17</time>
      </trkpt>
      <trkpt lat="44.30229" lon="4.55702">
        <ele>132.27356</ele>
        <time>2020-09-01 12:12:18</time>
      </trkpt>
      <trkpt lat="44.30228" lon="4.55697">
        <ele>129.57922</ele>
        <time>2020-09-01 12:12:20</time>
      </trkpt>
      <trkpt lat="44.30227" lon="4.55695">
        <ele>131.35071</ele>
        <time>2020-09-01 12:12:21</time>
      </trkpt>
      <trkpt lat="44.30224" lon="4.55694">
        <ele>133.81726</ele>
        <time>2020-09-01 12:12:23</time>
      </trkpt>
      <trkpt lat="44.30224" lon="4.55699">
        <ele>134.67017</ele>
        <time>2020-09-01 12:12:25</time>
      </trkpt>
      <trkpt lat="44.30225" lon="4.55701">
        <ele>133.91638</ele>
        <time>2020-09-01 12:12:26</time>
      </trkpt>
      <trkpt lat="44.30227" lon="4.55703">
        <ele>134.17346</ele>
        <time>2020-09-01 12:12:27</time>
      </trkpt>
      <trkpt lat="44.30228" lon="4.55705">
        <ele>133.04211</ele>
        <time>2020-09-01 12:12:28</time>
      </trkpt>
      <trkpt lat="44.30228" lon="4.55707">
        <ele>133.33972</ele>
        <time>2020-09-01 12:12:29</time>
      </trkpt>
      <trkpt lat="44.30228" lon="4.5571">
        <ele>134.75128</ele>
        <time>2020-09-01 12:12:30</time>
      </trkpt>
      <trkpt lat="44.30227" lon="4.55715">
        <ele>133.81726</ele>
        <time>2020-09-01 12:12:32</time>
      </trkpt>
      <trkpt lat="44.30226" lon="4.55718">
        <ele>134.9599</ele>
        <time>2020-09-01 12:12:33</time>
      </trkpt>
      <trkpt lat="44.30224" lon="4.55726">
        <ele>134.60486</ele>
        <time>2020-09-01 12:12:36</time>
      </trkpt>
      <trkpt lat="44.30224" lon="4.5574">
        <ele>135.12775</ele>
        <time>2020-09-01 12:12:41</time>
      </trkpt>
      <trkpt lat="44.30222" lon="4.55748">
        <ele>136.89026</ele>
        <time>2020-09-01 12:12:44</time>
      </trkpt>
      <trkpt lat="44.30219" lon="4.5575">
        <ele>137.43915</ele>
        <time>2020-09-01 12:12:46</time>
      </trkpt>
      <trkpt lat="44.30217" lon="4.55752">
        <ele>137.66089</ele>
        <time>2020-09-01 12:12:48</time>
      </trkpt>
      <trkpt lat="44.30217" lon="4.55753">
        <ele>137.94873</ele>
        <time>2020-09-01 12:12:50</time>
      </trkpt>
      <trkpt lat="44.30217" lon="4.55754">
        <ele>139.61426</ele>
        <time>2020-09-01 12:13:14</time>
      </trkpt>
      <trkpt lat="44.30216" lon="4.55755">
        <ele>139.97119</ele>
        <time>2020-09-01 12:13:15</time>
      </trkpt>
      <trkpt lat="44.30216" lon="4.55757">
        <ele>140.7486</ele>
        <time>2020-09-01 12:13:18</time>
      </trkpt>
      <trkpt lat="44.30216" lon="4.55757">
        <ele>141.15485</ele>
        <time>2020-09-01 12:13:19</time>
      </trkpt>
      <trkpt lat="44.30216" lon="4.55758">
        <ele>141.2782</ele>
        <time>2020-09-01 12:13:20</time>
      </trkpt>
      <trkpt lat="44.30215" lon="4.55763">
        <ele>141.38928</ele>
        <time>2020-09-01 12:13:27</time>
      </trkpt>
      <trkpt lat="44.30215" lon="4.55763">
        <ele>141.72235</ele>
        <time>2020-09-01 12:13:28</time>
      </trkpt>
      <trkpt lat="44.30213" lon="4.55763">
        <ele>143.54816</ele>
        <time>2020-09-01 12:13:33</time>
      </trkpt>
      <trkpt lat="44.30214" lon="4.55764">
        <ele>144.0882</ele>
        <time>2020-09-01 12:13:37</time>
      </trkpt>
      <trkpt lat="44.30214" lon="4.55764">
        <ele>144.72266</ele>
        <time>2020-09-01 12:13:38</time>
      </trkpt>
      <trkpt lat="44.30214" lon="4.55764">
        <ele>143.20361</ele>
        <time>2020-09-01 12:13:39</time>
      </trkpt>
      <trkpt lat="44.30212" lon="4.55768">
        <ele>143.72357</ele>
        <time>2020-09-01 12:13:44</time>
      </trkpt>
      <trkpt lat="44.30212" lon="4.55768">
        <ele>143.86768</ele>
        <time>2020-09-01 12:13:45</time>
      </trkpt>
      <trkpt lat="44.30212" lon="4.55768">
        <ele>143.68408</ele>
        <time>2020-09-01 12:13:54</time>
      </trkpt>
      <trkpt lat="44.30212" lon="4.55768">
        <ele>143.14514</ele>
        <time>2020-09-01 12:13:55</time>
      </trkpt>
      <trkpt lat="44.30212" lon="4.55769">
        <ele>141.95178</ele>
        <time>2020-09-01 12:13:57</time>
      </trkpt>
      <trkpt lat="44.30211" lon="4.5577">
        <ele>141.66998</ele>
        <time>2020-09-01 12:13:58</time>
      </trkpt>
      <trkpt lat="44.30211" lon="4.55773">
        <ele>143.67444</ele>
        <time>2020-09-01 12:14:02</time>
      </trkpt>
      <trkpt lat="44.30211" lon="4.55773">
        <ele>142.24707</ele>
        <time>2020-09-01 12:14:06</time>
      </trkpt>
      <trkpt lat="44.30211" lon="4.55774">
        <ele>142.27081</ele>
        <time>2020-09-01 12:19:12</time>
      </trkpt>
      <trkpt lat="44.30211" lon="4.55774">
        <ele>143.46045</ele>
        <time>2020-09-01 12:19:14</time>
      </trkpt>
      <trkpt lat="44.30211" lon="4.55775">
        <ele>144.46155</ele>
        <time>2020-09-01 12:19:15</time>
      </trkpt>
      <trkpt lat="44.30209" lon="4.55777">
        <ele>145.52124</ele>
        <time>2020-09-01 12:19:18</time>
      </trkpt>
      <trkpt lat="44.30209" lon="4.55779">
        <ele>144.61243</ele>
        <time>2020-09-01 12:19:21</time>
      </trkpt>
      <trkpt lat="44.30209" lon="4.55779">
        <ele>142.1344</ele>
        <time>2020-09-01 12:19:51</time>
      </trkpt>
      <trkpt lat="44.30209" lon="4.55779">
        <ele>142.06793</ele>
        <time>2020-09-01 12:20:24</time>
      </trkpt>
      <trkpt lat="44.30209" lon="4.55779">
        <ele>142.12048</ele>
        <time>2020-09-01 12:20:54</time>
      </trkpt>
      <trkpt lat="44.30209" lon="4.55779">
        <ele>142.11938</ele>
        <time>2020-09-01 12:21:24</time>
      </trkpt>
      <trkpt lat="44.30209" lon="4.55779">
        <ele>142.15698</ele>
        <time>2020-09-01 12:21:54</time>
      </trkpt>
      <trkpt lat="44.30209" lon="4.55779">
        <ele>142.1383</ele>
        <time>2020-09-01 12:22:24</time>
      </trkpt>
      <trkpt lat="44.30209" lon="4.55779">
        <ele>142.14093</ele>
        <time>2020-09-01 12:22:58</time>
      </trkpt>
      <trkpt lat="44.30209" lon="4.55779">
        <ele>142.13684</ele>
        <time>2020-09-01 12:23:29</time>
      </trkpt>
      <trkpt lat="44.30209" lon="4.55779">
        <ele>142.16492</ele>
        <time>2020-09-01 12:24:00</time>
      </trkpt>
      <trkpt lat="44.30209" lon="4.55779">
        <ele>142.18347</ele>
        <time>2020-09-01 12:24:31</time>
      </trkpt>
      <trkpt lat="44.30209" lon="4.55779">
        <ele>143.12256</ele>
        <time>2020-09-01 12:24:33</time>
      </trkpt>
      <trkpt lat="44.30209" lon="4.55779">
        <ele>143.26062</ele>
        <time>2020-09-01 12:24:34</time>
      </trkpt>
      <trkpt lat="44.30209" lon="4.55778">
        <ele>141.95819</ele>
        <time>2020-09-01 12:24:35</time>
      </trkpt>
      <trkpt lat="44.30209" lon="4.55777">
        <ele>142.64386</ele>
        <time>2020-09-01 12:24:36</time>
      </trkpt>
      <trkpt lat="44.30208" lon="4.55776">
        <ele>142.66266</ele>
        <time>2020-09-01 12:24:37</time>
      </trkpt>
      <trkpt lat="44.30208" lon="4.55776">
        <ele>142.65485</ele>
        <time>2020-09-01 12:24:38</time>
      </trkpt>
      <trkpt lat="44.30208" lon="4.55776">
        <ele>144.96875</ele>
        <time>2020-09-01 12:43:54</time>
      </trkpt>
      <trkpt lat="44.30207" lon="4.55776">
        <ele>143.77344</ele>
        <time>2020-09-01 12:44:19</time>
      </trkpt>
      <trkpt lat="44.30206" lon="4.55776">
        <ele>143.37708</ele>
        <time>2020-09-01 12:44:20</time>
      </trkpt>
      <trkpt lat="44.30206" lon="4.55775">
        <ele>145.14087</ele>
        <time>2020-09-01 12:44:22</time>
      </trkpt>
      <trkpt lat="44.30205" lon="4.55775">
        <ele>142.17188</ele>
        <time>2020-09-01 12:44:23</time>
      </trkpt>
      <trkpt lat="44.30205" lon="4.55775">
        <ele>141.216</ele>
        <time>2020-09-01 12:44:24</time>
      </trkpt>
      <trkpt lat="44.30205" lon="4.55774">
        <ele>141.48694</ele>
        <time>2020-09-01 12:44:25</time>
      </trkpt>
      <trkpt lat="44.30206" lon="4.55772">
        <ele>142.9154</ele>
        <time>2020-09-01 12:44:28</time>
      </trkpt>
      <trkpt lat="44.30209" lon="4.55773">
        <ele>145.57874</ele>
        <time>2020-09-01 12:44:58</time>
      </trkpt>
      <trkpt lat="44.30211" lon="4.55771">
        <ele>145.0141</ele>
        <time>2020-09-01 12:45:35</time>
      </trkpt>
      <trkpt lat="44.30211" lon="4.55771">
        <ele>145.50067</ele>
        <time>2020-09-01 12:45:37</time>
      </trkpt>
      <trkpt lat="44.30211" lon="4.5577">
        <ele>144.87347</ele>
        <time>2020-09-01 12:45:39</time>
      </trkpt>
      <trkpt lat="44.30211" lon="4.5577">
        <ele>143.90662</ele>
        <time>2020-09-01 12:45:41</time>
      </trkpt>
      <trkpt lat="44.30211" lon="4.5577">
        <ele>145.00818</ele>
        <time>2020-09-01 12:45:42</time>
      </trkpt>
      <trkpt lat="44.30212" lon="4.55769">
        <ele>143.04553</ele>
        <time>2020-09-01 12:45:43</time>
      </trkpt>
      <trkpt lat="44.30212" lon="4.55768">
        <ele>142.26282</ele>
        <time>2020-09-01 12:45:45</time>
      </trkpt>
      <trkpt lat="44.30213" lon="4.55766">
        <ele>143.19989</ele>
        <time>2020-09-01 12:45:49</time>
      </trkpt>
      <trkpt lat="44.30214" lon="4.55766">
        <ele>143.77002</ele>
        <time>2020-09-01 12:45:51</time>
      </trkpt>
      <trkpt lat="44.30214" lon="4.55765">
        <ele>143.29407</ele>
        <time>2020-09-01 12:45:53</time>
      </trkpt>
      <trkpt lat="44.30215" lon="4.55764">
        <ele>144.05139</ele>
        <time>2020-09-01 12:45:56</time>
      </trkpt>
      <trkpt lat="44.30216" lon="4.55765">
        <ele>144.91132</ele>
        <time>2020-09-01 12:46:05</time>
      </trkpt>
      <trkpt lat="44.30216" lon="4.55764">
        <ele>144.82507</ele>
        <time>2020-09-01 12:46:08</time>
      </trkpt>
      <trkpt lat="44.30216" lon="4.55764">
        <ele>143.72485</ele>
        <time>2020-09-01 12:46:12</time>
      </trkpt>
      <trkpt lat="44.30217" lon="4.55764">
        <ele>146.19495</ele>
        <time>2020-09-01 12:46:13</time>
      </trkpt>
      <trkpt lat="44.30217" lon="4.55763">
        <ele>143.48523</ele>
        <time>2020-09-01 12:46:20</time>
      </trkpt>
      <trkpt lat="44.30217" lon="4.55763">
        <ele>143.93933</ele>
        <time>2020-09-01 12:46:21</time>
      </trkpt>
      <trkpt lat="44.30217" lon="4.55764">
        <ele>146.36621</ele>
        <time>2020-09-01 12:46:49</time>
      </trkpt>
      <trkpt lat="44.30218" lon="4.55764">
        <ele>146.7276</ele>
        <time>2020-09-01 12:46:50</time>
      </trkpt>
      <trkpt lat="44.30217" lon="4.55764">
        <ele>147.13306</ele>
        <time>2020-09-01 12:46:53</time>
      </trkpt>
      <trkpt lat="44.30217" lon="4.55761">
        <ele>147.34186</ele>
        <time>2020-09-01 12:46:56</time>
      </trkpt>
      <trkpt lat="44.30218" lon="4.55754">
        <ele>145.86743</ele>
        <time>2020-09-01 12:47:00</time>
      </trkpt>
      <trkpt lat="44.30224" lon="4.55745">
        <ele>143.17682</ele>
        <time>2020-09-01 12:47:03</time>
      </trkpt>
      <trkpt lat="44.30226" lon="4.55736">
        <ele>144.5957</ele>
        <time>2020-09-01 12:47:05</time>
      </trkpt>
      <trkpt lat="44.30226" lon="4.55731">
        <ele>143.26178</ele>
        <time>2020-09-01 12:47:06</time>
      </trkpt>
      <trkpt lat="44.30226" lon="4.55725">
        <ele>142.39246</ele>
        <time>2020-09-01 12:47:08</time>
      </trkpt>
      <trkpt lat="44.30227" lon="4.5572">
        <ele>142.42139</ele>
        <time>2020-09-01 12:47:10</time>
      </trkpt>
      <trkpt lat="44.30228" lon="4.55718">
        <ele>142.76624</ele>
        <time>2020-09-01 12:47:11</time>
      </trkpt>
      <trkpt lat="44.30229" lon="4.55717">
        <ele>143.17682</ele>
        <time>2020-09-01 12:47:12</time>
      </trkpt>
      <trkpt lat="44.30248" lon="4.55694">
        <ele>138.98145</ele>
        <time>2020-09-01 12:47:25</time>
      </trkpt>
      <trkpt lat="44.30255" lon="4.55682">
        <ele>138.78064</ele>
        <time>2020-09-01 12:47:32</time>
      </trkpt>
      <trkpt lat="44.30257" lon="4.5568">
        <ele>137.59393</ele>
        <time>2020-09-01 12:47:34</time>
      </trkpt>
      <trkpt lat="44.3026" lon="4.55677">
        <ele>137.0332</ele>
        <time>2020-09-01 12:47:37</time>
      </trkpt>
      <trkpt lat="44.30262" lon="4.55677">
        <ele>136.85962</ele>
        <time>2020-09-01 12:47:38</time>
      </trkpt>
      <trkpt lat="44.30263" lon="4.55677">
        <ele>136.9079</ele>
        <time>2020-09-01 12:47:39</time>
      </trkpt>
      <trkpt lat="44.30271" lon="4.55679">
        <ele>138.39044</ele>
        <time>2020-09-01 12:47:43</time>
      </trkpt>
      <trkpt lat="44.3027" lon="4.55679">
        <ele>138.4195</ele>
        <time>2020-09-01 12:47:44</time>
      </trkpt>
      <trkpt lat="44.3027" lon="4.55678">
        <ele>138.59534</ele>
        <time>2020-09-01 12:47:46</time>
      </trkpt>
      <trkpt lat="44.3027" lon="4.55678">
        <ele>139.05627</ele>
        <time>2020-09-01 12:47:49</time>
      </trkpt>
      <trkpt lat="44.3027" lon="4.55678">
        <ele>138.15741</ele>
        <time>2020-09-01 12:49:09</time>
      </trkpt>
      <trkpt lat="44.30271" lon="4.55678">
        <ele>137.80481</ele>
        <time>2020-09-01 12:49:35</time>
      </trkpt>
      <trkpt lat="44.30271" lon="4.55676">
        <ele>134.79138</ele>
        <time>2020-09-01 12:49:37</time>
      </trkpt>
      <trkpt lat="44.30272" lon="4.55675">
        <ele>134.90588</ele>
        <time>2020-09-01 12:49:38</time>
      </trkpt>
      <trkpt lat="44.30273" lon="4.55674">
        <ele>134.52753</ele>
        <time>2020-09-01 12:49:40</time>
      </trkpt>
      <trkpt lat="44.30274" lon="4.55673">
        <ele>134.15167</ele>
        <time>2020-09-01 12:49:41</time>
      </trkpt>
      <trkpt lat="44.30274" lon="4.55672">
        <ele>138.15125</ele>
        <time>2020-09-01 12:49:42</time>
      </trkpt>
      <trkpt lat="44.30276" lon="4.55671">
        <ele>133.04895</ele>
        <time>2020-09-01 12:49:44</time>
      </trkpt>
      <trkpt lat="44.30277" lon="4.5567">
        <ele>133.11414</ele>
        <time>2020-09-01 12:49:45</time>
      </trkpt>
      <trkpt lat="44.30276" lon="4.55669">
        <ele>133.45026</ele>
        <time>2020-09-01 12:49:46</time>
      </trkpt>
      <trkpt lat="44.30276" lon="4.55666">
        <ele>131.18427</ele>
        <time>2020-09-01 12:49:58</time>
      </trkpt>
      <trkpt lat="44.30277" lon="4.55665">
        <ele>131.80237</ele>
        <time>2020-09-01 12:49:59</time>
      </trkpt>
      <trkpt lat="44.30277" lon="4.55662">
        <ele>134.14465</ele>
        <time>2020-09-01 12:50:01</time>
      </trkpt>
      <trkpt lat="44.30279" lon="4.55657">
        <ele>136.28302</ele>
        <time>2020-09-01 12:50:03</time>
      </trkpt>
      <trkpt lat="44.30279" lon="4.55655">
        <ele>135.8916</ele>
        <time>2020-09-01 12:50:04</time>
      </trkpt>
      <trkpt lat="44.30279" lon="4.55643">
        <ele>135.66626</ele>
        <time>2020-09-01 12:50:08</time>
      </trkpt>
      <trkpt lat="44.30278" lon="4.55639">
        <ele>136.42847</ele>
        <time>2020-09-01 12:50:10</time>
      </trkpt>
      <trkpt lat="44.30278" lon="4.55617">
        <ele>134.67603</ele>
        <time>2020-09-01 12:50:20</time>
      </trkpt>
      <trkpt lat="44.30278" lon="4.55614">
        <ele>134.14478</ele>
        <time>2020-09-01 12:50:21</time>
      </trkpt>
      <trkpt lat="44.30275" lon="4.55606">
        <ele>134.92499</ele>
        <time>2020-09-01 12:50:24</time>
      </trkpt>
      <trkpt lat="44.30272" lon="4.556">
        <ele>136.33313</ele>
        <time>2020-09-01 12:50:27</time>
      </trkpt>
      <trkpt lat="44.30269" lon="4.55596">
        <ele>137.11475</ele>
        <time>2020-09-01 12:50:29</time>
      </trkpt>
      <trkpt lat="44.3026" lon="4.55577">
        <ele>140.98395</ele>
        <time>2020-09-01 12:50:36</time>
      </trkpt>
      <trkpt lat="44.30259" lon="4.55575">
        <ele>141.1405</ele>
        <time>2020-09-01 12:50:37</time>
      </trkpt>
      <trkpt lat="44.30257" lon="4.5557">
        <ele>140.42358</ele>
        <time>2020-09-01 12:50:39</time>
      </trkpt>
      <trkpt lat="44.30256" lon="4.55568">
        <ele>141.31268</ele>
        <time>2020-09-01 12:50:40</time>
      </trkpt>
      <trkpt lat="44.30255" lon="4.55566">
        <ele>140.91974</ele>
        <time>2020-09-01 12:50:41</time>
      </trkpt>
      <trkpt lat="44.30251" lon="4.5556">
        <ele>140.42639</ele>
        <time>2020-09-01 12:50:44</time>
      </trkpt>
      <trkpt lat="44.30248" lon="4.55555">
        <ele>139.75525</ele>
        <time>2020-09-01 12:50:46</time>
      </trkpt>
      <trkpt lat="44.30239" lon="4.55543">
        <ele>140.37354</ele>
        <time>2020-09-01 12:50:52</time>
      </trkpt>
      <trkpt lat="44.30237" lon="4.55539">
        <ele>139.84741</ele>
        <time>2020-09-01 12:50:54</time>
      </trkpt>
      <trkpt lat="44.30235" lon="4.55537">
        <ele>140.38696</ele>
        <time>2020-09-01 12:50:55</time>
      </trkpt>
      <trkpt lat="44.30234" lon="4.55535">
        <ele>141.23999</ele>
        <time>2020-09-01 12:50:56</time>
      </trkpt>
      <trkpt lat="44.30226" lon="4.55524">
        <ele>139.7644</ele>
        <time>2020-09-01 12:51:02</time>
      </trkpt>
      <trkpt lat="44.30222" lon="4.55519">
        <ele>140.75159</ele>
        <time>2020-09-01 12:51:05</time>
      </trkpt>
      <trkpt lat="44.30214" lon="4.55511">
        <ele>137.0622</ele>
        <time>2020-09-01 12:51:10</time>
      </trkpt>
      <trkpt lat="44.30211" lon="4.55507">
        <ele>141.02386</ele>
        <time>2020-09-01 12:51:12</time>
      </trkpt>
      <trkpt lat="44.3021" lon="4.55506">
        <ele>136.87354</ele>
        <time>2020-09-01 12:51:13</time>
      </trkpt>
      <trkpt lat="44.30205" lon="4.55501">
        <ele>138.39648</ele>
        <time>2020-09-01 12:51:17</time>
      </trkpt>
      <trkpt lat="44.30201" lon="4.55498">
        <ele>139.65729</ele>
        <time>2020-09-01 12:51:20</time>
      </trkpt>
      <trkpt lat="44.30198" lon="4.55496">
        <ele>136.87354</ele>
        <time>2020-09-01 12:51:22</time>
      </trkpt>
      <trkpt lat="44.30197" lon="4.55489">
        <ele>139.66931</ele>
        <time>2020-09-01 12:51:25</time>
      </trkpt>
      <trkpt lat="44.30199" lon="4.55485">
        <ele>140.32202</ele>
        <time>2020-09-01 12:51:27</time>
      </trkpt>
      <trkpt lat="44.30205" lon="4.55482">
        <ele>141.14105</ele>
        <time>2020-09-01 12:51:31</time>
      </trkpt>
      <trkpt lat="44.30208" lon="4.55482">
        <ele>140.90381</ele>
        <time>2020-09-01 12:51:33</time>
      </trkpt>
      <trkpt lat="44.30217" lon="4.55481">
        <ele>141.57538</ele>
        <time>2020-09-01 12:51:39</time>
      </trkpt>
      <trkpt lat="44.30218" lon="4.55481">
        <ele>142.21777</ele>
        <time>2020-09-01 12:51:40</time>
      </trkpt>
      <trkpt lat="44.30232" lon="4.55478">
        <ele>140.36688</ele>
        <time>2020-09-01 12:51:48</time>
      </trkpt>
      <trkpt lat="44.30233" lon="4.55477">
        <ele>140.09515</ele>
        <time>2020-09-01 12:51:49</time>
      </trkpt>
      <trkpt lat="44.30243" lon="4.55475">
        <ele>139.461</ele>
        <time>2020-09-01 12:51:54</time>
      </trkpt>
      <trkpt lat="44.30253" lon="4.55472">
        <ele>140.46356</ele>
        <time>2020-09-01 12:51:59</time>
      </trkpt>
      <trkpt lat="44.30255" lon="4.55471">
        <ele>140.76086</ele>
        <time>2020-09-01 12:52:00</time>
      </trkpt>
      <trkpt lat="44.30258" lon="4.5547">
        <ele>141.48651</ele>
        <time>2020-09-01 12:52:01</time>
      </trkpt>
      <trkpt lat="44.30262" lon="4.55468">
        <ele>141.1554</ele>
        <time>2020-09-01 12:52:03</time>
      </trkpt>
      <trkpt lat="44.30284" lon="4.55449">
        <ele>142.2008</ele>
        <time>2020-09-01 12:52:15</time>
      </trkpt>
      <trkpt lat="44.30285" lon="4.55446">
        <ele>143.97632</ele>
        <time>2020-09-01 12:52:19</time>
      </trkpt>
      <trkpt lat="44.30284" lon="4.55447">
        <ele>144.71301</ele>
        <time>2020-09-01 12:52:21</time>
      </trkpt>
      <trkpt lat="44.30284" lon="4.55447">
        <ele>142.9867</ele>
        <time>2020-09-01 12:52:22</time>
      </trkpt>
      <trkpt lat="44.30282" lon="4.55447">
        <ele>144.46527</ele>
        <time>2020-09-01 12:52:25</time>
      </trkpt>
      <trkpt lat="44.30283" lon="4.55447">
        <ele>145.54102</ele>
        <time>2020-09-01 12:52:28</time>
      </trkpt>
      <trkpt lat="44.30283" lon="4.55447">
        <ele>144.97742</ele>
        <time>2020-09-01 12:52:29</time>
      </trkpt>
      <trkpt lat="44.30282" lon="4.55447">
        <ele>143.71863</ele>
        <time>2020-09-01 12:52:34</time>
      </trkpt>
      <trkpt lat="44.30277" lon="4.55452">
        <ele>146.26831</ele>
        <time>2020-09-01 12:52:39</time>
      </trkpt>
      <trkpt lat="44.30275" lon="4.55453">
        <ele>145.86389</ele>
        <time>2020-09-01 12:52:40</time>
      </trkpt>
      <trkpt lat="44.30269" lon="4.55457">
        <ele>144.26349</ele>
        <time>2020-09-01 12:52:43</time>
      </trkpt>
      <trkpt lat="44.30267" lon="4.55459">
        <ele>144.10925</ele>
        <time>2020-09-01 12:52:44</time>
      </trkpt>
      <trkpt lat="44.3025" lon="4.55469">
        <ele>142.11548</ele>
        <time>2020-09-01 12:52:50</time>
      </trkpt>
      <trkpt lat="44.30238" lon="4.55473">
        <ele>143.60846</ele>
        <time>2020-09-01 12:52:54</time>
      </trkpt>
      <trkpt lat="44.30219" lon="4.55479">
        <ele>143.41272</ele>
        <time>2020-09-01 12:53:00</time>
      </trkpt>
      <trkpt lat="44.30179" lon="4.55486">
        <ele>143.44592</ele>
        <time>2020-09-01 12:53:12</time>
      </trkpt>
      <trkpt lat="44.30151" lon="4.55482">
        <ele>145.33612</ele>
        <time>2020-09-01 12:53:21</time>
      </trkpt>
      <trkpt lat="44.30126" lon="4.55482">
        <ele>143.22083</ele>
        <time>2020-09-01 12:53:30</time>
      </trkpt>
      <trkpt lat="44.30112" lon="4.5548">
        <ele>144.59332</ele>
        <time>2020-09-01 12:53:36</time>
      </trkpt>
      <trkpt lat="44.30085" lon="4.55479">
        <ele>140.65387</ele>
        <time>2020-09-01 12:53:47</time>
      </trkpt>
      <trkpt lat="44.30082" lon="4.55479">
        <ele>141.16144</ele>
        <time>2020-09-01 12:53:48</time>
      </trkpt>
      <trkpt lat="44.29995" lon="4.55476">
        <ele>140.56885</ele>
        <time>2020-09-01 12:54:18</time>
      </trkpt>
      <trkpt lat="44.29942" lon="4.55472">
        <ele>136.69312</ele>
        <time>2020-09-01 12:54:34</time>
      </trkpt>
      <trkpt lat="44.29936" lon="4.55473">
        <ele>136.94916</ele>
        <time>2020-09-01 12:54:36</time>
      </trkpt>
      <trkpt lat="44.29912" lon="4.55463">
        <ele>138.00854</ele>
        <time>2020-09-01 12:54:45</time>
      </trkpt>
      <trkpt lat="44.29907" lon="4.55458">
        <ele>137.17725</ele>
        <time>2020-09-01 12:54:47</time>
      </trkpt>
      <trkpt lat="44.29905" lon="4.55455">
        <ele>136.57678</ele>
        <time>2020-09-01 12:54:48</time>
      </trkpt>
      <trkpt lat="44.29904" lon="4.55452">
        <ele>136.51141</ele>
        <time>2020-09-01 12:54:49</time>
      </trkpt>
      <trkpt lat="44.29904" lon="4.55447">
        <ele>136.97845</ele>
        <time>2020-09-01 12:54:51</time>
      </trkpt>
      <trkpt lat="44.29904" lon="4.55443">
        <ele>137.82397</ele>
        <time>2020-09-01 12:54:53</time>
      </trkpt>
      <trkpt lat="44.29905" lon="4.55445">
        <ele>139.82336</ele>
        <time>2020-09-01 12:55:04</time>
      </trkpt>
      <trkpt lat="44.29905" lon="4.55445">
        <ele>138.5592</ele>
        <time>2020-09-01 12:55:05</time>
      </trkpt>
      <trkpt lat="44.29905" lon="4.55444">
        <ele>138.44525</ele>
        <time>2020-09-01 12:55:06</time>
      </trkpt>
      <trkpt lat="44.29906" lon="4.55442">
        <ele>137.97339</ele>
        <time>2020-09-01 12:55:09</time>
      </trkpt>
      <trkpt lat="44.29908" lon="4.55436">
        <ele>139.94342</ele>
        <time>2020-09-01 12:55:12</time>
      </trkpt>
      <trkpt lat="44.29912" lon="4.55428">
        <ele>137.80035</ele>
        <time>2020-09-01 12:55:15</time>
      </trkpt>
      <trkpt lat="44.29919" lon="4.55408">
        <ele>137.9701</ele>
        <time>2020-09-01 12:55:21</time>
      </trkpt>
      <trkpt lat="44.29919" lon="4.55404">
        <ele>138.3783</ele>
        <time>2020-09-01 12:55:22</time>
      </trkpt>
      <trkpt lat="44.29919" lon="4.554">
        <ele>138.6654</ele>
        <time>2020-09-01 12:55:23</time>
      </trkpt>
      <trkpt lat="44.29918" lon="4.55395">
        <ele>137.88983</ele>
        <time>2020-09-01 12:55:24</time>
      </trkpt>
      <trkpt lat="44.29911" lon="4.55373">
        <ele>135.80542</ele>
        <time>2020-09-01 12:55:28</time>
      </trkpt>
      <trkpt lat="44.29899" lon="4.55343">
        <ele>137.69727</ele>
        <time>2020-09-01 12:55:34</time>
      </trkpt>
      <trkpt lat="44.29875" lon="4.55244">
        <ele>146.77277</ele>
        <time>2020-09-01 12:55:57</time>
      </trkpt>
      <trkpt lat="44.29855" lon="4.55127">
        <ele>143.34564</ele>
        <time>2020-09-01 12:56:27</time>
      </trkpt>
      <trkpt lat="44.29853" lon="4.5511">
        <ele>140.18677</ele>
        <time>2020-09-01 12:56:30</time>
      </trkpt>
      <trkpt lat="44.29853" lon="4.55104">
        <ele>140.54675</ele>
        <time>2020-09-01 12:56:31</time>
      </trkpt>
      <trkpt lat="44.29851" lon="4.55087">
        <ele>140.47882</ele>
        <time>2020-09-01 12:56:34</time>
      </trkpt>
      <trkpt lat="44.29848" lon="4.55076">
        <ele>140.00635</ele>
        <time>2020-09-01 12:56:36</time>
      </trkpt>
      <trkpt lat="44.29839" lon="4.55059">
        <ele>141.06873</ele>
        <time>2020-09-01 12:56:40</time>
      </trkpt>
      <trkpt lat="44.29828" lon="4.55038">
        <ele>142.34875</ele>
        <time>2020-09-01 12:56:45</time>
      </trkpt>
      <trkpt lat="44.29826" lon="4.55024">
        <ele>142.9447</ele>
        <time>2020-09-01 12:56:48</time>
      </trkpt>
      <trkpt lat="44.29821" lon="4.54987">
        <ele>143.65576</ele>
        <time>2020-09-01 12:56:55</time>
      </trkpt>
      <trkpt lat="44.29815" lon="4.54909">
        <ele>144.01208</ele>
        <time>2020-09-01 12:57:10</time>
      </trkpt>
      <trkpt lat="44.29816" lon="4.54879">
        <ele>145.59955</ele>
        <time>2020-09-01 12:57:17</time>
      </trkpt>
      <trkpt lat="44.29818" lon="4.54815">
        <ele>145.42926</ele>
        <time>2020-09-01 12:57:32</time>
      </trkpt>
      <trkpt lat="44.29835" lon="4.54742">
        <ele>141.1709</ele>
        <time>2020-09-01 12:57:44</time>
      </trkpt>
      <trkpt lat="44.29835" lon="4.54731">
        <ele>140.36371</ele>
        <time>2020-09-01 12:57:46</time>
      </trkpt>
      <trkpt lat="44.29832" lon="4.54724">
        <ele>140.02069</ele>
        <time>2020-09-01 12:57:47</time>
      </trkpt>
      <trkpt lat="44.29827" lon="4.54715">
        <ele>139.95874</ele>
        <time>2020-09-01 12:57:49</time>
      </trkpt>
      <trkpt lat="44.29824" lon="4.54711">
        <ele>141.76971</ele>
        <time>2020-09-01 12:57:50</time>
      </trkpt>
      <trkpt lat="44.29803" lon="4.54683">
        <ele>142.41748</ele>
        <time>2020-09-01 12:57:56</time>
      </trkpt>
      <trkpt lat="44.29795" lon="4.5467">
        <ele>143.67926</ele>
        <time>2020-09-01 12:57:59</time>
      </trkpt>
      <trkpt lat="44.29751" lon="4.54584">
        <ele>146.99072</ele>
        <time>2020-09-01 12:58:21</time>
      </trkpt>
      <trkpt lat="44.29735" lon="4.54536">
        <ele>145.05194</ele>
        <time>2020-09-01 12:58:29</time>
      </trkpt>
      <trkpt lat="44.29729" lon="4.545">
        <ele>142.51208</ele>
        <time>2020-09-01 12:58:36</time>
      </trkpt>
      <trkpt lat="44.2973" lon="4.54461">
        <ele>142.48468</ele>
        <time>2020-09-01 12:58:42</time>
      </trkpt>
      <trkpt lat="44.29731" lon="4.54444">
        <ele>136.90723</ele>
        <time>2020-09-01 12:58:44</time>
      </trkpt>
      <trkpt lat="44.29729" lon="4.54436">
        <ele>137.12</ele>
        <time>2020-09-01 12:58:45</time>
      </trkpt>
      <trkpt lat="44.29727" lon="4.54429">
        <ele>136.72223</ele>
        <time>2020-09-01 12:58:46</time>
      </trkpt>
      <trkpt lat="44.29719" lon="4.54414">
        <ele>137.59314</ele>
        <time>2020-09-01 12:58:49</time>
      </trkpt>
      <trkpt lat="44.29713" lon="4.544">
        <ele>138.8512</ele>
        <time>2020-09-01 12:58:52</time>
      </trkpt>
      <trkpt lat="44.29702" lon="4.54378">
        <ele>140.30304</ele>
        <time>2020-09-01 12:58:57</time>
      </trkpt>
      <trkpt lat="44.297" lon="4.54368">
        <ele>138.79297</ele>
        <time>2020-09-01 12:58:59</time>
      </trkpt>
      <trkpt lat="44.29699" lon="4.54355">
        <ele>136.89062</ele>
        <time>2020-09-01 12:59:02</time>
      </trkpt>
      <trkpt lat="44.29689" lon="4.5422">
        <ele>138.25854</ele>
        <time>2020-09-01 12:59:32</time>
      </trkpt>
      <trkpt lat="44.29685" lon="4.54204">
        <ele>142.30426</ele>
        <time>2020-09-01 12:59:36</time>
      </trkpt>
      <trkpt lat="44.29684" lon="4.54196">
        <ele>142.51996</ele>
        <time>2020-09-01 12:59:38</time>
      </trkpt>
      <trkpt lat="44.29674" lon="4.54062">
        <ele>147.9231</ele>
        <time>2020-09-01 13:00:08</time>
      </trkpt>
      <trkpt lat="44.29673" lon="4.53996">
        <ele>145.70691</ele>
        <time>2020-09-01 13:00:16</time>
      </trkpt>
      <trkpt lat="44.29671" lon="4.53939">
        <ele>144.50989</ele>
        <time>2020-09-01 13:00:23</time>
      </trkpt>
      <trkpt lat="44.2967" lon="4.53927">
        <ele>144.32672</ele>
        <time>2020-09-01 13:00:25</time>
      </trkpt>
      <trkpt lat="44.29669" lon="4.53912">
        <ele>145.57672</ele>
        <time>2020-09-01 13:00:28</time>
      </trkpt>
      <trkpt lat="44.29669" lon="4.53902">
        <ele>146.34644</ele>
        <time>2020-09-01 13:00:30</time>
      </trkpt>
      <trkpt lat="44.29666" lon="4.53889">
        <ele>147.01141</ele>
        <time>2020-09-01 13:00:33</time>
      </trkpt>
      <trkpt lat="44.29665" lon="4.53871">
        <ele>147.53888</ele>
        <time>2020-09-01 13:00:39</time>
      </trkpt>
      <trkpt lat="44.2966" lon="4.53844">
        <ele>144.74084</ele>
        <time>2020-09-01 13:00:48</time>
      </trkpt>
      <trkpt lat="44.29656" lon="4.53814">
        <ele>145.84998</ele>
        <time>2020-09-01 13:00:58</time>
      </trkpt>
      <trkpt lat="44.29655" lon="4.53805">
        <ele>148.15875</ele>
        <time>2020-09-01 13:01:01</time>
      </trkpt>
      <trkpt lat="44.29655" lon="4.53802">
        <ele>145.73248</ele>
        <time>2020-09-01 13:01:02</time>
      </trkpt>
      <trkpt lat="44.29654" lon="4.53799">
        <ele>148.97168</ele>
        <time>2020-09-01 13:01:03</time>
      </trkpt>
      <trkpt lat="44.29653" lon="4.53776">
        <ele>151.21143</ele>
        <time>2020-09-01 13:01:10</time>
      </trkpt>
      <trkpt lat="44.29654" lon="4.53735">
        <ele>150.49493</ele>
        <time>2020-09-01 13:01:22</time>
      </trkpt>
      <trkpt lat="44.29654" lon="4.53732">
        <ele>150.96906</ele>
        <time>2020-09-01 13:01:23</time>
      </trkpt>
      <trkpt lat="44.29655" lon="4.53719">
        <ele>150.5329</ele>
        <time>2020-09-01 13:01:27</time>
      </trkpt>
      <trkpt lat="44.29655" lon="4.53715">
        <ele>151.38599</ele>
        <time>2020-09-01 13:01:28</time>
      </trkpt>
      <trkpt lat="44.29655" lon="4.53709">
        <ele>152.15063</ele>
        <time>2020-09-01 13:01:30</time>
      </trkpt>
      <trkpt lat="44.29655" lon="4.53703">
        <ele>150.96906</ele>
        <time>2020-09-01 13:01:32</time>
      </trkpt>
      <trkpt lat="44.29655" lon="4.53695">
        <ele>152.15631</ele>
        <time>2020-09-01 13:01:36</time>
      </trkpt>
      <trkpt lat="44.29655" lon="4.53695">
        <ele>151.87244</ele>
        <time>2020-09-01 13:01:49</time>
      </trkpt>
      <trkpt lat="44.29655" lon="4.53693">
        <ele>151.70605</ele>
        <time>2020-09-01 13:01:51</time>
      </trkpt>
      <trkpt lat="44.29656" lon="4.5369">
        <ele>153.08801</ele>
        <time>2020-09-01 13:01:53</time>
      </trkpt>
      <trkpt lat="44.29657" lon="4.53683">
        <ele>152.01978</ele>
        <time>2020-09-01 13:01:58</time>
      </trkpt>
      <trkpt lat="44.29658" lon="4.53682">
        <ele>151.06427</ele>
        <time>2020-09-01 13:02:28</time>
      </trkpt>
      <trkpt lat="44.29655" lon="4.53681">
        <ele>150.23389</ele>
        <time>2020-09-01 13:03:11</time>
      </trkpt>
      <trkpt lat="44.29655" lon="4.53681">
        <ele>150.33362</ele>
        <time>2020-09-01 13:04:01</time>
      </trkpt>
      <trkpt lat="44.29655" lon="4.53681">
        <ele>150.74652</ele>
        <time>2020-09-01 13:04:25</time>
      </trkpt>
      <trkpt lat="44.29655" lon="4.53681">
        <ele>151.19489</ele>
        <time>2020-09-01 13:04:26</time>
      </trkpt>
      <trkpt lat="44.29655" lon="4.53679">
        <ele>151.01282</ele>
        <time>2020-09-01 13:05:03</time>
      </trkpt>
      <trkpt lat="44.29655" lon="4.53679">
        <ele>150.94733</ele>
        <time>2020-09-01 13:05:09</time>
      </trkpt>
      <trkpt lat="44.29655" lon="4.53679">
        <ele>150.63916</ele>
        <time>2020-09-01 13:05:10</time>
      </trkpt>
      <trkpt lat="44.29655" lon="4.53679">
        <ele>150.8689</ele>
        <time>2020-09-01 13:05:11</time>
      </trkpt>
      <trkpt lat="44.29655" lon="4.53678">
        <ele>151.01282</ele>
        <time>2020-09-01 13:05:12</time>
      </trkpt>
      <trkpt lat="44.29654" lon="4.53673">
        <ele>152.03296</ele>
        <time>2020-09-01 13:05:17</time>
      </trkpt>
      <trkpt lat="44.29654" lon="4.53673">
        <ele>151.31213</ele>
        <time>2020-09-01 13:05:18</time>
      </trkpt>
      <trkpt lat="44.29653" lon="4.53673">
        <ele>151.1568</ele>
        <time>2020-09-01 13:05:19</time>
      </trkpt>
      <trkpt lat="44.29654" lon="4.53672">
        <ele>149.65436</ele>
        <time>2020-09-01 13:05:38</time>
      </trkpt>
      <trkpt lat="44.29654" lon="4.53672">
        <ele>149.76465</ele>
        <time>2020-09-01 13:05:39</time>
      </trkpt>
      <trkpt lat="44.29654" lon="4.53671">
        <ele>149.78326</ele>
        <time>2020-09-01 13:05:44</time>
      </trkpt>
      <trkpt lat="44.29655" lon="4.53672">
        <ele>150.21094</ele>
        <time>2020-09-01 13:05:52</time>
      </trkpt>
      <trkpt lat="44.29656" lon="4.53673">
        <ele>151.6615</ele>
        <time>2020-09-01 13:06:25</time>
      </trkpt>
      <trkpt lat="44.29655" lon="4.53673">
        <ele>151.40173</ele>
        <time>2020-09-01 13:06:27</time>
      </trkpt>
      <trkpt lat="44.29655" lon="4.53671">
        <ele>152.96948</ele>
        <time>2020-09-01 13:07:14</time>
      </trkpt>
      <trkpt lat="44.29654" lon="4.53669">
        <ele>151.86932</ele>
        <time>2020-09-01 13:07:16</time>
      </trkpt>
      <trkpt lat="44.29655" lon="4.53664">
        <ele>152.36102</ele>
        <time>2020-09-01 13:07:19</time>
      </trkpt>
      <trkpt lat="44.29655" lon="4.53662">
        <ele>153.14081</ele>
        <time>2020-09-01 13:07:20</time>
      </trkpt>
      <trkpt lat="44.29656" lon="4.5366">
        <ele>153.95343</ele>
        <time>2020-09-01 13:07:21</time>
      </trkpt>
      <trkpt lat="44.29656" lon="4.53658">
        <ele>152.13422</ele>
        <time>2020-09-01 13:07:22</time>
      </trkpt>
      <trkpt lat="44.29656" lon="4.53655">
        <ele>152.72235</ele>
        <time>2020-09-01 13:07:23</time>
      </trkpt>
      <trkpt lat="44.29656" lon="4.5365">
        <ele>153.77881</ele>
        <time>2020-09-01 13:07:25</time>
      </trkpt>
      <trkpt lat="44.29656" lon="4.53644">
        <ele>153.22797</ele>
        <time>2020-09-01 13:07:27</time>
      </trkpt>
      <trkpt lat="44.29657" lon="4.53637">
        <ele>154.12982</ele>
        <time>2020-09-01 13:07:30</time>
      </trkpt>
      <trkpt lat="44.29658" lon="4.53635">
        <ele>153.63531</ele>
        <time>2020-09-01 13:07:31</time>
      </trkpt>
      <trkpt lat="44.29659" lon="4.53634">
        <ele>152.72235</ele>
        <time>2020-09-01 13:07:32</time>
      </trkpt>
      <trkpt lat="44.29662" lon="4.53632">
        <ele>153.01672</ele>
        <time>2020-09-01 13:07:34</time>
      </trkpt>
      <trkpt lat="44.29664" lon="4.53632">
        <ele>152.74005</ele>
        <time>2020-09-01 13:07:35</time>
      </trkpt>
      <trkpt lat="44.29666" lon="4.53633">
        <ele>152.19989</ele>
        <time>2020-09-01 13:07:36</time>
      </trkpt>
      <trkpt lat="44.29671" lon="4.53642">
        <ele>151.85883</ele>
        <time>2020-09-01 13:07:40</time>
      </trkpt>
      <trkpt lat="44.29674" lon="4.53646">
        <ele>153.31964</ele>
        <time>2020-09-01 13:07:42</time>
      </trkpt>
      <trkpt lat="44.29684" lon="4.53663">
        <ele>153.33533</ele>
        <time>2020-09-01 13:07:50</time>
      </trkpt>
      <trkpt lat="44.29686" lon="4.53665">
        <ele>153.87402</ele>
        <time>2020-09-01 13:07:51</time>
      </trkpt>
      <trkpt lat="44.29718" lon="4.53715">
        <ele>157.16217</ele>
        <time>2020-09-01 13:08:09</time>
      </trkpt>
      <trkpt lat="44.29724" lon="4.5372">
        <ele>155.6391</ele>
        <time>2020-09-01 13:08:12</time>
      </trkpt>
      <trkpt lat="44.29729" lon="4.53722">
        <ele>157.99072</ele>
        <time>2020-09-01 13:08:14</time>
      </trkpt>
      <trkpt lat="44.29736" lon="4.53723">
        <ele>154.4588</ele>
        <time>2020-09-01 13:08:17</time>
      </trkpt>
      <trkpt lat="44.29738" lon="4.53723">
        <ele>154.06836</ele>
        <time>2020-09-01 13:08:18</time>
      </trkpt>
      <trkpt lat="44.2974" lon="4.53723">
        <ele>155.08649</ele>
        <time>2020-09-01 13:08:19</time>
      </trkpt>
      <trkpt lat="44.29745" lon="4.53721">
        <ele>155.64807</ele>
        <time>2020-09-01 13:08:21</time>
      </trkpt>
      <trkpt lat="44.29747" lon="4.5372">
        <ele>157.27124</ele>
        <time>2020-09-01 13:08:22</time>
      </trkpt>
      <trkpt lat="44.29754" lon="4.53718">
        <ele>156.60938</ele>
        <time>2020-09-01 13:08:25</time>
      </trkpt>
      <trkpt lat="44.29761" lon="4.53717">
        <ele>157.29181</ele>
        <time>2020-09-01 13:08:28</time>
      </trkpt>
      <trkpt lat="44.29764" lon="4.53716">
        <ele>157.4939</ele>
        <time>2020-09-01 13:08:29</time>
      </trkpt>
      <trkpt lat="44.29834" lon="4.53696">
        <ele>162.97925</ele>
        <time>2020-09-01 13:08:59</time>
      </trkpt>
      <trkpt lat="44.29838" lon="4.53694">
        <ele>162.79285</ele>
        <time>2020-09-01 13:09:01</time>
      </trkpt>
      <trkpt lat="44.29843" lon="4.53693">
        <ele>163.00354</ele>
        <time>2020-09-01 13:09:03</time>
      </trkpt>
      <trkpt lat="44.29848" lon="4.53692">
        <ele>162.1261</ele>
        <time>2020-09-01 13:09:05</time>
      </trkpt>
      <trkpt lat="44.29852" lon="4.5369">
        <ele>162.03125</ele>
        <time>2020-09-01 13:09:07</time>
      </trkpt>
      <trkpt lat="44.29858" lon="4.53689">
        <ele>161.18225</ele>
        <time>2020-09-01 13:09:10</time>
      </trkpt>
      <trkpt lat="44.29897" lon="4.53676">
        <ele>161.91223</ele>
        <time>2020-09-01 13:09:31</time>
      </trkpt>
      <trkpt lat="44.29898" lon="4.53675">
        <ele>160.84296</ele>
        <time>2020-09-01 13:09:32</time>
      </trkpt>
      <trkpt lat="44.299" lon="4.53673">
        <ele>165.3667</ele>
        <time>2020-09-01 13:09:33</time>
      </trkpt>
      <trkpt lat="44.29907" lon="4.53669">
        <ele>164.63281</ele>
        <time>2020-09-01 13:09:37</time>
      </trkpt>
      <trkpt lat="44.29908" lon="4.53668">
        <ele>164.58972</ele>
        <time>2020-09-01 13:09:38</time>
      </trkpt>
      <trkpt lat="44.2991" lon="4.53667">
        <ele>165.05237</ele>
        <time>2020-09-01 13:09:39</time>
      </trkpt>
      <trkpt lat="44.29911" lon="4.53665">
        <ele>164.5282</ele>
        <time>2020-09-01 13:09:40</time>
      </trkpt>
      <trkpt lat="44.29912" lon="4.53663">
        <ele>164.01282</ele>
        <time>2020-09-01 13:09:41</time>
      </trkpt>
      <trkpt lat="44.29913" lon="4.53661">
        <ele>165.3667</ele>
        <time>2020-09-01 13:09:42</time>
      </trkpt>
      <trkpt lat="44.29914" lon="4.53658">
        <ele>165.63477</ele>
        <time>2020-09-01 13:09:43</time>
      </trkpt>
      <trkpt lat="44.29914" lon="4.53654">
        <ele>165.67194</ele>
        <time>2020-09-01 13:09:44</time>
      </trkpt>
      <trkpt lat="44.29913" lon="4.5365">
        <ele>166.53235</ele>
        <time>2020-09-01 13:09:45</time>
      </trkpt>
      <trkpt lat="44.29905" lon="4.53637">
        <ele>163.5675</ele>
        <time>2020-09-01 13:09:49</time>
      </trkpt>
      <trkpt lat="44.29839" lon="4.53533">
        <ele>167.55359</ele>
        <time>2020-09-01 13:10:18</time>
      </trkpt>
      <trkpt lat="44.29836" lon="4.53528">
        <ele>167.98828</ele>
        <time>2020-09-01 13:10:19</time>
      </trkpt>
      <trkpt lat="44.29828" lon="4.53515">
        <ele>165.59564</ele>
        <time>2020-09-01 13:10:22</time>
      </trkpt>
      <trkpt lat="44.2982" lon="4.53498">
        <ele>168.23901</ele>
        <time>2020-09-01 13:10:25</time>
      </trkpt>
      <trkpt lat="44.29818" lon="4.53484">
        <ele>165.44757</ele>
        <time>2020-09-01 13:10:27</time>
      </trkpt>
      <trkpt lat="44.29817" lon="4.53462">
        <ele>164.28857</ele>
        <time>2020-09-01 13:10:30</time>
      </trkpt>
      <trkpt lat="44.29824" lon="4.53398">
        <ele>163.06128</ele>
        <time>2020-09-01 13:10:38</time>
      </trkpt>
      <trkpt lat="44.29825" lon="4.53375">
        <ele>164.06256</ele>
        <time>2020-09-01 13:10:41</time>
      </trkpt>
      <trkpt lat="44.29825" lon="4.53337">
        <ele>161.85266</ele>
        <time>2020-09-01 13:10:45</time>
      </trkpt>
      <trkpt lat="44.29823" lon="4.53322">
        <ele>161.97449</ele>
        <time>2020-09-01 13:10:47</time>
      </trkpt>
      <trkpt lat="44.29817" lon="4.533">
        <ele>164.98975</ele>
        <time>2020-09-01 13:10:50</time>
      </trkpt>
      <trkpt lat="44.29732" lon="4.53044">
        <ele>156.97815</ele>
        <time>2020-09-01 13:11:20</time>
      </trkpt>
      <trkpt lat="44.29699" lon="4.52936">
        <ele>153.35321</ele>
        <time>2020-09-01 13:11:30</time>
      </trkpt>
      <trkpt lat="44.29697" lon="4.52924">
        <ele>152.85571</ele>
        <time>2020-09-01 13:11:31</time>
      </trkpt>
      <trkpt lat="44.29697" lon="4.52911">
        <ele>156.33557</ele>
        <time>2020-09-01 13:11:32</time>
      </trkpt>
      <trkpt lat="44.29697" lon="4.52899">
        <ele>150.91302</ele>
        <time>2020-09-01 13:11:33</time>
      </trkpt>
      <trkpt lat="44.297" lon="4.52887">
        <ele>150.45636</ele>
        <time>2020-09-01 13:11:34</time>
      </trkpt>
      <trkpt lat="44.29704" lon="4.52876">
        <ele>150.6123</ele>
        <time>2020-09-01 13:11:35</time>
      </trkpt>
      <trkpt lat="44.29708" lon="4.52867">
        <ele>151.02722</ele>
        <time>2020-09-01 13:11:36</time>
      </trkpt>
      <trkpt lat="44.2972" lon="4.52852">
        <ele>151.74823</ele>
        <time>2020-09-01 13:11:38</time>
      </trkpt>
      <trkpt lat="44.29738" lon="4.52827">
        <ele>151.91553</ele>
        <time>2020-09-01 13:11:41</time>
      </trkpt>
      <trkpt lat="44.29741" lon="4.52818">
        <ele>150.91302</ele>
        <time>2020-09-01 13:11:42</time>
      </trkpt>
      <trkpt lat="44.29744" lon="4.52807">
        <ele>151.37341</ele>
        <time>2020-09-01 13:11:43</time>
      </trkpt>
      <trkpt lat="44.29746" lon="4.52796">
        <ele>151.2934</ele>
        <time>2020-09-01 13:11:44</time>
      </trkpt>
      <trkpt lat="44.29748" lon="4.52774">
        <ele>151.41602</ele>
        <time>2020-09-01 13:11:46</time>
      </trkpt>
      <trkpt lat="44.29747" lon="4.52763">
        <ele>151.51593</ele>
        <time>2020-09-01 13:11:47</time>
      </trkpt>
      <trkpt lat="44.29745" lon="4.52754">
        <ele>150.64801</ele>
        <time>2020-09-01 13:11:48</time>
      </trkpt>
      <trkpt lat="44.29687" lon="4.52517">
        <ele>153.00336</ele>
        <time>2020-09-01 13:12:18</time>
      </trkpt>
      <trkpt lat="44.29664" lon="4.52411">
        <ele>152.95374</ele>
        <time>2020-09-01 13:12:34</time>
      </trkpt>
      <trkpt lat="44.29662" lon="4.52391">
        <ele>154.85205</ele>
        <time>2020-09-01 13:12:37</time>
      </trkpt>
      <trkpt lat="44.29663" lon="4.52367">
        <ele>157.19873</ele>
        <time>2020-09-01 13:12:41</time>
      </trkpt>
      <trkpt lat="44.29665" lon="4.52354">
        <ele>158.50037</ele>
        <time>2020-09-01 13:12:43</time>
      </trkpt>
      <trkpt lat="44.29669" lon="4.52341">
        <ele>158.72046</ele>
        <time>2020-09-01 13:12:45</time>
      </trkpt>
      <trkpt lat="44.29679" lon="4.52321">
        <ele>158.0398</ele>
        <time>2020-09-01 13:12:49</time>
      </trkpt>
      <trkpt lat="44.29682" lon="4.52316">
        <ele>158.11511</ele>
        <time>2020-09-01 13:12:50</time>
      </trkpt>
      <trkpt lat="44.29695" lon="4.52301">
        <ele>159.07312</ele>
        <time>2020-09-01 13:12:54</time>
      </trkpt>
      <trkpt lat="44.29702" lon="4.52296">
        <ele>159.84131</ele>
        <time>2020-09-01 13:12:56</time>
      </trkpt>
      <trkpt lat="44.29756" lon="4.52252">
        <ele>159.20935</ele>
        <time>2020-09-01 13:13:11</time>
      </trkpt>
      <trkpt lat="44.29773" lon="4.52232">
        <ele>159.80945</ele>
        <time>2020-09-01 13:13:16</time>
      </trkpt>
      <trkpt lat="44.2979" lon="4.52205">
        <ele>159.10986</ele>
        <time>2020-09-01 13:13:22</time>
      </trkpt>
      <trkpt lat="44.29817" lon="4.52156">
        <ele>160.42621</ele>
        <time>2020-09-01 13:13:31</time>
      </trkpt>
      <trkpt lat="44.2983" lon="4.52122">
        <ele>159.20728</ele>
        <time>2020-09-01 13:13:37</time>
      </trkpt>
      <trkpt lat="44.29842" lon="4.52078">
        <ele>159.24988</ele>
        <time>2020-09-01 13:13:44</time>
      </trkpt>
      <trkpt lat="44.2985" lon="4.52039">
        <ele>158.83197</ele>
        <time>2020-09-01 13:13:50</time>
      </trkpt>
      <trkpt lat="44.29857" lon="4.5197">
        <ele>159.57935</ele>
        <time>2020-09-01 13:14:00</time>
      </trkpt>
      <trkpt lat="44.29856" lon="4.51965">
        <ele>160.09918</ele>
        <time>2020-09-01 13:14:01</time>
      </trkpt>
      <trkpt lat="44.29851" lon="4.51913">
        <ele>160.25171</ele>
        <time>2020-09-01 13:14:10</time>
      </trkpt>
      <trkpt lat="44.29851" lon="4.51906">
        <ele>160.18561</ele>
        <time>2020-09-01 13:14:11</time>
      </trkpt>
      <trkpt lat="44.29845" lon="4.51863">
        <ele>161.9234</ele>
        <time>2020-09-01 13:14:19</time>
      </trkpt>
      <trkpt lat="44.29843" lon="4.51849">
        <ele>161.01953</ele>
        <time>2020-09-01 13:14:22</time>
      </trkpt>
      <trkpt lat="44.29839" lon="4.51837">
        <ele>162.60889</ele>
        <time>2020-09-01 13:14:25</time>
      </trkpt>
      <trkpt lat="44.29815" lon="4.51735">
        <ele>165.55426</ele>
        <time>2020-09-01 13:14:50</time>
      </trkpt>
      <trkpt lat="44.29811" lon="4.51713">
        <ele>167.55072</ele>
        <time>2020-09-01 13:14:56</time>
      </trkpt>
      <trkpt lat="44.29808" lon="4.51702">
        <ele>168.48212</ele>
        <time>2020-09-01 13:14:59</time>
      </trkpt>
      <trkpt lat="44.29804" lon="4.51683">
        <ele>167.25305</ele>
        <time>2020-09-01 13:15:04</time>
      </trkpt>
      <trkpt lat="44.29804" lon="4.51674">
        <ele>167.15863</ele>
        <time>2020-09-01 13:15:06</time>
      </trkpt>
      <trkpt lat="44.29807" lon="4.51613">
        <ele>168.7948</ele>
        <time>2020-09-01 13:15:20</time>
      </trkpt>
      <trkpt lat="44.29809" lon="4.51599">
        <ele>168.7926</ele>
        <time>2020-09-01 13:15:23</time>
      </trkpt>
      <trkpt lat="44.29811" lon="4.51555">
        <ele>168.7926</ele>
        <time>2020-09-01 13:15:32</time>
      </trkpt>
      <trkpt lat="44.29813" lon="4.5154">
        <ele>169.79755</ele>
        <time>2020-09-01 13:15:35</time>
      </trkpt>
      <trkpt lat="44.29818" lon="4.51392">
        <ele>173.35571</ele>
        <time>2020-09-01 13:16:05</time>
      </trkpt>
      <trkpt lat="44.29818" lon="4.51382">
        <ele>173.42108</ele>
        <time>2020-09-01 13:16:07</time>
      </trkpt>
      <trkpt lat="44.29818" lon="4.51372">
        <ele>174.40063</ele>
        <time>2020-09-01 13:16:09</time>
      </trkpt>
      <trkpt lat="44.29816" lon="4.51357">
        <ele>173.51782</ele>
        <time>2020-09-01 13:16:12</time>
      </trkpt>
      <trkpt lat="44.29815" lon="4.51337">
        <ele>176.38123</ele>
        <time>2020-09-01 13:16:16</time>
      </trkpt>
      <trkpt lat="44.29798" lon="4.51165">
        <ele>180.24323</ele>
        <time>2020-09-01 13:16:46</time>
      </trkpt>
      <trkpt lat="44.2978" lon="4.51012">
        <ele>181.26074</ele>
        <time>2020-09-01 13:17:16</time>
      </trkpt>
      <trkpt lat="44.29779" lon="4.50964">
        <ele>181.4173</ele>
        <time>2020-09-01 13:17:25</time>
      </trkpt>
      <trkpt lat="44.2978" lon="4.50947">
        <ele>180.117</ele>
        <time>2020-09-01 13:17:28</time>
      </trkpt>
      <trkpt lat="44.2978" lon="4.50941">
        <ele>180.0716</ele>
        <time>2020-09-01 13:17:29</time>
      </trkpt>
      <trkpt lat="44.29792" lon="4.50815">
        <ele>177.62006</ele>
        <time>2020-09-01 13:17:50</time>
      </trkpt>
      <trkpt lat="44.29796" lon="4.50778">
        <ele>176.20422</ele>
        <time>2020-09-01 13:17:56</time>
      </trkpt>
      <trkpt lat="44.29797" lon="4.50757">
        <ele>177.95947</ele>
        <time>2020-09-01 13:17:59</time>
      </trkpt>
      <trkpt lat="44.29802" lon="4.50728">
        <ele>178.77148</ele>
        <time>2020-09-01 13:18:03</time>
      </trkpt>
      <trkpt lat="44.29809" lon="4.50638">
        <ele>179.28967</ele>
        <time>2020-09-01 13:18:17</time>
      </trkpt>
      <trkpt lat="44.29817" lon="4.50582">
        <ele>180.58191</ele>
        <time>2020-09-01 13:18:27</time>
      </trkpt>
      <trkpt lat="44.29822" lon="4.50559">
        <ele>180.11511</ele>
        <time>2020-09-01 13:18:32</time>
      </trkpt>
      <trkpt lat="44.29828" lon="4.50532">
        <ele>180.33887</ele>
        <time>2020-09-01 13:18:41</time>
      </trkpt>
      <trkpt lat="44.29827" lon="4.50531">
        <ele>180.66882</ele>
        <time>2020-09-01 13:18:58</time>
      </trkpt>
      <trkpt lat="44.29828" lon="4.50523">
        <ele>180.82825</ele>
        <time>2020-09-01 13:19:02</time>
      </trkpt>
      <trkpt lat="44.29833" lon="4.50506">
        <ele>181.14789</ele>
        <time>2020-09-01 13:19:07</time>
      </trkpt>
      <trkpt lat="44.29833" lon="4.50503">
        <ele>181.1264</ele>
        <time>2020-09-01 13:19:08</time>
      </trkpt>
      <trkpt lat="44.29835" lon="4.50497">
        <ele>182.19275</ele>
        <time>2020-09-01 13:19:10</time>
      </trkpt>
      <trkpt lat="44.29836" lon="4.5049">
        <ele>181.75635</ele>
        <time>2020-09-01 13:19:13</time>
      </trkpt>
      <trkpt lat="44.29836" lon="4.50489">
        <ele>180.10272</ele>
        <time>2020-09-01 13:19:15</time>
      </trkpt>
      <trkpt lat="44.29836" lon="4.50488">
        <ele>178.76471</ele>
        <time>2020-09-01 13:19:58</time>
      </trkpt>
      <trkpt lat="44.29836" lon="4.50488">
        <ele>178.84058</ele>
        <time>2020-09-01 13:20:31</time>
      </trkpt>
      <trkpt lat="44.29836" lon="4.50488">
        <ele>178.87659</ele>
        <time>2020-09-01 13:21:03</time>
      </trkpt>
      <trkpt lat="44.29836" lon="4.50488">
        <ele>178.96082</ele>
        <time>2020-09-01 13:21:42</time>
      </trkpt>
      <trkpt lat="44.29836" lon="4.50487">
        <ele>179.7284</ele>
        <time>2020-09-01 13:21:44</time>
      </trkpt>
      <trkpt lat="44.29836" lon="4.50487">
        <ele>179.56653</ele>
        <time>2020-09-01 13:21:45</time>
      </trkpt>
      <trkpt lat="44.29837" lon="4.50486">
        <ele>178.49792</ele>
        <time>2020-09-01 13:21:48</time>
      </trkpt>
      <trkpt lat="44.2984" lon="4.50472">
        <ele>179.89246</ele>
        <time>2020-09-01 13:21:54</time>
      </trkpt>
      <trkpt lat="44.29849" lon="4.50432">
        <ele>178.03369</ele>
        <time>2020-09-01 13:22:03</time>
      </trkpt>
      <trkpt lat="44.29853" lon="4.50412">
        <ele>180.01703</ele>
        <time>2020-09-01 13:22:07</time>
      </trkpt>
      <trkpt lat="44.29873" lon="4.50317">
        <ele>179.41638</ele>
        <time>2020-09-01 13:22:26</time>
      </trkpt>
      <trkpt lat="44.29873" lon="4.50313">
        <ele>179.84332</ele>
        <time>2020-09-01 13:22:28</time>
      </trkpt>
      <trkpt lat="44.29875" lon="4.50308">
        <ele>179.67273</ele>
        <time>2020-09-01 13:22:30</time>
      </trkpt>
      <trkpt lat="44.29877" lon="4.50298">
        <ele>179.76862</ele>
        <time>2020-09-01 13:22:33</time>
      </trkpt>
      <trkpt lat="44.29895" lon="4.50205">
        <ele>183.33704</ele>
        <time>2020-09-01 13:22:55</time>
      </trkpt>
      <trkpt lat="44.29898" lon="4.50169">
        <ele>183.46106</ele>
        <time>2020-09-01 13:23:02</time>
      </trkpt>
      <trkpt lat="44.29896" lon="4.50147">
        <ele>183.46997</ele>
        <time>2020-09-01 13:23:06</time>
      </trkpt>
      <trkpt lat="44.29889" lon="4.50117">
        <ele>183.05255</ele>
        <time>2020-09-01 13:23:12</time>
      </trkpt>
      <trkpt lat="44.29846" lon="4.49988">
        <ele>187.6934</ele>
        <time>2020-09-01 13:23:42</time>
      </trkpt>
      <trkpt lat="44.2981" lon="4.49872">
        <ele>192.05872</ele>
        <time>2020-09-01 13:24:12</time>
      </trkpt>
      <trkpt lat="44.298" lon="4.49835">
        <ele>196.75696</ele>
        <time>2020-09-01 13:24:21</time>
      </trkpt>
      <trkpt lat="44.298" lon="4.49827">
        <ele>198.15277</ele>
        <time>2020-09-01 13:24:23</time>
      </trkpt>
      <trkpt lat="44.29799" lon="4.49802">
        <ele>198.12537</ele>
        <time>2020-09-01 13:24:29</time>
      </trkpt>
      <trkpt lat="44.29799" lon="4.49797">
        <ele>198.75989</ele>
        <time>2020-09-01 13:24:30</time>
      </trkpt>
      <trkpt lat="44.29799" lon="4.49783">
        <ele>199.31476</ele>
        <time>2020-09-01 13:24:33</time>
      </trkpt>
      <trkpt lat="44.298" lon="4.49763">
        <ele>200.25781</ele>
        <time>2020-09-01 13:24:37</time>
      </trkpt>
      <trkpt lat="44.29801" lon="4.49726">
        <ele>201.3689</ele>
        <time>2020-09-01 13:24:45</time>
      </trkpt>
      <trkpt lat="44.29805" lon="4.49687">
        <ele>203.82849</ele>
        <time>2020-09-01 13:24:54</time>
      </trkpt>
      <trkpt lat="44.29808" lon="4.49676">
        <ele>204.79163</ele>
        <time>2020-09-01 13:24:57</time>
      </trkpt>
      <trkpt lat="44.29815" lon="4.4965">
        <ele>206.06232</ele>
        <time>2020-09-01 13:25:04</time>
      </trkpt>
      <trkpt lat="44.29817" lon="4.49634">
        <ele>206.54224</ele>
        <time>2020-09-01 13:25:08</time>
      </trkpt>
      <trkpt lat="44.29816" lon="4.49622">
        <ele>207.39032</ele>
        <time>2020-09-01 13:25:11</time>
      </trkpt>
      <trkpt lat="44.29815" lon="4.49617">
        <ele>205.9076</ele>
        <time>2020-09-01 13:25:12</time>
      </trkpt>
      <trkpt lat="44.29811" lon="4.49604">
        <ele>208.53406</ele>
        <time>2020-09-01 13:25:15</time>
      </trkpt>
      <trkpt lat="44.298" lon="4.49577">
        <ele>208.42102</ele>
        <time>2020-09-01 13:25:22</time>
      </trkpt>
      <trkpt lat="44.29796" lon="4.4956">
        <ele>209.4414</ele>
        <time>2020-09-01 13:25:26</time>
      </trkpt>
      <trkpt lat="44.29796" lon="4.49551">
        <ele>210.70923</ele>
        <time>2020-09-01 13:25:28</time>
      </trkpt>
      <trkpt lat="44.29799" lon="4.49528">
        <ele>210.58386</ele>
        <time>2020-09-01 13:25:33</time>
      </trkpt>
      <trkpt lat="44.29802" lon="4.49507">
        <ele>211.08142</ele>
        <time>2020-09-01 13:25:38</time>
      </trkpt>
      <trkpt lat="44.29801" lon="4.49485">
        <ele>212.04608</ele>
        <time>2020-09-01 13:25:43</time>
      </trkpt>
      <trkpt lat="44.29799" lon="4.49477">
        <ele>212.81494</ele>
        <time>2020-09-01 13:25:45</time>
      </trkpt>
      <trkpt lat="44.29796" lon="4.49471">
        <ele>212.73956</ele>
        <time>2020-09-01 13:25:47</time>
      </trkpt>
      <trkpt lat="44.29791" lon="4.49465">
        <ele>212.91559</ele>
        <time>2020-09-01 13:25:49</time>
      </trkpt>
      <trkpt lat="44.29715" lon="4.4936">
        <ele>218.48877</ele>
        <time>2020-09-01 13:26:19</time>
      </trkpt>
      <trkpt lat="44.29709" lon="4.49348">
        <ele>217.99994</ele>
        <time>2020-09-01 13:26:22</time>
      </trkpt>
      <trkpt lat="44.297" lon="4.49327">
        <ele>218.46796</ele>
        <time>2020-09-01 13:26:27</time>
      </trkpt>
      <trkpt lat="44.29695" lon="4.49309">
        <ele>219.12915</ele>
        <time>2020-09-01 13:26:31</time>
      </trkpt>
      <trkpt lat="44.2969" lon="4.49281">
        <ele>221.59827</ele>
        <time>2020-09-01 13:26:37</time>
      </trkpt>
      <trkpt lat="44.29682" lon="4.49187">
        <ele>225.0492</ele>
        <time>2020-09-01 13:26:57</time>
      </trkpt>
      <trkpt lat="44.29679" lon="4.49176">
        <ele>224.40302</ele>
        <time>2020-09-01 13:27:00</time>
      </trkpt>
      <trkpt lat="44.29677" lon="4.4917">
        <ele>224.84949</ele>
        <time>2020-09-01 13:27:02</time>
      </trkpt>
      <trkpt lat="44.29669" lon="4.49157">
        <ele>223.82928</ele>
        <time>2020-09-01 13:27:06</time>
      </trkpt>
      <trkpt lat="44.29662" lon="4.49146">
        <ele>226.74298</ele>
        <time>2020-09-01 13:27:10</time>
      </trkpt>
      <trkpt lat="44.29655" lon="4.49139">
        <ele>226.77771</ele>
        <time>2020-09-01 13:27:13</time>
      </trkpt>
      <trkpt lat="44.2965" lon="4.49136">
        <ele>225.94751</ele>
        <time>2020-09-01 13:27:15</time>
      </trkpt>
      <trkpt lat="44.29613" lon="4.49116">
        <ele>227.62817</ele>
        <time>2020-09-01 13:27:28</time>
      </trkpt>
      <trkpt lat="44.29591" lon="4.49098">
        <ele>228.22607</ele>
        <time>2020-09-01 13:27:37</time>
      </trkpt>
      <trkpt lat="44.29577" lon="4.49079">
        <ele>230.2782</ele>
        <time>2020-09-01 13:27:44</time>
      </trkpt>
      <trkpt lat="44.29573" lon="4.49071">
        <ele>229.91516</ele>
        <time>2020-09-01 13:27:46</time>
      </trkpt>
      <trkpt lat="44.2957" lon="4.49063">
        <ele>231.11346</ele>
        <time>2020-09-01 13:27:48</time>
      </trkpt>
      <trkpt lat="44.29565" lon="4.49039">
        <ele>232.89655</ele>
        <time>2020-09-01 13:27:54</time>
      </trkpt>
      <trkpt lat="44.29562" lon="4.49014">
        <ele>233.5877</ele>
        <time>2020-09-01 13:28:00</time>
      </trkpt>
      <trkpt lat="44.29561" lon="4.4901">
        <ele>232.79602</ele>
        <time>2020-09-01 13:28:01</time>
      </trkpt>
      <trkpt lat="44.29556" lon="4.48999">
        <ele>234.7981</ele>
        <time>2020-09-01 13:28:04</time>
      </trkpt>
      <trkpt lat="44.29553" lon="4.48996">
        <ele>233.88928</ele>
        <time>2020-09-01 13:28:05</time>
      </trkpt>
      <trkpt lat="44.29518" lon="4.48957">
        <ele>235.74341</ele>
        <time>2020-09-01 13:28:18</time>
      </trkpt>
      <trkpt lat="44.2951" lon="4.48941">
        <ele>234.57141</ele>
        <time>2020-09-01 13:28:22</time>
      </trkpt>
      <trkpt lat="44.29508" lon="4.48932">
        <ele>235.34998</ele>
        <time>2020-09-01 13:28:24</time>
      </trkpt>
      <trkpt lat="44.29486" lon="4.48845">
        <ele>240.43347</ele>
        <time>2020-09-01 13:28:46</time>
      </trkpt>
      <trkpt lat="44.29479" lon="4.48831">
        <ele>242.2608</ele>
        <time>2020-09-01 13:28:50</time>
      </trkpt>
      <trkpt lat="44.29474" lon="4.48825">
        <ele>238.83667</ele>
        <time>2020-09-01 13:28:52</time>
      </trkpt>
      <trkpt lat="44.29451" lon="4.48804">
        <ele>247.37653</ele>
        <time>2020-09-01 13:29:00</time>
      </trkpt>
      <trkpt lat="44.29445" lon="4.488">
        <ele>242.96985</ele>
        <time>2020-09-01 13:29:02</time>
      </trkpt>
      <trkpt lat="44.29441" lon="4.48794">
        <ele>249.32208</ele>
        <time>2020-09-01 13:29:04</time>
      </trkpt>
      <trkpt lat="44.29435" lon="4.48783">
        <ele>251.46106</ele>
        <time>2020-09-01 13:29:07</time>
      </trkpt>
      <trkpt lat="44.29406" lon="4.4871">
        <ele>250.88245</ele>
        <time>2020-09-01 13:29:26</time>
      </trkpt>
      <trkpt lat="44.29402" lon="4.48692">
        <ele>249.10773</ele>
        <time>2020-09-01 13:29:30</time>
      </trkpt>
      <trkpt lat="44.294" lon="4.48678">
        <ele>247.76666</ele>
        <time>2020-09-01 13:29:33</time>
      </trkpt>
      <trkpt lat="44.29401" lon="4.48661">
        <ele>248.98456</ele>
        <time>2020-09-01 13:29:37</time>
      </trkpt>
      <trkpt lat="44.29403" lon="4.48649">
        <ele>248.30914</ele>
        <time>2020-09-01 13:29:40</time>
      </trkpt>
      <trkpt lat="44.29409" lon="4.48613">
        <ele>249.75732</ele>
        <time>2020-09-01 13:29:49</time>
      </trkpt>
      <trkpt lat="44.29409" lon="4.48609">
        <ele>249.26605</ele>
        <time>2020-09-01 13:29:50</time>
      </trkpt>
      <trkpt lat="44.29407" lon="4.48601">
        <ele>248.50159</ele>
        <time>2020-09-01 13:29:52</time>
      </trkpt>
      <trkpt lat="44.29405" lon="4.48594">
        <ele>249.55865</ele>
        <time>2020-09-01 13:29:54</time>
      </trkpt>
      <trkpt lat="44.29401" lon="4.48588">
        <ele>250.12402</ele>
        <time>2020-09-01 13:29:56</time>
      </trkpt>
      <trkpt lat="44.29399" lon="4.48585">
        <ele>250.17102</ele>
        <time>2020-09-01 13:29:57</time>
      </trkpt>
      <trkpt lat="44.29391" lon="4.4858">
        <ele>251.41748</ele>
        <time>2020-09-01 13:30:00</time>
      </trkpt>
      <trkpt lat="44.29384" lon="4.48578">
        <ele>249.10583</ele>
        <time>2020-09-01 13:30:02</time>
      </trkpt>
      <trkpt lat="44.29353" lon="4.48567">
        <ele>254.10852</ele>
        <time>2020-09-01 13:30:11</time>
      </trkpt>
      <trkpt lat="44.29343" lon="4.4856">
        <ele>254.96185</ele>
        <time>2020-09-01 13:30:14</time>
      </trkpt>
      <trkpt lat="44.29336" lon="4.48554">
        <ele>254.90198</ele>
        <time>2020-09-01 13:30:16</time>
      </trkpt>
      <trkpt lat="44.29315" lon="4.48527">
        <ele>257.0459</ele>
        <time>2020-09-01 13:30:23</time>
      </trkpt>
      <trkpt lat="44.29303" lon="4.48505">
        <ele>258.24457</ele>
        <time>2020-09-01 13:30:28</time>
      </trkpt>
      <trkpt lat="44.29298" lon="4.48492">
        <ele>259.0901</ele>
        <time>2020-09-01 13:30:31</time>
      </trkpt>
      <trkpt lat="44.29296" lon="4.48487">
        <ele>257.0459</ele>
        <time>2020-09-01 13:30:32</time>
      </trkpt>
      <trkpt lat="44.29295" lon="4.48482">
        <ele>259.2787</ele>
        <time>2020-09-01 13:30:33</time>
      </trkpt>
      <trkpt lat="44.29291" lon="4.48469">
        <ele>260.5614</ele>
        <time>2020-09-01 13:30:36</time>
      </trkpt>
      <trkpt lat="44.29287" lon="4.4845">
        <ele>260.2721</ele>
        <time>2020-09-01 13:30:40</time>
      </trkpt>
      <trkpt lat="44.29284" lon="4.48425">
        <ele>261.3946</ele>
        <time>2020-09-01 13:30:45</time>
      </trkpt>
      <trkpt lat="44.29284" lon="4.48409">
        <ele>259.1759</ele>
        <time>2020-09-01 13:30:48</time>
      </trkpt>
      <trkpt lat="44.29287" lon="4.48395">
        <ele>261.19202</ele>
        <time>2020-09-01 13:30:51</time>
      </trkpt>
      <trkpt lat="44.29292" lon="4.48387">
        <ele>262.06982</ele>
        <time>2020-09-01 13:30:53</time>
      </trkpt>
      <trkpt lat="44.29305" lon="4.48368">
        <ele>262.92212</ele>
        <time>2020-09-01 13:30:58</time>
      </trkpt>
      <trkpt lat="44.29321" lon="4.48344">
        <ele>266.5216</ele>
        <time>2020-09-01 13:31:05</time>
      </trkpt>
      <trkpt lat="44.29329" lon="4.48325">
        <ele>264.9712</ele>
        <time>2020-09-01 13:31:10</time>
      </trkpt>
      <trkpt lat="44.29332" lon="4.48318">
        <ele>265.7085</ele>
        <time>2020-09-01 13:31:12</time>
      </trkpt>
      <trkpt lat="44.29344" lon="4.48276">
        <ele>265.21667</ele>
        <time>2020-09-01 13:31:21</time>
      </trkpt>
      <trkpt lat="44.29345" lon="4.48266">
        <ele>266.4389</ele>
        <time>2020-09-01 13:31:23</time>
      </trkpt>
      <trkpt lat="44.29345" lon="4.48261">
        <ele>266.4049</ele>
        <time>2020-09-01 13:31:24</time>
      </trkpt>
      <trkpt lat="44.29343" lon="4.48246">
        <ele>266.7666</ele>
        <time>2020-09-01 13:31:27</time>
      </trkpt>
      <trkpt lat="44.29341" lon="4.48242">
        <ele>266.09424</ele>
        <time>2020-09-01 13:31:28</time>
      </trkpt>
      <trkpt lat="44.29337" lon="4.48238">
        <ele>265.99567</ele>
        <time>2020-09-01 13:31:30</time>
      </trkpt>
      <trkpt lat="44.29334" lon="4.48235">
        <ele>265.97498</ele>
        <time>2020-09-01 13:31:30</time>
      </trkpt>
      <trkpt lat="44.29326" lon="4.48231">
        <ele>266.4389</ele>
        <time>2020-09-01 13:31:32</time>
      </trkpt>
      <trkpt lat="44.29317" lon="4.4823">
        <ele>267.75665</ele>
        <time>2020-09-01 13:31:34</time>
      </trkpt>
      <trkpt lat="44.29313" lon="4.48232">
        <ele>267.56396</ele>
        <time>2020-09-01 13:31:35</time>
      </trkpt>
      <trkpt lat="44.29309" lon="4.48235">
        <ele>267.72107</ele>
        <time>2020-09-01 13:31:36</time>
      </trkpt>
      <trkpt lat="44.29303" lon="4.48242">
        <ele>267.99225</ele>
        <time>2020-09-01 13:31:38</time>
      </trkpt>
      <trkpt lat="44.29277" lon="4.48281">
        <ele>267.71008</ele>
        <time>2020-09-01 13:31:48</time>
      </trkpt>
      <trkpt lat="44.29267" lon="4.48289">
        <ele>267.28894</ele>
        <time>2020-09-01 13:31:51</time>
      </trkpt>
      <trkpt lat="44.29252" lon="4.48296">
        <ele>267.1186</ele>
        <time>2020-09-01 13:31:55</time>
      </trkpt>
      <trkpt lat="44.29249" lon="4.48297">
        <ele>267.15234</ele>
        <time>2020-09-01 13:31:56</time>
      </trkpt>
      <trkpt lat="44.2924" lon="4.48299">
        <ele>266.73645</ele>
        <time>2020-09-01 13:31:59</time>
      </trkpt>
      <trkpt lat="44.29238" lon="4.483">
        <ele>266.60657</ele>
        <time>2020-09-01 13:32:00</time>
      </trkpt>
      <trkpt lat="44.29238" lon="4.48303">
        <ele>267.5315</ele>
        <time>2020-09-01 13:32:02</time>
      </trkpt>
      <trkpt lat="44.29241" lon="4.48301">
        <ele>266.46545</ele>
        <time>2020-09-01 13:32:32</time>
      </trkpt>
      <trkpt lat="44.2924" lon="4.48302">
        <ele>265.93884</ele>
        <time>2020-09-01 13:32:33</time>
      </trkpt>
      <trkpt lat="44.2924" lon="4.48302">
        <ele>266.3689</ele>
        <time>2020-09-01 13:32:34</time>
      </trkpt>
      <trkpt lat="44.29242" lon="4.48299">
        <ele>267.883</ele>
        <time>2020-09-01 13:32:44</time>
      </trkpt>
      <trkpt lat="44.29242" lon="4.48299">
        <ele>267.99548</ele>
        <time>2020-09-01 13:32:45</time>
      </trkpt>
      <trkpt lat="44.29241" lon="4.483">
        <ele>270.29468</ele>
        <time>2020-09-01 13:33:15</time>
      </trkpt>
      <trkpt lat="44.29241" lon="4.483">
        <ele>270.29437</ele>
        <time>2020-09-01 13:34:04</time>
      </trkpt>
      <trkpt lat="44.29241" lon="4.483">
        <ele>270.32837</ele>
        <time>2020-09-01 13:34:09</time>
      </trkpt>
      <trkpt lat="44.29241" lon="4.48299">
        <ele>270.56036</ele>
        <time>2020-09-01 13:34:10</time>
      </trkpt>
      <trkpt lat="44.29242" lon="4.483">
        <ele>269.04285</ele>
        <time>2020-09-01 13:34:41</time>
      </trkpt>
      <trkpt lat="44.29242" lon="4.483">
        <ele>269.61597</ele>
        <time>2020-09-01 13:34:42</time>
      </trkpt>
      <trkpt lat="44.29241" lon="4.483">
        <ele>269.54132</ele>
        <time>2020-09-01 13:34:43</time>
      </trkpt>
      <trkpt lat="44.2924" lon="4.483">
        <ele>269.21033</ele>
        <time>2020-09-01 13:35:18</time>
      </trkpt>
      <trkpt lat="44.29238" lon="4.48295">
        <ele>269.1505</ele>
        <time>2020-09-01 13:35:22</time>
      </trkpt>
      <trkpt lat="44.29236" lon="4.48293">
        <ele>268.1065</ele>
        <time>2020-09-01 13:35:23</time>
      </trkpt>
      <trkpt lat="44.29234" lon="4.48292">
        <ele>269.05402</ele>
        <time>2020-09-01 13:35:24</time>
      </trkpt>
      <trkpt lat="44.29201" lon="4.48283">
        <ele>270.5758</ele>
        <time>2020-09-01 13:35:35</time>
      </trkpt>
      <trkpt lat="44.29189" lon="4.48276">
        <ele>271.5511</ele>
        <time>2020-09-01 13:35:39</time>
      </trkpt>
      <trkpt lat="44.29178" lon="4.48265">
        <ele>270.22632</ele>
        <time>2020-09-01 13:35:43</time>
      </trkpt>
      <trkpt lat="44.29164" lon="4.48245">
        <ele>270.59595</ele>
        <time>2020-09-01 13:35:49</time>
      </trkpt>
      <trkpt lat="44.29157" lon="4.48225">
        <ele>271.4594</ele>
        <time>2020-09-01 13:35:54</time>
      </trkpt>
      <trkpt lat="44.2915" lon="4.48193">
        <ele>270.2804</ele>
        <time>2020-09-01 13:36:02</time>
      </trkpt>
      <trkpt lat="44.29132" lon="4.48125">
        <ele>274.95227</ele>
        <time>2020-09-01 13:36:23</time>
      </trkpt>
      <trkpt lat="44.29131" lon="4.48108">
        <ele>276.9431</ele>
        <time>2020-09-01 13:36:28</time>
      </trkpt>
      <trkpt lat="44.29131" lon="4.481">
        <ele>277.70734</ele>
        <time>2020-09-01 13:36:30</time>
      </trkpt>
      <trkpt lat="44.29143" lon="4.48011">
        <ele>280.16797</ele>
        <time>2020-09-01 13:36:50</time>
      </trkpt>
      <trkpt lat="44.29161" lon="4.47893">
        <ele>285.78992</ele>
        <time>2020-09-01 13:37:14</time>
      </trkpt>
      <trkpt lat="44.29168" lon="4.47843">
        <ele>286.60217</ele>
        <time>2020-09-01 13:37:24</time>
      </trkpt>
      <trkpt lat="44.29169" lon="4.47834">
        <ele>287.90942</ele>
        <time>2020-09-01 13:37:26</time>
      </trkpt>
      <trkpt lat="44.29173" lon="4.47814">
        <ele>288.69434</ele>
        <time>2020-09-01 13:37:30</time>
      </trkpt>
      <trkpt lat="44.29195" lon="4.47656">
        <ele>292.0506</ele>
        <time>2020-09-01 13:38:00</time>
      </trkpt>
      <trkpt lat="44.29204" lon="4.47579">
        <ele>298.5515</ele>
        <time>2020-09-01 13:38:15</time>
      </trkpt>
      <trkpt lat="44.29203" lon="4.47412">
        <ele>296.29077</ele>
        <time>2020-09-01 13:38:45</time>
      </trkpt>
      <trkpt lat="44.29201" lon="4.47238">
        <ele>300.9502</ele>
        <time>2020-09-01 13:39:15</time>
      </trkpt>
      <trkpt lat="44.29198" lon="4.47135">
        <ele>302.95392</ele>
        <time>2020-09-01 13:39:30</time>
      </trkpt>
      <trkpt lat="44.29194" lon="4.47116">
        <ele>306.5044</ele>
        <time>2020-09-01 13:39:33</time>
      </trkpt>
      <trkpt lat="44.2919" lon="4.47105">
        <ele>307.70984</ele>
        <time>2020-09-01 13:39:35</time>
      </trkpt>
      <trkpt lat="44.29182" lon="4.4709">
        <ele>305.77448</ele>
        <time>2020-09-01 13:39:38</time>
      </trkpt>
      <trkpt lat="44.29166" lon="4.47066">
        <ele>306.30988</ele>
        <time>2020-09-01 13:39:43</time>
      </trkpt>
      <trkpt lat="44.29159" lon="4.47058">
        <ele>305.81677</ele>
        <time>2020-09-01 13:39:45</time>
      </trkpt>
      <trkpt lat="44.29142" lon="4.47046">
        <ele>305.10016</ele>
        <time>2020-09-01 13:39:49</time>
      </trkpt>
      <trkpt lat="44.29135" lon="4.47043">
        <ele>307.73352</ele>
        <time>2020-09-01 13:39:51</time>
      </trkpt>
      <trkpt lat="44.29121" lon="4.4704">
        <ele>308.70593</ele>
        <time>2020-09-01 13:39:55</time>
      </trkpt>
      <trkpt lat="44.2909" lon="4.47038">
        <ele>309.20874</ele>
        <time>2020-09-01 13:40:02</time>
      </trkpt>
      <trkpt lat="44.29081" lon="4.47035">
        <ele>311.9702</ele>
        <time>2020-09-01 13:40:04</time>
      </trkpt>
      <trkpt lat="44.29072" lon="4.47028">
        <ele>311.19537</ele>
        <time>2020-09-01 13:40:06</time>
      </trkpt>
      <trkpt lat="44.29047" lon="4.46998">
        <ele>312.1609</ele>
        <time>2020-09-01 13:40:12</time>
      </trkpt>
      <trkpt lat="44.29004" lon="4.46944">
        <ele>309.8609</ele>
        <time>2020-09-01 13:40:21</time>
      </trkpt>
      <trkpt lat="44.28992" lon="4.46934">
        <ele>309.8651</ele>
        <time>2020-09-01 13:40:23</time>
      </trkpt>
      <trkpt lat="44.28936" lon="4.4689">
        <ele>309.8651</ele>
        <time>2020-09-01 13:40:32</time>
      </trkpt>
      <trkpt lat="44.28925" lon="4.46878">
        <ele>307.8994</ele>
        <time>2020-09-01 13:40:34</time>
      </trkpt>
      <trkpt lat="44.28889" lon="4.46825">
        <ele>305.64526</ele>
        <time>2020-09-01 13:40:41</time>
      </trkpt>
      <trkpt lat="44.28876" lon="4.46813">
        <ele>306.03137</ele>
        <time>2020-09-01 13:40:43</time>
      </trkpt>
      <trkpt lat="44.2883" lon="4.46791">
        <ele>305.9651</ele>
        <time>2020-09-01 13:40:49</time>
      </trkpt>
      <trkpt lat="44.28798" lon="4.46778">
        <ele>304.3413</ele>
        <time>2020-09-01 13:40:53</time>
      </trkpt>
      <trkpt lat="44.28742" lon="4.46768">
        <ele>302.49518</ele>
        <time>2020-09-01 13:41:00</time>
      </trkpt>
      <trkpt lat="44.28735" lon="4.46763">
        <ele>303.1615</ele>
        <time>2020-09-01 13:41:01</time>
      </trkpt>
      <trkpt lat="44.28728" lon="4.46755">
        <ele>304.3413</ele>
        <time>2020-09-01 13:41:02</time>
      </trkpt>
      <trkpt lat="44.28718" lon="4.46738">
        <ele>302.24243</ele>
        <time>2020-09-01 13:41:04</time>
      </trkpt>
      <trkpt lat="44.28716" lon="4.46727">
        <ele>301.46692</ele>
        <time>2020-09-01 13:41:05</time>
      </trkpt>
      <trkpt lat="44.2869" lon="4.46604">
        <ele>296.9317</ele>
        <time>2020-09-01 13:41:16</time>
      </trkpt>
      <trkpt lat="44.28685" lon="4.46595">
        <ele>297.03394</ele>
        <time>2020-09-01 13:41:17</time>
      </trkpt>
      <trkpt lat="44.28679" lon="4.46589">
        <ele>298.33698</ele>
        <time>2020-09-01 13:41:18</time>
      </trkpt>
      <trkpt lat="44.28671" lon="4.46584">
        <ele>298.37854</ele>
        <time>2020-09-01 13:41:19</time>
      </trkpt>
      <trkpt lat="44.28629" lon="4.4655">
        <ele>296.60864</ele>
        <time>2020-09-01 13:41:25</time>
      </trkpt>
      <trkpt lat="44.28507" lon="4.46404">
        <ele>290.7483</ele>
        <time>2020-09-01 13:41:43</time>
      </trkpt>
      <trkpt lat="44.2849" lon="4.46393">
        <ele>290.6328</ele>
        <time>2020-09-01 13:41:45</time>
      </trkpt>
      <trkpt lat="44.28433" lon="4.46364">
        <ele>290.7483</ele>
        <time>2020-09-01 13:41:52</time>
      </trkpt>
      <trkpt lat="44.28425" lon="4.46359">
        <ele>290.18994</ele>
        <time>2020-09-01 13:41:53</time>
      </trkpt>
      <trkpt lat="44.28414" lon="4.46344">
        <ele>289.77643</ele>
        <time>2020-09-01 13:41:55</time>
      </trkpt>
      <trkpt lat="44.2841" lon="4.46334">
        <ele>289.31372</ele>
        <time>2020-09-01 13:41:56</time>
      </trkpt>
      <trkpt lat="44.28406" lon="4.46325">
        <ele>288.667</ele>
        <time>2020-09-01 13:41:57</time>
      </trkpt>
      <trkpt lat="44.284" lon="4.46303">
        <ele>287.73828</ele>
        <time>2020-09-01 13:41:59</time>
      </trkpt>
      <trkpt lat="44.28399" lon="4.4629">
        <ele>287.70465</ele>
        <time>2020-09-01 13:42:00</time>
      </trkpt>
      <trkpt lat="44.28399" lon="4.46278">
        <ele>287.96606</ele>
        <time>2020-09-01 13:42:01</time>
      </trkpt>
      <trkpt lat="44.28401" lon="4.46252">
        <ele>287.85535</ele>
        <time>2020-09-01 13:42:03</time>
      </trkpt>
      <trkpt lat="44.2841" lon="4.46164">
        <ele>284.41412</ele>
        <time>2020-09-01 13:42:10</time>
      </trkpt>
      <trkpt lat="44.28408" lon="4.46151">
        <ele>283.76086</ele>
        <time>2020-09-01 13:42:11</time>
      </trkpt>
      <trkpt lat="44.28403" lon="4.4614">
        <ele>287.85535</ele>
        <time>2020-09-01 13:42:12</time>
      </trkpt>
      <trkpt lat="44.28396" lon="4.4613">
        <ele>282.99078</ele>
        <time>2020-09-01 13:42:13</time>
      </trkpt>
      <trkpt lat="44.28389" lon="4.46122">
        <ele>282.91058</ele>
        <time>2020-09-01 13:42:14</time>
      </trkpt>
      <trkpt lat="44.28359" lon="4.46087">
        <ele>282.50757</ele>
        <time>2020-09-01 13:42:18</time>
      </trkpt>
      <trkpt lat="44.28353" lon="4.46076">
        <ele>282.3568</ele>
        <time>2020-09-01 13:42:19</time>
      </trkpt>
      <trkpt lat="44.28344" lon="4.46051">
        <ele>281.64807</ele>
        <time>2020-09-01 13:42:21</time>
      </trkpt>
      <trkpt lat="44.28308" lon="4.45913">
        <ele>280.6106</ele>
        <time>2020-09-01 13:42:32</time>
      </trkpt>
      <trkpt lat="44.28307" lon="4.459">
        <ele>276.91736</ele>
        <time>2020-09-01 13:42:33</time>
      </trkpt>
      <trkpt lat="44.28307" lon="4.45887">
        <ele>275.68323</ele>
        <time>2020-09-01 13:42:34</time>
      </trkpt>
      <trkpt lat="44.2831" lon="4.45874">
        <ele>275.76465</ele>
        <time>2020-09-01 13:42:35</time>
      </trkpt>
      <trkpt lat="44.28326" lon="4.458">
        <ele>273.9651</ele>
        <time>2020-09-01 13:42:41</time>
      </trkpt>
      <trkpt lat="44.28325" lon="4.45778">
        <ele>274.25415</ele>
        <time>2020-09-01 13:42:43</time>
      </trkpt>
      <trkpt lat="44.28323" lon="4.45768">
        <ele>274.52936</ele>
        <time>2020-09-01 13:42:44</time>
      </trkpt>
      <trkpt lat="44.2832" lon="4.4576">
        <ele>273.6834</ele>
        <time>2020-09-01 13:42:45</time>
      </trkpt>
      <trkpt lat="44.28317" lon="4.45752">
        <ele>273.3811</ele>
        <time>2020-09-01 13:42:46</time>
      </trkpt>
      <trkpt lat="44.28303" lon="4.4573">
        <ele>270.91815</ele>
        <time>2020-09-01 13:42:49</time>
      </trkpt>
      <trkpt lat="44.2829" lon="4.45717">
        <ele>270.51355</ele>
        <time>2020-09-01 13:42:51</time>
      </trkpt>
      <trkpt lat="44.28284" lon="4.45711">
        <ele>274.25415</ele>
        <time>2020-09-01 13:42:52</time>
      </trkpt>
      <trkpt lat="44.2825" lon="4.45695">
        <ele>267.3059</ele>
        <time>2020-09-01 13:42:56</time>
      </trkpt>
      <trkpt lat="44.28119" lon="4.45635">
        <ele>260.8446</ele>
        <time>2020-09-01 13:43:10</time>
      </trkpt>
      <trkpt lat="44.28111" lon="4.45626">
        <ele>260.7143</ele>
        <time>2020-09-01 13:43:11</time>
      </trkpt>
      <trkpt lat="44.28096" lon="4.45606">
        <ele>259.04395</ele>
        <time>2020-09-01 13:43:13</time>
      </trkpt>
      <trkpt lat="44.28083" lon="4.45583">
        <ele>258.4369</ele>
        <time>2020-09-01 13:43:15</time>
      </trkpt>
      <trkpt lat="44.28075" lon="4.45555">
        <ele>257.9347</ele>
        <time>2020-09-01 13:43:17</time>
      </trkpt>
      <trkpt lat="44.28065" lon="4.45513">
        <ele>256.21838</ele>
        <time>2020-09-01 13:43:20</time>
      </trkpt>
      <trkpt lat="44.28053" lon="4.4544">
        <ele>256.04492</ele>
        <time>2020-09-01 13:43:25</time>
      </trkpt>
      <trkpt lat="44.28054" lon="4.45426">
        <ele>255.58972</ele>
        <time>2020-09-01 13:43:26</time>
      </trkpt>
      <trkpt lat="44.28056" lon="4.45412">
        <ele>254.84998</ele>
        <time>2020-09-01 13:43:27</time>
      </trkpt>
      <trkpt lat="44.28064" lon="4.45373">
        <ele>253.77905</ele>
        <time>2020-09-01 13:43:30</time>
      </trkpt>
      <trkpt lat="44.28063" lon="4.45361">
        <ele>253.55139</ele>
        <time>2020-09-01 13:43:31</time>
      </trkpt>
      <trkpt lat="44.2806" lon="4.45348">
        <ele>255.16473</ele>
        <time>2020-09-01 13:43:32</time>
      </trkpt>
      <trkpt lat="44.28057" lon="4.45339">
        <ele>253.80145</ele>
        <time>2020-09-01 13:43:33</time>
      </trkpt>
      <trkpt lat="44.28051" lon="4.45329">
        <ele>253.35242</ele>
        <time>2020-09-01 13:43:34</time>
      </trkpt>
      <trkpt lat="44.28032" lon="4.45292">
        <ele>251.74225</ele>
        <time>2020-09-01 13:43:38</time>
      </trkpt>
      <trkpt lat="44.28031" lon="4.4528">
        <ele>251.98138</ele>
        <time>2020-09-01 13:43:39</time>
      </trkpt>
      <trkpt lat="44.2803" lon="4.45268">
        <ele>251.39276</ele>
        <time>2020-09-01 13:43:40</time>
      </trkpt>
      <trkpt lat="44.28028" lon="4.45232">
        <ele>249.38391</ele>
        <time>2020-09-01 13:43:43</time>
      </trkpt>
      <trkpt lat="44.28025" lon="4.45219">
        <ele>247.66003</ele>
        <time>2020-09-01 13:43:44</time>
      </trkpt>
      <trkpt lat="44.28021" lon="4.45208">
        <ele>247.76874</ele>
        <time>2020-09-01 13:43:45</time>
      </trkpt>
      <trkpt lat="44.2801" lon="4.45186">
        <ele>248.06268</ele>
        <time>2020-09-01 13:43:47</time>
      </trkpt>
      <trkpt lat="44.28002" lon="4.45179">
        <ele>247.18835</ele>
        <time>2020-09-01 13:43:48</time>
      </trkpt>
      <trkpt lat="44.27994" lon="4.45172">
        <ele>246.74268</ele>
        <time>2020-09-01 13:43:49</time>
      </trkpt>
      <trkpt lat="44.27977" lon="4.45165">
        <ele>244.62946</ele>
        <time>2020-09-01 13:43:51</time>
      </trkpt>
      <trkpt lat="44.27951" lon="4.45157">
        <ele>243.33716</ele>
        <time>2020-09-01 13:43:54</time>
      </trkpt>
      <trkpt lat="44.27944" lon="4.4515">
        <ele>242.88599</ele>
        <time>2020-09-01 13:43:55</time>
      </trkpt>
      <trkpt lat="44.27938" lon="4.4514">
        <ele>242.95923</ele>
        <time>2020-09-01 13:43:56</time>
      </trkpt>
      <trkpt lat="44.27934" lon="4.45129">
        <ele>242.62726</ele>
        <time>2020-09-01 13:43:57</time>
      </trkpt>
      <trkpt lat="44.27931" lon="4.45118">
        <ele>242.8208</ele>
        <time>2020-09-01 13:43:58</time>
      </trkpt>
      <trkpt lat="44.27931" lon="4.45105">
        <ele>243.19928</ele>
        <time>2020-09-01 13:43:59</time>
      </trkpt>
      <trkpt lat="44.27931" lon="4.45093">
        <ele>244.27173</ele>
        <time>2020-09-01 13:44:00</time>
      </trkpt>
      <trkpt lat="44.27934" lon="4.4508">
        <ele>244.96405</ele>
        <time>2020-09-01 13:44:01</time>
      </trkpt>
      <trkpt lat="44.27939" lon="4.45069">
        <ele>243.41772</ele>
        <time>2020-09-01 13:44:02</time>
      </trkpt>
      <trkpt lat="44.27945" lon="4.4506">
        <ele>242.6903</ele>
        <time>2020-09-01 13:44:03</time>
      </trkpt>
      <trkpt lat="44.2796" lon="4.45047">
        <ele>240.6286</ele>
        <time>2020-09-01 13:44:05</time>
      </trkpt>
      <trkpt lat="44.28006" lon="4.45008">
        <ele>239.09082</ele>
        <time>2020-09-01 13:44:11</time>
      </trkpt>
      <trkpt lat="44.28012" lon="4.44999">
        <ele>242.6903</ele>
        <time>2020-09-01 13:44:12</time>
      </trkpt>
      <trkpt lat="44.28017" lon="4.44988">
        <ele>238.84906</ele>
        <time>2020-09-01 13:44:13</time>
      </trkpt>
      <trkpt lat="44.28019" lon="4.44977">
        <ele>238.77637</ele>
        <time>2020-09-01 13:44:14</time>
      </trkpt>
      <trkpt lat="44.2802" lon="4.44965">
        <ele>238.11456</ele>
        <time>2020-09-01 13:44:15</time>
      </trkpt>
      <trkpt lat="44.28018" lon="4.44953">
        <ele>237.7851</ele>
        <time>2020-09-01 13:44:16</time>
      </trkpt>
      <trkpt lat="44.28014" lon="4.44942">
        <ele>237.18073</ele>
        <time>2020-09-01 13:44:17</time>
      </trkpt>
      <trkpt lat="44.28008" lon="4.44934">
        <ele>237.48071</ele>
        <time>2020-09-01 13:44:18</time>
      </trkpt>
      <trkpt lat="44.28001" lon="4.44927">
        <ele>236.45557</ele>
        <time>2020-09-01 13:44:19</time>
      </trkpt>
      <trkpt lat="44.27993" lon="4.44921">
        <ele>236.20312</ele>
        <time>2020-09-01 13:44:20</time>
      </trkpt>
      <trkpt lat="44.27984" lon="4.44919">
        <ele>235.89575</ele>
        <time>2020-09-01 13:44:21</time>
      </trkpt>
      <trkpt lat="44.27975" lon="4.44919">
        <ele>238.84906</ele>
        <time>2020-09-01 13:44:22</time>
      </trkpt>
      <trkpt lat="44.27968" lon="4.44921">
        <ele>233.01703</ele>
        <time>2020-09-01 13:44:23</time>
      </trkpt>
      <trkpt lat="44.27952" lon="4.44927">
        <ele>232.37775</ele>
        <time>2020-09-01 13:44:25</time>
      </trkpt>
      <trkpt lat="44.27919" lon="4.44941">
        <ele>231.1258</ele>
        <time>2020-09-01 13:44:29</time>
      </trkpt>
      <trkpt lat="44.27901" lon="4.44944">
        <ele>230.35388</ele>
        <time>2020-09-01 13:44:31</time>
      </trkpt>
      <trkpt lat="44.27884" lon="4.44942">
        <ele>230.44153</ele>
        <time>2020-09-01 13:44:33</time>
      </trkpt>
      <trkpt lat="44.27866" lon="4.44936">
        <ele>228.40845</ele>
        <time>2020-09-01 13:44:35</time>
      </trkpt>
      <trkpt lat="44.27848" lon="4.44926">
        <ele>228.3092</ele>
        <time>2020-09-01 13:44:37</time>
      </trkpt>
      <trkpt lat="44.27778" lon="4.44884">
        <ele>223.20898</ele>
        <time>2020-09-01 13:44:45</time>
      </trkpt>
      <trkpt lat="44.27759" lon="4.44879">
        <ele>222.4718</ele>
        <time>2020-09-01 13:44:47</time>
      </trkpt>
      <trkpt lat="44.27674" lon="4.44866">
        <ele>220.23492</ele>
        <time>2020-09-01 13:44:56</time>
      </trkpt>
      <trkpt lat="44.27657" lon="4.44855">
        <ele>219.73376</ele>
        <time>2020-09-01 13:44:58</time>
      </trkpt>
      <trkpt lat="44.27635" lon="4.4483">
        <ele>218.09973</ele>
        <time>2020-09-01 13:45:01</time>
      </trkpt>
      <trkpt lat="44.27622" lon="4.44811">
        <ele>218.33038</ele>
        <time>2020-09-01 13:45:03</time>
      </trkpt>
      <trkpt lat="44.27544" lon="4.44677">
        <ele>211.8451</ele>
        <time>2020-09-01 13:45:16</time>
      </trkpt>
      <trkpt lat="44.27499" lon="4.44617">
        <ele>209.62775</ele>
        <time>2020-09-01 13:45:23</time>
      </trkpt>
      <trkpt lat="44.27496" lon="4.44606">
        <ele>209.4787</ele>
        <time>2020-09-01 13:45:24</time>
      </trkpt>
      <trkpt lat="44.27494" lon="4.44594">
        <ele>208.24493</ele>
        <time>2020-09-01 13:45:25</time>
      </trkpt>
      <trkpt lat="44.27493" lon="4.44583">
        <ele>208.5138</ele>
        <time>2020-09-01 13:45:26</time>
      </trkpt>
      <trkpt lat="44.27495" lon="4.44572">
        <ele>208.17499</ele>
        <time>2020-09-01 13:45:27</time>
      </trkpt>
      <trkpt lat="44.27498" lon="4.44561">
        <ele>208.47986</ele>
        <time>2020-09-01 13:45:28</time>
      </trkpt>
      <trkpt lat="44.27521" lon="4.4446">
        <ele>205.8996</ele>
        <time>2020-09-01 13:45:37</time>
      </trkpt>
      <trkpt lat="44.27519" lon="4.44448">
        <ele>204.96924</ele>
        <time>2020-09-01 13:45:38</time>
      </trkpt>
      <trkpt lat="44.27515" lon="4.44423">
        <ele>205.40082</ele>
        <time>2020-09-01 13:45:40</time>
      </trkpt>
      <trkpt lat="44.27506" lon="4.44401">
        <ele>206.97565</ele>
        <time>2020-09-01 13:45:42</time>
      </trkpt>
      <trkpt lat="44.275" lon="4.44391">
        <ele>204.05273</ele>
        <time>2020-09-01 13:45:43</time>
      </trkpt>
      <trkpt lat="44.27455" lon="4.44328">
        <ele>200.40588</ele>
        <time>2020-09-01 13:45:50</time>
      </trkpt>
      <trkpt lat="44.27411" lon="4.44263">
        <ele>200.86407</ele>
        <time>2020-09-01 13:45:57</time>
      </trkpt>
      <trkpt lat="44.27371" lon="4.442">
        <ele>198.56226</ele>
        <time>2020-09-01 13:46:04</time>
      </trkpt>
      <trkpt lat="44.27366" lon="4.4419">
        <ele>197.8128</ele>
        <time>2020-09-01 13:46:05</time>
      </trkpt>
      <trkpt lat="44.27363" lon="4.44178">
        <ele>197.24841</ele>
        <time>2020-09-01 13:46:06</time>
      </trkpt>
      <trkpt lat="44.27361" lon="4.44165">
        <ele>195.82623</ele>
        <time>2020-09-01 13:46:07</time>
      </trkpt>
      <trkpt lat="44.27354" lon="4.44131">
        <ele>193.88556</ele>
        <time>2020-09-01 13:46:10</time>
      </trkpt>
      <trkpt lat="44.27344" lon="4.44109">
        <ele>198.98608</ele>
        <time>2020-09-01 13:46:12</time>
      </trkpt>
      <trkpt lat="44.27306" lon="4.44036">
        <ele>190.26025</ele>
        <time>2020-09-01 13:46:19</time>
      </trkpt>
      <trkpt lat="44.27286" lon="4.4401">
        <ele>192.57721</ele>
        <time>2020-09-01 13:46:22</time>
      </trkpt>
      <trkpt lat="44.27209" lon="4.43916">
        <ele>184.09595</ele>
        <time>2020-09-01 13:46:33</time>
      </trkpt>
      <trkpt lat="44.27201" lon="4.43894">
        <ele>182.61865</ele>
        <time>2020-09-01 13:46:35</time>
      </trkpt>
      <trkpt lat="44.272" lon="4.43882">
        <ele>183.57819</ele>
        <time>2020-09-01 13:46:36</time>
      </trkpt>
      <trkpt lat="44.27199" lon="4.4387">
        <ele>183.17725</ele>
        <time>2020-09-01 13:46:37</time>
      </trkpt>
      <trkpt lat="44.27201" lon="4.43846">
        <ele>183.1416</ele>
        <time>2020-09-01 13:46:39</time>
      </trkpt>
      <trkpt lat="44.27208" lon="4.43737">
        <ele>179.51288</ele>
        <time>2020-09-01 13:46:48</time>
      </trkpt>
      <trkpt lat="44.27208" lon="4.43597">
        <ele>175.90851</ele>
        <time>2020-09-01 13:46:59</time>
      </trkpt>
      <trkpt lat="44.27211" lon="4.43576">
        <ele>176.47046</ele>
        <time>2020-09-01 13:47:01</time>
      </trkpt>
      <trkpt lat="44.27214" lon="4.43565">
        <ele>179.69788</ele>
        <time>2020-09-01 13:47:02</time>
      </trkpt>
      <trkpt lat="44.27219" lon="4.43556">
        <ele>176.19495</ele>
        <time>2020-09-01 13:47:03</time>
      </trkpt>
      <trkpt lat="44.27225" lon="4.43548">
        <ele>175.19434</ele>
        <time>2020-09-01 13:47:04</time>
      </trkpt>
      <trkpt lat="44.27232" lon="4.43544">
        <ele>175.94073</ele>
        <time>2020-09-01 13:47:05</time>
      </trkpt>
      <trkpt lat="44.27238" lon="4.43541">
        <ele>176.35913</ele>
        <time>2020-09-01 13:47:06</time>
      </trkpt>
      <trkpt lat="44.27282" lon="4.43531">
        <ele>176.19495</ele>
        <time>2020-09-01 13:47:12</time>
      </trkpt>
      <trkpt lat="44.27337" lon="4.43515">
        <ele>174.38043</ele>
        <time>2020-09-01 13:47:20</time>
      </trkpt>
      <trkpt lat="44.27347" lon="4.43507">
        <ele>175.58594</ele>
        <time>2020-09-01 13:47:22</time>
      </trkpt>
      <trkpt lat="44.27357" lon="4.43495">
        <ele>173.67773</ele>
        <time>2020-09-01 13:47:24</time>
      </trkpt>
      <trkpt lat="44.27362" lon="4.43488">
        <ele>173.6358</ele>
        <time>2020-09-01 13:47:25</time>
      </trkpt>
      <trkpt lat="44.27365" lon="4.4348">
        <ele>174.40002</ele>
        <time>2020-09-01 13:47:26</time>
      </trkpt>
      <trkpt lat="44.27368" lon="4.43472">
        <ele>175.18054</ele>
        <time>2020-09-01 13:47:27</time>
      </trkpt>
      <trkpt lat="44.27369" lon="4.43464">
        <ele>175.71863</ele>
        <time>2020-09-01 13:47:28</time>
      </trkpt>
      <trkpt lat="44.27369" lon="4.43455">
        <ele>175.87329</ele>
        <time>2020-09-01 13:47:29</time>
      </trkpt>
      <trkpt lat="44.27368" lon="4.43448">
        <ele>175.81189</ele>
        <time>2020-09-01 13:47:30</time>
      </trkpt>
      <trkpt lat="44.27364" lon="4.43432">
        <ele>173.15082</ele>
        <time>2020-09-01 13:47:32</time>
      </trkpt>
      <trkpt lat="44.27357" lon="4.43418">
        <ele>172.60913</ele>
        <time>2020-09-01 13:47:34</time>
      </trkpt>
      <trkpt lat="44.27353" lon="4.43413">
        <ele>172.64911</ele>
        <time>2020-09-01 13:47:35</time>
      </trkpt>
      <trkpt lat="44.27343" lon="4.43404">
        <ele>171.85132</ele>
        <time>2020-09-01 13:47:37</time>
      </trkpt>
      <trkpt lat="44.27328" lon="4.43394">
        <ele>170.98718</ele>
        <time>2020-09-01 13:47:40</time>
      </trkpt>
      <trkpt lat="44.27297" lon="4.43382">
        <ele>170.11987</ele>
        <time>2020-09-01 13:47:45</time>
      </trkpt>
      <trkpt lat="44.27251" lon="4.43373">
        <ele>170.07959</ele>
        <time>2020-09-01 13:47:52</time>
      </trkpt>
      <trkpt lat="44.27238" lon="4.4337">
        <ele>171.62488</ele>
        <time>2020-09-01 13:47:54</time>
      </trkpt>
      <trkpt lat="44.27199" lon="4.43359">
        <ele>170.52454</ele>
        <time>2020-09-01 13:48:00</time>
      </trkpt>
      <trkpt lat="44.27186" lon="4.43351">
        <ele>171.52625</ele>
        <time>2020-09-01 13:48:02</time>
      </trkpt>
      <trkpt lat="44.2717" lon="4.43332">
        <ele>169.4961</ele>
        <time>2020-09-01 13:48:05</time>
      </trkpt>
      <trkpt lat="44.27162" lon="4.43317">
        <ele>169.27222</ele>
        <time>2020-09-01 13:48:07</time>
      </trkpt>
      <trkpt lat="44.27155" lon="4.43301">
        <ele>169.93542</ele>
        <time>2020-09-01 13:48:09</time>
      </trkpt>
      <trkpt lat="44.27145" lon="4.43266">
        <ele>170.29456</ele>
        <time>2020-09-01 13:48:13</time>
      </trkpt>
      <trkpt lat="44.27125" lon="4.43206">
        <ele>171.39014</ele>
        <time>2020-09-01 13:48:20</time>
      </trkpt>
      <trkpt lat="44.27112" lon="4.43174">
        <ele>170.87408</ele>
        <time>2020-09-01 13:48:24</time>
      </trkpt>
      <trkpt lat="44.27101" lon="4.43161">
        <ele>170.96716</ele>
        <time>2020-09-01 13:48:26</time>
      </trkpt>
      <trkpt lat="44.27084" lon="4.43145">
        <ele>170.42639</ele>
        <time>2020-09-01 13:48:29</time>
      </trkpt>
      <trkpt lat="44.27062" lon="4.43119">
        <ele>168.09808</ele>
        <time>2020-09-01 13:48:33</time>
      </trkpt>
      <trkpt lat="44.27047" lon="4.43097">
        <ele>169.46051</ele>
        <time>2020-09-01 13:48:36</time>
      </trkpt>
      <trkpt lat="44.27041" lon="4.43078">
        <ele>167.50372</ele>
        <time>2020-09-01 13:48:38</time>
      </trkpt>
      <trkpt lat="44.27034" lon="4.4306">
        <ele>167.9129</ele>
        <time>2020-09-01 13:48:40</time>
      </trkpt>
      <trkpt lat="44.27025" lon="4.4302">
        <ele>168.9812</ele>
        <time>2020-09-01 13:48:45</time>
      </trkpt>
      <trkpt lat="44.27021" lon="4.42987">
        <ele>171.00928</ele>
        <time>2020-09-01 13:48:49</time>
      </trkpt>
      <trkpt lat="44.27025" lon="4.42902">
        <ele>172.32086</ele>
        <time>2020-09-01 13:48:59</time>
      </trkpt>
      <trkpt lat="44.27024" lon="4.42894">
        <ele>172.59436</ele>
        <time>2020-09-01 13:49:00</time>
      </trkpt>
      <trkpt lat="44.27018" lon="4.42877">
        <ele>170.61548</ele>
        <time>2020-09-01 13:49:02</time>
      </trkpt>
      <trkpt lat="44.26999" lon="4.42821">
        <ele>171.61572</ele>
        <time>2020-09-01 13:49:09</time>
      </trkpt>
      <trkpt lat="44.26996" lon="4.42807">
        <ele>173.71509</ele>
        <time>2020-09-01 13:49:11</time>
      </trkpt>
      <trkpt lat="44.26996" lon="4.4279">
        <ele>174.29865</ele>
        <time>2020-09-01 13:49:13</time>
      </trkpt>
      <trkpt lat="44.27011" lon="4.42571">
        <ele>164.77905</ele>
        <time>2020-09-01 13:49:43</time>
      </trkpt>
      <trkpt lat="44.2701" lon="4.4256">
        <ele>165.40723</ele>
        <time>2020-09-01 13:49:48</time>
      </trkpt>
      <trkpt lat="44.2701" lon="4.42559">
        <ele>167.29773</ele>
        <time>2020-09-01 13:49:53</time>
      </trkpt>
      <trkpt lat="44.27011" lon="4.4256">
        <ele>166.69952</ele>
        <time>2020-09-01 13:49:54</time>
      </trkpt>
      <trkpt lat="44.27011" lon="4.42561">
        <ele>167.8476</ele>
        <time>2020-09-01 13:50:04</time>
      </trkpt>
      <trkpt lat="44.27011" lon="4.42557">
        <ele>163.17139</ele>
        <time>2020-09-01 13:50:12</time>
      </trkpt>
      <trkpt lat="44.27012" lon="4.42556">
        <ele>162.81024</ele>
        <time>2020-09-01 13:51:47</time>
      </trkpt>
      <trkpt lat="44.27012" lon="4.42556">
        <ele>162.48468</ele>
        <time>2020-09-01 13:51:48</time>
      </trkpt>
      <trkpt lat="44.27012" lon="4.42556">
        <ele>162.03088</ele>
        <time>2020-09-01 13:51:49</time>
      </trkpt>
      <trkpt lat="44.27012" lon="4.42556">
        <ele>162.76642</ele>
        <time>2020-09-01 13:51:50</time>
      </trkpt>
      <trkpt lat="44.2701" lon="4.42558">
        <ele>164.22705</ele>
        <time>2020-09-01 13:51:57</time>
      </trkpt>
      <trkpt lat="44.27008" lon="4.42556">
        <ele>165.52502</ele>
        <time>2020-09-01 13:51:59</time>
      </trkpt>
      <trkpt lat="44.27006" lon="4.42545">
        <ele>162.33777</ele>
        <time>2020-09-01 13:52:02</time>
      </trkpt>
      <trkpt lat="44.27" lon="4.42537">
        <ele>165.8905</ele>
        <time>2020-09-01 13:52:05</time>
      </trkpt>
      <trkpt lat="44.26997" lon="4.42535">
        <ele>165.9737</ele>
        <time>2020-09-01 13:52:06</time>
      </trkpt>
      <trkpt lat="44.26995" lon="4.42534">
        <ele>165.49237</ele>
        <time>2020-09-01 13:52:07</time>
      </trkpt>
      <trkpt lat="44.26989" lon="4.42534">
        <ele>164.07574</ele>
        <time>2020-09-01 13:52:09</time>
      </trkpt>
      <trkpt lat="44.26985" lon="4.42535">
        <ele>163.81439</ele>
        <time>2020-09-01 13:52:10</time>
      </trkpt>
      <trkpt lat="44.26981" lon="4.42538">
        <ele>163.51465</ele>
        <time>2020-09-01 13:52:11</time>
      </trkpt>
      <trkpt lat="44.26978" lon="4.42545">
        <ele>166.83923</ele>
        <time>2020-09-01 13:52:12</time>
      </trkpt>
      <trkpt lat="44.26974" lon="4.42549">
        <ele>162.57355</ele>
        <time>2020-09-01 13:52:13</time>
      </trkpt>
      <trkpt lat="44.26934" lon="4.42632">
        <ele>159.06512</ele>
        <time>2020-09-01 13:52:24</time>
      </trkpt>
      <trkpt lat="44.26916" lon="4.42671">
        <ele>160.94421</ele>
        <time>2020-09-01 13:52:30</time>
      </trkpt>
      <trkpt lat="44.26914" lon="4.42672">
        <ele>161.24554</ele>
        <time>2020-09-01 13:52:31</time>
      </trkpt>
      <trkpt lat="44.26911" lon="4.4267">
        <ele>158.88293</ele>
        <time>2020-09-01 13:52:32</time>
      </trkpt>
      <trkpt lat="44.26908" lon="4.42669">
        <ele>161.18213</ele>
        <time>2020-09-01 13:52:33</time>
      </trkpt>
      <trkpt lat="44.26879" lon="4.42639">
        <ele>161.82031</ele>
        <time>2020-09-01 13:52:43</time>
      </trkpt>
      <trkpt lat="44.26869" lon="4.42627">
        <ele>161.4403</ele>
        <time>2020-09-01 13:52:48</time>
      </trkpt>
      <trkpt lat="44.26869" lon="4.42626">
        <ele>160.36658</ele>
        <time>2020-09-01 13:53:09</time>
      </trkpt>
      <trkpt lat="44.26868" lon="4.42625">
        <ele>160.05737</ele>
        <time>2020-09-01 13:53:11</time>
      </trkpt>
      <trkpt lat="44.26867" lon="4.42623">
        <ele>160.50781</ele>
        <time>2020-09-01 13:53:12</time>
      </trkpt>
      <trkpt lat="44.26865" lon="4.42621">
        <ele>160.65942</ele>
        <time>2020-09-01 13:53:13</time>
      </trkpt>
      <trkpt lat="44.26864" lon="4.42618">
        <ele>160.1648</ele>
        <time>2020-09-01 13:53:14</time>
      </trkpt>
      <trkpt lat="44.26854" lon="4.42605">
        <ele>158.61804</ele>
        <time>2020-09-01 13:53:20</time>
      </trkpt>
      <trkpt lat="44.26854" lon="4.42605">
        <ele>160.65942</ele>
        <time>2020-09-01 13:53:22</time>
      </trkpt>
      <trkpt lat="44.26855" lon="4.42604">
        <ele>157.7265</ele>
        <time>2020-09-01 13:53:30</time>
      </trkpt>
      <trkpt lat="44.26855" lon="4.42605">
        <ele>157.7873</ele>
        <time>2020-09-01 13:53:31</time>
      </trkpt>
      <trkpt lat="44.26855" lon="4.42604">
        <ele>157.59998</ele>
        <time>2020-09-01 13:53:32</time>
      </trkpt>
      <trkpt lat="44.26853" lon="4.42602">
        <ele>157.11719</ele>
        <time>2020-09-01 13:53:34</time>
      </trkpt>
      <trkpt lat="44.2685" lon="4.426">
        <ele>157.14478</ele>
        <time>2020-09-01 13:53:37</time>
      </trkpt>
      <trkpt lat="44.26848" lon="4.42598">
        <ele>156.96228</ele>
        <time>2020-09-01 13:53:38</time>
      </trkpt>
      <trkpt lat="44.2684" lon="4.42589">
        <ele>157.27216</ele>
        <time>2020-09-01 13:53:41</time>
      </trkpt>
      <trkpt lat="44.26801" lon="4.42544">
        <ele>151.19855</ele>
        <time>2020-09-01 13:53:50</time>
      </trkpt>
      <trkpt lat="44.26798" lon="4.42542">
        <ele>151.47266</ele>
        <time>2020-09-01 13:53:51</time>
      </trkpt>
      <trkpt lat="44.26795" lon="4.42544">
        <ele>156.08746</ele>
        <time>2020-09-01 13:53:52</time>
      </trkpt>
      <trkpt lat="44.26792" lon="4.42548">
        <ele>149.59583</ele>
        <time>2020-09-01 13:53:53</time>
      </trkpt>
      <trkpt lat="44.26789" lon="4.42551">
        <ele>149.25586</ele>
        <time>2020-09-01 13:53:54</time>
      </trkpt>
      <trkpt lat="44.26787" lon="4.42556">
        <ele>149.22394</ele>
        <time>2020-09-01 13:53:55</time>
      </trkpt>
      <trkpt lat="44.26752" lon="4.42656">
        <ele>149.40509</ele>
        <time>2020-09-01 13:54:13</time>
      </trkpt>
      <trkpt lat="44.26748" lon="4.42661">
        <ele>148.84552</ele>
        <time>2020-09-01 13:54:14</time>
      </trkpt>
      <trkpt lat="44.26744" lon="4.42665">
        <ele>148.39215</ele>
        <time>2020-09-01 13:54:15</time>
      </trkpt>
      <trkpt lat="44.26733" lon="4.42673">
        <ele>147.82373</ele>
        <time>2020-09-01 13:54:17</time>
      </trkpt>
      <trkpt lat="44.26728" lon="4.42674">
        <ele>148.2312</ele>
        <time>2020-09-01 13:54:18</time>
      </trkpt>
      <trkpt lat="44.26675" lon="4.42684">
        <ele>147.99683</ele>
        <time>2020-09-01 13:54:28</time>
      </trkpt>
      <trkpt lat="44.26672" lon="4.42684">
        <ele>148.89111</ele>
        <time>2020-09-01 13:54:29</time>
      </trkpt>
      <trkpt lat="44.26667" lon="4.42683">
        <ele>148.95605</ele>
        <time>2020-09-01 13:54:31</time>
      </trkpt>
      <trkpt lat="44.26661" lon="4.42677">
        <ele>151.41705</ele>
        <time>2020-09-01 13:54:34</time>
      </trkpt>
      <trkpt lat="44.26631" lon="4.42645">
        <ele>151.32996</ele>
        <time>2020-09-01 13:54:47</time>
      </trkpt>
      <trkpt lat="44.26619" lon="4.4263">
        <ele>148.87146</ele>
        <time>2020-09-01 13:54:51</time>
      </trkpt>
      <trkpt lat="44.26614" lon="4.42622">
        <ele>148.34344</ele>
        <time>2020-09-01 13:54:53</time>
      </trkpt>
      <trkpt lat="44.26604" lon="4.42589">
        <ele>149.07697</ele>
        <time>2020-09-01 13:54:58</time>
      </trkpt>
      <trkpt lat="44.26597" lon="4.42566">
        <ele>149.53271</ele>
        <time>2020-09-01 13:55:01</time>
      </trkpt>
      <trkpt lat="44.26577" lon="4.42502">
        <ele>146.62512</ele>
        <time>2020-09-01 13:55:10</time>
      </trkpt>
      <trkpt lat="44.26574" lon="4.42499">
        <ele>146.73236</ele>
        <time>2020-09-01 13:55:11</time>
      </trkpt>
      <trkpt lat="44.26571" lon="4.42497">
        <ele>148.57361</ele>
        <time>2020-09-01 13:55:12</time>
      </trkpt>
      <trkpt lat="44.26568" lon="4.42496">
        <ele>146.73303</ele>
        <time>2020-09-01 13:55:13</time>
      </trkpt>
      <trkpt lat="44.26567" lon="4.42495">
        <ele>145.7041</ele>
        <time>2020-09-01 13:55:15</time>
      </trkpt>
      <trkpt lat="44.26568" lon="4.42494">
        <ele>146.66443</ele>
        <time>2020-09-01 13:55:19</time>
      </trkpt>
      <trkpt lat="44.26567" lon="4.42493">
        <ele>144.61731</ele>
        <time>2020-09-01 13:55:21</time>
      </trkpt>
      <trkpt lat="44.26568" lon="4.42491">
        <ele>147.74463</ele>
        <time>2020-09-01 13:55:28</time>
      </trkpt>
      <trkpt lat="44.26568" lon="4.42495">
        <ele>149.31702</ele>
        <time>2020-09-01 13:56:18</time>
      </trkpt>
      <trkpt lat="44.26568" lon="4.42495">
        <ele>149.54962</ele>
        <time>2020-09-01 13:56:19</time>
      </trkpt>
      <trkpt lat="44.26569" lon="4.42494">
        <ele>148.9693</ele>
        <time>2020-09-01 13:56:26</time>
      </trkpt>
      <trkpt lat="44.26568" lon="4.42494">
        <ele>149.52948</ele>
        <time>2020-09-01 13:56:27</time>
      </trkpt>
      <trkpt lat="44.26566" lon="4.42493">
        <ele>150.30841</ele>
        <time>2020-09-01 13:56:29</time>
      </trkpt>
      <trkpt lat="44.26562" lon="4.42493">
        <ele>149.93903</ele>
        <time>2020-09-01 13:56:31</time>
      </trkpt>
      <trkpt lat="44.2656" lon="4.42493">
        <ele>148.84949</ele>
        <time>2020-09-01 13:56:32</time>
      </trkpt>
      <trkpt lat="44.26554" lon="4.42491">
        <ele>149.92029</ele>
        <time>2020-09-01 13:56:35</time>
      </trkpt>
      <trkpt lat="44.26551" lon="4.4249">
        <ele>149.74329</ele>
        <time>2020-09-01 13:56:36</time>
      </trkpt>
      <trkpt lat="44.26541" lon="4.42488">
        <ele>147.77039</ele>
        <time>2020-09-01 13:56:39</time>
      </trkpt>
      <trkpt lat="44.26527" lon="4.4248">
        <ele>147.98889</ele>
        <time>2020-09-01 13:56:43</time>
      </trkpt>
      <trkpt lat="44.26523" lon="4.42477">
        <ele>147.73279</ele>
        <time>2020-09-01 13:56:44</time>
      </trkpt>
      <trkpt lat="44.26497" lon="4.42448">
        <ele>146.89844</ele>
        <time>2020-09-01 13:56:51</time>
      </trkpt>
      <trkpt lat="44.26492" lon="4.42445">
        <ele>147.9306</ele>
        <time>2020-09-01 13:56:52</time>
      </trkpt>
      <trkpt lat="44.26344" lon="4.4237">
        <ele>143.12946</ele>
        <time>2020-09-01 13:57:22</time>
      </trkpt>
      <trkpt lat="44.26309" lon="4.42355">
        <ele>141.30164</ele>
        <time>2020-09-01 13:57:29</time>
      </trkpt>
      <trkpt lat="44.26274" lon="4.42335">
        <ele>146.4198</ele>
        <time>2020-09-01 13:57:40</time>
      </trkpt>
      <trkpt lat="44.26233" lon="4.42306">
        <ele>147.10986</ele>
        <time>2020-09-01 13:57:52</time>
      </trkpt>
      <trkpt lat="44.26229" lon="4.42304">
        <ele>144.36597</ele>
        <time>2020-09-01 13:57:53</time>
      </trkpt>
      <trkpt lat="44.2617" lon="4.42257">
        <ele>146.09283</ele>
        <time>2020-09-01 13:58:12</time>
      </trkpt>
      <trkpt lat="44.26151" lon="4.42238">
        <ele>147.15277</ele>
        <time>2020-09-01 13:58:19</time>
      </trkpt>
      <trkpt lat="44.2614" lon="4.42211">
        <ele>149.9455</ele>
        <time>2020-09-01 13:58:28</time>
      </trkpt>
      <trkpt lat="44.26139" lon="4.42207">
        <ele>150.42474</ele>
        <time>2020-09-01 13:58:29</time>
      </trkpt>
      <trkpt lat="44.26138" lon="4.42195">
        <ele>149.26044</ele>
        <time>2020-09-01 13:58:32</time>
      </trkpt>
      <trkpt lat="44.26137" lon="4.4214">
        <ele>156.37872</ele>
        <time>2020-09-01 13:58:47</time>
      </trkpt>
      <trkpt lat="44.26137" lon="4.42129">
        <ele>157.0404</ele>
        <time>2020-09-01 13:58:50</time>
      </trkpt>
      <trkpt lat="44.26136" lon="4.42107">
        <ele>158.0437</ele>
        <time>2020-09-01 13:58:56</time>
      </trkpt>
      <trkpt lat="44.2614" lon="4.42092">
        <ele>157.97528</ele>
        <time>2020-09-01 13:59:00</time>
      </trkpt>
      <trkpt lat="44.26139" lon="4.42088">
        <ele>157.6591</ele>
        <time>2020-09-01 13:59:02</time>
      </trkpt>
      <trkpt lat="44.26138" lon="4.42085">
        <ele>156.60925</ele>
        <time>2020-09-01 13:59:03</time>
      </trkpt>
      <trkpt lat="44.26136" lon="4.42083">
        <ele>158.10907</ele>
        <time>2020-09-01 13:59:04</time>
      </trkpt>
      <trkpt lat="44.26134" lon="4.42081">
        <ele>159.4162</ele>
        <time>2020-09-01 13:59:05</time>
      </trkpt>
      <trkpt lat="44.26132" lon="4.42081">
        <ele>159.7052</ele>
        <time>2020-09-01 13:59:06</time>
      </trkpt>
      <trkpt lat="44.26127" lon="4.42079">
        <ele>157.4914</ele>
        <time>2020-09-01 13:59:09</time>
      </trkpt>
      <trkpt lat="44.26126" lon="4.42079">
        <ele>157.30286</ele>
        <time>2020-09-01 13:59:10</time>
      </trkpt>
      <trkpt lat="44.26124" lon="4.42081">
        <ele>160.3454</ele>
        <time>2020-09-01 13:59:16</time>
      </trkpt>
      <trkpt lat="44.26123" lon="4.42082">
        <ele>161.03876</ele>
        <time>2020-09-01 13:59:17</time>
      </trkpt>
      <trkpt lat="44.26122" lon="4.42082">
        <ele>158.97388</ele>
        <time>2020-09-01 13:59:18</time>
      </trkpt>
      <trkpt lat="44.26122" lon="4.42082">
        <ele>159.31592</ele>
        <time>2020-09-01 13:59:19</time>
      </trkpt>
      <trkpt lat="44.26118" lon="4.42083">
        <ele>157.94855</ele>
        <time>2020-09-01 13:59:22</time>
      </trkpt>
      <trkpt lat="44.26116" lon="4.42083">
        <ele>157.22137</ele>
        <time>2020-09-01 13:59:23</time>
      </trkpt>
      <trkpt lat="44.26111" lon="4.42082">
        <ele>155.9433</ele>
        <time>2020-09-01 13:59:25</time>
      </trkpt>
      <trkpt lat="44.26106" lon="4.42084">
        <ele>159.01215</ele>
        <time>2020-09-01 13:59:27</time>
      </trkpt>
      <trkpt lat="44.26102" lon="4.42086">
        <ele>159.84222</ele>
        <time>2020-09-01 13:59:30</time>
      </trkpt>
      <trkpt lat="44.26098" lon="4.42086">
        <ele>161.44409</ele>
        <time>2020-09-01 13:59:35</time>
      </trkpt>
      <trkpt lat="44.26098" lon="4.42086">
        <ele>160.22375</ele>
        <time>2020-09-01 13:59:36</time>
      </trkpt>
      <trkpt lat="44.26097" lon="4.42085">
        <ele>159.4549</ele>
        <time>2020-09-01 13:59:37</time>
      </trkpt>
      <trkpt lat="44.26094" lon="4.42086">
        <ele>158.46521</ele>
        <time>2020-09-01 14:00:13</time>
      </trkpt>
      <trkpt lat="44.26094" lon="4.42086">
        <ele>158.5061</ele>
        <time>2020-09-01 14:00:49</time>
      </trkpt>
      <trkpt lat="44.26095" lon="4.42086">
        <ele>158.54614</ele>
        <time>2020-09-01 14:01:14</time>
      </trkpt>
      <trkpt lat="44.26095" lon="4.42087">
        <ele>159.0747</ele>
        <time>2020-09-01 14:01:15</time>
      </trkpt>
      <trkpt lat="44.26095" lon="4.4209">
        <ele>164.05566</ele>
        <time>2020-09-01 14:01:53</time>
      </trkpt>
      <trkpt lat="44.26095" lon="4.4209">
        <ele>166.1112</ele>
        <time>2020-09-01 14:01:58</time>
      </trkpt>
      <trkpt lat="44.26095" lon="4.4209">
        <ele>166.49268</ele>
        <time>2020-09-01 14:01:59</time>
      </trkpt>
      <trkpt lat="44.26096" lon="4.4209">
        <ele>166.27881</ele>
        <time>2020-09-01 14:02:01</time>
      </trkpt>
      <trkpt lat="44.26095" lon="4.4209">
        <ele>164.05566</ele>
        <time>2020-09-01 14:02:02</time>
      </trkpt>
      <trkpt lat="44.26096" lon="4.4209">
        <ele>167.12476</ele>
        <time>2020-09-01 14:02:07</time>
      </trkpt>
      <trkpt lat="44.26096" lon="4.4209">
        <ele>167.01764</ele>
        <time>2020-09-01 14:02:08</time>
      </trkpt>
      <trkpt lat="44.26098" lon="4.42088">
        <ele>166.5177</ele>
        <time>2020-09-01 14:04:44</time>
      </trkpt>
      <trkpt lat="44.26098" lon="4.42088">
        <ele>167.22156</ele>
        <time>2020-09-01 14:04:53</time>
      </trkpt>
      <trkpt lat="44.26099" lon="4.42089">
        <ele>167.10852</ele>
        <time>2020-09-01 14:04:54</time>
      </trkpt>
      <trkpt lat="44.261" lon="4.42089">
        <ele>165.51672</ele>
        <time>2020-09-01 14:04:56</time>
      </trkpt>
      <trkpt lat="44.26103" lon="4.42088">
        <ele>164.12079</ele>
        <time>2020-09-01 14:05:00</time>
      </trkpt>
      <trkpt lat="44.26106" lon="4.42086">
        <ele>164.4201</ele>
        <time>2020-09-01 14:05:03</time>
      </trkpt>
      <trkpt lat="44.26112" lon="4.42085">
        <ele>164.31262</ele>
        <time>2020-09-01 14:05:07</time>
      </trkpt>
      <trkpt lat="44.26115" lon="4.42086">
        <ele>163.33777</ele>
        <time>2020-09-01 14:05:09</time>
      </trkpt>
      <trkpt lat="44.2612" lon="4.42089">
        <ele>164.4201</ele>
        <time>2020-09-01 14:05:12</time>
      </trkpt>
      <trkpt lat="44.26122" lon="4.42088">
        <ele>160.43951</ele>
        <time>2020-09-01 14:05:14</time>
      </trkpt>
      <trkpt lat="44.26123" lon="4.42088">
        <ele>161.76184</ele>
        <time>2020-09-01 14:05:15</time>
      </trkpt>
      <trkpt lat="44.26124" lon="4.42087">
        <ele>161.21454</ele>
        <time>2020-09-01 14:05:16</time>
      </trkpt>
      <trkpt lat="44.26124" lon="4.42086">
        <ele>162.24768</ele>
        <time>2020-09-01 14:05:17</time>
      </trkpt>
      <trkpt lat="44.26121" lon="4.42084">
        <ele>162.95166</ele>
        <time>2020-09-01 14:05:20</time>
      </trkpt>
      <trkpt lat="44.26119" lon="4.42081">
        <ele>159.85352</ele>
        <time>2020-09-01 14:05:59</time>
      </trkpt>
      <trkpt lat="44.26119" lon="4.42081">
        <ele>159.8656</ele>
        <time>2020-09-01 14:06:36</time>
      </trkpt>
      <trkpt lat="44.26115" lon="4.42072">
        <ele>158.53796</ele>
        <time>2020-09-01 14:06:40</time>
      </trkpt>
      <trkpt lat="44.26114" lon="4.4207">
        <ele>157.90295</ele>
        <time>2020-09-01 14:06:41</time>
      </trkpt>
      <trkpt lat="44.2611" lon="4.42063">
        <ele>155.26196</ele>
        <time>2020-09-01 14:06:44</time>
      </trkpt>
      <trkpt lat="44.26109" lon="4.4206">
        <ele>155.46179</ele>
        <time>2020-09-01 14:06:45</time>
      </trkpt>
      <trkpt lat="44.26103" lon="4.42051">
        <ele>155.46301</ele>
        <time>2020-09-01 14:06:49</time>
      </trkpt>
      <trkpt lat="44.26102" lon="4.42051">
        <ele>155.57947</ele>
        <time>2020-09-01 14:06:50</time>
      </trkpt>
      <trkpt lat="44.26101" lon="4.4205">
        <ele>155.88354</ele>
        <time>2020-09-01 14:06:51</time>
      </trkpt>
      <trkpt lat="44.26096" lon="4.42052">
        <ele>154.31311</ele>
        <time>2020-09-01 14:06:57</time>
      </trkpt>
      <trkpt lat="44.26097" lon="4.42054">
        <ele>152.70007</ele>
        <time>2020-09-01 14:07:19</time>
      </trkpt>
      <trkpt lat="44.26096" lon="4.42053">
        <ele>152.31433</ele>
        <time>2020-09-01 14:07:20</time>
      </trkpt>
      <trkpt lat="44.26093" lon="4.42048">
        <ele>152.3985</ele>
        <time>2020-09-01 14:07:23</time>
      </trkpt>
      <trkpt lat="44.26093" lon="4.42047">
        <ele>150.71808</ele>
        <time>2020-09-01 14:07:25</time>
      </trkpt>
      <trkpt lat="44.26093" lon="4.42046">
        <ele>152.18115</ele>
        <time>2020-09-01 14:07:59</time>
      </trkpt>
      <trkpt lat="44.26093" lon="4.42045">
        <ele>153.1253</ele>
        <time>2020-09-01 14:08:03</time>
      </trkpt>
      <trkpt lat="44.26093" lon="4.42044">
        <ele>153.98743</ele>
        <time>2020-09-01 14:08:04</time>
      </trkpt>
      <trkpt lat="44.26094" lon="4.42043">
        <ele>153.50922</ele>
        <time>2020-09-01 14:08:05</time>
      </trkpt>
      <trkpt lat="44.26093" lon="4.42042">
        <ele>154.33594</ele>
        <time>2020-09-01 14:08:10</time>
      </trkpt>
      <trkpt lat="44.26092" lon="4.42042">
        <ele>154.52368</ele>
        <time>2020-09-01 14:08:11</time>
      </trkpt>
      <trkpt lat="44.26092" lon="4.42042">
        <ele>153.1253</ele>
        <time>2020-09-01 14:08:12</time>
      </trkpt>
      <trkpt lat="44.26091" lon="4.4204">
        <ele>155.86066</ele>
        <time>2020-09-01 14:08:13</time>
      </trkpt>
      <trkpt lat="44.26087" lon="4.4203">
        <ele>157.53809</ele>
        <time>2020-09-01 14:08:16</time>
      </trkpt>
      <trkpt lat="44.26087" lon="4.42025">
        <ele>156.97095</ele>
        <time>2020-09-01 14:08:17</time>
      </trkpt>
      <trkpt lat="44.26087" lon="4.4202">
        <ele>157.18732</ele>
        <time>2020-09-01 14:08:18</time>
      </trkpt>
      <trkpt lat="44.26087" lon="4.42014">
        <ele>157.25464</ele>
        <time>2020-09-01 14:08:19</time>
      </trkpt>
      <trkpt lat="44.26091" lon="4.41992">
        <ele>153.71094</ele>
        <time>2020-09-01 14:08:23</time>
      </trkpt>
      <trkpt lat="44.26097" lon="4.4197">
        <ele>153.71094</ele>
        <time>2020-09-01 14:08:32</time>
      </trkpt>
      <trkpt lat="44.26097" lon="4.41969">
        <ele>154.31995</ele>
        <time>2020-09-01 14:08:33</time>
      </trkpt>
      <trkpt lat="44.26098" lon="4.41969">
        <ele>154.24304</ele>
        <time>2020-09-01 14:08:35</time>
      </trkpt>
      <trkpt lat="44.261" lon="4.41969">
        <ele>155.1867</ele>
        <time>2020-09-01 14:09:11</time>
      </trkpt>
      <trkpt lat="44.261" lon="4.41968">
        <ele>155.46777</ele>
        <time>2020-09-01 14:09:31</time>
      </trkpt>
      <trkpt lat="44.26099" lon="4.41967">
        <ele>155.15259</ele>
        <time>2020-09-01 14:09:32</time>
      </trkpt>
      <trkpt lat="44.26099" lon="4.41966">
        <ele>154.61438</ele>
        <time>2020-09-01 14:09:33</time>
      </trkpt>
      <trkpt lat="44.26099" lon="4.41966">
        <ele>154.61438</ele>
        <time>2020-09-01 14:09:42</time>
      </trkpt>
      <trkpt lat="44.26099" lon="4.41966">
        <ele>153.93219</ele>
        <time>2020-09-01 14:09:43</time>
      </trkpt>
      <trkpt lat="44.26098" lon="4.41967">
        <ele>152.06458</ele>
        <time>2020-09-01 14:09:46</time>
      </trkpt>
      <trkpt lat="44.26098" lon="4.41968">
        <ele>152.61316</ele>
        <time>2020-09-01 14:09:47</time>
      </trkpt>
      <trkpt lat="44.26098" lon="4.41969">
        <ele>151.48065</ele>
        <time>2020-09-01 14:09:49</time>
      </trkpt>
      <trkpt lat="44.26099" lon="4.4197">
        <ele>151.04437</ele>
        <time>2020-09-01 14:09:50</time>
      </trkpt>
      <trkpt lat="44.26099" lon="4.4197">
        <ele>152.36804</ele>
        <time>2020-09-01 14:09:59</time>
      </trkpt>
      <trkpt lat="44.26099" lon="4.4197">
        <ele>152.15363</ele>
        <time>2020-09-01 14:10:00</time>
      </trkpt>
      <trkpt lat="44.261" lon="4.4197">
        <ele>152.54755</ele>
        <time>2020-09-01 14:10:01</time>
      </trkpt>
      <trkpt lat="44.26104" lon="4.41971">
        <ele>151.94092</ele>
        <time>2020-09-01 14:10:04</time>
      </trkpt>
      <trkpt lat="44.26106" lon="4.41971">
        <ele>151.5213</ele>
        <time>2020-09-01 14:10:05</time>
      </trkpt>
      <trkpt lat="44.26109" lon="4.41971">
        <ele>152.74939</ele>
        <time>2020-09-01 14:10:08</time>
      </trkpt>
      <trkpt lat="44.26111" lon="4.41971">
        <ele>153.16284</ele>
        <time>2020-09-01 14:10:09</time>
      </trkpt>
      <trkpt lat="44.26115" lon="4.41969">
        <ele>151.83533</ele>
        <time>2020-09-01 14:10:12</time>
      </trkpt>
      <trkpt lat="44.2612" lon="4.41967">
        <ele>153.82428</ele>
        <time>2020-09-01 14:10:15</time>
      </trkpt>
      <trkpt lat="44.26128" lon="4.41964">
        <ele>152.40167</ele>
        <time>2020-09-01 14:10:18</time>
      </trkpt>
      <trkpt lat="44.26131" lon="4.41963">
        <ele>154.138</ele>
        <time>2020-09-01 14:10:19</time>
      </trkpt>
      <trkpt lat="44.26134" lon="4.41963">
        <ele>154.45654</ele>
        <time>2020-09-01 14:10:20</time>
      </trkpt>
      <trkpt lat="44.26136" lon="4.41964">
        <ele>154.63153</ele>
        <time>2020-09-01 14:10:21</time>
      </trkpt>
      <trkpt lat="44.26141" lon="4.41966">
        <ele>153.63892</ele>
        <time>2020-09-01 14:10:25</time>
      </trkpt>
      <trkpt lat="44.26142" lon="4.41968">
        <ele>153.37909</ele>
        <time>2020-09-01 14:10:26</time>
      </trkpt>
      <trkpt lat="44.26147" lon="4.41974">
        <ele>154.45905</ele>
        <time>2020-09-01 14:10:29</time>
      </trkpt>
      <trkpt lat="44.26161" lon="4.41979">
        <ele>149.22137</ele>
        <time>2020-09-01 14:10:34</time>
      </trkpt>
      <trkpt lat="44.26176" lon="4.41987">
        <ele>146.9093</ele>
        <time>2020-09-01 14:10:36</time>
      </trkpt>
      <trkpt lat="44.26185" lon="4.42">
        <ele>143.90143</ele>
        <time>2020-09-01 14:10:41</time>
      </trkpt>
      <trkpt lat="44.26187" lon="4.41999">
        <ele>144.25806</ele>
        <time>2020-09-01 14:10:42</time>
      </trkpt>
      <trkpt lat="44.26194" lon="4.42001">
        <ele>146.10706</ele>
        <time>2020-09-01 14:10:45</time>
      </trkpt>
      <trkpt lat="44.26195" lon="4.42002">
        <ele>145.68585</ele>
        <time>2020-09-01 14:10:46</time>
      </trkpt>
      <trkpt lat="44.26197" lon="4.42002">
        <ele>145.65387</ele>
        <time>2020-09-01 14:10:47</time>
      </trkpt>
      <trkpt lat="44.26217" lon="4.42007">
        <ele>144.65985</ele>
        <time>2020-09-01 14:10:54</time>
      </trkpt>
      <trkpt lat="44.26228" lon="4.42008">
        <ele>143.59216</ele>
        <time>2020-09-01 14:10:58</time>
      </trkpt>
      <trkpt lat="44.2623" lon="4.42007">
        <ele>142.74377</ele>
        <time>2020-09-01 14:10:59</time>
      </trkpt>
      <trkpt lat="44.26234" lon="4.42004">
        <ele>142.32825</ele>
        <time>2020-09-01 14:11:01</time>
      </trkpt>
      <trkpt lat="44.26235" lon="4.42001">
        <ele>142.09204</ele>
        <time>2020-09-01 14:11:02</time>
      </trkpt>
      <trkpt lat="44.26245" lon="4.41919">
        <ele>138.46436</ele>
        <time>2020-09-01 14:11:21</time>
      </trkpt>
      <trkpt lat="44.26247" lon="4.41915">
        <ele>137.7608</ele>
        <time>2020-09-01 14:11:24</time>
      </trkpt>
      <trkpt lat="44.26248" lon="4.41916">
        <ele>137.53516</ele>
        <time>2020-09-01 14:11:27</time>
      </trkpt>
      <trkpt lat="44.26248" lon="4.41916">
        <ele>135.71228</ele>
        <time>2020-09-01 14:11:29</time>
      </trkpt>
      <trkpt lat="44.26246" lon="4.41914">
        <ele>136.22778</ele>
        <time>2020-09-01 14:13:35</time>
      </trkpt>
      <trkpt lat="44.26245" lon="4.41914">
        <ele>135.49182</ele>
        <time>2020-09-01 14:13:36</time>
      </trkpt>
      <trkpt lat="44.26245" lon="4.41914">
        <ele>135.36511</ele>
        <time>2020-09-01 14:13:37</time>
      </trkpt>
      <trkpt lat="44.26245" lon="4.41913">
        <ele>135.44885</ele>
        <time>2020-09-01 14:13:38</time>
      </trkpt>
      <trkpt lat="44.26244" lon="4.41913">
        <ele>135.00037</ele>
        <time>2020-09-01 14:13:41</time>
      </trkpt>
      <trkpt lat="44.26244" lon="4.41914">
        <ele>134.62823</ele>
        <time>2020-09-01 14:13:42</time>
      </trkpt>
      <trkpt lat="44.26244" lon="4.41916">
        <ele>135.17468</ele>
        <time>2020-09-01 14:13:43</time>
      </trkpt>
      <trkpt lat="44.26243" lon="4.41927">
        <ele>135.97607</ele>
        <time>2020-09-01 14:13:47</time>
      </trkpt>
      <trkpt lat="44.26242" lon="4.41933">
        <ele>136.14233</ele>
        <time>2020-09-01 14:13:49</time>
      </trkpt>
      <trkpt lat="44.2624" lon="4.41948">
        <ele>134.86096</ele>
        <time>2020-09-01 14:13:54</time>
      </trkpt>
      <trkpt lat="44.26239" lon="4.41951">
        <ele>134.90344</ele>
        <time>2020-09-01 14:13:55</time>
      </trkpt>
      <trkpt lat="44.26236" lon="4.41969">
        <ele>136.17297</ele>
        <time>2020-09-01 14:14:01</time>
      </trkpt>
      <trkpt lat="44.26234" lon="4.41972">
        <ele>137.4693</ele>
        <time>2020-09-01 14:14:03</time>
      </trkpt>
      <trkpt lat="44.26236" lon="4.41973">
        <ele>140.3783</ele>
        <time>2020-09-01 14:14:16</time>
      </trkpt>
      <trkpt lat="44.26235" lon="4.41975">
        <ele>138.94452</ele>
        <time>2020-09-01 14:14:18</time>
      </trkpt>
      <trkpt lat="44.26235" lon="4.41979">
        <ele>139.76392</ele>
        <time>2020-09-01 14:14:20</time>
      </trkpt>
      <trkpt lat="44.26234" lon="4.41986">
        <ele>140.73767</ele>
        <time>2020-09-01 14:14:23</time>
      </trkpt>
      <trkpt lat="44.26233" lon="4.4199">
        <ele>140.80835</ele>
        <time>2020-09-01 14:14:25</time>
      </trkpt>
      <trkpt lat="44.26232" lon="4.41999">
        <ele>141.63123</ele>
        <time>2020-09-01 14:14:29</time>
      </trkpt>
      <trkpt lat="44.26232" lon="4.42">
        <ele>141.65265</ele>
        <time>2020-09-01 14:14:30</time>
      </trkpt>
      <trkpt lat="44.26231" lon="4.42005">
        <ele>141.02173</ele>
        <time>2020-09-01 14:14:32</time>
      </trkpt>
      <trkpt lat="44.26232" lon="4.4201">
        <ele>140.34149</ele>
        <time>2020-09-01 14:14:35</time>
      </trkpt>
      <trkpt lat="44.26233" lon="4.42012">
        <ele>140.46033</ele>
        <time>2020-09-01 14:14:36</time>
      </trkpt>
      <trkpt lat="44.26235" lon="4.42015">
        <ele>140.69922</ele>
        <time>2020-09-01 14:14:38</time>
      </trkpt>
      <trkpt lat="44.26242" lon="4.4202">
        <ele>140.11322</ele>
        <time>2020-09-01 14:14:42</time>
      </trkpt>
      <trkpt lat="44.26244" lon="4.4202">
        <ele>140.40405</ele>
        <time>2020-09-01 14:14:43</time>
      </trkpt>
      <trkpt lat="44.26245" lon="4.4202">
        <ele>139.38464</ele>
        <time>2020-09-01 14:14:44</time>
      </trkpt>
      <trkpt lat="44.26247" lon="4.42021">
        <ele>138.82922</ele>
        <time>2020-09-01 14:14:45</time>
      </trkpt>
      <trkpt lat="44.26293" lon="4.42034">
        <ele>139.55713</ele>
        <time>2020-09-01 14:15:16</time>
      </trkpt>
      <trkpt lat="44.26294" lon="4.42033">
        <ele>140.55023</ele>
        <time>2020-09-01 14:15:36</time>
      </trkpt>
      <trkpt lat="44.26299" lon="4.42034">
        <ele>139.43628</ele>
        <time>2020-09-01 14:15:40</time>
      </trkpt>
      <trkpt lat="44.26304" lon="4.42034">
        <ele>138.88019</ele>
        <time>2020-09-01 14:15:42</time>
      </trkpt>
      <trkpt lat="44.2637" lon="4.42054">
        <ele>138.29065</ele>
        <time>2020-09-01 14:16:06</time>
      </trkpt>
      <trkpt lat="44.26386" lon="4.42061">
        <ele>139.74554</ele>
        <time>2020-09-01 14:16:12</time>
      </trkpt>
      <trkpt lat="44.26409" lon="4.42071">
        <ele>140.35724</ele>
        <time>2020-09-01 14:16:20</time>
      </trkpt>
      <trkpt lat="44.26423" lon="4.42081">
        <ele>141.17224</ele>
        <time>2020-09-01 14:16:25</time>
      </trkpt>
      <trkpt lat="44.2643" lon="4.42088">
        <ele>140.85052</ele>
        <time>2020-09-01 14:16:28</time>
      </trkpt>
      <trkpt lat="44.26437" lon="4.42101">
        <ele>139.8208</ele>
        <time>2020-09-01 14:16:32</time>
      </trkpt>
      <trkpt lat="44.26439" lon="4.42107">
        <ele>139.84149</ele>
        <time>2020-09-01 14:16:34</time>
      </trkpt>
      <trkpt lat="44.26443" lon="4.42127">
        <ele>137.29138</ele>
        <time>2020-09-01 14:16:40</time>
      </trkpt>
      <trkpt lat="44.26444" lon="4.42134">
        <ele>138.01239</ele>
        <time>2020-09-01 14:16:42</time>
      </trkpt>
      <trkpt lat="44.26445" lon="4.42145">
        <ele>139.78021</ele>
        <time>2020-09-01 14:16:45</time>
      </trkpt>
      <trkpt lat="44.2645" lon="4.42178">
        <ele>139.82294</ele>
        <time>2020-09-01 14:16:55</time>
      </trkpt>
      <trkpt lat="44.26454" lon="4.42193">
        <ele>139.51428</ele>
        <time>2020-09-01 14:17:00</time>
      </trkpt>
      <trkpt lat="44.26455" lon="4.42196">
        <ele>138.96704</ele>
        <time>2020-09-01 14:17:01</time>
      </trkpt>
      <trkpt lat="44.26461" lon="4.42211">
        <ele>138.95898</ele>
        <time>2020-09-01 14:17:06</time>
      </trkpt>
      <trkpt lat="44.26462" lon="4.42214">
        <ele>137.9184</ele>
        <time>2020-09-01 14:17:07</time>
      </trkpt>
      <trkpt lat="44.26464" lon="4.42217">
        <ele>136.85388</ele>
        <time>2020-09-01 14:17:08</time>
      </trkpt>
      <trkpt lat="44.26477" lon="4.42239">
        <ele>137.9184</ele>
        <time>2020-09-01 14:17:16</time>
      </trkpt>
      <trkpt lat="44.2648" lon="4.42245">
        <ele>140.22852</ele>
        <time>2020-09-01 14:17:18</time>
      </trkpt>
      <trkpt lat="44.26499" lon="4.42285">
        <ele>138.68616</ele>
        <time>2020-09-01 14:17:32</time>
      </trkpt>
      <trkpt lat="44.26501" lon="4.42288">
        <ele>138.7088</ele>
        <time>2020-09-01 14:17:33</time>
      </trkpt>
      <trkpt lat="44.26507" lon="4.423">
        <ele>138.84491</ele>
        <time>2020-09-01 14:17:37</time>
      </trkpt>
      <trkpt lat="44.26508" lon="4.42303">
        <ele>139.21045</ele>
        <time>2020-09-01 14:17:38</time>
      </trkpt>
      <trkpt lat="44.26536" lon="4.42362">
        <ele>141.77539</ele>
        <time>2020-09-01 14:17:58</time>
      </trkpt>
      <trkpt lat="44.26543" lon="4.42383">
        <ele>142.62317</ele>
        <time>2020-09-01 14:18:05</time>
      </trkpt>
      <trkpt lat="44.26546" lon="4.42389">
        <ele>142.48096</ele>
        <time>2020-09-01 14:18:07</time>
      </trkpt>
      <trkpt lat="44.2655" lon="4.42401">
        <ele>142.60156</ele>
        <time>2020-09-01 14:18:11</time>
      </trkpt>
      <trkpt lat="44.26551" lon="4.42404">
        <ele>141.89124</ele>
        <time>2020-09-01 14:18:12</time>
      </trkpt>
      <trkpt lat="44.26552" lon="4.42407">
        <ele>141.83777</ele>
        <time>2020-09-01 14:18:13</time>
      </trkpt>
      <trkpt lat="44.26553" lon="4.4241">
        <ele>141.64044</ele>
        <time>2020-09-01 14:18:14</time>
      </trkpt>
      <trkpt lat="44.26556" lon="4.42419">
        <ele>142.49384</ele>
        <time>2020-09-01 14:18:17</time>
      </trkpt>
      <trkpt lat="44.26556" lon="4.42422">
        <ele>142.24365</ele>
        <time>2020-09-01 14:18:18</time>
      </trkpt>
      <trkpt lat="44.26557" lon="4.42424">
        <ele>142.25488</ele>
        <time>2020-09-01 14:18:19</time>
      </trkpt>
      <trkpt lat="44.26562" lon="4.42438">
        <ele>144.85083</ele>
        <time>2020-09-01 14:18:24</time>
      </trkpt>
      <trkpt lat="44.26563" lon="4.42444">
        <ele>142.49384</ele>
        <time>2020-09-01 14:18:26</time>
      </trkpt>
      <trkpt lat="44.26566" lon="4.42455">
        <ele>146.50397</ele>
        <time>2020-09-01 14:18:30</time>
      </trkpt>
      <trkpt lat="44.26567" lon="4.42458">
        <ele>146.69617</ele>
        <time>2020-09-01 14:18:31</time>
      </trkpt>
      <trkpt lat="44.26568" lon="4.42463">
        <ele>146.11957</ele>
        <time>2020-09-01 14:18:33</time>
      </trkpt>
      <trkpt lat="44.26572" lon="4.42473">
        <ele>146.39734</ele>
        <time>2020-09-01 14:18:37</time>
      </trkpt>
      <trkpt lat="44.26573" lon="4.42481">
        <ele>145.36304</ele>
        <time>2020-09-01 14:18:40</time>
      </trkpt>
      <trkpt lat="44.26573" lon="4.42486">
        <ele>145.33276</ele>
        <time>2020-09-01 14:18:42</time>
      </trkpt>
      <trkpt lat="44.26573" lon="4.42489">
        <ele>145.594</ele>
        <time>2020-09-01 14:18:43</time>
      </trkpt>
      <trkpt lat="44.26573" lon="4.42491">
        <ele>143.94537</ele>
        <time>2020-09-01 14:18:44</time>
      </trkpt>
      <trkpt lat="44.26575" lon="4.42498">
        <ele>145.67761</ele>
        <time>2020-09-01 14:18:47</time>
      </trkpt>
      <trkpt lat="44.26575" lon="4.42499">
        <ele>145.96979</ele>
        <time>2020-09-01 14:18:48</time>
      </trkpt>
      <trkpt lat="44.26582" lon="4.42519">
        <ele>146.60638</ele>
        <time>2020-09-01 14:18:55</time>
      </trkpt>
      <trkpt lat="44.26585" lon="4.42528">
        <ele>147.05676</ele>
        <time>2020-09-01 14:18:58</time>
      </trkpt>
      <trkpt lat="44.26586" lon="4.42531">
        <ele>147.14673</ele>
        <time>2020-09-01 14:18:59</time>
      </trkpt>
      <trkpt lat="44.26586" lon="4.42534">
        <ele>146.9588</ele>
        <time>2020-09-01 14:19:00</time>
      </trkpt>
      <trkpt lat="44.26587" lon="4.42536">
        <ele>147.40454</ele>
        <time>2020-09-01 14:19:01</time>
      </trkpt>
      <trkpt lat="44.26588" lon="4.42539">
        <ele>147.9737</ele>
        <time>2020-09-01 14:19:02</time>
      </trkpt>
      <trkpt lat="44.26589" lon="4.42542">
        <ele>148.97711</ele>
        <time>2020-09-01 14:19:03</time>
      </trkpt>
      <trkpt lat="44.2659" lon="4.42545">
        <ele>148.77795</ele>
        <time>2020-09-01 14:19:04</time>
      </trkpt>
      <trkpt lat="44.26591" lon="4.4255">
        <ele>146.51514</ele>
        <time>2020-09-01 14:19:06</time>
      </trkpt>
      <trkpt lat="44.26592" lon="4.42553">
        <ele>148.34167</ele>
        <time>2020-09-01 14:19:07</time>
      </trkpt>
      <trkpt lat="44.26594" lon="4.42555">
        <ele>147.81519</ele>
        <time>2020-09-01 14:19:08</time>
      </trkpt>
      <trkpt lat="44.26595" lon="4.42558">
        <ele>148.32678</ele>
        <time>2020-09-01 14:19:09</time>
      </trkpt>
      <trkpt lat="44.26599" lon="4.42574">
        <ele>148.43933</ele>
        <time>2020-09-01 14:19:15</time>
      </trkpt>
      <trkpt lat="44.26605" lon="4.42595">
        <ele>150.07642</ele>
        <time>2020-09-01 14:19:23</time>
      </trkpt>
      <trkpt lat="44.26606" lon="4.42598">
        <ele>150.2951</ele>
        <time>2020-09-01 14:19:24</time>
      </trkpt>
      <trkpt lat="44.26612" lon="4.42617">
        <ele>149.92444</ele>
        <time>2020-09-01 14:19:32</time>
      </trkpt>
      <trkpt lat="44.26618" lon="4.42629">
        <ele>150.17383</ele>
        <time>2020-09-01 14:19:37</time>
      </trkpt>
      <trkpt lat="44.26619" lon="4.42631">
        <ele>150.36963</ele>
        <time>2020-09-01 14:19:38</time>
      </trkpt>
      <trkpt lat="44.26622" lon="4.42635">
        <ele>149.95178</ele>
        <time>2020-09-01 14:19:40</time>
      </trkpt>
      <trkpt lat="44.26623" lon="4.42637">
        <ele>149.38776</ele>
        <time>2020-09-01 14:19:41</time>
      </trkpt>
      <trkpt lat="44.2663" lon="4.42648">
        <ele>150.17383</ele>
        <time>2020-09-01 14:19:46</time>
      </trkpt>
      <trkpt lat="44.26667" lon="4.42688">
        <ele>150.46393</ele>
        <time>2020-09-01 14:20:03</time>
      </trkpt>
      <trkpt lat="44.26672" lon="4.42692">
        <ele>149.21088</ele>
        <time>2020-09-01 14:20:07</time>
      </trkpt>
      <trkpt lat="44.26672" lon="4.42692">
        <ele>149.1925</ele>
        <time>2020-09-01 14:20:08</time>
      </trkpt>
      <trkpt lat="44.26672" lon="4.42692">
        <ele>148.43262</ele>
        <time>2020-09-01 14:21:00</time>
      </trkpt>
      <trkpt lat="44.26672" lon="4.42692">
        <ele>148.43115</ele>
        <time>2020-09-01 14:21:38</time>
      </trkpt>
      <trkpt lat="44.26673" lon="4.42691">
        <ele>151.43579</ele>
        <time>2020-09-01 14:21:39</time>
      </trkpt>
      <trkpt lat="44.26674" lon="4.42691">
        <ele>151.89038</ele>
        <time>2020-09-01 14:21:40</time>
      </trkpt>
      <trkpt lat="44.26675" lon="4.4269">
        <ele>150.1698</ele>
        <time>2020-09-01 14:21:43</time>
      </trkpt>
      <trkpt lat="44.26677" lon="4.42687">
        <ele>148.32666</ele>
        <time>2020-09-01 14:21:45</time>
      </trkpt>
      <trkpt lat="44.26679" lon="4.42685">
        <ele>148.4317</ele>
        <time>2020-09-01 14:21:46</time>
      </trkpt>
      <trkpt lat="44.26683" lon="4.42683">
        <ele>147.00879</ele>
        <time>2020-09-01 14:21:47</time>
      </trkpt>
      <trkpt lat="44.26687" lon="4.42682">
        <ele>145.8111</ele>
        <time>2020-09-01 14:21:48</time>
      </trkpt>
      <trkpt lat="44.26728" lon="4.42676">
        <ele>143.36102</ele>
        <time>2020-09-01 14:21:57</time>
      </trkpt>
      <trkpt lat="44.26733" lon="4.42674">
        <ele>145.34961</ele>
        <time>2020-09-01 14:21:59</time>
      </trkpt>
      <trkpt lat="44.2674" lon="4.42667">
        <ele>146.83691</ele>
        <time>2020-09-01 14:22:03</time>
      </trkpt>
      <trkpt lat="44.26743" lon="4.42661">
        <ele>144.44147</ele>
        <time>2020-09-01 14:22:05</time>
      </trkpt>
      <trkpt lat="44.26751" lon="4.42648">
        <ele>146.94745</ele>
        <time>2020-09-01 14:22:09</time>
      </trkpt>
      <trkpt lat="44.26757" lon="4.42633">
        <ele>146.26825</ele>
        <time>2020-09-01 14:22:13</time>
      </trkpt>
      <trkpt lat="44.2676" lon="4.42626">
        <ele>145.7096</ele>
        <time>2020-09-01 14:22:15</time>
      </trkpt>
      <trkpt lat="44.26761" lon="4.42622">
        <ele>145.78668</ele>
        <time>2020-09-01 14:22:16</time>
      </trkpt>
      <trkpt lat="44.26769" lon="4.42593">
        <ele>144.80267</ele>
        <time>2020-09-01 14:22:24</time>
      </trkpt>
      <trkpt lat="44.26779" lon="4.42563">
        <ele>143.99231</ele>
        <time>2020-09-01 14:22:32</time>
      </trkpt>
      <trkpt lat="44.26805" lon="4.42482">
        <ele>146.17004</ele>
        <time>2020-09-01 14:22:54</time>
      </trkpt>
      <trkpt lat="44.2681" lon="4.42472">
        <ele>147.6847</ele>
        <time>2020-09-01 14:22:57</time>
      </trkpt>
      <trkpt lat="44.26832" lon="4.4244">
        <ele>149.80408</ele>
        <time>2020-09-01 14:23:07</time>
      </trkpt>
      <trkpt lat="44.26861" lon="4.42401">
        <ele>151.65393</ele>
        <time>2020-09-01 14:23:19</time>
      </trkpt>
      <trkpt lat="44.26866" lon="4.42397">
        <ele>151.16357</ele>
        <time>2020-09-01 14:23:23</time>
      </trkpt>
      <trkpt lat="44.26867" lon="4.42397">
        <ele>149.88397</ele>
        <time>2020-09-01 14:23:50</time>
      </trkpt>
      <trkpt lat="44.26868" lon="4.42397">
        <ele>149.6961</ele>
        <time>2020-09-01 14:23:51</time>
      </trkpt>
      <trkpt lat="44.26869" lon="4.42397">
        <ele>149.7185</ele>
        <time>2020-09-01 14:23:55</time>
      </trkpt>
      <trkpt lat="44.2687" lon="4.42397">
        <ele>150.09363</ele>
        <time>2020-09-01 14:23:56</time>
      </trkpt>
      <trkpt lat="44.2688" lon="4.42386">
        <ele>148.1789</ele>
        <time>2020-09-01 14:24:02</time>
      </trkpt>
      <trkpt lat="44.26896" lon="4.42364">
        <ele>148.65485</ele>
        <time>2020-09-01 14:24:10</time>
      </trkpt>
      <trkpt lat="44.26903" lon="4.42356">
        <ele>147.36981</ele>
        <time>2020-09-01 14:24:13</time>
      </trkpt>
      <trkpt lat="44.26965" lon="4.42281">
        <ele>146.35895</ele>
        <time>2020-09-01 14:24:42</time>
      </trkpt>
      <trkpt lat="44.26974" lon="4.42271">
        <ele>146.19702</ele>
        <time>2020-09-01 14:24:46</time>
      </trkpt>
      <trkpt lat="44.26995" lon="4.42243">
        <ele>146.70459</ele>
        <time>2020-09-01 14:24:57</time>
      </trkpt>
      <trkpt lat="44.26997" lon="4.42241">
        <ele>147.4422</ele>
        <time>2020-09-01 14:24:58</time>
      </trkpt>
      <trkpt lat="44.27007" lon="4.42228">
        <ele>148.33447</ele>
        <time>2020-09-01 14:25:04</time>
      </trkpt>
      <trkpt lat="44.27015" lon="4.42216">
        <ele>148.91455</ele>
        <time>2020-09-01 14:25:10</time>
      </trkpt>
      <trkpt lat="44.27018" lon="4.42208">
        <ele>149.29315</ele>
        <time>2020-09-01 14:25:13</time>
      </trkpt>
      <trkpt lat="44.27019" lon="4.42205">
        <ele>149.44739</ele>
        <time>2020-09-01 14:25:14</time>
      </trkpt>
      <trkpt lat="44.27034" lon="4.42183">
        <ele>150.47583</ele>
        <time>2020-09-01 14:25:22</time>
      </trkpt>
      <trkpt lat="44.27046" lon="4.42161">
        <ele>149.1983</ele>
        <time>2020-09-01 14:25:29</time>
      </trkpt>
      <trkpt lat="44.27053" lon="4.42147">
        <ele>149.95087</ele>
        <time>2020-09-01 14:25:34</time>
      </trkpt>
      <trkpt lat="44.27075" lon="4.42098">
        <ele>148.54529</ele>
        <time>2020-09-01 14:25:51</time>
      </trkpt>
      <trkpt lat="44.27092" lon="4.42062">
        <ele>149.65405</ele>
        <time>2020-09-01 14:26:05</time>
      </trkpt>
      <trkpt lat="44.27097" lon="4.42054">
        <ele>149.54388</ele>
        <time>2020-09-01 14:26:10</time>
      </trkpt>
      <trkpt lat="44.27104" lon="4.4204">
        <ele>149.98737</ele>
        <time>2020-09-01 14:26:17</time>
      </trkpt>
      <trkpt lat="44.27105" lon="4.42038">
        <ele>151.37122</ele>
        <time>2020-09-01 14:26:18</time>
      </trkpt>
      <trkpt lat="44.27112" lon="4.42028">
        <ele>151.24493</ele>
        <time>2020-09-01 14:26:23</time>
      </trkpt>
      <trkpt lat="44.27114" lon="4.42022">
        <ele>150.18274</ele>
        <time>2020-09-01 14:26:25</time>
      </trkpt>
      <trkpt lat="44.2712" lon="4.42005">
        <ele>147.65967</ele>
        <time>2020-09-01 14:26:30</time>
      </trkpt>
      <trkpt lat="44.27121" lon="4.42003">
        <ele>147.03662</ele>
        <time>2020-09-01 14:26:31</time>
      </trkpt>
      <trkpt lat="44.27124" lon="4.41996">
        <ele>146.06659</ele>
        <time>2020-09-01 14:26:34</time>
      </trkpt>
      <trkpt lat="44.27129" lon="4.41989">
        <ele>143.7138</ele>
        <time>2020-09-01 14:26:40</time>
      </trkpt>
      <trkpt lat="44.2713" lon="4.41989">
        <ele>142.8227</ele>
        <time>2020-09-01 14:27:01</time>
      </trkpt>
      <trkpt lat="44.27131" lon="4.41989">
        <ele>143.60071</ele>
        <time>2020-09-01 14:27:02</time>
      </trkpt>
      <trkpt lat="44.27131" lon="4.41988">
        <ele>144.7854</ele>
        <time>2020-09-01 14:27:03</time>
      </trkpt>
      <trkpt lat="44.27131" lon="4.41988">
        <ele>144.30322</ele>
        <time>2020-09-01 14:27:04</time>
      </trkpt>
      <trkpt lat="44.27132" lon="4.41987">
        <ele>143.83441</ele>
        <time>2020-09-01 14:27:05</time>
      </trkpt>
      <trkpt lat="44.27134" lon="4.41987">
        <ele>141.9906</ele>
        <time>2020-09-01 14:27:08</time>
      </trkpt>
      <trkpt lat="44.27135" lon="4.41986">
        <ele>141.93402</ele>
        <time>2020-09-01 14:27:10</time>
      </trkpt>
      <trkpt lat="44.27138" lon="4.41985">
        <ele>140.76074</ele>
        <time>2020-09-01 14:27:16</time>
      </trkpt>
      <trkpt lat="44.27139" lon="4.41984">
        <ele>144.79053</ele>
        <time>2020-09-01 14:27:18</time>
      </trkpt>
      <trkpt lat="44.27144" lon="4.41978">
        <ele>145.40161</ele>
        <time>2020-09-01 14:27:28</time>
      </trkpt>
      <trkpt lat="44.27145" lon="4.41975">
        <ele>146.77173</ele>
        <time>2020-09-01 14:27:30</time>
      </trkpt>
      <trkpt lat="44.27146" lon="4.41974">
        <ele>147.43665</ele>
        <time>2020-09-01 14:27:31</time>
      </trkpt>
      <trkpt lat="44.27146" lon="4.41972">
        <ele>148.53394</ele>
        <time>2020-09-01 14:27:32</time>
      </trkpt>
      <trkpt lat="44.27146" lon="4.41971">
        <ele>149.11224</ele>
        <time>2020-09-01 14:27:33</time>
      </trkpt>
      <trkpt lat="44.27146" lon="4.4197">
        <ele>150.16302</ele>
        <time>2020-09-01 14:27:34</time>
      </trkpt>
      <trkpt lat="44.27149" lon="4.41961">
        <ele>152.19037</ele>
        <time>2020-09-01 14:27:41</time>
      </trkpt>
      <trkpt lat="44.27151" lon="4.4195">
        <ele>152.89624</ele>
        <time>2020-09-01 14:27:49</time>
      </trkpt>
      <trkpt lat="44.27153" lon="4.41946">
        <ele>152.11615</ele>
        <time>2020-09-01 14:27:54</time>
      </trkpt>
      <trkpt lat="44.27155" lon="4.41941">
        <ele>152.8288</ele>
        <time>2020-09-01 14:27:59</time>
      </trkpt>
      <trkpt lat="44.27157" lon="4.41936">
        <ele>151.66687</ele>
        <time>2020-09-01 14:28:03</time>
      </trkpt>
      <trkpt lat="44.27157" lon="4.41936">
        <ele>151.77533</ele>
        <time>2020-09-01 14:28:04</time>
      </trkpt>
      <trkpt lat="44.27158" lon="4.41929">
        <ele>153.06403</ele>
        <time>2020-09-01 14:28:09</time>
      </trkpt>
      <trkpt lat="44.27158" lon="4.41922">
        <ele>154.91736</ele>
        <time>2020-09-01 14:28:15</time>
      </trkpt>
      <trkpt lat="44.27161" lon="4.41919">
        <ele>155.06055</ele>
        <time>2020-09-01 14:28:18</time>
      </trkpt>
      <trkpt lat="44.2717" lon="4.41903">
        <ele>156.46619</ele>
        <time>2020-09-01 14:28:36</time>
      </trkpt>
      <trkpt lat="44.2717" lon="4.41902">
        <ele>159.49945</ele>
        <time>2020-09-01 14:28:37</time>
      </trkpt>
      <trkpt lat="44.27171" lon="4.41899">
        <ele>158.76935</ele>
        <time>2020-09-01 14:28:39</time>
      </trkpt>
      <trkpt lat="44.27176" lon="4.41892">
        <ele>159.49945</ele>
        <time>2020-09-01 14:28:46</time>
      </trkpt>
      <trkpt lat="44.27177" lon="4.4189">
        <ele>156.70294</ele>
        <time>2020-09-01 14:28:47</time>
      </trkpt>
      <trkpt lat="44.27182" lon="4.41878">
        <ele>155.66669</ele>
        <time>2020-09-01 14:28:59</time>
      </trkpt>
      <trkpt lat="44.27183" lon="4.41878">
        <ele>155.2555</ele>
        <time>2020-09-01 14:29:00</time>
      </trkpt>
      <trkpt lat="44.27185" lon="4.41875">
        <ele>155.40381</ele>
        <time>2020-09-01 14:29:04</time>
      </trkpt>
      <trkpt lat="44.27188" lon="4.41864">
        <ele>157.32666</ele>
        <time>2020-09-01 14:29:12</time>
      </trkpt>
      <trkpt lat="44.27188" lon="4.41864">
        <ele>157.6253</ele>
        <time>2020-09-01 14:29:13</time>
      </trkpt>
      <trkpt lat="44.27189" lon="4.41861">
        <ele>157.31769</ele>
        <time>2020-09-01 14:29:15</time>
      </trkpt>
      <trkpt lat="44.2719" lon="4.41859">
        <ele>157.31775</ele>
        <time>2020-09-01 14:29:16</time>
      </trkpt>
      <trkpt lat="44.27195" lon="4.41849">
        <ele>161.31866</ele>
        <time>2020-09-01 14:29:25</time>
      </trkpt>
      <trkpt lat="44.272" lon="4.41837">
        <ele>161.39941</ele>
        <time>2020-09-01 14:29:34</time>
      </trkpt>
      <trkpt lat="44.27204" lon="4.41823">
        <ele>162.61603</ele>
        <time>2020-09-01 14:29:45</time>
      </trkpt>
      <trkpt lat="44.27204" lon="4.41823">
        <ele>164.4862</ele>
        <time>2020-09-01 14:29:46</time>
      </trkpt>
      <trkpt lat="44.27205" lon="4.41824">
        <ele>161.17865</ele>
        <time>2020-09-01 14:30:17</time>
      </trkpt>
      <trkpt lat="44.27205" lon="4.41823">
        <ele>161.90063</ele>
        <time>2020-09-01 14:30:18</time>
      </trkpt>
      <trkpt lat="44.27206" lon="4.41822">
        <ele>161.60901</ele>
        <time>2020-09-01 14:30:19</time>
      </trkpt>
      <trkpt lat="44.27206" lon="4.41822">
        <ele>162.02386</ele>
        <time>2020-09-01 14:30:20</time>
      </trkpt>
      <trkpt lat="44.27206" lon="4.4182">
        <ele>162.39777</ele>
        <time>2020-09-01 14:30:58</time>
      </trkpt>
      <trkpt lat="44.27206" lon="4.4182">
        <ele>162.00983</ele>
        <time>2020-09-01 14:31:12</time>
      </trkpt>
      <trkpt lat="44.27206" lon="4.41819">
        <ele>162.08026</ele>
        <time>2020-09-01 14:31:13</time>
      </trkpt>
      <trkpt lat="44.27206" lon="4.41817">
        <ele>163.37</ele>
        <time>2020-09-01 14:31:18</time>
      </trkpt>
      <trkpt lat="44.27208" lon="4.41817">
        <ele>161.16064</ele>
        <time>2020-09-01 14:31:19</time>
      </trkpt>
      <trkpt lat="44.27212" lon="4.4182">
        <ele>158.00604</ele>
        <time>2020-09-01 14:31:31</time>
      </trkpt>
      <trkpt lat="44.27213" lon="4.4182">
        <ele>156.97552</ele>
        <time>2020-09-01 14:31:32</time>
      </trkpt>
      <trkpt lat="44.27213" lon="4.4182">
        <ele>158.01636</ele>
        <time>2020-09-01 14:31:33</time>
      </trkpt>
      <trkpt lat="44.27213" lon="4.4182">
        <ele>158.06958</ele>
        <time>2020-09-01 14:31:34</time>
      </trkpt>
      <trkpt lat="44.27214" lon="4.4182">
        <ele>157.5011</ele>
        <time>2020-09-01 14:31:35</time>
      </trkpt>
      <trkpt lat="44.27214" lon="4.41821">
        <ele>158.78522</ele>
        <time>2020-09-01 14:31:37</time>
      </trkpt>
      <trkpt lat="44.27213" lon="4.41821">
        <ele>159.3783</ele>
        <time>2020-09-01 14:31:40</time>
      </trkpt>
      <trkpt lat="44.27213" lon="4.41821">
        <ele>158.98987</ele>
        <time>2020-09-01 14:31:41</time>
      </trkpt>
      <trkpt lat="44.27213" lon="4.41821">
        <ele>158.72424</ele>
        <time>2020-09-01 14:31:42</time>
      </trkpt>
      <trkpt lat="44.27214" lon="4.41819">
        <ele>158.9372</ele>
        <time>2020-09-01 14:31:50</time>
      </trkpt>
      <trkpt lat="44.27214" lon="4.41819">
        <ele>158.61047</ele>
        <time>2020-09-01 14:31:51</time>
      </trkpt>
      <trkpt lat="44.27216" lon="4.41817">
        <ele>158.96173</ele>
        <time>2020-09-01 14:32:06</time>
      </trkpt>
      <trkpt lat="44.27216" lon="4.41816">
        <ele>160.85608</ele>
        <time>2020-09-01 14:32:07</time>
      </trkpt>
      <trkpt lat="44.27216" lon="4.41816">
        <ele>160.61462</ele>
        <time>2020-09-01 14:32:08</time>
      </trkpt>
      <trkpt lat="44.27217" lon="4.41816">
        <ele>160.37659</ele>
        <time>2020-09-01 14:32:11</time>
      </trkpt>
      <trkpt lat="44.27217" lon="4.41816">
        <ele>160.37958</ele>
        <time>2020-09-01 14:32:12</time>
      </trkpt>
      <trkpt lat="44.27218" lon="4.41816">
        <ele>160.23364</ele>
        <time>2020-09-01 14:32:13</time>
      </trkpt>
      <trkpt lat="44.27218" lon="4.41816">
        <ele>160.27728</ele>
        <time>2020-09-01 14:32:14</time>
      </trkpt>
      <trkpt lat="44.27218" lon="4.41816">
        <ele>160.75024</ele>
        <time>2020-09-01 14:32:15</time>
      </trkpt>
      <trkpt lat="44.2722" lon="4.41816">
        <ele>159.75873</ele>
        <time>2020-09-01 14:32:17</time>
      </trkpt>
      <trkpt lat="44.2722" lon="4.41814">
        <ele>160.08728</ele>
        <time>2020-09-01 14:32:22</time>
      </trkpt>
      <trkpt lat="44.27221" lon="4.41813">
        <ele>160.77795</ele>
        <time>2020-09-01 14:32:24</time>
      </trkpt>
      <trkpt lat="44.27223" lon="4.41811">
        <ele>160.24994</ele>
        <time>2020-09-01 14:32:29</time>
      </trkpt>
      <trkpt lat="44.27223" lon="4.41805">
        <ele>165.36816</ele>
        <time>2020-09-01 14:32:35</time>
      </trkpt>
      <trkpt lat="44.27222" lon="4.418">
        <ele>166.35913</ele>
        <time>2020-09-01 14:32:39</time>
      </trkpt>
      <trkpt lat="44.27222" lon="4.41798">
        <ele>166.4873</ele>
        <time>2020-09-01 14:32:40</time>
      </trkpt>
      <trkpt lat="44.27223" lon="4.41796">
        <ele>166.21313</ele>
        <time>2020-09-01 14:32:42</time>
      </trkpt>
      <trkpt lat="44.27224" lon="4.41796">
        <ele>166.39545</ele>
        <time>2020-09-01 14:32:45</time>
      </trkpt>
      <trkpt lat="44.27223" lon="4.41795">
        <ele>166.17377</ele>
        <time>2020-09-01 14:32:48</time>
      </trkpt>
      <trkpt lat="44.27225" lon="4.41796">
        <ele>167.08667</ele>
        <time>2020-09-01 14:32:56</time>
      </trkpt>
      <trkpt lat="44.27225" lon="4.41796">
        <ele>165.78552</ele>
        <time>2020-09-01 14:32:57</time>
      </trkpt>
      <trkpt lat="44.27226" lon="4.41796">
        <ele>164.11603</ele>
        <time>2020-09-01 14:33:00</time>
      </trkpt>
      <trkpt lat="44.27226" lon="4.41796">
        <ele>164.50256</ele>
        <time>2020-09-01 14:33:01</time>
      </trkpt>
      <trkpt lat="44.27227" lon="4.41797">
        <ele>163.80725</ele>
        <time>2020-09-01 14:33:05</time>
      </trkpt>
      <trkpt lat="44.27227" lon="4.41797">
        <ele>165.78552</ele>
        <time>2020-09-01 14:33:06</time>
      </trkpt>
      <trkpt lat="44.27229" lon="4.418">
        <ele>164.30981</ele>
        <time>2020-09-01 14:33:16</time>
      </trkpt>
      <trkpt lat="44.27229" lon="4.41801">
        <ele>165.03644</ele>
        <time>2020-09-01 14:33:18</time>
      </trkpt>
      <trkpt lat="44.2723" lon="4.41801">
        <ele>166.06714</ele>
        <time>2020-09-01 14:33:22</time>
      </trkpt>
      <trkpt lat="44.27231" lon="4.418">
        <ele>165.82709</ele>
        <time>2020-09-01 14:33:23</time>
      </trkpt>
      <trkpt lat="44.27231" lon="4.41799">
        <ele>166.92358</ele>
        <time>2020-09-01 14:33:24</time>
      </trkpt>
      <trkpt lat="44.27231" lon="4.41797">
        <ele>163.52637</ele>
        <time>2020-09-01 14:33:26</time>
      </trkpt>
      <trkpt lat="44.27231" lon="4.41797">
        <ele>167.38892</ele>
        <time>2020-09-01 14:33:27</time>
      </trkpt>
      <trkpt lat="44.27235" lon="4.41798">
        <ele>167.04736</ele>
        <time>2020-09-01 14:33:33</time>
      </trkpt>
      <trkpt lat="44.27236" lon="4.41798">
        <ele>168.06842</ele>
        <time>2020-09-01 14:33:35</time>
      </trkpt>
      <trkpt lat="44.27238" lon="4.41798">
        <ele>168.08984</ele>
        <time>2020-09-01 14:33:37</time>
      </trkpt>
      <trkpt lat="44.27238" lon="4.41797">
        <ele>168.99512</ele>
        <time>2020-09-01 14:33:48</time>
      </trkpt>
      <trkpt lat="44.2724" lon="4.41795">
        <ele>169.3092</ele>
        <time>2020-09-01 14:33:50</time>
      </trkpt>
      <trkpt lat="44.2724" lon="4.41794">
        <ele>168.99628</ele>
        <time>2020-09-01 14:33:52</time>
      </trkpt>
      <trkpt lat="44.2724" lon="4.41795">
        <ele>168.83154</ele>
        <time>2020-09-01 14:34:11</time>
      </trkpt>
      <trkpt lat="44.27241" lon="4.41789">
        <ele>169.63373</ele>
        <time>2020-09-01 14:34:14</time>
      </trkpt>
      <trkpt lat="44.27242" lon="4.41786">
        <ele>170.14691</ele>
        <time>2020-09-01 14:34:15</time>
      </trkpt>
      <trkpt lat="44.27243" lon="4.41779">
        <ele>170.90277</ele>
        <time>2020-09-01 14:34:17</time>
      </trkpt>
      <trkpt lat="44.27257" lon="4.41714">
        <ele>170.15088</ele>
        <time>2020-09-01 14:34:38</time>
      </trkpt>
      <trkpt lat="44.27256" lon="4.41712">
        <ele>170.7995</ele>
        <time>2020-09-01 14:34:53</time>
      </trkpt>
      <trkpt lat="44.27256" lon="4.41708">
        <ele>171.01025</ele>
        <time>2020-09-01 14:34:55</time>
      </trkpt>
      <trkpt lat="44.27256" lon="4.41705">
        <ele>170.74115</ele>
        <time>2020-09-01 14:34:56</time>
      </trkpt>
      <trkpt lat="44.27279" lon="4.41608">
        <ele>168.94226</ele>
        <time>2020-09-01 14:35:14</time>
      </trkpt>
      <trkpt lat="44.27288" lon="4.41583">
        <ele>169.6914</ele>
        <time>2020-09-01 14:35:18</time>
      </trkpt>
      <trkpt lat="44.27295" lon="4.41571">
        <ele>169.51587</ele>
        <time>2020-09-01 14:35:20</time>
      </trkpt>
      <trkpt lat="44.27345" lon="4.41508">
        <ele>166.57544</ele>
        <time>2020-09-01 14:35:30</time>
      </trkpt>
      <trkpt lat="44.27358" lon="4.41498">
        <ele>164.00323</ele>
        <time>2020-09-01 14:35:32</time>
      </trkpt>
      <trkpt lat="44.2738" lon="4.41484">
        <ele>162.53613</ele>
        <time>2020-09-01 14:35:35</time>
      </trkpt>
      <trkpt lat="44.27412" lon="4.41468">
        <ele>159.86804</ele>
        <time>2020-09-01 14:35:39</time>
      </trkpt>
      <trkpt lat="44.27426" lon="4.41454">
        <ele>159.99365</ele>
        <time>2020-09-01 14:35:41</time>
      </trkpt>
      <trkpt lat="44.27516" lon="4.41352">
        <ele>152.56927</ele>
        <time>2020-09-01 14:35:54</time>
      </trkpt>
      <trkpt lat="44.27521" lon="4.41341">
        <ele>152.35095</ele>
        <time>2020-09-01 14:35:55</time>
      </trkpt>
      <trkpt lat="44.2753" lon="4.41317">
        <ele>151.28186</ele>
        <time>2020-09-01 14:35:57</time>
      </trkpt>
      <trkpt lat="44.27536" lon="4.41292">
        <ele>150.89282</ele>
        <time>2020-09-01 14:35:59</time>
      </trkpt>
      <trkpt lat="44.27537" lon="4.41263">
        <ele>150.64417</ele>
        <time>2020-09-01 14:36:01</time>
      </trkpt>
      <trkpt lat="44.27536" lon="4.41239">
        <ele>149.75922</ele>
        <time>2020-09-01 14:36:03</time>
      </trkpt>
      <trkpt lat="44.27533" lon="4.41215">
        <ele>148.6983</ele>
        <time>2020-09-01 14:36:05</time>
      </trkpt>
      <trkpt lat="44.27528" lon="4.41197">
        <ele>148.4328</ele>
        <time>2020-09-01 14:36:07</time>
      </trkpt>
      <trkpt lat="44.27506" lon="4.41124">
        <ele>151.70404</ele>
        <time>2020-09-01 14:36:17</time>
      </trkpt>
      <trkpt lat="44.27502" lon="4.41101">
        <ele>151.4513</ele>
        <time>2020-09-01 14:36:21</time>
      </trkpt>
      <trkpt lat="44.27502" lon="4.41095">
        <ele>151.38727</ele>
        <time>2020-09-01 14:36:22</time>
      </trkpt>
      <trkpt lat="44.27504" lon="4.41047">
        <ele>155.37573</ele>
        <time>2020-09-01 14:36:33</time>
      </trkpt>
      <trkpt lat="44.27505" lon="4.41039">
        <ele>156.03833</ele>
        <time>2020-09-01 14:36:35</time>
      </trkpt>
      <trkpt lat="44.27505" lon="4.41027">
        <ele>156.13464</ele>
        <time>2020-09-01 14:36:38</time>
      </trkpt>
      <trkpt lat="44.27517" lon="4.4096">
        <ele>155.57019</ele>
        <time>2020-09-01 14:36:56</time>
      </trkpt>
      <trkpt lat="44.27525" lon="4.40936">
        <ele>158.8247</ele>
        <time>2020-09-01 14:37:03</time>
      </trkpt>
      <trkpt lat="44.27536" lon="4.40916">
        <ele>158.81757</ele>
        <time>2020-09-01 14:37:10</time>
      </trkpt>
      <trkpt lat="44.2754" lon="4.40911">
        <ele>159.8982</ele>
        <time>2020-09-01 14:37:12</time>
      </trkpt>
      <trkpt lat="44.27545" lon="4.40904">
        <ele>160.6388</ele>
        <time>2020-09-01 14:37:15</time>
      </trkpt>
      <trkpt lat="44.2755" lon="4.40896">
        <ele>161.182</ele>
        <time>2020-09-01 14:37:18</time>
      </trkpt>
      <trkpt lat="44.27564" lon="4.40874">
        <ele>161.08789</ele>
        <time>2020-09-01 14:37:27</time>
      </trkpt>
      <trkpt lat="44.27584" lon="4.40842">
        <ele>165.09253</ele>
        <time>2020-09-01 14:37:41</time>
      </trkpt>
      <trkpt lat="44.27588" lon="4.40832">
        <ele>165.59747</ele>
        <time>2020-09-01 14:37:44</time>
      </trkpt>
      <trkpt lat="44.27591" lon="4.40817">
        <ele>166.73639</ele>
        <time>2020-09-01 14:37:49</time>
      </trkpt>
      <trkpt lat="44.27592" lon="4.40809">
        <ele>167.22986</ele>
        <time>2020-09-01 14:37:52</time>
      </trkpt>
      <trkpt lat="44.27593" lon="4.40807">
        <ele>167.95178</ele>
        <time>2020-09-01 14:37:53</time>
      </trkpt>
      <trkpt lat="44.27594" lon="4.4079">
        <ele>170.36554</ele>
        <time>2020-09-01 14:37:59</time>
      </trkpt>
      <trkpt lat="44.27594" lon="4.40783">
        <ele>171.65936</ele>
        <time>2020-09-01 14:38:02</time>
      </trkpt>
      <trkpt lat="44.27594" lon="4.4078">
        <ele>172.70844</ele>
        <time>2020-09-01 14:38:03</time>
      </trkpt>
      <trkpt lat="44.27593" lon="4.4077">
        <ele>172.50421</ele>
        <time>2020-09-01 14:38:07</time>
      </trkpt>
      <trkpt lat="44.2759" lon="4.40757">
        <ele>174.45941</ele>
        <time>2020-09-01 14:38:12</time>
      </trkpt>
      <trkpt lat="44.27587" lon="4.40748">
        <ele>173.90149</ele>
        <time>2020-09-01 14:38:15</time>
      </trkpt>
      <trkpt lat="44.27583" lon="4.4074">
        <ele>173.40283</ele>
        <time>2020-09-01 14:38:18</time>
      </trkpt>
      <trkpt lat="44.27577" lon="4.40728">
        <ele>173.50067</ele>
        <time>2020-09-01 14:38:23</time>
      </trkpt>
      <trkpt lat="44.27576" lon="4.40725">
        <ele>173.80145</ele>
        <time>2020-09-01 14:38:24</time>
      </trkpt>
      <trkpt lat="44.27561" lon="4.40699">
        <ele>173.90363</ele>
        <time>2020-09-01 14:38:33</time>
      </trkpt>
      <trkpt lat="44.27547" lon="4.40666">
        <ele>177.44568</ele>
        <time>2020-09-01 14:38:43</time>
      </trkpt>
      <trkpt lat="44.27533" lon="4.40623">
        <ele>178.91724</ele>
        <time>2020-09-01 14:38:55</time>
      </trkpt>
      <trkpt lat="44.27531" lon="4.4061">
        <ele>179.56525</ele>
        <time>2020-09-01 14:38:58</time>
      </trkpt>
      <trkpt lat="44.2753" lon="4.40597">
        <ele>178.6676</ele>
        <time>2020-09-01 14:39:01</time>
      </trkpt>
      <trkpt lat="44.2753" lon="4.40576">
        <ele>179.3318</ele>
        <time>2020-09-01 14:39:06</time>
      </trkpt>
      <trkpt lat="44.27535" lon="4.40555">
        <ele>180.1817</ele>
        <time>2020-09-01 14:39:11</time>
      </trkpt>
      <trkpt lat="44.27538" lon="4.40546">
        <ele>181.1159</ele>
        <time>2020-09-01 14:39:13</time>
      </trkpt>
      <trkpt lat="44.27546" lon="4.40528">
        <ele>181.7024</ele>
        <time>2020-09-01 14:39:17</time>
      </trkpt>
      <trkpt lat="44.27548" lon="4.40523">
        <ele>181.7232</ele>
        <time>2020-09-01 14:39:18</time>
      </trkpt>
      <trkpt lat="44.27562" lon="4.40489">
        <ele>181.7024</ele>
        <time>2020-09-01 14:39:26</time>
      </trkpt>
      <trkpt lat="44.27581" lon="4.40431">
        <ele>185.58655</ele>
        <time>2020-09-01 14:39:41</time>
      </trkpt>
      <trkpt lat="44.27583" lon="4.40414">
        <ele>186.07861</ele>
        <time>2020-09-01 14:39:45</time>
      </trkpt>
      <trkpt lat="44.27587" lon="4.40336">
        <ele>187.69037</ele>
        <time>2020-09-01 14:40:03</time>
      </trkpt>
      <trkpt lat="44.27587" lon="4.40296">
        <ele>189.52844</ele>
        <time>2020-09-01 14:40:13</time>
      </trkpt>
      <trkpt lat="44.27589" lon="4.40283">
        <ele>189.15015</ele>
        <time>2020-09-01 14:40:16</time>
      </trkpt>
      <trkpt lat="44.27591" lon="4.40275">
        <ele>190.63904</ele>
        <time>2020-09-01 14:40:18</time>
      </trkpt>
      <trkpt lat="44.27597" lon="4.40258">
        <ele>191.43329</ele>
        <time>2020-09-01 14:40:22</time>
      </trkpt>
      <trkpt lat="44.27603" lon="4.40246">
        <ele>191.3695</ele>
        <time>2020-09-01 14:40:25</time>
      </trkpt>
      <trkpt lat="44.27615" lon="4.4023">
        <ele>193.02368</ele>
        <time>2020-09-01 14:40:30</time>
      </trkpt>
      <trkpt lat="44.27627" lon="4.40222">
        <ele>195.71735</ele>
        <time>2020-09-01 14:40:34</time>
      </trkpt>
      <trkpt lat="44.27635" lon="4.40216">
        <ele>197.22058</ele>
        <time>2020-09-01 14:40:37</time>
      </trkpt>
      <trkpt lat="44.27661" lon="4.4019">
        <ele>198.42944</ele>
        <time>2020-09-01 14:40:48</time>
      </trkpt>
      <trkpt lat="44.27671" lon="4.40174">
        <ele>200.53809</ele>
        <time>2020-09-01 14:40:53</time>
      </trkpt>
      <trkpt lat="44.27689" lon="4.40142">
        <ele>201.43427</ele>
        <time>2020-09-01 14:41:03</time>
      </trkpt>
      <trkpt lat="44.27699" lon="4.40117">
        <ele>202.73315</ele>
        <time>2020-09-01 14:41:10</time>
      </trkpt>
      <trkpt lat="44.2772" lon="4.40039">
        <ele>209.11383</ele>
        <time>2020-09-01 14:41:30</time>
      </trkpt>
      <trkpt lat="44.27727" lon="4.40026">
        <ele>209.9519</ele>
        <time>2020-09-01 14:41:34</time>
      </trkpt>
      <trkpt lat="44.27734" lon="4.40018">
        <ele>211.54297</ele>
        <time>2020-09-01 14:41:37</time>
      </trkpt>
      <trkpt lat="44.27745" lon="4.40007">
        <ele>213.27869</ele>
        <time>2020-09-01 14:41:42</time>
      </trkpt>
      <trkpt lat="44.27754" lon="4.39999">
        <ele>212.00969</ele>
        <time>2020-09-01 14:41:46</time>
      </trkpt>
      <trkpt lat="44.27767" lon="4.39992">
        <ele>215.70813</ele>
        <time>2020-09-01 14:41:51</time>
      </trkpt>
      <trkpt lat="44.27781" lon="4.39989">
        <ele>214.99438</ele>
        <time>2020-09-01 14:41:56</time>
      </trkpt>
      <trkpt lat="44.27797" lon="4.39988">
        <ele>218.40222</ele>
        <time>2020-09-01 14:42:02</time>
      </trkpt>
      <trkpt lat="44.278" lon="4.39988">
        <ele>218.84662</ele>
        <time>2020-09-01 14:42:03</time>
      </trkpt>
      <trkpt lat="44.27879" lon="4.39993">
        <ele>222.93518</ele>
        <time>2020-09-01 14:42:31</time>
      </trkpt>
      <trkpt lat="44.27882" lon="4.39993">
        <ele>222.79553</ele>
        <time>2020-09-01 14:42:32</time>
      </trkpt>
      <trkpt lat="44.27899" lon="4.39994">
        <ele>223.60962</ele>
        <time>2020-09-01 14:42:38</time>
      </trkpt>
      <trkpt lat="44.27907" lon="4.39995">
        <ele>223.01868</ele>
        <time>2020-09-01 14:42:41</time>
      </trkpt>
      <trkpt lat="44.27918" lon="4.39992">
        <ele>223.58398</ele>
        <time>2020-09-01 14:42:45</time>
      </trkpt>
      <trkpt lat="44.27933" lon="4.39986">
        <ele>223.48462</ele>
        <time>2020-09-01 14:42:51</time>
      </trkpt>
      <trkpt lat="44.27947" lon="4.39978">
        <ele>223.74689</ele>
        <time>2020-09-01 14:42:57</time>
      </trkpt>
      <trkpt lat="44.27994" lon="4.39935">
        <ele>226.78204</ele>
        <time>2020-09-01 14:43:18</time>
      </trkpt>
      <trkpt lat="44.28" lon="4.39928">
        <ele>227.49475</ele>
        <time>2020-09-01 14:43:21</time>
      </trkpt>
      <trkpt lat="44.28015" lon="4.39912">
        <ele>228.16492</ele>
        <time>2020-09-01 14:43:28</time>
      </trkpt>
      <trkpt lat="44.28021" lon="4.39906">
        <ele>229.07678</ele>
        <time>2020-09-01 14:43:31</time>
      </trkpt>
      <trkpt lat="44.28025" lon="4.39902">
        <ele>229.16345</ele>
        <time>2020-09-01 14:43:33</time>
      </trkpt>
      <trkpt lat="44.28035" lon="4.3989">
        <ele>231.34381</ele>
        <time>2020-09-01 14:43:38</time>
      </trkpt>
      <trkpt lat="44.28039" lon="4.39885">
        <ele>231.56982</ele>
        <time>2020-09-01 14:43:40</time>
      </trkpt>
      <trkpt lat="44.28044" lon="4.39877">
        <ele>233.17682</ele>
        <time>2020-09-01 14:43:43</time>
      </trkpt>
      <trkpt lat="44.28049" lon="4.39868">
        <ele>230.71613</ele>
        <time>2020-09-01 14:43:46</time>
      </trkpt>
      <trkpt lat="44.2805" lon="4.39861">
        <ele>235.20331</ele>
        <time>2020-09-01 14:43:48</time>
      </trkpt>
      <trkpt lat="44.28055" lon="4.39844">
        <ele>235.19812</ele>
        <time>2020-09-01 14:43:53</time>
      </trkpt>
      <trkpt lat="44.28057" lon="4.39838">
        <ele>235.67053</ele>
        <time>2020-09-01 14:43:55</time>
      </trkpt>
      <trkpt lat="44.28062" lon="4.39794">
        <ele>236.40015</ele>
        <time>2020-09-01 14:44:06</time>
      </trkpt>
      <trkpt lat="44.28058" lon="4.39756">
        <ele>234.14825</ele>
        <time>2020-09-01 14:44:16</time>
      </trkpt>
      <trkpt lat="44.28053" lon="4.39714">
        <ele>240.58313</ele>
        <time>2020-09-01 14:44:27</time>
      </trkpt>
      <trkpt lat="44.28054" lon="4.39694">
        <ele>242.4187</ele>
        <time>2020-09-01 14:44:32</time>
      </trkpt>
      <trkpt lat="44.28056" lon="4.39682">
        <ele>242.44678</ele>
        <time>2020-09-01 14:44:35</time>
      </trkpt>
      <trkpt lat="44.2806" lon="4.3967">
        <ele>243.17181</ele>
        <time>2020-09-01 14:44:38</time>
      </trkpt>
      <trkpt lat="44.28063" lon="4.39663">
        <ele>242.95746</ele>
        <time>2020-09-01 14:44:40</time>
      </trkpt>
      <trkpt lat="44.2807" lon="4.3965">
        <ele>243.97882</ele>
        <time>2020-09-01 14:44:44</time>
      </trkpt>
      <trkpt lat="44.28075" lon="4.39644">
        <ele>242.97705</ele>
        <time>2020-09-01 14:44:46</time>
      </trkpt>
      <trkpt lat="44.28082" lon="4.39638">
        <ele>246.31439</ele>
        <time>2020-09-01 14:44:49</time>
      </trkpt>
      <trkpt lat="44.28093" lon="4.39631">
        <ele>247.95203</ele>
        <time>2020-09-01 14:44:53</time>
      </trkpt>
      <trkpt lat="44.28117" lon="4.3962">
        <ele>250.07861</ele>
        <time>2020-09-01 14:45:01</time>
      </trkpt>
      <trkpt lat="44.28169" lon="4.39597">
        <ele>250.4071</ele>
        <time>2020-09-01 14:45:19</time>
      </trkpt>
      <trkpt lat="44.28182" lon="4.39587">
        <ele>252.31415</ele>
        <time>2020-09-01 14:45:24</time>
      </trkpt>
      <trkpt lat="44.28195" lon="4.39574">
        <ele>253.01105</ele>
        <time>2020-09-01 14:45:29</time>
      </trkpt>
      <trkpt lat="44.28204" lon="4.39562">
        <ele>253.52216</ele>
        <time>2020-09-01 14:45:33</time>
      </trkpt>
      <trkpt lat="44.28212" lon="4.39546">
        <ele>254.6864</ele>
        <time>2020-09-01 14:45:37</time>
      </trkpt>
      <trkpt lat="44.28219" lon="4.39524">
        <ele>256.24634</ele>
        <time>2020-09-01 14:45:42</time>
      </trkpt>
      <trkpt lat="44.28224" lon="4.39506">
        <ele>254.6864</ele>
        <time>2020-09-01 14:45:46</time>
      </trkpt>
      <trkpt lat="44.28234" lon="4.39465">
        <ele>258.5067</ele>
        <time>2020-09-01 14:45:55</time>
      </trkpt>
      <trkpt lat="44.28237" lon="4.3945">
        <ele>257.6505</ele>
        <time>2020-09-01 14:45:58</time>
      </trkpt>
      <trkpt lat="44.28252" lon="4.39356">
        <ele>262.87958</ele>
        <time>2020-09-01 14:46:18</time>
      </trkpt>
      <trkpt lat="44.28253" lon="4.39331">
        <ele>264.313</ele>
        <time>2020-09-01 14:46:23</time>
      </trkpt>
      <trkpt lat="44.28253" lon="4.39311">
        <ele>263.81915</ele>
        <time>2020-09-01 14:46:27</time>
      </trkpt>
      <trkpt lat="44.2825" lon="4.39291">
        <ele>264.86914</ele>
        <time>2020-09-01 14:46:31</time>
      </trkpt>
      <trkpt lat="44.28238" lon="4.3926">
        <ele>265.99768</ele>
        <time>2020-09-01 14:46:38</time>
      </trkpt>
      <trkpt lat="44.28226" lon="4.39239">
        <ele>265.4176</ele>
        <time>2020-09-01 14:46:43</time>
      </trkpt>
      <trkpt lat="44.28154" lon="4.39121">
        <ele>268.6457</ele>
        <time>2020-09-01 14:47:13</time>
      </trkpt>
      <trkpt lat="44.28145" lon="4.39105">
        <ele>269.93665</ele>
        <time>2020-09-01 14:47:17</time>
      </trkpt>
      <trkpt lat="44.28134" lon="4.39077">
        <ele>271.0387</ele>
        <time>2020-09-01 14:47:23</time>
      </trkpt>
      <trkpt lat="44.28127" lon="4.39051">
        <ele>272.60443</ele>
        <time>2020-09-01 14:47:28</time>
      </trkpt>
      <trkpt lat="44.28124" lon="4.39031">
        <ele>275.36975</ele>
        <time>2020-09-01 14:47:32</time>
      </trkpt>
      <trkpt lat="44.28123" lon="4.39026">
        <ele>275.812</ele>
        <time>2020-09-01 14:47:33</time>
      </trkpt>
      <trkpt lat="44.28122" lon="4.39021">
        <ele>276.27045</ele>
        <time>2020-09-01 14:47:34</time>
      </trkpt>
      <trkpt lat="44.2812" lon="4.39012">
        <ele>272.6891</ele>
        <time>2020-09-01 14:47:36</time>
      </trkpt>
      <trkpt lat="44.28112" lon="4.38978">
        <ele>277.3203</ele>
        <time>2020-09-01 14:47:43</time>
      </trkpt>
      <trkpt lat="44.28106" lon="4.38965">
        <ele>276.41418</ele>
        <time>2020-09-01 14:47:46</time>
      </trkpt>
      <trkpt lat="44.28101" lon="4.38952">
        <ele>280.77576</ele>
        <time>2020-09-01 14:47:49</time>
      </trkpt>
      <trkpt lat="44.28042" lon="4.3885">
        <ele>281.28412</ele>
        <time>2020-09-01 14:48:14</time>
      </trkpt>
      <trkpt lat="44.28031" lon="4.38832">
        <ele>281.85706</ele>
        <time>2020-09-01 14:48:19</time>
      </trkpt>
      <trkpt lat="44.28005" lon="4.38786">
        <ele>285.70837</ele>
        <time>2020-09-01 14:48:32</time>
      </trkpt>
      <trkpt lat="44.27996" lon="4.38774">
        <ele>283.7478</ele>
        <time>2020-09-01 14:48:36</time>
      </trkpt>
      <trkpt lat="44.27952" lon="4.38731">
        <ele>289.9414</ele>
        <time>2020-09-01 14:48:50</time>
      </trkpt>
      <trkpt lat="44.27944" lon="4.38717">
        <ele>288.25085</ele>
        <time>2020-09-01 14:48:53</time>
      </trkpt>
      <trkpt lat="44.27919" lon="4.38654">
        <ele>288.52954</ele>
        <time>2020-09-01 14:49:05</time>
      </trkpt>
      <trkpt lat="44.27905" lon="4.38631">
        <ele>289.11053</ele>
        <time>2020-09-01 14:49:10</time>
      </trkpt>
      <trkpt lat="44.27897" lon="4.38624">
        <ele>291.0537</ele>
        <time>2020-09-01 14:49:12</time>
      </trkpt>
      <trkpt lat="44.27888" lon="4.38617">
        <ele>289.93127</ele>
        <time>2020-09-01 14:49:14</time>
      </trkpt>
      <trkpt lat="44.27867" lon="4.38601">
        <ele>289.27527</ele>
        <time>2020-09-01 14:49:19</time>
      </trkpt>
      <trkpt lat="44.27861" lon="4.38592">
        <ele>289.24854</ele>
        <time>2020-09-01 14:49:21</time>
      </trkpt>
      <trkpt lat="44.27853" lon="4.38574">
        <ele>290.00732</ele>
        <time>2020-09-01 14:49:24</time>
      </trkpt>
      <trkpt lat="44.27844" lon="4.3855">
        <ele>289.9353</ele>
        <time>2020-09-01 14:49:28</time>
      </trkpt>
      <trkpt lat="44.27841" lon="4.38529">
        <ele>290.82654</ele>
        <time>2020-09-01 14:49:31</time>
      </trkpt>
      <trkpt lat="44.2784" lon="4.38509">
        <ele>291.59167</ele>
        <time>2020-09-01 14:49:34</time>
      </trkpt>
      <trkpt lat="44.27842" lon="4.38481">
        <ele>293.13446</ele>
        <time>2020-09-01 14:49:38</time>
      </trkpt>
      <trkpt lat="44.27845" lon="4.38468">
        <ele>294.1939</ele>
        <time>2020-09-01 14:49:40</time>
      </trkpt>
      <trkpt lat="44.27866" lon="4.38396">
        <ele>294.06305</ele>
        <time>2020-09-01 14:49:51</time>
      </trkpt>
      <trkpt lat="44.27873" lon="4.38376">
        <ele>293.90918</ele>
        <time>2020-09-01 14:49:54</time>
      </trkpt>
      <trkpt lat="44.2789" lon="4.38312">
        <ele>294.37756</ele>
        <time>2020-09-01 14:50:05</time>
      </trkpt>
      <trkpt lat="44.27895" lon="4.38255">
        <ele>294.13428</ele>
        <time>2020-09-01 14:50:13</time>
      </trkpt>
      <trkpt lat="44.279" lon="4.38209">
        <ele>296.81226</ele>
        <time>2020-09-01 14:50:19</time>
      </trkpt>
      <trkpt lat="44.27912" lon="4.38169">
        <ele>299.16058</ele>
        <time>2020-09-01 14:50:25</time>
      </trkpt>
      <trkpt lat="44.27943" lon="4.38095">
        <ele>298.52673</ele>
        <time>2020-09-01 14:50:36</time>
      </trkpt>
      <trkpt lat="44.27954" lon="4.38079">
        <ele>292.78418</ele>
        <time>2020-09-01 14:50:39</time>
      </trkpt>
      <trkpt lat="44.2797" lon="4.38058">
        <ele>292.97144</ele>
        <time>2020-09-01 14:50:43</time>
      </trkpt>
      <trkpt lat="44.28027" lon="4.38012">
        <ele>293.64844</ele>
        <time>2020-09-01 14:50:54</time>
      </trkpt>
      <trkpt lat="44.28064" lon="4.37952">
        <ele>294.06714</ele>
        <time>2020-09-01 14:51:03</time>
      </trkpt>
      <trkpt lat="44.28091" lon="4.37908">
        <ele>296.66498</ele>
        <time>2020-09-01 14:51:10</time>
      </trkpt>
      <trkpt lat="44.28105" lon="4.37891">
        <ele>296.52332</ele>
        <time>2020-09-01 14:51:13</time>
      </trkpt>
      <trkpt lat="44.28124" lon="4.37874">
        <ele>295.71295</ele>
        <time>2020-09-01 14:51:17</time>
      </trkpt>
      <trkpt lat="44.28138" lon="4.37866">
        <ele>296.30585</ele>
        <time>2020-09-01 14:51:20</time>
      </trkpt>
      <trkpt lat="44.2815" lon="4.37862">
        <ele>296.02393</ele>
        <time>2020-09-01 14:51:22</time>
      </trkpt>
      <trkpt lat="44.28167" lon="4.37859">
        <ele>293.59338</ele>
        <time>2020-09-01 14:51:25</time>
      </trkpt>
      <trkpt lat="44.28204" lon="4.37858">
        <ele>292.94983</ele>
        <time>2020-09-01 14:51:31</time>
      </trkpt>
      <trkpt lat="44.28242" lon="4.37858">
        <ele>291.6256</ele>
        <time>2020-09-01 14:51:37</time>
      </trkpt>
      <trkpt lat="44.28256" lon="4.37856">
        <ele>290.46484</ele>
        <time>2020-09-01 14:51:39</time>
      </trkpt>
      <trkpt lat="44.28269" lon="4.37856">
        <ele>290.5865</ele>
        <time>2020-09-01 14:51:41</time>
      </trkpt>
      <trkpt lat="44.28283" lon="4.37855">
        <ele>290.7129</ele>
        <time>2020-09-01 14:51:43</time>
      </trkpt>
      <trkpt lat="44.28295" lon="4.37854">
        <ele>290.56635</ele>
        <time>2020-09-01 14:51:45</time>
      </trkpt>
      <trkpt lat="44.28323" lon="4.37855">
        <ele>289.38184</ele>
        <time>2020-09-01 14:51:49</time>
      </trkpt>
      <trkpt lat="44.28342" lon="4.37855">
        <ele>288.16797</ele>
        <time>2020-09-01 14:51:52</time>
      </trkpt>
      <trkpt lat="44.28382" lon="4.37853">
        <ele>288.34668</ele>
        <time>2020-09-01 14:51:58</time>
      </trkpt>
      <trkpt lat="44.28395" lon="4.37854">
        <ele>288.125</ele>
        <time>2020-09-01 14:52:00</time>
      </trkpt>
      <trkpt lat="44.28409" lon="4.37854">
        <ele>288.9026</ele>
        <time>2020-09-01 14:52:02</time>
      </trkpt>
      <trkpt lat="44.28439" lon="4.37855">
        <ele>288.90826</ele>
        <time>2020-09-01 14:52:07</time>
      </trkpt>
      <trkpt lat="44.28459" lon="4.37853">
        <ele>290.35974</ele>
        <time>2020-09-01 14:52:11</time>
      </trkpt>
      <trkpt lat="44.28471" lon="4.37853">
        <ele>290.82843</ele>
        <time>2020-09-01 14:52:14</time>
      </trkpt>
      <trkpt lat="44.28476" lon="4.37853">
        <ele>288.90826</ele>
        <time>2020-09-01 14:52:16</time>
      </trkpt>
      <trkpt lat="44.28479" lon="4.37852">
        <ele>289.16675</ele>
        <time>2020-09-01 14:52:18</time>
      </trkpt>
      <trkpt lat="44.2848" lon="4.37851">
        <ele>291.47937</ele>
        <time>2020-09-01 14:52:28</time>
      </trkpt>
      <trkpt lat="44.28479" lon="4.37848">
        <ele>292.1245</ele>
        <time>2020-09-01 14:52:30</time>
      </trkpt>
      <trkpt lat="44.28476" lon="4.37849">
        <ele>292.2307</ele>
        <time>2020-09-01 14:52:31</time>
      </trkpt>
      <trkpt lat="44.28474" lon="4.3785">
        <ele>292.0274</ele>
        <time>2020-09-01 14:52:32</time>
      </trkpt>
      <trkpt lat="44.28473" lon="4.37853">
        <ele>292.27905</ele>
        <time>2020-09-01 14:52:33</time>
      </trkpt>
      <trkpt lat="44.28472" lon="4.37856">
        <ele>291.43152</ele>
        <time>2020-09-01 14:52:36</time>
      </trkpt>
      <trkpt lat="44.28472" lon="4.37857">
        <ele>292.16553</ele>
        <time>2020-09-01 14:52:40</time>
      </trkpt>
      <trkpt lat="44.28471" lon="4.37857">
        <ele>291.985</ele>
        <time>2020-09-01 14:52:42</time>
      </trkpt>
      <trkpt lat="44.28472" lon="4.37857">
        <ele>290.39905</ele>
        <time>2020-09-01 14:52:59</time>
      </trkpt>
      <trkpt lat="44.28472" lon="4.37857">
        <ele>290.6626</ele>
        <time>2020-09-01 14:53:00</time>
      </trkpt>
      <trkpt lat="44.28471" lon="4.37857">
        <ele>292.13953</ele>
        <time>2020-09-01 14:56:00</time>
      </trkpt>
      <trkpt lat="44.28472" lon="4.37858">
        <ele>291.83258</ele>
        <time>2020-09-01 14:56:01</time>
      </trkpt>
      <trkpt lat="44.28472" lon="4.37858">
        <ele>291.81555</ele>
        <time>2020-09-01 14:56:04</time>
      </trkpt>
      <trkpt lat="44.28473" lon="4.37857">
        <ele>291.9989</ele>
        <time>2020-09-01 14:56:05</time>
      </trkpt>
      <trkpt lat="44.28473" lon="4.37858">
        <ele>292.88855</ele>
        <time>2020-09-01 14:56:43</time>
      </trkpt>
      <trkpt lat="44.28473" lon="4.37858">
        <ele>292.85358</ele>
        <time>2020-09-01 14:57:22</time>
      </trkpt>
      <trkpt lat="44.28473" lon="4.37858">
        <ele>292.66272</ele>
        <time>2020-09-01 14:57:53</time>
      </trkpt>
      <trkpt lat="44.28474" lon="4.37858">
        <ele>292.40204</ele>
        <time>2020-09-01 14:57:55</time>
      </trkpt>
      <trkpt lat="44.28476" lon="4.37856">
        <ele>292.25952</ele>
        <time>2020-09-01 14:57:59</time>
      </trkpt>
      <trkpt lat="44.28476" lon="4.37855">
        <ele>291.76855</ele>
        <time>2020-09-01 14:58:01</time>
      </trkpt>
      <trkpt lat="44.28477" lon="4.37855">
        <ele>292.17053</ele>
        <time>2020-09-01 14:58:02</time>
      </trkpt>
      <trkpt lat="44.28476" lon="4.37855">
        <ele>292.64764</ele>
        <time>2020-09-01 14:58:06</time>
      </trkpt>
      <trkpt lat="44.28477" lon="4.37852">
        <ele>292.2417</ele>
        <time>2020-09-01 14:58:08</time>
      </trkpt>
      <trkpt lat="44.28483" lon="4.37838">
        <ele>291.15015</ele>
        <time>2020-09-01 14:58:13</time>
      </trkpt>
      <trkpt lat="44.28489" lon="4.37824">
        <ele>290.4489</ele>
        <time>2020-09-01 14:58:17</time>
      </trkpt>
      <trkpt lat="44.28493" lon="4.37812">
        <ele>290.65588</ele>
        <time>2020-09-01 14:58:20</time>
      </trkpt>
      <trkpt lat="44.28494" lon="4.37804">
        <ele>289.81628</ele>
        <time>2020-09-01 14:58:22</time>
      </trkpt>
      <trkpt lat="44.28493" lon="4.37791">
        <ele>289.80066</ele>
        <time>2020-09-01 14:58:25</time>
      </trkpt>
      <trkpt lat="44.28492" lon="4.37782">
        <ele>289.9359</ele>
        <time>2020-09-01 14:58:27</time>
      </trkpt>
      <trkpt lat="44.28475" lon="4.37689">
        <ele>287.5423</ele>
        <time>2020-09-01 14:58:46</time>
      </trkpt>
      <trkpt lat="44.28475" lon="4.37657">
        <ele>288.78174</ele>
        <time>2020-09-01 14:58:51</time>
      </trkpt>
      <trkpt lat="44.28478" lon="4.37637">
        <ele>289.0736</ele>
        <time>2020-09-01 14:58:54</time>
      </trkpt>
      <trkpt lat="44.28485" lon="4.37611">
        <ele>287.68567</ele>
        <time>2020-09-01 14:58:58</time>
      </trkpt>
      <trkpt lat="44.28492" lon="4.376">
        <ele>287.68823</ele>
        <time>2020-09-01 14:59:00</time>
      </trkpt>
      <trkpt lat="44.28503" lon="4.37585">
        <ele>286.5952</ele>
        <time>2020-09-01 14:59:03</time>
      </trkpt>
      <trkpt lat="44.28511" lon="4.37576">
        <ele>286.4906</ele>
        <time>2020-09-01 14:59:05</time>
      </trkpt>
      <trkpt lat="44.28525" lon="4.37567">
        <ele>286.15857</ele>
        <time>2020-09-01 14:59:08</time>
      </trkpt>
      <trkpt lat="44.28599" lon="4.37529">
        <ele>283.17834</ele>
        <time>2020-09-01 14:59:22</time>
      </trkpt>
      <trkpt lat="44.28711" lon="4.37486">
        <ele>282.79858</ele>
        <time>2020-09-01 14:59:40</time>
      </trkpt>
      <trkpt lat="44.28722" lon="4.37476">
        <ele>282.7932</ele>
        <time>2020-09-01 14:59:42</time>
      </trkpt>
      <trkpt lat="44.28732" lon="4.37463">
        <ele>282.7339</ele>
        <time>2020-09-01 14:59:44</time>
      </trkpt>
      <trkpt lat="44.28744" lon="4.37441">
        <ele>283.59875</ele>
        <time>2020-09-01 14:59:47</time>
      </trkpt>
      <trkpt lat="44.28766" lon="4.37383">
        <ele>281.83948</ele>
        <time>2020-09-01 14:59:54</time>
      </trkpt>
      <trkpt lat="44.28805" lon="4.37292">
        <ele>284.74487</ele>
        <time>2020-09-01 15:00:07</time>
      </trkpt>
      <trkpt lat="44.28814" lon="4.37269">
        <ele>285.02173</ele>
        <time>2020-09-01 15:00:11</time>
      </trkpt>
      <trkpt lat="44.28819" lon="4.37253">
        <ele>285.39478</ele>
        <time>2020-09-01 15:00:14</time>
      </trkpt>
      <trkpt lat="44.28872" lon="4.37132">
        <ele>288.60107</ele>
        <time>2020-09-01 15:00:39</time>
      </trkpt>
      <trkpt lat="44.28884" lon="4.37116">
        <ele>288.95508</ele>
        <time>2020-09-01 15:00:43</time>
      </trkpt>
      <trkpt lat="44.28915" lon="4.37087">
        <ele>289.60736</ele>
        <time>2020-09-01 15:00:52</time>
      </trkpt>
      <trkpt lat="44.28943" lon="4.3706">
        <ele>287.7672</ele>
        <time>2020-09-01 15:01:00</time>
      </trkpt>
      <trkpt lat="44.28959" lon="4.37039">
        <ele>288.04968</ele>
        <time>2020-09-01 15:01:05</time>
      </trkpt>
      <trkpt lat="44.2897" lon="4.37016">
        <ele>289.04205</ele>
        <time>2020-09-01 15:01:10</time>
      </trkpt>
      <trkpt lat="44.28977" lon="4.36997">
        <ele>290.36633</ele>
        <time>2020-09-01 15:01:14</time>
      </trkpt>
      <trkpt lat="44.28982" lon="4.36973">
        <ele>290.1902</ele>
        <time>2020-09-01 15:01:19</time>
      </trkpt>
      <trkpt lat="44.28986" lon="4.36933">
        <ele>291.57434</ele>
        <time>2020-09-01 15:01:28</time>
      </trkpt>
      <trkpt lat="44.28988" lon="4.36906">
        <ele>292.60754</ele>
        <time>2020-09-01 15:01:34</time>
      </trkpt>
      <trkpt lat="44.28989" lon="4.36901">
        <ele>293.01294</ele>
        <time>2020-09-01 15:01:35</time>
      </trkpt>
      <trkpt lat="44.28996" lon="4.36871">
        <ele>295.75146</ele>
        <time>2020-09-01 15:01:42</time>
      </trkpt>
      <trkpt lat="44.29002" lon="4.36856">
        <ele>295.0879</ele>
        <time>2020-09-01 15:01:46</time>
      </trkpt>
      <trkpt lat="44.29014" lon="4.36836">
        <ele>296.45483</ele>
        <time>2020-09-01 15:01:52</time>
      </trkpt>
      <trkpt lat="44.29026" lon="4.3682">
        <ele>297.3474</ele>
        <time>2020-09-01 15:01:57</time>
      </trkpt>
      <trkpt lat="44.29077" lon="4.36767">
        <ele>298.40344</ele>
        <time>2020-09-01 15:02:16</time>
      </trkpt>
      <trkpt lat="44.291" lon="4.36728">
        <ele>298.903</ele>
        <time>2020-09-01 15:02:25</time>
      </trkpt>
      <trkpt lat="44.29133" lon="4.36649">
        <ele>297.57605</ele>
        <time>2020-09-01 15:02:38</time>
      </trkpt>
      <trkpt lat="44.29211" lon="4.36462">
        <ele>291.74597</ele>
        <time>2020-09-01 15:03:02</time>
      </trkpt>
      <trkpt lat="44.29233" lon="4.36425">
        <ele>289.19763</ele>
        <time>2020-09-01 15:03:07</time>
      </trkpt>
      <trkpt lat="44.29243" lon="4.36412">
        <ele>288.4809</ele>
        <time>2020-09-01 15:03:09</time>
      </trkpt>
      <trkpt lat="44.29255" lon="4.36402">
        <ele>288.49646</ele>
        <time>2020-09-01 15:03:11</time>
      </trkpt>
      <trkpt lat="44.29269" lon="4.36395">
        <ele>286.3026</ele>
        <time>2020-09-01 15:03:13</time>
      </trkpt>
      <trkpt lat="44.29284" lon="4.36388">
        <ele>286.63745</ele>
        <time>2020-09-01 15:03:15</time>
      </trkpt>
      <trkpt lat="44.29299" lon="4.36385">
        <ele>285.87292</ele>
        <time>2020-09-01 15:03:17</time>
      </trkpt>
      <trkpt lat="44.29314" lon="4.36385">
        <ele>284.0108</ele>
        <time>2020-09-01 15:03:19</time>
      </trkpt>
      <trkpt lat="44.29361" lon="4.36388">
        <ele>284.95178</ele>
        <time>2020-09-01 15:03:26</time>
      </trkpt>
      <trkpt lat="44.29374" lon="4.36386">
        <ele>282.88867</ele>
        <time>2020-09-01 15:03:28</time>
      </trkpt>
      <trkpt lat="44.29398" lon="4.36376">
        <ele>281.58362</ele>
        <time>2020-09-01 15:03:32</time>
      </trkpt>
      <trkpt lat="44.29426" lon="4.3636">
        <ele>281.0232</ele>
        <time>2020-09-01 15:03:37</time>
      </trkpt>
      <trkpt lat="44.29553" lon="4.36275">
        <ele>281.02612</ele>
        <time>2020-09-01 15:04:02</time>
      </trkpt>
      <trkpt lat="44.29566" lon="4.36261">
        <ele>281.5376</ele>
        <time>2020-09-01 15:04:05</time>
      </trkpt>
      <trkpt lat="44.29579" lon="4.36243">
        <ele>283.4173</ele>
        <time>2020-09-01 15:04:08</time>
      </trkpt>
      <trkpt lat="44.29599" lon="4.36206">
        <ele>285.07104</ele>
        <time>2020-09-01 15:04:14</time>
      </trkpt>
      <trkpt lat="44.29633" lon="4.36136">
        <ele>286.93896</ele>
        <time>2020-09-01 15:04:25</time>
      </trkpt>
      <trkpt lat="44.29671" lon="4.36078">
        <ele>285.8579</ele>
        <time>2020-09-01 15:04:35</time>
      </trkpt>
      <trkpt lat="44.29779" lon="4.35916">
        <ele>286.62207</ele>
        <time>2020-09-01 15:05:05</time>
      </trkpt>
      <trkpt lat="44.29846" lon="4.35822">
        <ele>285.68475</ele>
        <time>2020-09-01 15:05:24</time>
      </trkpt>
      <trkpt lat="44.29864" lon="4.35805">
        <ele>284.47235</ele>
        <time>2020-09-01 15:05:28</time>
      </trkpt>
      <trkpt lat="44.29883" lon="4.35793">
        <ele>283.74243</ele>
        <time>2020-09-01 15:05:32</time>
      </trkpt>
      <trkpt lat="44.29893" lon="4.3579">
        <ele>283.4436</ele>
        <time>2020-09-01 15:05:34</time>
      </trkpt>
      <trkpt lat="44.2991" lon="4.35789">
        <ele>284.3692</ele>
        <time>2020-09-01 15:05:37</time>
      </trkpt>
      <trkpt lat="44.29915" lon="4.35789">
        <ele>284.5183</ele>
        <time>2020-09-01 15:05:38</time>
      </trkpt>
      <trkpt lat="44.29933" lon="4.35791">
        <ele>283.46643</ele>
        <time>2020-09-01 15:05:41</time>
      </trkpt>
      <trkpt lat="44.29944" lon="4.35795">
        <ele>282.74756</ele>
        <time>2020-09-01 15:05:43</time>
      </trkpt>
      <trkpt lat="44.29966" lon="4.35808">
        <ele>280.32532</ele>
        <time>2020-09-01 15:05:47</time>
      </trkpt>
      <trkpt lat="44.30099" lon="4.35915">
        <ele>276.65137</ele>
        <time>2020-09-01 15:06:08</time>
      </trkpt>
      <trkpt lat="44.30112" lon="4.35921">
        <ele>275.3518</ele>
        <time>2020-09-01 15:06:10</time>
      </trkpt>
      <trkpt lat="44.30135" lon="4.35921">
        <ele>272.92133</ele>
        <time>2020-09-01 15:06:13</time>
      </trkpt>
      <trkpt lat="44.30142" lon="4.3592">
        <ele>272.11865</ele>
        <time>2020-09-01 15:06:14</time>
      </trkpt>
      <trkpt lat="44.30163" lon="4.35916">
        <ele>270.88684</ele>
        <time>2020-09-01 15:06:17</time>
      </trkpt>
      <trkpt lat="44.30177" lon="4.35909">
        <ele>269.8423</ele>
        <time>2020-09-01 15:06:19</time>
      </trkpt>
      <trkpt lat="44.30227" lon="4.35884">
        <ele>270.88684</ele>
        <time>2020-09-01 15:06:26</time>
      </trkpt>
      <trkpt lat="44.30281" lon="4.3585">
        <ele>263.18726</ele>
        <time>2020-09-01 15:06:34</time>
      </trkpt>
      <trkpt lat="44.303" lon="4.35843">
        <ele>260.61768</ele>
        <time>2020-09-01 15:06:37</time>
      </trkpt>
      <trkpt lat="44.30418" lon="4.35816">
        <ele>256.95923</ele>
        <time>2020-09-01 15:06:55</time>
      </trkpt>
      <trkpt lat="44.3043" lon="4.35808">
        <ele>257.27258</ele>
        <time>2020-09-01 15:06:57</time>
      </trkpt>
      <trkpt lat="44.30435" lon="4.35803">
        <ele>257.1181</ele>
        <time>2020-09-01 15:06:58</time>
      </trkpt>
      <trkpt lat="44.30446" lon="4.3579">
        <ele>257.42395</ele>
        <time>2020-09-01 15:07:00</time>
      </trkpt>
      <trkpt lat="44.30455" lon="4.35775">
        <ele>257.47937</ele>
        <time>2020-09-01 15:07:02</time>
      </trkpt>
      <trkpt lat="44.30459" lon="4.35766">
        <ele>258.05554</ele>
        <time>2020-09-01 15:07:03</time>
      </trkpt>
      <trkpt lat="44.30477" lon="4.35716">
        <ele>256.72437</ele>
        <time>2020-09-01 15:07:08</time>
      </trkpt>
      <trkpt lat="44.3051" lon="4.35582">
        <ele>252.65814</ele>
        <time>2020-09-01 15:07:19</time>
      </trkpt>
      <trkpt lat="44.30526" lon="4.35491">
        <ele>253.65283</ele>
        <time>2020-09-01 15:07:26</time>
      </trkpt>
      <trkpt lat="44.30551" lon="4.35307">
        <ele>241.04254</ele>
        <time>2020-09-01 15:07:40</time>
      </trkpt>
      <trkpt lat="44.30562" lon="4.3526">
        <ele>236.7774</ele>
        <time>2020-09-01 15:07:44</time>
      </trkpt>
      <trkpt lat="44.30568" lon="4.35251">
        <ele>236.34985</ele>
        <time>2020-09-01 15:07:45</time>
      </trkpt>
      <trkpt lat="44.30695" lon="4.35065">
        <ele>227.30438</ele>
        <time>2020-09-01 15:08:07</time>
      </trkpt>
      <trkpt lat="44.30715" lon="4.3504">
        <ele>227.95093</ele>
        <time>2020-09-01 15:08:12</time>
      </trkpt>
      <trkpt lat="44.30721" lon="4.3503">
        <ele>227.5072</ele>
        <time>2020-09-01 15:08:14</time>
      </trkpt>
      <trkpt lat="44.30724" lon="4.35019">
        <ele>227.30438</ele>
        <time>2020-09-01 15:08:16</time>
      </trkpt>
      <trkpt lat="44.30727" lon="4.35019">
        <ele>225.3515</ele>
        <time>2020-09-01 15:08:17</time>
      </trkpt>
      <trkpt lat="44.30728" lon="4.35016">
        <ele>225.67383</ele>
        <time>2020-09-01 15:08:18</time>
      </trkpt>
      <trkpt lat="44.3073" lon="4.35016">
        <ele>226.73395</ele>
        <time>2020-09-01 15:08:22</time>
      </trkpt>
      <trkpt lat="44.3073" lon="4.35013">
        <ele>222.06628</ele>
        <time>2020-09-01 15:08:55</time>
      </trkpt>
      <trkpt lat="44.3073" lon="4.35013">
        <ele>221.6532</ele>
        <time>2020-09-01 15:09:43</time>
      </trkpt>
      <trkpt lat="44.30729" lon="4.35013">
        <ele>221.38416</ele>
        <time>2020-09-01 15:10:00</time>
      </trkpt>
      <trkpt lat="44.30729" lon="4.35014">
        <ele>222.77759</ele>
        <time>2020-09-01 15:10:02</time>
      </trkpt>
      <trkpt lat="44.30729" lon="4.35012">
        <ele>221.66083</ele>
        <time>2020-09-01 15:10:06</time>
      </trkpt>
      <trkpt lat="44.30722" lon="4.34954">
        <ele>221.87817</ele>
        <time>2020-09-01 15:10:18</time>
      </trkpt>
      <trkpt lat="44.30722" lon="4.34942">
        <ele>221.1441</ele>
        <time>2020-09-01 15:10:20</time>
      </trkpt>
      <trkpt lat="44.30724" lon="4.34937">
        <ele>221.36597</ele>
        <time>2020-09-01 15:10:21</time>
      </trkpt>
      <trkpt lat="44.30726" lon="4.34931">
        <ele>221.76965</ele>
        <time>2020-09-01 15:10:22</time>
      </trkpt>
      <trkpt lat="44.30732" lon="4.34922">
        <ele>221.59851</ele>
        <time>2020-09-01 15:10:24</time>
      </trkpt>
      <trkpt lat="44.30738" lon="4.34915">
        <ele>222.10083</ele>
        <time>2020-09-01 15:10:26</time>
      </trkpt>
      <trkpt lat="44.30767" lon="4.34887">
        <ele>220.31134</ele>
        <time>2020-09-01 15:10:39</time>
      </trkpt>
      <trkpt lat="44.30776" lon="4.34877">
        <ele>222.64539</ele>
        <time>2020-09-01 15:10:44</time>
      </trkpt>
      <trkpt lat="44.30794" lon="4.34863">
        <ele>220.49792</ele>
        <time>2020-09-01 15:10:52</time>
      </trkpt>
      <trkpt lat="44.30799" lon="4.3486">
        <ele>222.00098</ele>
        <time>2020-09-01 15:10:54</time>
      </trkpt>
      <trkpt lat="44.30807" lon="4.34852">
        <ele>222.77246</ele>
        <time>2020-09-01 15:10:58</time>
      </trkpt>
      <trkpt lat="44.3081" lon="4.3485">
        <ele>222.77277</ele>
        <time>2020-09-01 15:10:59</time>
      </trkpt>
      <trkpt lat="44.30812" lon="4.34849">
        <ele>222.05121</ele>
        <time>2020-09-01 15:11:00</time>
      </trkpt>
      <trkpt lat="44.30814" lon="4.34848">
        <ele>222.39941</ele>
        <time>2020-09-01 15:11:01</time>
      </trkpt>
      <trkpt lat="44.30818" lon="4.34848">
        <ele>221.9347</ele>
        <time>2020-09-01 15:11:03</time>
      </trkpt>
      <trkpt lat="44.3082" lon="4.34848">
        <ele>220.0683</ele>
        <time>2020-09-01 15:11:04</time>
      </trkpt>
      <trkpt lat="44.30822" lon="4.34848">
        <ele>219.71613</ele>
        <time>2020-09-01 15:11:05</time>
      </trkpt>
      <trkpt lat="44.30824" lon="4.34847">
        <ele>222.62439</ele>
        <time>2020-09-01 15:11:06</time>
      </trkpt>
      <trkpt lat="44.3083" lon="4.3484">
        <ele>221.4024</ele>
        <time>2020-09-01 15:11:10</time>
      </trkpt>
      <trkpt lat="44.30832" lon="4.34838">
        <ele>221.10693</ele>
        <time>2020-09-01 15:11:11</time>
      </trkpt>
      <trkpt lat="44.30833" lon="4.34835">
        <ele>221.07172</ele>
        <time>2020-09-01 15:11:12</time>
      </trkpt>
      <trkpt lat="44.30835" lon="4.34832">
        <ele>222.92773</ele>
        <time>2020-09-01 15:11:14</time>
      </trkpt>
      <trkpt lat="44.30839" lon="4.3483">
        <ele>220.01343</ele>
        <time>2020-09-01 15:11:16</time>
      </trkpt>
      <trkpt lat="44.30841" lon="4.3483">
        <ele>222.83527</ele>
        <time>2020-09-01 15:11:17</time>
      </trkpt>
      <trkpt lat="44.30843" lon="4.34831">
        <ele>223.44067</ele>
        <time>2020-09-01 15:11:18</time>
      </trkpt>
      <trkpt lat="44.30846" lon="4.34831">
        <ele>223.39111</ele>
        <time>2020-09-01 15:11:22</time>
      </trkpt>
      <trkpt lat="44.30848" lon="4.34828">
        <ele>221.79346</ele>
        <time>2020-09-01 15:11:23</time>
      </trkpt>
      <trkpt lat="44.30849" lon="4.34825">
        <ele>221.62866</ele>
        <time>2020-09-01 15:11:24</time>
      </trkpt>
      <trkpt lat="44.30849" lon="4.3482">
        <ele>223.62653</ele>
        <time>2020-09-01 15:11:29</time>
      </trkpt>
      <trkpt lat="44.30851" lon="4.34816">
        <ele>223.52148</ele>
        <time>2020-09-01 15:11:31</time>
      </trkpt>
      <trkpt lat="44.30853" lon="4.34815">
        <ele>223.64166</ele>
        <time>2020-09-01 15:11:32</time>
      </trkpt>
      <trkpt lat="44.30893" lon="4.3479">
        <ele>223.95459</ele>
        <time>2020-09-01 15:11:44</time>
      </trkpt>
      <trkpt lat="44.30899" lon="4.34786">
        <ele>226.45898</ele>
        <time>2020-09-01 15:11:46</time>
      </trkpt>
      <trkpt lat="44.30903" lon="4.34785">
        <ele>222.83179</ele>
        <time>2020-09-01 15:11:47</time>
      </trkpt>
      <trkpt lat="44.30907" lon="4.34786">
        <ele>222.78796</ele>
        <time>2020-09-01 15:11:48</time>
      </trkpt>
      <trkpt lat="44.31001" lon="4.34808">
        <ele>213.72583</ele>
        <time>2020-09-01 15:12:03</time>
      </trkpt>
      <trkpt lat="44.31068" lon="4.34842">
        <ele>208.76373</ele>
        <time>2020-09-01 15:12:13</time>
      </trkpt>
      <trkpt lat="44.31073" lon="4.34848">
        <ele>209.39038</ele>
        <time>2020-09-01 15:12:14</time>
      </trkpt>
      <trkpt lat="44.31115" lon="4.34889">
        <ele>203.79272</ele>
        <time>2020-09-01 15:12:21</time>
      </trkpt>
      <trkpt lat="44.31131" lon="4.34898">
        <ele>203.54382</ele>
        <time>2020-09-01 15:12:24</time>
      </trkpt>
      <trkpt lat="44.31134" lon="4.34897">
        <ele>201.6167</ele>
        <time>2020-09-01 15:12:25</time>
      </trkpt>
      <trkpt lat="44.31139" lon="4.34898">
        <ele>208.33144</ele>
        <time>2020-09-01 15:12:26</time>
      </trkpt>
      <trkpt lat="44.31143" lon="4.34894">
        <ele>202.01978</ele>
        <time>2020-09-01 15:12:27</time>
      </trkpt>
      <trkpt lat="44.31147" lon="4.3489">
        <ele>202.49646</ele>
        <time>2020-09-01 15:12:28</time>
      </trkpt>
      <trkpt lat="44.31154" lon="4.3488">
        <ele>202.1499</ele>
        <time>2020-09-01 15:12:30</time>
      </trkpt>
      <trkpt lat="44.31158" lon="4.34877">
        <ele>202.76593</ele>
        <time>2020-09-01 15:12:31</time>
      </trkpt>
      <trkpt lat="44.31167" lon="4.34875">
        <ele>202.03949</ele>
        <time>2020-09-01 15:12:33</time>
      </trkpt>
      <trkpt lat="44.31172" lon="4.34876">
        <ele>201.81421</ele>
        <time>2020-09-01 15:12:34</time>
      </trkpt>
      <trkpt lat="44.31177" lon="4.34878">
        <ele>201.94397</ele>
        <time>2020-09-01 15:12:35</time>
      </trkpt>
      <trkpt lat="44.31332" lon="4.34942">
        <ele>202.04822</ele>
        <time>2020-09-01 15:13:05</time>
      </trkpt>
      <trkpt lat="44.31423" lon="4.34973">
        <ele>204.92896</ele>
        <time>2020-09-01 15:13:28</time>
      </trkpt>
      <trkpt lat="44.31432" lon="4.34978">
        <ele>203.79382</ele>
        <time>2020-09-01 15:13:31</time>
      </trkpt>
      <trkpt lat="44.31488" lon="4.35001">
        <ele>210.19568</ele>
        <time>2020-09-01 15:13:54</time>
      </trkpt>
      <trkpt lat="44.3149" lon="4.35001">
        <ele>210.81842</ele>
        <time>2020-09-01 15:13:55</time>
      </trkpt>
      <trkpt lat="44.31566" lon="4.35031">
        <ele>213.31805</ele>
        <time>2020-09-01 15:14:25</time>
      </trkpt>
      <trkpt lat="44.31571" lon="4.35033">
        <ele>212.78583</ele>
        <time>2020-09-01 15:14:27</time>
      </trkpt>
      <trkpt lat="44.31575" lon="4.35035">
        <ele>212.14838</ele>
        <time>2020-09-01 15:14:29</time>
      </trkpt>
      <trkpt lat="44.31592" lon="4.35042">
        <ele>212.9002</ele>
        <time>2020-09-01 15:14:36</time>
      </trkpt>
      <trkpt lat="44.31596" lon="4.35045">
        <ele>213.44043</ele>
        <time>2020-09-01 15:14:38</time>
      </trkpt>
      <trkpt lat="44.31603" lon="4.35048">
        <ele>214.09167</ele>
        <time>2020-09-01 15:14:41</time>
      </trkpt>
      <trkpt lat="44.31605" lon="4.35049">
        <ele>214.06683</ele>
        <time>2020-09-01 15:14:42</time>
      </trkpt>
      <trkpt lat="44.31614" lon="4.35053">
        <ele>213.62506</ele>
        <time>2020-09-01 15:14:46</time>
      </trkpt>
      <trkpt lat="44.31627" lon="4.35061">
        <ele>210.96588</ele>
        <time>2020-09-01 15:14:51</time>
      </trkpt>
      <trkpt lat="44.31632" lon="4.35064">
        <ele>212.07971</ele>
        <time>2020-09-01 15:14:53</time>
      </trkpt>
      <trkpt lat="44.31635" lon="4.35065">
        <ele>211.84888</ele>
        <time>2020-09-01 15:14:54</time>
      </trkpt>
      <trkpt lat="44.31764" lon="4.35107">
        <ele>217.42834</ele>
        <time>2020-09-01 15:15:24</time>
      </trkpt>
      <trkpt lat="44.31828" lon="4.35133">
        <ele>219.60168</ele>
        <time>2020-09-01 15:15:38</time>
      </trkpt>
      <trkpt lat="44.31833" lon="4.35135">
        <ele>219.38275</ele>
        <time>2020-09-01 15:15:40</time>
      </trkpt>
      <trkpt lat="44.3185" lon="4.35141">
        <ele>219.64075</ele>
        <time>2020-09-01 15:15:47</time>
      </trkpt>
      <trkpt lat="44.31871" lon="4.3515">
        <ele>219.64075</ele>
        <time>2020-09-01 15:15:56</time>
      </trkpt>
      <trkpt lat="44.31906" lon="4.35164">
        <ele>223.39502</ele>
        <time>2020-09-01 15:16:14</time>
      </trkpt>
      <trkpt lat="44.31913" lon="4.35167">
        <ele>223.18945</ele>
        <time>2020-09-01 15:16:17</time>
      </trkpt>
      <trkpt lat="44.31922" lon="4.3517">
        <ele>222.78009</ele>
        <time>2020-09-01 15:16:21</time>
      </trkpt>
      <trkpt lat="44.31929" lon="4.35172">
        <ele>224.29651</ele>
        <time>2020-09-01 15:16:24</time>
      </trkpt>
      <trkpt lat="44.31933" lon="4.35174">
        <ele>223.18945</ele>
        <time>2020-09-01 15:16:26</time>
      </trkpt>
      <trkpt lat="44.3194" lon="4.35177">
        <ele>224.66809</ele>
        <time>2020-09-01 15:16:29</time>
      </trkpt>
      <trkpt lat="44.32002" lon="4.35202">
        <ele>231.17444</ele>
        <time>2020-09-01 15:16:59</time>
      </trkpt>
      <trkpt lat="44.32015" lon="4.35207">
        <ele>230.52478</ele>
        <time>2020-09-01 15:17:06</time>
      </trkpt>
      <trkpt lat="44.32043" lon="4.35218">
        <ele>234.3042</ele>
        <time>2020-09-01 15:17:20</time>
      </trkpt>
      <trkpt lat="44.32047" lon="4.35219">
        <ele>236.49939</ele>
        <time>2020-09-01 15:17:22</time>
      </trkpt>
      <trkpt lat="44.32052" lon="4.35221">
        <ele>237.12006</ele>
        <time>2020-09-01 15:17:25</time>
      </trkpt>
      <trkpt lat="44.32054" lon="4.35221">
        <ele>234.37653</ele>
        <time>2020-09-01 15:17:26</time>
      </trkpt>
      <trkpt lat="44.32075" lon="4.35226">
        <ele>241.6615</ele>
        <time>2020-09-01 15:17:37</time>
      </trkpt>
      <trkpt lat="44.32077" lon="4.35227">
        <ele>241.3349</ele>
        <time>2020-09-01 15:17:38</time>
      </trkpt>
      <trkpt lat="44.32088" lon="4.3523">
        <ele>242.63922</ele>
        <time>2020-09-01 15:17:44</time>
      </trkpt>
      <trkpt lat="44.32096" lon="4.35232">
        <ele>243.22333</ele>
        <time>2020-09-01 15:17:48</time>
      </trkpt>
      <trkpt lat="44.32155" lon="4.35259">
        <ele>241.78424</ele>
        <time>2020-09-01 15:18:18</time>
      </trkpt>
      <trkpt lat="44.32157" lon="4.3526">
        <ele>242.03442</ele>
        <time>2020-09-01 15:18:19</time>
      </trkpt>
      <trkpt lat="44.32176" lon="4.35267">
        <ele>244.93896</ele>
        <time>2020-09-01 15:18:28</time>
      </trkpt>
      <trkpt lat="44.32183" lon="4.35271">
        <ele>249.35925</ele>
        <time>2020-09-01 15:18:32</time>
      </trkpt>
      <trkpt lat="44.32185" lon="4.35272">
        <ele>250.18658</ele>
        <time>2020-09-01 15:18:33</time>
      </trkpt>
      <trkpt lat="44.32187" lon="4.35273">
        <ele>249.8645</ele>
        <time>2020-09-01 15:18:34</time>
      </trkpt>
      <trkpt lat="44.32196" lon="4.35276">
        <ele>253.87585</ele>
        <time>2020-09-01 15:18:39</time>
      </trkpt>
      <trkpt lat="44.32211" lon="4.35284">
        <ele>251.88287</ele>
        <time>2020-09-01 15:18:46</time>
      </trkpt>
      <trkpt lat="44.32215" lon="4.35286">
        <ele>251.5871</ele>
        <time>2020-09-01 15:18:48</time>
      </trkpt>
      <trkpt lat="44.32227" lon="4.35292">
        <ele>252.7691</ele>
        <time>2020-09-01 15:18:54</time>
      </trkpt>
      <trkpt lat="44.32231" lon="4.35294">
        <ele>251.3244</ele>
        <time>2020-09-01 15:18:56</time>
      </trkpt>
      <trkpt lat="44.32233" lon="4.35296">
        <ele>252.72498</ele>
        <time>2020-09-01 15:18:57</time>
      </trkpt>
      <trkpt lat="44.32236" lon="4.35297">
        <ele>254.20508</ele>
        <time>2020-09-01 15:18:58</time>
      </trkpt>
      <trkpt lat="44.32244" lon="4.35302">
        <ele>254.39539</ele>
        <time>2020-09-01 15:19:02</time>
      </trkpt>
      <trkpt lat="44.32261" lon="4.35308">
        <ele>252.33484</ele>
        <time>2020-09-01 15:19:09</time>
      </trkpt>
      <trkpt lat="44.32283" lon="4.35312">
        <ele>253.91028</ele>
        <time>2020-09-01 15:19:19</time>
      </trkpt>
      <trkpt lat="44.32287" lon="4.35315">
        <ele>253.969</ele>
        <time>2020-09-01 15:19:21</time>
      </trkpt>
      <trkpt lat="44.32292" lon="4.35318">
        <ele>255.37634</ele>
        <time>2020-09-01 15:19:23</time>
      </trkpt>
      <trkpt lat="44.32297" lon="4.3532">
        <ele>255.17615</ele>
        <time>2020-09-01 15:19:25</time>
      </trkpt>
      <trkpt lat="44.32305" lon="4.3532">
        <ele>256.65674</ele>
        <time>2020-09-01 15:19:28</time>
      </trkpt>
      <trkpt lat="44.32311" lon="4.35317">
        <ele>257.49573</ele>
        <time>2020-09-01 15:19:30</time>
      </trkpt>
      <trkpt lat="44.32313" lon="4.35314">
        <ele>258.31543</ele>
        <time>2020-09-01 15:19:31</time>
      </trkpt>
      <trkpt lat="44.32325" lon="4.35304">
        <ele>257.56177</ele>
        <time>2020-09-01 15:19:35</time>
      </trkpt>
      <trkpt lat="44.32328" lon="4.35303">
        <ele>255.45862</ele>
        <time>2020-09-01 15:19:36</time>
      </trkpt>
      <trkpt lat="44.32342" lon="4.35303">
        <ele>255.69989</ele>
        <time>2020-09-01 15:19:40</time>
      </trkpt>
      <trkpt lat="44.32355" lon="4.35307">
        <ele>255.16266</ele>
        <time>2020-09-01 15:19:44</time>
      </trkpt>
      <trkpt lat="44.32372" lon="4.35312">
        <ele>254.0133</ele>
        <time>2020-09-01 15:19:49</time>
      </trkpt>
      <trkpt lat="44.32383" lon="4.35318">
        <ele>255.40137</ele>
        <time>2020-09-01 15:19:52</time>
      </trkpt>
      <trkpt lat="44.32431" lon="4.3535">
        <ele>259.66125</ele>
        <time>2020-09-01 15:20:06</time>
      </trkpt>
      <trkpt lat="44.32434" lon="4.35353">
        <ele>258.44037</ele>
        <time>2020-09-01 15:20:07</time>
      </trkpt>
      <trkpt lat="44.32551" lon="4.35436">
        <ele>261.19373</ele>
        <time>2020-09-01 15:20:37</time>
      </trkpt>
      <trkpt lat="44.32654" lon="4.35495">
        <ele>265.29608</ele>
        <time>2020-09-01 15:21:04</time>
      </trkpt>
      <trkpt lat="44.32658" lon="4.35496">
        <ele>265.5077</ele>
        <time>2020-09-01 15:21:05</time>
      </trkpt>
      <trkpt lat="44.32768" lon="4.35559">
        <ele>267.92053</ele>
        <time>2020-09-01 15:21:35</time>
      </trkpt>
      <trkpt lat="44.32882" lon="4.35628">
        <ele>266.36017</ele>
        <time>2020-09-01 15:22:04</time>
      </trkpt>
      <trkpt lat="44.32905" lon="4.35641">
        <ele>265.20337</ele>
        <time>2020-09-01 15:22:10</time>
      </trkpt>
      <trkpt lat="44.33021" lon="4.3571">
        <ele>262.63684</ele>
        <time>2020-09-01 15:22:40</time>
      </trkpt>
      <trkpt lat="44.3314" lon="4.35777">
        <ele>265.09814</ele>
        <time>2020-09-01 15:23:10</time>
      </trkpt>
      <trkpt lat="44.33182" lon="4.35799">
        <ele>265.49872</ele>
        <time>2020-09-01 15:23:19</time>
      </trkpt>
      <trkpt lat="44.33367" lon="4.35878">
        <ele>268.64716</ele>
        <time>2020-09-01 15:23:49</time>
      </trkpt>
      <trkpt lat="44.33534" lon="4.35986">
        <ele>261.4851</ele>
        <time>2020-09-01 15:24:19</time>
      </trkpt>
      <trkpt lat="44.33718" lon="4.36088">
        <ele>258.69922</ele>
        <time>2020-09-01 15:24:49</time>
      </trkpt>
      <trkpt lat="44.33889" lon="4.36184">
        <ele>259.6286</ele>
        <time>2020-09-01 15:25:19</time>
      </trkpt>
      <trkpt lat="44.33985" lon="4.36228">
        <ele>261.55182</ele>
        <time>2020-09-01 15:25:44</time>
      </trkpt>
      <trkpt lat="44.34029" lon="4.36244">
        <ele>261.32947</ele>
        <time>2020-09-01 15:25:54</time>
      </trkpt>
      <trkpt lat="44.34033" lon="4.36245">
        <ele>261.0022</ele>
        <time>2020-09-01 15:25:55</time>
      </trkpt>
      <trkpt lat="44.34164" lon="4.36305">
        <ele>258.62878</ele>
        <time>2020-09-01 15:26:25</time>
      </trkpt>
      <trkpt lat="44.34279" lon="4.36352">
        <ele>265.802</ele>
        <time>2020-09-01 15:26:55</time>
      </trkpt>
      <trkpt lat="44.34371" lon="4.36393">
        <ele>271.79156</ele>
        <time>2020-09-01 15:27:25</time>
      </trkpt>
      <trkpt lat="44.3445" lon="4.36433">
        <ele>277.67773</ele>
        <time>2020-09-01 15:27:51</time>
      </trkpt>
      <trkpt lat="44.34491" lon="4.36461">
        <ele>277.42725</ele>
        <time>2020-09-01 15:28:05</time>
      </trkpt>
      <trkpt lat="44.3452" lon="4.36486">
        <ele>280.1671</ele>
        <time>2020-09-01 15:28:17</time>
      </trkpt>
      <trkpt lat="44.34545" lon="4.36501">
        <ele>280.4757</ele>
        <time>2020-09-01 15:28:28</time>
      </trkpt>
      <trkpt lat="44.34548" lon="4.36502">
        <ele>280.68335</ele>
        <time>2020-09-01 15:28:29</time>
      </trkpt>
      <trkpt lat="44.3455" lon="4.36502">
        <ele>280.52612</ele>
        <time>2020-09-01 15:28:30</time>
      </trkpt>
      <trkpt lat="44.34553" lon="4.36501">
        <ele>280.38196</ele>
        <time>2020-09-01 15:28:31</time>
      </trkpt>
      <trkpt lat="44.34558" lon="4.36501">
        <ele>279.8296</ele>
        <time>2020-09-01 15:28:33</time>
      </trkpt>
      <trkpt lat="44.34561" lon="4.365">
        <ele>279.51593</ele>
        <time>2020-09-01 15:28:34</time>
      </trkpt>
      <trkpt lat="44.34566" lon="4.36498">
        <ele>278.9447</ele>
        <time>2020-09-01 15:28:38</time>
      </trkpt>
      <trkpt lat="44.34567" lon="4.36497">
        <ele>280.8708</ele>
        <time>2020-09-01 15:29:08</time>
      </trkpt>
      <trkpt lat="44.34567" lon="4.36497">
        <ele>280.8291</ele>
        <time>2020-09-01 15:29:40</time>
      </trkpt>
      <trkpt lat="44.34567" lon="4.36497">
        <ele>280.83386</ele>
        <time>2020-09-01 15:30:10</time>
      </trkpt>
      <trkpt lat="44.34567" lon="4.36497">
        <ele>280.81616</ele>
        <time>2020-09-01 15:30:40</time>
      </trkpt>
      <trkpt lat="44.34567" lon="4.36497">
        <ele>280.8131</ele>
        <time>2020-09-01 15:30:46</time>
      </trkpt>
      <trkpt lat="44.34567" lon="4.36497">
        <ele>281.32092</ele>
        <time>2020-09-01 15:30:47</time>
      </trkpt>
      <trkpt lat="44.34567" lon="4.36498">
        <ele>280.36475</ele>
        <time>2020-09-01 15:30:49</time>
      </trkpt>
      <trkpt lat="44.34567" lon="4.36497">
        <ele>281.9231</ele>
        <time>2020-09-01 15:30:50</time>
      </trkpt>
      <trkpt lat="44.34566" lon="4.36498">
        <ele>281.07764</ele>
        <time>2020-09-01 15:31:24</time>
      </trkpt>
      <trkpt lat="44.34566" lon="4.36497">
        <ele>281.7505</ele>
        <time>2020-09-01 15:31:37</time>
      </trkpt>
      <trkpt lat="44.34566" lon="4.36497">
        <ele>282.71545</ele>
        <time>2020-09-01 15:31:39</time>
      </trkpt>
      <trkpt lat="44.34566" lon="4.36499">
        <ele>282.84827</ele>
        <time>2020-09-01 15:31:51</time>
      </trkpt>
      <trkpt lat="44.34566" lon="4.36501">
        <ele>283.2439</ele>
        <time>2020-09-01 15:31:52</time>
      </trkpt>
      <trkpt lat="44.34567" lon="4.36507">
        <ele>283.1532</ele>
        <time>2020-09-01 15:31:56</time>
      </trkpt>
      <trkpt lat="44.34567" lon="4.36507">
        <ele>283.6775</ele>
        <time>2020-09-01 15:31:57</time>
      </trkpt>
      <trkpt lat="44.34568" lon="4.36507">
        <ele>283.8623</ele>
        <time>2020-09-01 15:32:28</time>
      </trkpt>
      <trkpt lat="44.34569" lon="4.36507">
        <ele>282.8025</ele>
        <time>2020-09-01 15:32:37</time>
      </trkpt>
      <trkpt lat="44.34572" lon="4.36507">
        <ele>284.09412</ele>
        <time>2020-09-01 15:32:39</time>
      </trkpt>
      <trkpt lat="44.34594" lon="4.3651">
        <ele>286.44385</ele>
        <time>2020-09-01 15:32:49</time>
      </trkpt>
      <trkpt lat="44.346" lon="4.36513">
        <ele>288.60156</ele>
        <time>2020-09-01 15:32:51</time>
      </trkpt>
      <trkpt lat="44.34606" lon="4.36513">
        <ele>288.60376</ele>
        <time>2020-09-01 15:32:53</time>
      </trkpt>
      <trkpt lat="44.34626" lon="4.36513">
        <ele>287.16394</ele>
        <time>2020-09-01 15:32:59</time>
      </trkpt>
      <trkpt lat="44.34633" lon="4.36514">
        <ele>287.70496</ele>
        <time>2020-09-01 15:33:01</time>
      </trkpt>
      <trkpt lat="44.34658" lon="4.36515">
        <ele>287.6729</ele>
        <time>2020-09-01 15:33:09</time>
      </trkpt>
      <trkpt lat="44.34671" lon="4.36516">
        <ele>287.71448</ele>
        <time>2020-09-01 15:33:13</time>
      </trkpt>
      <trkpt lat="44.34674" lon="4.36516">
        <ele>288.43152</ele>
        <time>2020-09-01 15:33:14</time>
      </trkpt>
      <trkpt lat="44.34681" lon="4.36516">
        <ele>288.1388</ele>
        <time>2020-09-01 15:33:16</time>
      </trkpt>
      <trkpt lat="44.3471" lon="4.36511">
        <ele>290.24414</ele>
        <time>2020-09-01 15:33:24</time>
      </trkpt>
      <trkpt lat="44.34714" lon="4.36511">
        <ele>290.66003</ele>
        <time>2020-09-01 15:33:25</time>
      </trkpt>
      <trkpt lat="44.34767" lon="4.36506">
        <ele>289.70093</ele>
        <time>2020-09-01 15:33:38</time>
      </trkpt>
      <trkpt lat="44.34892" lon="4.36483">
        <ele>287.47253</ele>
        <time>2020-09-01 15:34:08</time>
      </trkpt>
      <trkpt lat="44.34912" lon="4.36482">
        <ele>285.8216</ele>
        <time>2020-09-01 15:34:13</time>
      </trkpt>
      <trkpt lat="44.34916" lon="4.36482">
        <ele>286.32214</ele>
        <time>2020-09-01 15:34:14</time>
      </trkpt>
      <trkpt lat="44.34931" lon="4.36482">
        <ele>288.00256</ele>
        <time>2020-09-01 15:34:18</time>
      </trkpt>
      <trkpt lat="44.34934" lon="4.36482">
        <ele>288.26917</ele>
        <time>2020-09-01 15:34:19</time>
      </trkpt>
      <trkpt lat="44.34938" lon="4.36482">
        <ele>288.6855</ele>
        <time>2020-09-01 15:34:20</time>
      </trkpt>
      <trkpt lat="44.34944" lon="4.36483">
        <ele>291.08057</ele>
        <time>2020-09-01 15:34:22</time>
      </trkpt>
      <trkpt lat="44.34994" lon="4.36476">
        <ele>293.26794</ele>
        <time>2020-09-01 15:34:39</time>
      </trkpt>
      <trkpt lat="44.35002" lon="4.36474">
        <ele>293.35303</ele>
        <time>2020-09-01 15:34:42</time>
      </trkpt>
      <trkpt lat="44.35066" lon="4.36469">
        <ele>285.89258</ele>
        <time>2020-09-01 15:35:03</time>
      </trkpt>
      <trkpt lat="44.35072" lon="4.3647">
        <ele>286.5064</ele>
        <time>2020-09-01 15:35:05</time>
      </trkpt>
      <trkpt lat="44.35078" lon="4.3647">
        <ele>287.1443</ele>
        <time>2020-09-01 15:35:07</time>
      </trkpt>
      <trkpt lat="44.35104" lon="4.36474">
        <ele>287.1443</ele>
        <time>2020-09-01 15:35:16</time>
      </trkpt>
      <trkpt lat="44.3513" lon="4.3648">
        <ele>291.4181</ele>
        <time>2020-09-01 15:35:25</time>
      </trkpt>
      <trkpt lat="44.35149" lon="4.36483">
        <ele>289.3711</ele>
        <time>2020-09-01 15:35:31</time>
      </trkpt>
      <trkpt lat="44.35173" lon="4.36488">
        <ele>289.998</ele>
        <time>2020-09-01 15:35:37</time>
      </trkpt>
      <trkpt lat="44.3539" lon="4.36543">
        <ele>277.05493</ele>
        <time>2020-09-01 15:36:07</time>
      </trkpt>
      <trkpt lat="44.3564" lon="4.3661">
        <ele>270.1388</ele>
        <time>2020-09-01 15:36:37</time>
      </trkpt>
      <trkpt lat="44.35653" lon="4.36612">
        <ele>269.1687</ele>
        <time>2020-09-01 15:36:39</time>
      </trkpt>
      <trkpt lat="44.35678" lon="4.36607">
        <ele>268.5592</ele>
        <time>2020-09-01 15:36:43</time>
      </trkpt>
      <trkpt lat="44.35816" lon="4.36578">
        <ele>270.07837</ele>
        <time>2020-09-01 15:37:05</time>
      </trkpt>
      <trkpt lat="44.35821" lon="4.36577">
        <ele>264.7533</ele>
        <time>2020-09-01 15:37:06</time>
      </trkpt>
      <trkpt lat="44.35914" lon="4.36546">
        <ele>266.94788</ele>
        <time>2020-09-01 15:37:23</time>
      </trkpt>
      <trkpt lat="44.3592" lon="4.36546">
        <ele>267.3971</ele>
        <time>2020-09-01 15:37:24</time>
      </trkpt>
      <trkpt lat="44.3594" lon="4.3655">
        <ele>266.69397</ele>
        <time>2020-09-01 15:37:27</time>
      </trkpt>
      <trkpt lat="44.35985" lon="4.36568">
        <ele>264.43884</ele>
        <time>2020-09-01 15:37:34</time>
      </trkpt>
      <trkpt lat="44.36126" lon="4.36643">
        <ele>255.38422</ele>
        <time>2020-09-01 15:37:54</time>
      </trkpt>
      <trkpt lat="44.36298" lon="4.36707">
        <ele>243.94629</ele>
        <time>2020-09-01 15:38:15</time>
      </trkpt>
      <trkpt lat="44.36341" lon="4.36728">
        <ele>244.28162</ele>
        <time>2020-09-01 15:38:21</time>
      </trkpt>
      <trkpt lat="44.36391" lon="4.36739">
        <ele>244.57483</ele>
        <time>2020-09-01 15:38:27</time>
      </trkpt>
      <trkpt lat="44.36426" lon="4.36741">
        <ele>244.94849</ele>
        <time>2020-09-01 15:38:31</time>
      </trkpt>
      <trkpt lat="44.36527" lon="4.3673">
        <ele>238.29901</ele>
        <time>2020-09-01 15:38:42</time>
      </trkpt>
      <trkpt lat="44.36535" lon="4.36727">
        <ele>237.07568</ele>
        <time>2020-09-01 15:38:43</time>
      </trkpt>
      <trkpt lat="44.36542" lon="4.36722">
        <ele>237.10095</ele>
        <time>2020-09-01 15:38:44</time>
      </trkpt>
      <trkpt lat="44.36615" lon="4.36662">
        <ele>228.79523</ele>
        <time>2020-09-01 15:38:54</time>
      </trkpt>
      <trkpt lat="44.3663" lon="4.36657">
        <ele>236.38818</ele>
        <time>2020-09-01 15:38:56</time>
      </trkpt>
      <trkpt lat="44.36644" lon="4.36656">
        <ele>224.84595</ele>
        <time>2020-09-01 15:38:58</time>
      </trkpt>
      <trkpt lat="44.36659" lon="4.36659">
        <ele>224.09595</ele>
        <time>2020-09-01 15:39:00</time>
      </trkpt>
      <trkpt lat="44.36676" lon="4.36669">
        <ele>221.90149</ele>
        <time>2020-09-01 15:39:02</time>
      </trkpt>
      <trkpt lat="44.36751" lon="4.3673">
        <ele>215.89789</ele>
        <time>2020-09-01 15:39:12</time>
      </trkpt>
      <trkpt lat="44.36846" lon="4.36824">
        <ele>212.75623</ele>
        <time>2020-09-01 15:39:27</time>
      </trkpt>
      <trkpt lat="44.36932" lon="4.36886">
        <ele>209.31989</ele>
        <time>2020-09-01 15:39:41</time>
      </trkpt>
      <trkpt lat="44.37123" lon="4.3697">
        <ele>212.77277</ele>
        <time>2020-09-01 15:40:11</time>
      </trkpt>
      <trkpt lat="44.3715" lon="4.36986">
        <ele>212.09009</ele>
        <time>2020-09-01 15:40:16</time>
      </trkpt>
      <trkpt lat="44.37171" lon="4.37001">
        <ele>212.60138</ele>
        <time>2020-09-01 15:40:20</time>
      </trkpt>
      <trkpt lat="44.37225" lon="4.37051">
        <ele>210.5777</ele>
        <time>2020-09-01 15:40:31</time>
      </trkpt>
      <trkpt lat="44.37231" lon="4.37056">
        <ele>211.60645</ele>
        <time>2020-09-01 15:40:32</time>
      </trkpt>
      <trkpt lat="44.37254" lon="4.37072">
        <ele>212.77264</ele>
        <time>2020-09-01 15:40:36</time>
      </trkpt>
      <trkpt lat="44.3727" lon="4.3708">
        <ele>204.39581</ele>
        <time>2020-09-01 15:40:39</time>
      </trkpt>
      <trkpt lat="44.37287" lon="4.37083">
        <ele>204.396</ele>
        <time>2020-09-01 15:40:42</time>
      </trkpt>
      <trkpt lat="44.37299" lon="4.37083">
        <ele>204.53473</ele>
        <time>2020-09-01 15:40:44</time>
      </trkpt>
      <trkpt lat="44.37388" lon="4.37074">
        <ele>203.06653</ele>
        <time>2020-09-01 15:40:58</time>
      </trkpt>
      <trkpt lat="44.3744" lon="4.37069">
        <ele>201.08307</ele>
        <time>2020-09-01 15:41:07</time>
      </trkpt>
      <trkpt lat="44.37463" lon="4.3707">
        <ele>205.78467</ele>
        <time>2020-09-01 15:41:11</time>
      </trkpt>
      <trkpt lat="44.37485" lon="4.37077">
        <ele>201.08307</ele>
        <time>2020-09-01 15:41:16</time>
      </trkpt>
      <trkpt lat="44.3753" lon="4.37106">
        <ele>211.2132</ele>
        <time>2020-09-01 15:41:26</time>
      </trkpt>
      <trkpt lat="44.37553" lon="4.37121">
        <ele>210.07373</ele>
        <time>2020-09-01 15:41:31</time>
      </trkpt>
      <trkpt lat="44.3757" lon="4.37128">
        <ele>209.01923</ele>
        <time>2020-09-01 15:41:34</time>
      </trkpt>
      <trkpt lat="44.3759" lon="4.37129">
        <ele>207.08118</ele>
        <time>2020-09-01 15:41:37</time>
      </trkpt>
      <trkpt lat="44.37604" lon="4.3713">
        <ele>206.6366</ele>
        <time>2020-09-01 15:41:39</time>
      </trkpt>
      <trkpt lat="44.37633" lon="4.37123">
        <ele>207.48212</ele>
        <time>2020-09-01 15:41:43</time>
      </trkpt>
      <trkpt lat="44.37654" lon="4.37114">
        <ele>207.08118</ele>
        <time>2020-09-01 15:41:46</time>
      </trkpt>
      <trkpt lat="44.37683" lon="4.37088">
        <ele>203.78125</ele>
        <time>2020-09-01 15:41:51</time>
      </trkpt>
      <trkpt lat="44.377" lon="4.37076">
        <ele>203.96533</ele>
        <time>2020-09-01 15:41:54</time>
      </trkpt>
      <trkpt lat="44.37718" lon="4.37068">
        <ele>204.37213</ele>
        <time>2020-09-01 15:41:57</time>
      </trkpt>
      <trkpt lat="44.37728" lon="4.37066">
        <ele>204.39478</ele>
        <time>2020-09-01 15:41:59</time>
      </trkpt>
      <trkpt lat="44.37733" lon="4.37067">
        <ele>205.16455</ele>
        <time>2020-09-01 15:42:00</time>
      </trkpt>
      <trkpt lat="44.37751" lon="4.37071">
        <ele>206.45667</ele>
        <time>2020-09-01 15:42:04</time>
      </trkpt>
      <trkpt lat="44.37763" lon="4.37078">
        <ele>209.13977</ele>
        <time>2020-09-01 15:42:07</time>
      </trkpt>
      <trkpt lat="44.37781" lon="4.37088">
        <ele>210.83936</ele>
        <time>2020-09-01 15:42:12</time>
      </trkpt>
      <trkpt lat="44.37828" lon="4.3712">
        <ele>210.5719</ele>
        <time>2020-09-01 15:42:24</time>
      </trkpt>
      <trkpt lat="44.37878" lon="4.37152">
        <ele>209.52246</ele>
        <time>2020-09-01 15:42:35</time>
      </trkpt>
      <trkpt lat="44.3801" lon="4.37261">
        <ele>210.03442</ele>
        <time>2020-09-01 15:43:05</time>
      </trkpt>
      <trkpt lat="44.38147" lon="4.37367">
        <ele>209.59406</ele>
        <time>2020-09-01 15:43:35</time>
      </trkpt>
      <trkpt lat="44.3823" lon="4.37426">
        <ele>202.74731</ele>
        <time>2020-09-01 15:43:50</time>
      </trkpt>
      <trkpt lat="44.38251" lon="4.37452">
        <ele>201.17542</ele>
        <time>2020-09-01 15:43:54</time>
      </trkpt>
      <trkpt lat="44.38307" lon="4.37524">
        <ele>196.17969</ele>
        <time>2020-09-01 15:44:04</time>
      </trkpt>
      <trkpt lat="44.38334" lon="4.37547">
        <ele>194.90271</ele>
        <time>2020-09-01 15:44:08</time>
      </trkpt>
      <trkpt lat="44.38454" lon="4.37629">
        <ele>194.23694</ele>
        <time>2020-09-01 15:44:26</time>
      </trkpt>
      <trkpt lat="44.38481" lon="4.37639">
        <ele>192.30011</ele>
        <time>2020-09-01 15:44:30</time>
      </trkpt>
      <trkpt lat="44.38701" lon="4.37724">
        <ele>181.36304</ele>
        <time>2020-09-01 15:45:00</time>
      </trkpt>
      <trkpt lat="44.38723" lon="4.37728">
        <ele>180.2268</ele>
        <time>2020-09-01 15:45:03</time>
      </trkpt>
      <trkpt lat="44.38731" lon="4.37728">
        <ele>179.12256</ele>
        <time>2020-09-01 15:45:04</time>
      </trkpt>
      <trkpt lat="44.38747" lon="4.37725">
        <ele>180.39325</ele>
        <time>2020-09-01 15:45:06</time>
      </trkpt>
      <trkpt lat="44.38753" lon="4.37721">
        <ele>177.63586</ele>
        <time>2020-09-01 15:45:07</time>
      </trkpt>
      <trkpt lat="44.38766" lon="4.37711">
        <ele>176.33124</ele>
        <time>2020-09-01 15:45:09</time>
      </trkpt>
      <trkpt lat="44.38772" lon="4.37705">
        <ele>175.80664</ele>
        <time>2020-09-01 15:45:10</time>
      </trkpt>
      <trkpt lat="44.3878" lon="4.37689">
        <ele>174.49084</ele>
        <time>2020-09-01 15:45:12</time>
      </trkpt>
      <trkpt lat="44.38787" lon="4.37672">
        <ele>172.74884</ele>
        <time>2020-09-01 15:45:14</time>
      </trkpt>
      <trkpt lat="44.38802" lon="4.37639">
        <ele>173.79413</ele>
        <time>2020-09-01 15:45:18</time>
      </trkpt>
      <trkpt lat="44.38812" lon="4.37625">
        <ele>173.38806</ele>
        <time>2020-09-01 15:45:20</time>
      </trkpt>
      <trkpt lat="44.38818" lon="4.37619">
        <ele>172.83142</ele>
        <time>2020-09-01 15:45:21</time>
      </trkpt>
      <trkpt lat="44.38824" lon="4.37614">
        <ele>172.17944</ele>
        <time>2020-09-01 15:45:22</time>
      </trkpt>
      <trkpt lat="44.38839" lon="4.37609">
        <ele>172.505</ele>
        <time>2020-09-01 15:45:24</time>
      </trkpt>
      <trkpt lat="44.38853" lon="4.37608">
        <ele>173.32593</ele>
        <time>2020-09-01 15:45:26</time>
      </trkpt>
      <trkpt lat="44.38861" lon="4.3761">
        <ele>171.12402</ele>
        <time>2020-09-01 15:45:27</time>
      </trkpt>
      <trkpt lat="44.38888" lon="4.37621">
        <ele>169.46472</ele>
        <time>2020-09-01 15:45:31</time>
      </trkpt>
      <trkpt lat="44.39026" lon="4.37676">
        <ele>166.36548</ele>
        <time>2020-09-01 15:45:50</time>
      </trkpt>
      <trkpt lat="44.39078" lon="4.37694">
        <ele>165.27612</ele>
        <time>2020-09-01 15:45:57</time>
      </trkpt>
      <trkpt lat="44.3909" lon="4.37703">
        <ele>164.34595</ele>
        <time>2020-09-01 15:45:59</time>
      </trkpt>
      <trkpt lat="44.3913" lon="4.37735">
        <ele>163.23907</ele>
        <time>2020-09-01 15:46:05</time>
      </trkpt>
      <trkpt lat="44.39209" lon="4.37772">
        <ele>155.33105</ele>
        <time>2020-09-01 15:46:15</time>
      </trkpt>
      <trkpt lat="44.39236" lon="4.37798">
        <ele>152.22803</ele>
        <time>2020-09-01 15:46:19</time>
      </trkpt>
      <trkpt lat="44.39247" lon="4.37815">
        <ele>152.32349</ele>
        <time>2020-09-01 15:46:21</time>
      </trkpt>
      <trkpt lat="44.39279" lon="4.37863">
        <ele>150.67291</ele>
        <time>2020-09-01 15:46:27</time>
      </trkpt>
      <trkpt lat="44.39292" lon="4.37872">
        <ele>148.02747</ele>
        <time>2020-09-01 15:46:29</time>
      </trkpt>
      <trkpt lat="44.39328" lon="4.37891">
        <ele>143.2633</ele>
        <time>2020-09-01 15:46:35</time>
      </trkpt>
      <trkpt lat="44.39358" lon="4.379">
        <ele>141.59113</ele>
        <time>2020-09-01 15:46:40</time>
      </trkpt>
      <trkpt lat="44.39369" lon="4.37902">
        <ele>142.19116</ele>
        <time>2020-09-01 15:46:42</time>
      </trkpt>
      <trkpt lat="44.39381" lon="4.379">
        <ele>142.52563</ele>
        <time>2020-09-01 15:46:44</time>
      </trkpt>
      <trkpt lat="44.39433" lon="4.3788">
        <ele>143.23047</ele>
        <time>2020-09-01 15:46:54</time>
      </trkpt>
      <trkpt lat="44.39446" lon="4.37874">
        <ele>142.19861</ele>
        <time>2020-09-01 15:46:57</time>
      </trkpt>
      <trkpt lat="44.39459" lon="4.37874">
        <ele>140.31787</ele>
        <time>2020-09-01 15:47:00</time>
      </trkpt>
      <trkpt lat="44.39473" lon="4.37875">
        <ele>142.22632</ele>
        <time>2020-09-01 15:47:03</time>
      </trkpt>
      <trkpt lat="44.39478" lon="4.37876">
        <ele>142.35065</ele>
        <time>2020-09-01 15:47:04</time>
      </trkpt>
      <trkpt lat="44.39495" lon="4.3788">
        <ele>142.83807</ele>
        <time>2020-09-01 15:47:08</time>
      </trkpt>
      <trkpt lat="44.39499" lon="4.37882">
        <ele>143.08698</ele>
        <time>2020-09-01 15:47:09</time>
      </trkpt>
      <trkpt lat="44.39515" lon="4.37894">
        <ele>149.3949</ele>
        <time>2020-09-01 15:47:13</time>
      </trkpt>
      <trkpt lat="44.39521" lon="4.37904">
        <ele>149.13953</ele>
        <time>2020-09-01 15:47:15</time>
      </trkpt>
      <trkpt lat="44.3956" lon="4.37972">
        <ele>142.68945</ele>
        <time>2020-09-01 15:47:29</time>
      </trkpt>
      <trkpt lat="44.39562" lon="4.37976">
        <ele>142.15222</ele>
        <time>2020-09-01 15:47:30</time>
      </trkpt>
      <trkpt lat="44.39565" lon="4.37983">
        <ele>140.58173</ele>
        <time>2020-09-01 15:47:34</time>
      </trkpt>
      <trkpt lat="44.39565" lon="4.37984">
        <ele>139.50452</ele>
        <time>2020-09-01 15:47:46</time>
      </trkpt>
      <trkpt lat="44.39565" lon="4.37984">
        <ele>138.39777</ele>
        <time>2020-09-01 15:47:47</time>
      </trkpt>
      <trkpt lat="44.39566" lon="4.37986">
        <ele>139.66614</ele>
        <time>2020-09-01 15:48:02</time>
      </trkpt>
      <trkpt lat="44.39566" lon="4.37987">
        <ele>139.8357</ele>
        <time>2020-09-01 15:48:07</time>
      </trkpt>
      <trkpt lat="44.39571" lon="4.3799">
        <ele>139.25781</ele>
        <time>2020-09-01 15:48:11</time>
      </trkpt>
      <trkpt lat="44.39638" lon="4.38105">
        <ele>137.43317</ele>
        <time>2020-09-01 15:48:40</time>
      </trkpt>
      <trkpt lat="44.39641" lon="4.3811">
        <ele>137.89246</ele>
        <time>2020-09-01 15:48:41</time>
      </trkpt>
      <trkpt lat="44.39664" lon="4.38152">
        <ele>136.7185</ele>
        <time>2020-09-01 15:48:51</time>
      </trkpt>
      <trkpt lat="44.39671" lon="4.38166">
        <ele>136.61731</ele>
        <time>2020-09-01 15:48:54</time>
      </trkpt>
      <trkpt lat="44.39673" lon="4.3817">
        <ele>136.11353</ele>
        <time>2020-09-01 15:48:55</time>
      </trkpt>
      <trkpt lat="44.39677" lon="4.38179">
        <ele>136.7713</ele>
        <time>2020-09-01 15:48:57</time>
      </trkpt>
      <trkpt lat="44.39694" lon="4.38208">
        <ele>139.06757</ele>
        <time>2020-09-01 15:49:04</time>
      </trkpt>
      <trkpt lat="44.39707" lon="4.38235">
        <ele>137.77563</ele>
        <time>2020-09-01 15:49:10</time>
      </trkpt>
      <trkpt lat="44.39711" lon="4.38249">
        <ele>136.77563</ele>
        <time>2020-09-01 15:49:13</time>
      </trkpt>
      <trkpt lat="44.39713" lon="4.38253">
        <ele>137.65857</ele>
        <time>2020-09-01 15:49:14</time>
      </trkpt>
      <trkpt lat="44.3972" lon="4.38263">
        <ele>138.34418</ele>
        <time>2020-09-01 15:49:17</time>
      </trkpt>
      <trkpt lat="44.39727" lon="4.38269">
        <ele>137.64343</ele>
        <time>2020-09-01 15:49:19</time>
      </trkpt>
      <trkpt lat="44.39741" lon="4.3829">
        <ele>137.13391</ele>
        <time>2020-09-01 15:49:25</time>
      </trkpt>
      <trkpt lat="44.39793" lon="4.38384">
        <ele>141.15332</ele>
        <time>2020-09-01 15:49:53</time>
      </trkpt>
      <trkpt lat="44.39795" lon="4.38388">
        <ele>141.12958</ele>
        <time>2020-09-01 15:49:54</time>
      </trkpt>
      <trkpt lat="44.39847" lon="4.3848">
        <ele>139.66809</ele>
        <time>2020-09-01 15:50:24</time>
      </trkpt>
      <trkpt lat="44.39867" lon="4.38513">
        <ele>139.29395</ele>
        <time>2020-09-01 15:50:36</time>
      </trkpt>
      <trkpt lat="44.39865" lon="4.38511">
        <ele>139.17944</ele>
        <time>2020-09-01 15:50:49</time>
      </trkpt>
      <trkpt lat="44.39865" lon="4.38511">
        <ele>141.03357</ele>
        <time>2020-09-01 15:50:51</time>
      </trkpt>
      <trkpt lat="44.39865" lon="4.38511">
        <ele>142.18506</ele>
        <time>2020-09-01 15:50:52</time>
      </trkpt>
      <trkpt lat="44.39862" lon="4.38512">
        <ele>143.10394</ele>
        <time>2020-09-01 15:50:58</time>
      </trkpt>
      <trkpt lat="44.39862" lon="4.38513">
        <ele>146.64691</ele>
        <time>2020-09-01 15:51:02</time>
      </trkpt>
      <trkpt lat="44.39861" lon="4.38513">
        <ele>147.14624</ele>
        <time>2020-09-01 15:51:11</time>
      </trkpt>
      <trkpt lat="44.39861" lon="4.38514">
        <ele>146.21362</ele>
        <time>2020-09-01 15:51:12</time>
      </trkpt>
      <trkpt lat="44.39862" lon="4.38516">
        <ele>147.49255</ele>
        <time>2020-09-01 15:51:59</time>
      </trkpt>
      <trkpt lat="44.39863" lon="4.38518">
        <ele>148.2909</ele>
        <time>2020-09-01 15:53:13</time>
      </trkpt>
      <trkpt lat="44.39861" lon="4.38517">
        <ele>147.33624</ele>
        <time>2020-09-01 15:54:03</time>
      </trkpt>
      <trkpt lat="44.39861" lon="4.38517">
        <ele>147.65698</ele>
        <time>2020-09-01 15:54:45</time>
      </trkpt>
      <trkpt lat="44.39862" lon="4.38518">
        <ele>146.85681</ele>
        <time>2020-09-01 15:54:47</time>
      </trkpt>
      <trkpt lat="44.39862" lon="4.38518">
        <ele>147.19238</ele>
        <time>2020-09-01 15:54:48</time>
      </trkpt>
      <trkpt lat="44.39864" lon="4.38518">
        <ele>147.33698</ele>
        <time>2020-09-01 15:54:50</time>
      </trkpt>
      <trkpt lat="44.39867" lon="4.38519">
        <ele>146.85681</ele>
        <time>2020-09-01 15:54:56</time>
      </trkpt>
      <trkpt lat="44.39867" lon="4.38519">
        <ele>147.74438</ele>
        <time>2020-09-01 15:54:57</time>
      </trkpt>
      <trkpt lat="44.39868" lon="4.38519">
        <ele>145.95276</ele>
        <time>2020-09-01 15:55:00</time>
      </trkpt>
      <trkpt lat="44.39868" lon="4.3852">
        <ele>146.3042</ele>
        <time>2020-09-01 15:55:01</time>
      </trkpt>
      <trkpt lat="44.39869" lon="4.38519">
        <ele>147.00232</ele>
        <time>2020-09-01 15:55:03</time>
      </trkpt>
      <trkpt lat="44.3987" lon="4.38521">
        <ele>147.02905</ele>
        <time>2020-09-01 15:55:05</time>
      </trkpt>
      <trkpt lat="44.39871" lon="4.38524">
        <ele>147.07831</ele>
        <time>2020-09-01 15:55:07</time>
      </trkpt>
      <trkpt lat="44.39873" lon="4.38526">
        <ele>147.0708</ele>
        <time>2020-09-01 15:55:08</time>
      </trkpt>
      <trkpt lat="44.39874" lon="4.38528">
        <ele>146.51581</ele>
        <time>2020-09-01 15:55:09</time>
      </trkpt>
      <trkpt lat="44.39877" lon="4.38533">
        <ele>146.79883</ele>
        <time>2020-09-01 15:55:11</time>
      </trkpt>
      <trkpt lat="44.39884" lon="4.38543">
        <ele>147.07831</ele>
        <time>2020-09-01 15:55:16</time>
      </trkpt>
      <trkpt lat="44.39885" lon="4.38545">
        <ele>146.91364</ele>
        <time>2020-09-01 15:55:17</time>
      </trkpt>
      <trkpt lat="44.39887" lon="4.38547">
        <ele>146.56775</ele>
        <time>2020-09-01 15:55:18</time>
      </trkpt>
      <trkpt lat="44.3992" lon="4.38602">
        <ele>147.35413</ele>
        <time>2020-09-01 15:55:37</time>
      </trkpt>
      <trkpt lat="44.39922" lon="4.38608">
        <ele>148.76599</ele>
        <time>2020-09-01 15:55:39</time>
      </trkpt>
      <trkpt lat="44.39929" lon="4.38618">
        <ele>150.40308</ele>
        <time>2020-09-01 15:55:44</time>
      </trkpt>
      <trkpt lat="44.39944" lon="4.38646">
        <ele>152.66656</ele>
        <time>2020-09-01 15:55:53</time>
      </trkpt>
      <trkpt lat="44.39945" lon="4.38649">
        <ele>152.8518</ele>
        <time>2020-09-01 15:55:54</time>
      </trkpt>
      <trkpt lat="44.39954" lon="4.38664">
        <ele>153.2622</ele>
        <time>2020-09-01 15:55:59</time>
      </trkpt>
      <trkpt lat="44.39955" lon="4.38667">
        <ele>153.206</ele>
        <time>2020-09-01 15:56:00</time>
      </trkpt>
      <trkpt lat="44.39965" lon="4.38683">
        <ele>152.85052</ele>
        <time>2020-09-01 15:56:06</time>
      </trkpt>
      <trkpt lat="44.3997" lon="4.38692">
        <ele>152.88367</ele>
        <time>2020-09-01 15:56:09</time>
      </trkpt>
      <trkpt lat="44.39972" lon="4.38694">
        <ele>153.01904</ele>
        <time>2020-09-01 15:56:10</time>
      </trkpt>
      <trkpt lat="44.39975" lon="4.387">
        <ele>152.83228</ele>
        <time>2020-09-01 15:56:12</time>
      </trkpt>
      <trkpt lat="44.39978" lon="4.38705">
        <ele>153.14923</ele>
        <time>2020-09-01 15:56:14</time>
      </trkpt>
      <trkpt lat="44.39985" lon="4.38718">
        <ele>153.05371</ele>
        <time>2020-09-01 15:56:19</time>
      </trkpt>
      <trkpt lat="44.39985" lon="4.38721">
        <ele>150.05469</ele>
        <time>2020-09-01 15:56:20</time>
      </trkpt>
      <trkpt lat="44.39985" lon="4.38724">
        <ele>150.88586</ele>
        <time>2020-09-01 15:56:21</time>
      </trkpt>
      <trkpt lat="44.39982" lon="4.38727">
        <ele>150.77142</ele>
        <time>2020-09-01 15:56:23</time>
      </trkpt>
      <trkpt lat="44.3998" lon="4.38727">
        <ele>150.48651</ele>
        <time>2020-09-01 15:56:24</time>
      </trkpt>
      <trkpt lat="44.39977" lon="4.38725">
        <ele>151.05713</ele>
        <time>2020-09-01 15:56:26</time>
      </trkpt>
      <trkpt lat="44.39974" lon="4.38724">
        <ele>153.10815</ele>
        <time>2020-09-01 15:56:28</time>
      </trkpt>
      <trkpt lat="44.39974" lon="4.38723">
        <ele>152.82587</ele>
        <time>2020-09-01 15:56:29</time>
      </trkpt>
      <trkpt lat="44.39974" lon="4.38723">
        <ele>152.16907</ele>
        <time>2020-09-01 15:56:47</time>
      </trkpt>
      <trkpt lat="44.39974" lon="4.38723">
        <ele>152.21027</ele>
        <time>2020-09-01 15:56:48</time>
      </trkpt>
      <trkpt lat="44.39974" lon="4.38723">
        <ele>151.35217</ele>
        <time>2020-09-01 15:56:49</time>
      </trkpt>
      <trkpt lat="44.39975" lon="4.38722">
        <ele>151.14398</ele>
        <time>2020-09-01 15:56:52</time>
      </trkpt>
      <trkpt lat="44.39974" lon="4.38717">
        <ele>145.17639</ele>
        <time>2020-09-01 16:01:55</time>
      </trkpt>
      <trkpt lat="44.39972" lon="4.3872">
        <ele>144.98438</ele>
        <time>2020-09-01 16:05:34</time>
      </trkpt>
      <trkpt lat="44.39971" lon="4.38721">
        <ele>152.5061</ele>
        <time>2020-09-01 16:15:17</time>
      </trkpt>
      <trkpt lat="44.39971" lon="4.38721">
        <ele>152.0727</ele>
        <time>2020-09-01 16:15:18</time>
      </trkpt>
      <trkpt lat="44.39971" lon="4.38721">
        <ele>152.70123</ele>
        <time>2020-09-01 16:15:19</time>
      </trkpt>
      <trkpt lat="44.39972" lon="4.38722">
        <ele>154.08533</ele>
        <time>2020-09-01 16:15:20</time>
      </trkpt>
      <trkpt lat="44.39974" lon="4.38724">
        <ele>156.23029</ele>
        <time>2020-09-01 16:15:27</time>
      </trkpt>
      <trkpt lat="44.39975" lon="4.38724">
        <ele>155.7442</ele>
        <time>2020-09-01 16:15:30</time>
      </trkpt>
      <trkpt lat="44.39975" lon="4.38725">
        <ele>155.15405</ele>
        <time>2020-09-01 16:15:32</time>
      </trkpt>
      <trkpt lat="44.39975" lon="4.38725">
        <ele>154.80432</ele>
        <time>2020-09-01 16:15:33</time>
      </trkpt>
      <trkpt lat="44.39975" lon="4.38725">
        <ele>154.10596</ele>
        <time>2020-09-01 16:15:34</time>
      </trkpt>
      <trkpt lat="44.39975" lon="4.38726">
        <ele>154.54639</ele>
        <time>2020-09-01 16:15:35</time>
      </trkpt>
      <trkpt lat="44.39975" lon="4.38728">
        <ele>153.3465</ele>
        <time>2020-09-01 16:15:39</time>
      </trkpt>
      <trkpt lat="44.39974" lon="4.38729">
        <ele>151.88275</ele>
        <time>2020-09-01 16:15:44</time>
      </trkpt>
      <trkpt lat="44.39974" lon="4.38732">
        <ele>153.9259</ele>
        <time>2020-09-01 16:15:46</time>
      </trkpt>
      <trkpt lat="44.39973" lon="4.38736">
        <ele>151.49902</ele>
        <time>2020-09-01 16:15:48</time>
      </trkpt>
      <trkpt lat="44.39973" lon="4.38739">
        <ele>151.42761</ele>
        <time>2020-09-01 16:15:49</time>
      </trkpt>
      <trkpt lat="44.39974" lon="4.38741">
        <ele>152.104</ele>
        <time>2020-09-01 16:15:50</time>
      </trkpt>
      <trkpt lat="44.39977" lon="4.38743">
        <ele>152.1167</ele>
        <time>2020-09-01 16:15:52</time>
      </trkpt>
      <trkpt lat="44.39982" lon="4.3874">
        <ele>151.67194</ele>
        <time>2020-09-01 16:15:55</time>
      </trkpt>
      <trkpt lat="44.39985" lon="4.38737">
        <ele>152.18689</ele>
        <time>2020-09-01 16:15:57</time>
      </trkpt>
      <trkpt lat="44.39986" lon="4.38734">
        <ele>150.24457</ele>
        <time>2020-09-01 16:16:00</time>
      </trkpt>
      <trkpt lat="44.39986" lon="4.38735">
        <ele>150.92279</ele>
        <time>2020-09-01 16:16:32</time>
      </trkpt>
      <trkpt lat="44.39987" lon="4.38735">
        <ele>149.51642</ele>
        <time>2020-09-01 16:17:18</time>
      </trkpt>
      <trkpt lat="44.39987" lon="4.38734">
        <ele>148.94928</ele>
        <time>2020-09-01 16:17:19</time>
      </trkpt>
      <trkpt lat="44.39987" lon="4.38731">
        <ele>148.87952</ele>
        <time>2020-09-01 16:17:22</time>
      </trkpt>
      <trkpt lat="44.39985" lon="4.38729">
        <ele>149.04004</ele>
        <time>2020-09-01 16:17:24</time>
      </trkpt>
      <trkpt lat="44.39982" lon="4.38729">
        <ele>149.62286</ele>
        <time>2020-09-01 16:17:26</time>
      </trkpt>
      <trkpt lat="44.3998" lon="4.38729">
        <ele>147.97455</ele>
        <time>2020-09-01 16:17:27</time>
      </trkpt>
      <trkpt lat="44.39972" lon="4.38733">
        <ele>147.68182</ele>
        <time>2020-09-01 16:17:33</time>
      </trkpt>
      <trkpt lat="44.3997" lon="4.38736">
        <ele>147.97455</ele>
        <time>2020-09-01 16:17:36</time>
      </trkpt>
      <trkpt lat="44.3997" lon="4.38738">
        <ele>148.87213</ele>
        <time>2020-09-01 16:17:37</time>
      </trkpt>
      <trkpt lat="44.39973" lon="4.38745">
        <ele>148.94238</ele>
        <time>2020-09-01 16:17:40</time>
      </trkpt>
      <trkpt lat="44.39974" lon="4.38746">
        <ele>148.31299</ele>
        <time>2020-09-01 16:17:41</time>
      </trkpt>
      <trkpt lat="44.39975" lon="4.38748">
        <ele>148.40991</ele>
        <time>2020-09-01 16:17:42</time>
      </trkpt>
      <trkpt lat="44.39978" lon="4.38754">
        <ele>150.52734</ele>
        <time>2020-09-01 16:17:45</time>
      </trkpt>
      <trkpt lat="44.3998" lon="4.38756">
        <ele>148.87213</ele>
        <time>2020-09-01 16:17:46</time>
      </trkpt>
      <trkpt lat="44.39981" lon="4.38757">
        <ele>150.96979</ele>
        <time>2020-09-01 16:17:47</time>
      </trkpt>
      <trkpt lat="44.39983" lon="4.38757">
        <ele>151.21936</ele>
        <time>2020-09-01 16:17:48</time>
      </trkpt>
      <trkpt lat="44.39985" lon="4.38756">
        <ele>151.38293</ele>
        <time>2020-09-01 16:17:49</time>
      </trkpt>
      <trkpt lat="44.39985" lon="4.38749">
        <ele>149.44214</ele>
        <time>2020-09-01 16:17:52</time>
      </trkpt>
      <trkpt lat="44.39985" lon="4.38746">
        <ele>149.58691</ele>
        <time>2020-09-01 16:17:53</time>
      </trkpt>
      <trkpt lat="44.39984" lon="4.38741">
        <ele>147.34827</ele>
        <time>2020-09-01 16:17:55</time>
      </trkpt>
      <trkpt lat="44.39985" lon="4.38738">
        <ele>145.96637</ele>
        <time>2020-09-01 16:17:57</time>
      </trkpt>
      <trkpt lat="44.39986" lon="4.38735">
        <ele>146.19678</ele>
        <time>2020-09-01 16:17:59</time>
      </trkpt>
      <trkpt lat="44.39987" lon="4.38734">
        <ele>146.5774</ele>
        <time>2020-09-01 16:18:00</time>
      </trkpt>
      <trkpt lat="44.39988" lon="4.38732">
        <ele>146.93591</ele>
        <time>2020-09-01 16:18:36</time>
      </trkpt>
      <trkpt lat="44.3999" lon="4.38732">
        <ele>146.25134</ele>
        <time>2020-09-01 16:18:38</time>
      </trkpt>
      <trkpt lat="44.3999" lon="4.38732">
        <ele>146.8775</ele>
        <time>2020-09-01 16:19:44</time>
      </trkpt>
      <trkpt lat="44.39989" lon="4.38733">
        <ele>146.96497</ele>
        <time>2020-09-01 16:19:59</time>
      </trkpt>
      <trkpt lat="44.39989" lon="4.38732">
        <ele>146.85773</ele>
        <time>2020-09-01 16:20:00</time>
      </trkpt>
      <trkpt lat="44.39991" lon="4.38731">
        <ele>147.9939</ele>
        <time>2020-09-01 16:20:44</time>
      </trkpt>
      <trkpt lat="44.39989" lon="4.38729">
        <ele>146.77917</ele>
        <time>2020-09-01 16:20:46</time>
      </trkpt>
      <trkpt lat="44.39987" lon="4.38727">
        <ele>147.81848</ele>
        <time>2020-09-01 16:20:48</time>
      </trkpt>
      <trkpt lat="44.39982" lon="4.38723">
        <ele>149.62793</ele>
        <time>2020-09-01 16:20:52</time>
      </trkpt>
      <trkpt lat="44.3998" lon="4.38722">
        <ele>149.90479</ele>
        <time>2020-09-01 16:20:53</time>
      </trkpt>
      <trkpt lat="44.39978" lon="4.38719">
        <ele>150.80536</ele>
        <time>2020-09-01 16:20:55</time>
      </trkpt>
      <trkpt lat="44.39976" lon="4.38717">
        <ele>150.94373</ele>
        <time>2020-09-01 16:20:57</time>
      </trkpt>
      <trkpt lat="44.39976" lon="4.38717">
        <ele>149.21875</ele>
        <time>2020-09-01 16:20:59</time>
      </trkpt>
      <trkpt lat="44.39976" lon="4.38717">
        <ele>148.54602</ele>
        <time>2020-09-01 16:21:35</time>
      </trkpt>
      <trkpt lat="44.39976" lon="4.38717">
        <ele>148.52808</ele>
        <time>2020-09-01 16:22:05</time>
      </trkpt>
      <trkpt lat="44.39976" lon="4.38717">
        <ele>148.36322</ele>
        <time>2020-09-01 16:23:23</time>
      </trkpt>
      <trkpt lat="44.39971" lon="4.3872">
        <ele>140.85187</ele>
        <time>2020-09-01 16:37:23</time>
      </trkpt>
      <trkpt lat="44.39975" lon="4.38719">
        <ele>141.05737</ele>
        <time>2020-09-01 16:37:27</time>
      </trkpt>
      <trkpt lat="44.39979" lon="4.38717">
        <ele>142.39612</ele>
        <time>2020-09-01 16:37:33</time>
      </trkpt>
      <trkpt lat="44.39979" lon="4.38717">
        <ele>144.3183</ele>
        <time>2020-09-01 16:37:51</time>
      </trkpt>
      <trkpt lat="44.39982" lon="4.38718">
        <ele>143.54987</ele>
        <time>2020-09-01 16:37:56</time>
      </trkpt>
      <trkpt lat="44.39982" lon="4.3872">
        <ele>143.18579</ele>
        <time>2020-09-01 16:37:59</time>
      </trkpt>
      <trkpt lat="44.39982" lon="4.38721">
        <ele>144.62341</ele>
        <time>2020-09-01 16:38:02</time>
      </trkpt>
      <trkpt lat="44.39983" lon="4.38724">
        <ele>144.10406</ele>
        <time>2020-09-01 16:38:04</time>
      </trkpt>
      <trkpt lat="44.39987" lon="4.38729">
        <ele>145.36646</ele>
        <time>2020-09-01 16:38:07</time>
      </trkpt>
      <trkpt lat="44.39989" lon="4.38732">
        <ele>146.20068</ele>
        <time>2020-09-01 16:38:09</time>
      </trkpt>
      <trkpt lat="44.39992" lon="4.38736">
        <ele>145.22815</ele>
        <time>2020-09-01 16:38:11</time>
      </trkpt>
      <trkpt lat="44.39998" lon="4.38746">
        <ele>146.41577</ele>
        <time>2020-09-01 16:38:15</time>
      </trkpt>
      <trkpt lat="44.40021" lon="4.38779">
        <ele>146.08575</ele>
        <time>2020-09-01 16:38:27</time>
      </trkpt>
      <trkpt lat="44.40022" lon="4.38783">
        <ele>146.52765</ele>
        <time>2020-09-01 16:38:28</time>
      </trkpt>
      <trkpt lat="44.40022" lon="4.38787">
        <ele>146.05005</ele>
        <time>2020-09-01 16:38:29</time>
      </trkpt>
      <trkpt lat="44.40023" lon="4.38792">
        <ele>145.3576</ele>
        <time>2020-09-01 16:38:30</time>
      </trkpt>
      <trkpt lat="44.40027" lon="4.38805">
        <ele>145.82977</ele>
        <time>2020-09-01 16:38:33</time>
      </trkpt>
      <trkpt lat="44.40033" lon="4.3881">
        <ele>146.15344</ele>
        <time>2020-09-01 16:38:35</time>
      </trkpt>
      <trkpt lat="44.40037" lon="4.3881">
        <ele>146.08575</ele>
        <time>2020-09-01 16:38:36</time>
      </trkpt>
      <trkpt lat="44.4004" lon="4.3881">
        <ele>147.13153</ele>
        <time>2020-09-01 16:38:37</time>
      </trkpt>
      <trkpt lat="44.40043" lon="4.38809">
        <ele>147.5075</ele>
        <time>2020-09-01 16:38:38</time>
      </trkpt>
      <trkpt lat="44.40047" lon="4.38806">
        <ele>147.17792</ele>
        <time>2020-09-01 16:38:39</time>
      </trkpt>
      <trkpt lat="44.40052" lon="4.38799">
        <ele>146.97034</ele>
        <time>2020-09-01 16:38:41</time>
      </trkpt>
      <trkpt lat="44.40054" lon="4.38794">
        <ele>147.29443</ele>
        <time>2020-09-01 16:38:42</time>
      </trkpt>
      <trkpt lat="44.40059" lon="4.38781">
        <ele>146.6748</ele>
        <time>2020-09-01 16:38:45</time>
      </trkpt>
      <trkpt lat="44.40061" lon="4.38778">
        <ele>147.13153</ele>
        <time>2020-09-01 16:38:46</time>
      </trkpt>
      <trkpt lat="44.40064" lon="4.38775">
        <ele>147.07483</ele>
        <time>2020-09-01 16:38:47</time>
      </trkpt>
      <trkpt lat="44.4007" lon="4.38771">
        <ele>148.38104</ele>
        <time>2020-09-01 16:38:49</time>
      </trkpt>
      <trkpt lat="44.40075" lon="4.38768">
        <ele>149.67664</ele>
        <time>2020-09-01 16:38:51</time>
      </trkpt>
      <trkpt lat="44.40095" lon="4.38741">
        <ele>150.72107</ele>
        <time>2020-09-01 16:39:01</time>
      </trkpt>
      <trkpt lat="44.40171" lon="4.38613">
        <ele>144.23059</ele>
        <time>2020-09-01 16:39:27</time>
      </trkpt>
      <trkpt lat="44.4018" lon="4.38598">
        <ele>142.20038</ele>
        <time>2020-09-01 16:39:29</time>
      </trkpt>
      <trkpt lat="44.40188" lon="4.38579">
        <ele>141.94843</ele>
        <time>2020-09-01 16:39:31</time>
      </trkpt>
      <trkpt lat="44.40195" lon="4.38558">
        <ele>140.79248</ele>
        <time>2020-09-01 16:39:33</time>
      </trkpt>
      <trkpt lat="44.40218" lon="4.38472">
        <ele>137.2655</ele>
        <time>2020-09-01 16:39:41</time>
      </trkpt>
      <trkpt lat="44.40227" lon="4.38454">
        <ele>137.55579</ele>
        <time>2020-09-01 16:39:43</time>
      </trkpt>
      <trkpt lat="44.40243" lon="4.38431">
        <ele>140.81</ele>
        <time>2020-09-01 16:39:46</time>
      </trkpt>
      <trkpt lat="44.40284" lon="4.38395">
        <ele>136.1919</ele>
        <time>2020-09-01 16:39:53</time>
      </trkpt>
      <trkpt lat="44.40307" lon="4.3838">
        <ele>136.79816</ele>
        <time>2020-09-01 16:39:57</time>
      </trkpt>
      <trkpt lat="44.40326" lon="4.38374">
        <ele>137.38733</ele>
        <time>2020-09-01 16:40:00</time>
      </trkpt>
      <trkpt lat="44.40338" lon="4.38374">
        <ele>137.62982</ele>
        <time>2020-09-01 16:40:02</time>
      </trkpt>
      <trkpt lat="44.40357" lon="4.38379">
        <ele>138.97766</ele>
        <time>2020-09-01 16:40:05</time>
      </trkpt>
      <trkpt lat="44.4038" lon="4.38391">
        <ele>140.41327</ele>
        <time>2020-09-01 16:40:09</time>
      </trkpt>
      <trkpt lat="44.40407" lon="4.38405">
        <ele>139.59845</ele>
        <time>2020-09-01 16:40:14</time>
      </trkpt>
      <trkpt lat="44.40431" lon="4.38412">
        <ele>134.80237</ele>
        <time>2020-09-01 16:40:18</time>
      </trkpt>
      <trkpt lat="44.40562" lon="4.38422">
        <ele>139.01666</ele>
        <time>2020-09-01 16:40:37</time>
      </trkpt>
      <trkpt lat="44.40589" lon="4.38437">
        <ele>137.08917</ele>
        <time>2020-09-01 16:40:42</time>
      </trkpt>
      <trkpt lat="44.40608" lon="4.38452">
        <ele>139.01666</ele>
        <time>2020-09-01 16:40:46</time>
      </trkpt>
      <trkpt lat="44.40629" lon="4.38468">
        <ele>135.66779</ele>
        <time>2020-09-01 16:40:51</time>
      </trkpt>
      <trkpt lat="44.40651" lon="4.38486">
        <ele>137.4173</ele>
        <time>2020-09-01 16:40:57</time>
      </trkpt>
      <trkpt lat="44.40657" lon="4.38496">
        <ele>137.11725</ele>
        <time>2020-09-01 16:40:59</time>
      </trkpt>
      <trkpt lat="44.40665" lon="4.38514">
        <ele>137.36633</ele>
        <time>2020-09-01 16:41:03</time>
      </trkpt>
      <trkpt lat="44.40677" lon="4.38549">
        <ele>135.8645</ele>
        <time>2020-09-01 16:41:10</time>
      </trkpt>
      <trkpt lat="44.40706" lon="4.38657">
        <ele>140.43042</ele>
        <time>2020-09-01 16:41:35</time>
      </trkpt>
      <trkpt lat="44.40724" lon="4.38699">
        <ele>136.2492</ele>
        <time>2020-09-01 16:41:45</time>
      </trkpt>
      <trkpt lat="44.40742" lon="4.38725">
        <ele>138.93445</ele>
        <time>2020-09-01 16:41:53</time>
      </trkpt>
      <trkpt lat="44.40749" lon="4.38735">
        <ele>139.5315</ele>
        <time>2020-09-01 16:41:57</time>
      </trkpt>
      <trkpt lat="44.4075" lon="4.38748">
        <ele>140.5387</ele>
        <time>2020-09-01 16:42:01</time>
      </trkpt>
      <trkpt lat="44.4075" lon="4.38751">
        <ele>139.94714</ele>
        <time>2020-09-01 16:42:02</time>
      </trkpt>
      <trkpt lat="44.40746" lon="4.38755">
        <ele>140.06744</ele>
        <time>2020-09-01 16:42:04</time>
      </trkpt>
      <trkpt lat="44.4074" lon="4.38758">
        <ele>140.12616</ele>
        <time>2020-09-01 16:42:08</time>
      </trkpt>
      <trkpt lat="44.4074" lon="4.3876">
        <ele>140.07861</ele>
        <time>2020-09-01 16:42:09</time>
      </trkpt>
      <trkpt lat="44.40741" lon="4.38761">
        <ele>141.53906</ele>
        <time>2020-09-01 16:42:11</time>
      </trkpt>
      <trkpt lat="44.40742" lon="4.38761">
        <ele>141.27332</ele>
        <time>2020-09-01 16:42:13</time>
      </trkpt>
      <trkpt lat="44.40742" lon="4.38761">
        <ele>141.18445</ele>
        <time>2020-09-01 16:42:14</time>
      </trkpt>
      <trkpt lat="44.40742" lon="4.38761">
        <ele>141.79883</ele>
        <time>2020-09-01 16:42:33</time>
      </trkpt>
      <trkpt lat="44.40742" lon="4.3876">
        <ele>142.74713</ele>
        <time>2020-09-01 16:42:34</time>
      </trkpt>
      <trkpt lat="44.40743" lon="4.38759">
        <ele>141.79932</ele>
        <time>2020-09-01 16:42:36</time>
      </trkpt>
      <trkpt lat="44.40745" lon="4.38755">
        <ele>141.68915</ele>
        <time>2020-09-01 16:42:39</time>
      </trkpt>
      <trkpt lat="44.40749" lon="4.38754">
        <ele>142.28113</ele>
        <time>2020-09-01 16:42:42</time>
      </trkpt>
      <trkpt lat="44.40751" lon="4.38754">
        <ele>142.67487</ele>
        <time>2020-09-01 16:42:43</time>
      </trkpt>
      <trkpt lat="44.40753" lon="4.38757">
        <ele>142.91632</ele>
        <time>2020-09-01 16:42:46</time>
      </trkpt>
      <trkpt lat="44.40752" lon="4.38758">
        <ele>144.07544</ele>
        <time>2020-09-01 16:42:49</time>
      </trkpt>
      <trkpt lat="44.40752" lon="4.38758">
        <ele>144.39984</ele>
        <time>2020-09-01 16:42:50</time>
      </trkpt>
      <trkpt lat="44.40753" lon="4.38758">
        <ele>144.57666</ele>
        <time>2020-09-01 16:42:51</time>
      </trkpt>
      <trkpt lat="44.40754" lon="4.38759">
        <ele>144.50378</ele>
        <time>2020-09-01 16:42:52</time>
      </trkpt>
      <trkpt lat="44.40757" lon="4.38763">
        <ele>144.22687</ele>
        <time>2020-09-01 16:42:54</time>
      </trkpt>
      <trkpt lat="44.40758" lon="4.38767">
        <ele>144.56628</ele>
        <time>2020-09-01 16:42:55</time>
      </trkpt>
      <trkpt lat="44.40759" lon="4.38771">
        <ele>143.09094</ele>
        <time>2020-09-01 16:42:56</time>
      </trkpt>
      <trkpt lat="44.40759" lon="4.38775">
        <ele>145.04517</ele>
        <time>2020-09-01 16:42:57</time>
      </trkpt>
      <trkpt lat="44.40758" lon="4.3878">
        <ele>144.48969</ele>
        <time>2020-09-01 16:42:58</time>
      </trkpt>
      <trkpt lat="44.40756" lon="4.38789">
        <ele>145.36896</ele>
        <time>2020-09-01 16:43:00</time>
      </trkpt>
      <trkpt lat="44.40755" lon="4.38793">
        <ele>146.18323</ele>
        <time>2020-09-01 16:43:01</time>
      </trkpt>
      <trkpt lat="44.40747" lon="4.38811">
        <ele>145.04517</ele>
        <time>2020-09-01 16:43:06</time>
      </trkpt>
      <trkpt lat="44.40744" lon="4.38831">
        <ele>144.15497</ele>
        <time>2020-09-01 16:43:11</time>
      </trkpt>
      <trkpt lat="44.40743" lon="4.38838">
        <ele>143.72235</ele>
        <time>2020-09-01 16:43:13</time>
      </trkpt>
      <trkpt lat="44.40744" lon="4.38842">
        <ele>143.06555</ele>
        <time>2020-09-01 16:43:14</time>
      </trkpt>
      <trkpt lat="44.40745" lon="4.38855">
        <ele>142.42542</ele>
        <time>2020-09-01 16:43:17</time>
      </trkpt>
      <trkpt lat="44.40747" lon="4.38863">
        <ele>141.55719</ele>
        <time>2020-09-01 16:43:19</time>
      </trkpt>
      <trkpt lat="44.40748" lon="4.38865">
        <ele>141.97034</ele>
        <time>2020-09-01 16:43:20</time>
      </trkpt>
      <trkpt lat="44.40753" lon="4.3887">
        <ele>141.57788</ele>
        <time>2020-09-01 16:43:22</time>
      </trkpt>
      <trkpt lat="44.4076" lon="4.38874">
        <ele>141.62476</ele>
        <time>2020-09-01 16:43:25</time>
      </trkpt>
      <trkpt lat="44.40762" lon="4.38875">
        <ele>142.42542</ele>
        <time>2020-09-01 16:43:26</time>
      </trkpt>
      <trkpt lat="44.40763" lon="4.38877">
        <ele>141.86902</ele>
        <time>2020-09-01 16:43:27</time>
      </trkpt>
      <trkpt lat="44.40765" lon="4.3888">
        <ele>143.49365</ele>
        <time>2020-09-01 16:43:29</time>
      </trkpt>
      <trkpt lat="44.40765" lon="4.38882">
        <ele>143.76941</ele>
        <time>2020-09-01 16:43:32</time>
      </trkpt>
      <trkpt lat="44.40764" lon="4.38882">
        <ele>141.86902</ele>
        <time>2020-09-01 16:43:36</time>
      </trkpt>
      <trkpt lat="44.40764" lon="4.38882">
        <ele>144.95142</ele>
        <time>2020-09-01 16:43:38</time>
      </trkpt>
      <trkpt lat="44.40764" lon="4.38882">
        <ele>145.04175</ele>
        <time>2020-09-01 16:43:41</time>
      </trkpt>
      <trkpt lat="44.40764" lon="4.38882">
        <ele>144.73291</ele>
        <time>2020-09-01 16:43:42</time>
      </trkpt>
      <trkpt lat="44.40764" lon="4.38883">
        <ele>145.26709</ele>
        <time>2020-09-01 16:43:43</time>
      </trkpt>
      <trkpt lat="44.40767" lon="4.38885">
        <ele>147.32324</ele>
        <time>2020-09-01 16:43:50</time>
      </trkpt>
      <trkpt lat="44.40767" lon="4.38884">
        <ele>148.09729</ele>
        <time>2020-09-01 16:44:10</time>
      </trkpt>
      <trkpt lat="44.40767" lon="4.38884">
        <ele>147.78864</ele>
        <time>2020-09-01 16:44:11</time>
      </trkpt>
      <trkpt lat="44.40767" lon="4.38885">
        <ele>148.24255</ele>
        <time>2020-09-01 16:44:20</time>
      </trkpt>
      <trkpt lat="44.40767" lon="4.38885">
        <ele>148.38556</ele>
        <time>2020-09-01 16:44:21</time>
      </trkpt>
      <trkpt lat="44.40766" lon="4.38887">
        <ele>151.2995</ele>
        <time>2020-09-01 16:50:02</time>
      </trkpt>
      <trkpt lat="44.40767" lon="4.3889">
        <ele>149.67859</ele>
        <time>2020-09-01 16:50:04</time>
      </trkpt>
      <trkpt lat="44.40767" lon="4.38893">
        <ele>150.1637</ele>
        <time>2020-09-01 16:50:07</time>
      </trkpt>
      <trkpt lat="44.40769" lon="4.38896">
        <ele>150.98737</ele>
        <time>2020-09-01 16:50:19</time>
      </trkpt>
      <trkpt lat="44.40766" lon="4.38895">
        <ele>151.06628</ele>
        <time>2020-09-01 16:50:23</time>
      </trkpt>
      <trkpt lat="44.40764" lon="4.38892">
        <ele>150.6106</ele>
        <time>2020-09-01 16:50:25</time>
      </trkpt>
      <trkpt lat="44.40763" lon="4.38889">
        <ele>151.49658</ele>
        <time>2020-09-01 16:50:26</time>
      </trkpt>
      <trkpt lat="44.40757" lon="4.38877">
        <ele>149.71875</ele>
        <time>2020-09-01 16:50:33</time>
      </trkpt>
      <trkpt lat="44.40755" lon="4.38872">
        <ele>149.09235</ele>
        <time>2020-09-01 16:50:35</time>
      </trkpt>
      <trkpt lat="44.40749" lon="4.38859">
        <ele>151.29242</ele>
        <time>2020-09-01 16:50:39</time>
      </trkpt>
      <trkpt lat="44.40748" lon="4.38856">
        <ele>152.35522</ele>
        <time>2020-09-01 16:50:40</time>
      </trkpt>
      <trkpt lat="44.40744" lon="4.38853">
        <ele>153.05042</ele>
        <time>2020-09-01 16:50:44</time>
      </trkpt>
      <trkpt lat="44.40745" lon="4.38853">
        <ele>149.9931</ele>
        <time>2020-09-01 16:50:46</time>
      </trkpt>
      <trkpt lat="44.40747" lon="4.38852">
        <ele>147.8706</ele>
        <time>2020-09-01 16:50:53</time>
      </trkpt>
      <trkpt lat="44.40746" lon="4.38848">
        <ele>148.64728</ele>
        <time>2020-09-01 16:50:56</time>
      </trkpt>
      <trkpt lat="44.40745" lon="4.38845">
        <ele>147.93945</ele>
        <time>2020-09-01 16:50:57</time>
      </trkpt>
      <trkpt lat="44.40743" lon="4.38844">
        <ele>147.86334</ele>
        <time>2020-09-01 16:50:58</time>
      </trkpt>
      <trkpt lat="44.40741" lon="4.38845">
        <ele>148.29333</ele>
        <time>2020-09-01 16:50:59</time>
      </trkpt>
      <trkpt lat="44.40736" lon="4.3885">
        <ele>147.50153</ele>
        <time>2020-09-01 16:51:01</time>
      </trkpt>
      <trkpt lat="44.40734" lon="4.38854">
        <ele>147.52264</ele>
        <time>2020-09-01 16:51:02</time>
      </trkpt>
      <trkpt lat="44.40697" lon="4.38949">
        <ele>148.55725</ele>
        <time>2020-09-01 16:51:28</time>
      </trkpt>
      <trkpt lat="44.40676" lon="4.39005">
        <ele>147.21545</ele>
        <time>2020-09-01 16:51:42</time>
      </trkpt>
      <trkpt lat="44.4067" lon="4.39023">
        <ele>145.97198</ele>
        <time>2020-09-01 16:51:47</time>
      </trkpt>
      <trkpt lat="44.40666" lon="4.39034">
        <ele>145.39935</ele>
        <time>2020-09-01 16:51:50</time>
      </trkpt>
      <trkpt lat="44.40664" lon="4.39038">
        <ele>146.05884</ele>
        <time>2020-09-01 16:51:51</time>
      </trkpt>
      <trkpt lat="44.40659" lon="4.39053">
        <ele>145.8078</ele>
        <time>2020-09-01 16:51:55</time>
      </trkpt>
      <trkpt lat="44.40658" lon="4.3906">
        <ele>146.07556</ele>
        <time>2020-09-01 16:51:57</time>
      </trkpt>
      <trkpt lat="44.40656" lon="4.39063">
        <ele>145.58917</ele>
        <time>2020-09-01 16:51:58</time>
      </trkpt>
      <trkpt lat="44.40654" lon="4.39066">
        <ele>145.07147</ele>
        <time>2020-09-01 16:51:59</time>
      </trkpt>
      <trkpt lat="44.40649" lon="4.39076">
        <ele>146.34619</ele>
        <time>2020-09-01 16:52:02</time>
      </trkpt>
      <trkpt lat="44.40619" lon="4.39146">
        <ele>149.17743</ele>
        <time>2020-09-01 16:52:22</time>
      </trkpt>
      <trkpt lat="44.40616" lon="4.39157">
        <ele>150.14905</ele>
        <time>2020-09-01 16:52:25</time>
      </trkpt>
      <trkpt lat="44.40603" lon="4.3919">
        <ele>149.67847</ele>
        <time>2020-09-01 16:52:35</time>
      </trkpt>
      <trkpt lat="44.406" lon="4.39205">
        <ele>148.20624</ele>
        <time>2020-09-01 16:52:39</time>
      </trkpt>
      <trkpt lat="44.40598" lon="4.39216">
        <ele>150.91644</ele>
        <time>2020-09-01 16:52:42</time>
      </trkpt>
      <trkpt lat="44.40596" lon="4.3923">
        <ele>148.85504</ele>
        <time>2020-09-01 16:52:46</time>
      </trkpt>
      <trkpt lat="44.40596" lon="4.39249">
        <ele>153.62543</ele>
        <time>2020-09-01 16:52:51</time>
      </trkpt>
      <trkpt lat="44.40596" lon="4.39253">
        <ele>153.48218</ele>
        <time>2020-09-01 16:52:52</time>
      </trkpt>
      <trkpt lat="44.40601" lon="4.39267">
        <ele>152.38257</ele>
        <time>2020-09-01 16:52:56</time>
      </trkpt>
      <trkpt lat="44.40606" lon="4.39278">
        <ele>151.05139</ele>
        <time>2020-09-01 16:52:59</time>
      </trkpt>
      <trkpt lat="44.40624" lon="4.39316">
        <ele>155.1222</ele>
        <time>2020-09-01 16:53:11</time>
      </trkpt>
      <trkpt lat="44.40634" lon="4.39335">
        <ele>160.09644</ele>
        <time>2020-09-01 16:53:19</time>
      </trkpt>
      <trkpt lat="44.40636" lon="4.39342">
        <ele>158.93274</ele>
        <time>2020-09-01 16:53:21</time>
      </trkpt>
      <trkpt lat="44.40638" lon="4.39348">
        <ele>160.4867</ele>
        <time>2020-09-01 16:53:23</time>
      </trkpt>
      <trkpt lat="44.4064" lon="4.39358">
        <ele>158.21472</ele>
        <time>2020-09-01 16:53:26</time>
      </trkpt>
      <trkpt lat="44.40639" lon="4.39366">
        <ele>162.83588</ele>
        <time>2020-09-01 16:53:29</time>
      </trkpt>
      <trkpt lat="44.40638" lon="4.39368">
        <ele>163.96289</ele>
        <time>2020-09-01 16:53:30</time>
      </trkpt>
      <trkpt lat="44.40637" lon="4.39371">
        <ele>165.02527</ele>
        <time>2020-09-01 16:53:31</time>
      </trkpt>
      <trkpt lat="44.40629" lon="4.39389">
        <ele>161.44171</ele>
        <time>2020-09-01 16:53:36</time>
      </trkpt>
      <trkpt lat="44.40626" lon="4.39395">
        <ele>167.79181</ele>
        <time>2020-09-01 16:53:38</time>
      </trkpt>
      <trkpt lat="44.40617" lon="4.39415">
        <ele>162.85614</ele>
        <time>2020-09-01 16:53:45</time>
      </trkpt>
      <trkpt lat="44.40618" lon="4.39418">
        <ele>162.40503</ele>
        <time>2020-09-01 16:53:46</time>
      </trkpt>
      <trkpt lat="44.40621" lon="4.39422">
        <ele>162.2276</ele>
        <time>2020-09-01 16:53:47</time>
      </trkpt>
      <trkpt lat="44.40624" lon="4.39425">
        <ele>161.92285</ele>
        <time>2020-09-01 16:53:48</time>
      </trkpt>
      <trkpt lat="44.40632" lon="4.3943">
        <ele>160.7237</ele>
        <time>2020-09-01 16:53:50</time>
      </trkpt>
      <trkpt lat="44.40647" lon="4.39439">
        <ele>158.89685</ele>
        <time>2020-09-01 16:53:54</time>
      </trkpt>
      <trkpt lat="44.40651" lon="4.39442">
        <ele>158.15833</ele>
        <time>2020-09-01 16:53:55</time>
      </trkpt>
      <trkpt lat="44.40679" lon="4.3948">
        <ele>160.71997</ele>
        <time>2020-09-01 16:54:07</time>
      </trkpt>
      <trkpt lat="44.40704" lon="4.3952">
        <ele>157.72266</ele>
        <time>2020-09-01 16:54:19</time>
      </trkpt>
      <trkpt lat="44.4071" lon="4.39529">
        <ele>158.97247</ele>
        <time>2020-09-01 16:54:22</time>
      </trkpt>
      <trkpt lat="44.40712" lon="4.39538">
        <ele>158.85272</ele>
        <time>2020-09-01 16:54:24</time>
      </trkpt>
      <trkpt lat="44.40712" lon="4.39547">
        <ele>158.21155</ele>
        <time>2020-09-01 16:54:26</time>
      </trkpt>
      <trkpt lat="44.40712" lon="4.39551">
        <ele>160.75293</ele>
        <time>2020-09-01 16:54:27</time>
      </trkpt>
      <trkpt lat="44.4071" lon="4.39555">
        <ele>158.9195</ele>
        <time>2020-09-01 16:54:28</time>
      </trkpt>
      <trkpt lat="44.4071" lon="4.3956">
        <ele>157.85815</ele>
        <time>2020-09-01 16:54:30</time>
      </trkpt>
      <trkpt lat="44.40711" lon="4.39561">
        <ele>159.10889</ele>
        <time>2020-09-01 16:54:31</time>
      </trkpt>
      <trkpt lat="44.40713" lon="4.39561">
        <ele>159.40845</ele>
        <time>2020-09-01 16:54:32</time>
      </trkpt>
      <trkpt lat="44.40715" lon="4.39561">
        <ele>160.5871</ele>
        <time>2020-09-01 16:54:43</time>
      </trkpt>
      <trkpt lat="44.40716" lon="4.39562">
        <ele>161.05792</ele>
        <time>2020-09-01 16:54:44</time>
      </trkpt>
      <trkpt lat="44.40717" lon="4.39562">
        <ele>160.81476</ele>
        <time>2020-09-01 16:54:45</time>
      </trkpt>
      <trkpt lat="44.40718" lon="4.39562">
        <ele>156.79767</ele>
        <time>2020-09-01 16:54:48</time>
      </trkpt>
      <trkpt lat="44.40719" lon="4.39559">
        <ele>158.20612</ele>
        <time>2020-09-01 16:54:49</time>
      </trkpt>
      <trkpt lat="44.40718" lon="4.39556">
        <ele>158.22058</ele>
        <time>2020-09-01 16:54:50</time>
      </trkpt>
      <trkpt lat="44.40716" lon="4.39542">
        <ele>161.33466</ele>
        <time>2020-09-01 16:54:55</time>
      </trkpt>
      <trkpt lat="44.40716" lon="4.39531">
        <ele>163.37744</ele>
        <time>2020-09-01 16:54:59</time>
      </trkpt>
      <trkpt lat="44.40715" lon="4.39528">
        <ele>163.5976</ele>
        <time>2020-09-01 16:55:00</time>
      </trkpt>
      <trkpt lat="44.40713" lon="4.39524">
        <ele>164.25098</ele>
        <time>2020-09-01 16:55:01</time>
      </trkpt>
      <trkpt lat="44.4071" lon="4.39522">
        <ele>164.27771</ele>
        <time>2020-09-01 16:55:02</time>
      </trkpt>
      <trkpt lat="44.40708" lon="4.39519">
        <ele>164.28625</ele>
        <time>2020-09-01 16:55:03</time>
      </trkpt>
      <trkpt lat="44.40687" lon="4.39499">
        <ele>162.46051</ele>
        <time>2020-09-01 16:55:11</time>
      </trkpt>
      <trkpt lat="44.40677" lon="4.39486">
        <ele>164.44165</ele>
        <time>2020-09-01 16:55:16</time>
      </trkpt>
      <trkpt lat="44.4067" lon="4.39476">
        <ele>164.4516</ele>
        <time>2020-09-01 16:55:20</time>
      </trkpt>
      <trkpt lat="44.40664" lon="4.39471">
        <ele>163.77869</ele>
        <time>2020-09-01 16:55:26</time>
      </trkpt>
      <trkpt lat="44.40663" lon="4.39467">
        <ele>166.36493</ele>
        <time>2020-09-01 16:55:58</time>
      </trkpt>
      <trkpt lat="44.40663" lon="4.39467">
        <ele>166.34912</ele>
        <time>2020-09-01 16:56:43</time>
      </trkpt>
      <trkpt lat="44.40663" lon="4.39467">
        <ele>166.37372</ele>
        <time>2020-09-01 16:57:24</time>
      </trkpt>
      <trkpt lat="44.40663" lon="4.39467">
        <ele>166.3548</ele>
        <time>2020-09-01 16:58:08</time>
      </trkpt>
      <trkpt lat="44.40663" lon="4.39467">
        <ele>166.34442</ele>
        <time>2020-09-01 16:58:43</time>
      </trkpt>
      <trkpt lat="44.40663" lon="4.39467">
        <ele>166.133</ele>
        <time>2020-09-01 17:00:08</time>
      </trkpt>
      <trkpt lat="44.40663" lon="4.39467">
        <ele>166.22083</ele>
        <time>2020-09-01 17:00:13</time>
      </trkpt>
      <trkpt lat="44.40663" lon="4.39467">
        <ele>166.74683</ele>
        <time>2020-09-01 17:00:14</time>
      </trkpt>
      <trkpt lat="44.40662" lon="4.39467">
        <ele>167.2309</ele>
        <time>2020-09-01 17:00:15</time>
      </trkpt>
      <trkpt lat="44.40661" lon="4.39467">
        <ele>170.33344</ele>
        <time>2020-09-01 17:00:56</time>
      </trkpt>
      <trkpt lat="44.40661" lon="4.39467">
        <ele>170.6615</ele>
        <time>2020-09-01 17:01:34</time>
      </trkpt>
      <trkpt lat="44.40661" lon="4.39467">
        <ele>170.77405</ele>
        <time>2020-09-01 17:02:08</time>
      </trkpt>
      <trkpt lat="44.40661" lon="4.39467">
        <ele>171.30719</ele>
        <time>2020-09-01 17:03:05</time>
      </trkpt>
      <trkpt lat="44.40662" lon="4.39467">
        <ele>171.43896</ele>
        <time>2020-09-01 17:04:40</time>
      </trkpt>
      <trkpt lat="44.40661" lon="4.39467">
        <ele>170.93225</ele>
        <time>2020-09-01 17:04:45</time>
      </trkpt>
      <trkpt lat="44.40661" lon="4.39468">
        <ele>171.43628</ele>
        <time>2020-09-01 17:04:46</time>
      </trkpt>
      <trkpt lat="44.40663" lon="4.39466">
        <ele>169.9104</ele>
        <time>2020-09-01 17:05:08</time>
      </trkpt>
      <trkpt lat="44.40664" lon="4.39465">
        <ele>167.92963</ele>
        <time>2020-09-01 17:05:09</time>
      </trkpt>
      <trkpt lat="44.40663" lon="4.39464">
        <ele>169.4928</ele>
        <time>2020-09-01 17:05:12</time>
      </trkpt>
      <trkpt lat="44.40662" lon="4.39465">
        <ele>168.98242</ele>
        <time>2020-09-01 17:05:14</time>
      </trkpt>
      <trkpt lat="44.40663" lon="4.39466">
        <ele>169.47235</ele>
        <time>2020-09-01 17:05:15</time>
      </trkpt>
      <trkpt lat="44.40666" lon="4.39468">
        <ele>170.1524</ele>
        <time>2020-09-01 17:05:17</time>
      </trkpt>
      <trkpt lat="44.40669" lon="4.39471">
        <ele>172.06091</ele>
        <time>2020-09-01 17:05:19</time>
      </trkpt>
      <trkpt lat="44.4067" lon="4.39473">
        <ele>172.63391</ele>
        <time>2020-09-01 17:05:20</time>
      </trkpt>
      <trkpt lat="44.40674" lon="4.39481">
        <ele>171.2367</ele>
        <time>2020-09-01 17:05:23</time>
      </trkpt>
      <trkpt lat="44.40679" lon="4.39487">
        <ele>170.1524</ele>
        <time>2020-09-01 17:05:26</time>
      </trkpt>
      <trkpt lat="44.40697" lon="4.39508">
        <ele>166.46149</ele>
        <time>2020-09-01 17:05:35</time>
      </trkpt>
      <trkpt lat="44.40706" lon="4.39515">
        <ele>166.85571</ele>
        <time>2020-09-01 17:05:39</time>
      </trkpt>
      <trkpt lat="44.40711" lon="4.39521">
        <ele>166.5412</ele>
        <time>2020-09-01 17:05:42</time>
      </trkpt>
      <trkpt lat="44.40713" lon="4.39523">
        <ele>166.7237</ele>
        <time>2020-09-01 17:05:43</time>
      </trkpt>
      <trkpt lat="44.40713" lon="4.39526">
        <ele>163.6059</ele>
        <time>2020-09-01 17:05:44</time>
      </trkpt>
      <trkpt lat="44.40713" lon="4.3953">
        <ele>163.2984</ele>
        <time>2020-09-01 17:05:45</time>
      </trkpt>
      <trkpt lat="44.40714" lon="4.39544">
        <ele>163.53937</ele>
        <time>2020-09-01 17:05:48</time>
      </trkpt>
      <trkpt lat="44.40719" lon="4.39559">
        <ele>156.85803</ele>
        <time>2020-09-01 17:05:51</time>
      </trkpt>
      <trkpt lat="44.40722" lon="4.39564">
        <ele>158.67908</ele>
        <time>2020-09-01 17:05:52</time>
      </trkpt>
      <trkpt lat="44.40725" lon="4.39569">
        <ele>158.12921</ele>
        <time>2020-09-01 17:05:53</time>
      </trkpt>
      <trkpt lat="44.40731" lon="4.39576">
        <ele>158.11798</ele>
        <time>2020-09-01 17:05:55</time>
      </trkpt>
      <trkpt lat="44.40734" lon="4.3958">
        <ele>163.7439</ele>
        <time>2020-09-01 17:05:56</time>
      </trkpt>
      <trkpt lat="44.40753" lon="4.39601">
        <ele>159.94238</ele>
        <time>2020-09-01 17:06:02</time>
      </trkpt>
      <trkpt lat="44.408" lon="4.39682">
        <ele>158.99638</ele>
        <time>2020-09-01 17:06:16</time>
      </trkpt>
      <trkpt lat="44.40812" lon="4.39717">
        <ele>158.25952</ele>
        <time>2020-09-01 17:06:21</time>
      </trkpt>
      <trkpt lat="44.40822" lon="4.39744">
        <ele>157.16766</ele>
        <time>2020-09-01 17:06:25</time>
      </trkpt>
      <trkpt lat="44.40853" lon="4.39821">
        <ele>156.63568</ele>
        <time>2020-09-01 17:06:37</time>
      </trkpt>
      <trkpt lat="44.40863" lon="4.39871">
        <ele>153.67133</ele>
        <time>2020-09-01 17:06:44</time>
      </trkpt>
      <trkpt lat="44.40897" lon="4.40093">
        <ele>157.17853</ele>
        <time>2020-09-01 17:07:14</time>
      </trkpt>
      <trkpt lat="44.40918" lon="4.40204">
        <ele>155.21716</ele>
        <time>2020-09-01 17:07:31</time>
      </trkpt>
      <trkpt lat="44.4092" lon="4.40208">
        <ele>154.29022</ele>
        <time>2020-09-01 17:07:32</time>
      </trkpt>
      <trkpt lat="44.40923" lon="4.40212">
        <ele>154.54565</ele>
        <time>2020-09-01 17:07:33</time>
      </trkpt>
      <trkpt lat="44.40927" lon="4.40214">
        <ele>154.47192</ele>
        <time>2020-09-01 17:07:34</time>
      </trkpt>
      <trkpt lat="44.4095" lon="4.4022">
        <ele>153.51599</ele>
        <time>2020-09-01 17:07:40</time>
      </trkpt>
      <trkpt lat="44.40981" lon="4.40223">
        <ele>154.26843</ele>
        <time>2020-09-01 17:07:48</time>
      </trkpt>
      <trkpt lat="44.40985" lon="4.40221">
        <ele>154.3952</ele>
        <time>2020-09-01 17:07:49</time>
      </trkpt>
      <trkpt lat="44.40991" lon="4.40208">
        <ele>154.06549</ele>
        <time>2020-09-01 17:07:52</time>
      </trkpt>
      <trkpt lat="44.40991" lon="4.40203">
        <ele>153.43555</ele>
        <time>2020-09-01 17:07:53</time>
      </trkpt>
      <trkpt lat="44.40991" lon="4.4019">
        <ele>154.38074</ele>
        <time>2020-09-01 17:07:56</time>
      </trkpt>
      <trkpt lat="44.40991" lon="4.40186">
        <ele>153.34686</ele>
        <time>2020-09-01 17:07:58</time>
      </trkpt>
      <trkpt lat="44.40991" lon="4.40186">
        <ele>152.68188</ele>
        <time>2020-09-01 17:08:05</time>
      </trkpt>
    </trkseg>
  </trk>
</gpx>